﻿<?xml version="1.0" encoding="utf-8"?><gpx creator="Garmin Desktop App" version="1.1" xsi:schemaLocation="http://www.topografix.com/GPX/1/1 http://www.topografix.com/GPX/1/1/gpx.xsd http://www.garmin.com/xmlschemas/WaypointExtension/v1 http://www8.garmin.com/xmlschemas/WaypointExtensionv1.xsd http://www.garmin.com/xmlschemas/TrackPointExtension/v1 http://www.garmin.com/xmlschemas/TrackPointExtensionv1.xsd http://www.garmin.com/xmlschemas/GpxExtensions/v3 http://www8.garmin.com/xmlschemas/GpxExtensionsv3.xsd http://www.garmin.com/xmlschemas/ActivityExtension/v1 http://www8.garmin.com/xmlschemas/ActivityExtensionv1.xsd http://www.garmin.com/xmlschemas/AdventuresExtensions/v1 http://www8.garmin.com/xmlschemas/AdventuresExtensionv1.xsd http://www.garmin.com/xmlschemas/PressureExtension/v1 http://www.garmin.com/xmlschemas/PressureExtensionv1.xsd http://www.garmin.com/xmlschemas/TripExtensions/v1 http://www.garmin.com/xmlschemas/TripExtensionsv1.xsd http://www.garmin.com/xmlschemas/TripMetaDataExtensions/v1 http://www.garmin.com/xmlschemas/TripMetaDataExtensionsv1.xsd http://www.garmin.com/xmlschemas/ViaPointTransportationModeExtensions/v1 http://www.garmin.com/xmlschemas/ViaPointTransportationModeExtensionsv1.xsd http://www.garmin.com/xmlschemas/CreationTimeExtension/v1 http://www.garmin.com/xmlschemas/CreationTimeExtensionsv1.xsd http://www.garmin.com/xmlschemas/AccelerationExtension/v1 http://www.garmin.com/xmlschemas/AccelerationExtensionv1.xsd http://www.garmin.com/xmlschemas/PowerExtension/v1 http://www.garmin.com/xmlschemas/PowerExtensionv1.xsd http://www.garmin.com/xmlschemas/VideoExtension/v1 http://www.garmin.com/xmlschemas/VideoExtensionv1.xsd" xmlns="http://www.topografix.com/GPX/1/1" xmlns:xsi="http://www.w3.org/2001/XMLSchema-instance" xmlns:wptx1="http://www.garmin.com/xmlschemas/WaypointExtension/v1" xmlns:gpxtrx="http://www.garmin.com/xmlschemas/GpxExtensions/v3" xmlns:gpxtpx="http://www.garmin.com/xmlschemas/TrackPointExtension/v1" xmlns:gpxx="http://www.garmin.com/xmlschemas/GpxExtensions/v3" xmlns:trp="http://www.garmin.com/xmlschemas/TripExtensions/v1" xmlns:adv="http://www.garmin.com/xmlschemas/AdventuresExtensions/v1" xmlns:prs="http://www.garmin.com/xmlschemas/PressureExtension/v1" xmlns:tmd="http://www.garmin.com/xmlschemas/TripMetaDataExtensions/v1" xmlns:vptm="http://www.garmin.com/xmlschemas/ViaPointTransportationModeExtensions/v1" xmlns:ctx="http://www.garmin.com/xmlschemas/CreationTimeExtension/v1" xmlns:gpxacc="http://www.garmin.com/xmlschemas/AccelerationExtension/v1" xmlns:gpxpx="http://www.garmin.com/xmlschemas/PowerExtension/v1" xmlns:vidx1="http://www.garmin.com/xmlschemas/VideoExtension/v1">

  <metadata>
    <link href="http://www.garmin.com">
      <text>Garmin International</text>
    </link>
    <time>2019-02-25T12:28:07Z</time>
    <bounds maxlat="45.768544664606452" maxlon="8.03142067976296" minlat="45.746506126597524" minlon="8.013584911823273" />
  </metadata>

  <trk>
    <name>monte-bo2019-02-24</name>
    <extensions>
      <gpxx:TrackExtension>
        <gpxx:DisplayColor>Yellow</gpxx:DisplayColor>
      </gpxx:TrackExtension>
      <gpxtrkx:TrackStatsExtension xmlns:gpxtrkx="http://www.garmin.com/xmlschemas/TrackStatsExtension/v1">
        <gpxtrkx:Distance>13428</gpxtrkx:Distance>
        <gpxtrkx:TotalElapsedTime>24831</gpxtrkx:TotalElapsedTime>
        <gpxtrkx:MovingTime>17069</gpxtrkx:MovingTime>
        <gpxtrkx:StoppedTime>7752</gpxtrkx:StoppedTime>
        <gpxtrkx:MovingSpeed>1</gpxtrkx:MovingSpeed>
        <gpxtrkx:MaxSpeed>2</gpxtrkx:MaxSpeed>
        <gpxtrkx:MaxElevation>2076</gpxtrkx:MaxElevation>
        <gpxtrkx:MinElevation>899</gpxtrkx:MinElevation>
        <gpxtrkx:Ascent>1367</gpxtrkx:Ascent>
        <gpxtrkx:Descent>1379</gpxtrkx:Descent>
        <gpxtrkx:AvgAscentRate>0</gpxtrkx:AvgAscentRate>
        <gpxtrkx:MaxAscentRate>1</gpxtrkx:MaxAscentRate>
        <gpxtrkx:AvgDescentRate>0</gpxtrkx:AvgDescentRate>
        <gpxtrkx:MaxDescentRate>-1</gpxtrkx:MaxDescentRate>
      </gpxtrkx:TrackStatsExtension>
    </extensions>
    <trkseg>
      <trkpt lat="45.768190864473581" lon="8.014570455998182">
        <ele>941.75</ele>
        <time>2019-02-24T07:55:45Z</time>
      </trkpt>
      <trkpt lat="45.768129173666239" lon="8.014441458508372">
        <ele>941.26999999999998</ele>
        <time>2019-02-24T07:55:57Z</time>
      </trkpt>
      <trkpt lat="45.768112577497959" lon="8.014349592849612">
        <ele>940.30999999999995</ele>
        <time>2019-02-24T07:56:07Z</time>
      </trkpt>
      <trkpt lat="45.768093969672918" lon="8.014283459633589">
        <ele>940.78999999999996</ele>
        <time>2019-02-24T07:56:19Z</time>
      </trkpt>
      <trkpt lat="45.768098579719663" lon="8.014290248975158">
        <ele>940.30999999999995</ele>
        <time>2019-02-24T07:56:30Z</time>
      </trkpt>
      <trkpt lat="45.768055999651551" lon="8.014293182641268">
        <ele>937.89999999999998</ele>
        <time>2019-02-24T07:56:41Z</time>
      </trkpt>
      <trkpt lat="45.768076702952385" lon="8.014273317530751">
        <ele>941.26999999999998</ele>
        <time>2019-02-24T07:56:53Z</time>
      </trkpt>
      <trkpt lat="45.768082570284605" lon="8.014263343065977">
        <ele>941.75</ele>
        <time>2019-02-24T07:56:54Z</time>
      </trkpt>
      <trkpt lat="45.76809648424387" lon="8.014284297823906">
        <ele>940.78999999999996</ele>
        <time>2019-02-24T07:57:03Z</time>
      </trkpt>
      <trkpt lat="45.768098831176758" lon="8.014255547896028">
        <ele>941.26999999999998</ele>
        <time>2019-02-24T07:57:13Z</time>
      </trkpt>
      <trkpt lat="45.768107548356056" lon="8.014286728575826">
        <ele>940.30999999999995</ele>
        <time>2019-02-24T07:57:20Z</time>
      </trkpt>
      <trkpt lat="45.768083492293954" lon="8.014296619221568">
        <ele>940.78999999999996</ele>
        <time>2019-02-24T07:57:48Z</time>
      </trkpt>
      <trkpt lat="45.768066477030516" lon="8.01432017236948">
        <ele>940.78999999999996</ele>
        <time>2019-02-24T07:58:14Z</time>
      </trkpt>
      <trkpt lat="45.768105117604136" lon="8.014322016388178">
        <ele>942.23000000000002</ele>
        <time>2019-02-24T07:58:49Z</time>
      </trkpt>
      <trkpt lat="45.76804812066257" lon="8.01431086845696">
        <ele>940.30999999999995</ele>
        <time>2019-02-24T07:58:59Z</time>
      </trkpt>
      <trkpt lat="45.768047282472253" lon="8.014275915920734">
        <ele>939.35000000000002</ele>
        <time>2019-02-24T07:59:01Z</time>
      </trkpt>
      <trkpt lat="45.768104363232851" lon="8.014248004183173">
        <ele>940.78999999999996</ele>
        <time>2019-02-24T07:59:08Z</time>
      </trkpt>
      <trkpt lat="45.768081899732351" lon="8.014230653643608">
        <ele>937.89999999999998</ele>
        <time>2019-02-24T07:59:14Z</time>
      </trkpt>
      <trkpt lat="45.768038062378764" lon="8.014211961999536">
        <ele>937.41999999999996</ele>
        <time>2019-02-24T07:59:22Z</time>
      </trkpt>
      <trkpt lat="45.768015682697296" lon="8.01419897004962">
        <ele>936.94000000000005</ele>
        <time>2019-02-24T07:59:26Z</time>
      </trkpt>
      <trkpt lat="45.767997913062572" lon="8.014236185699701">
        <ele>936.46000000000004</ele>
        <time>2019-02-24T07:59:30Z</time>
      </trkpt>
      <trkpt lat="45.767984418198466" lon="8.014327045530081">
        <ele>936.94000000000005</ele>
        <time>2019-02-24T07:59:38Z</time>
      </trkpt>
      <trkpt lat="45.768004199489951" lon="8.014311203733087">
        <ele>935.01999999999998</ele>
        <time>2019-02-24T07:59:47Z</time>
      </trkpt>
      <trkpt lat="45.768003277480602" lon="8.014358896762133">
        <ele>934.05999999999995</ele>
        <time>2019-02-24T07:59:56Z</time>
      </trkpt>
      <trkpt lat="45.767994560301304" lon="8.014377253130078">
        <ele>937.89999999999998</ele>
        <time>2019-02-24T08:00:02Z</time>
      </trkpt>
      <trkpt lat="45.768000930547714" lon="8.014433160424233">
        <ele>939.35000000000002</ele>
        <time>2019-02-24T08:00:11Z</time>
      </trkpt>
      <trkpt lat="45.767998835071921" lon="8.014430478215218">
        <ele>940.78999999999996</ele>
        <time>2019-02-24T08:00:24Z</time>
      </trkpt>
      <trkpt lat="45.767998667433858" lon="8.014409272000194">
        <ele>943.19000000000005</ele>
        <time>2019-02-24T08:00:30Z</time>
      </trkpt>
      <trkpt lat="45.767995733767748" lon="8.01437926478684">
        <ele>946.07000000000005</ele>
        <time>2019-02-24T08:00:44Z</time>
      </trkpt>
      <trkpt lat="45.768015934154391" lon="8.014466101303697">
        <ele>947.51999999999998</ele>
        <time>2019-02-24T08:00:56Z</time>
      </trkpt>
      <trkpt lat="45.768019538372755" lon="8.014506418257952">
        <ele>947.51999999999998</ele>
        <time>2019-02-24T08:01:05Z</time>
      </trkpt>
      <trkpt lat="45.768021214753389" lon="8.01456106826663">
        <ele>948.96000000000004</ele>
        <time>2019-02-24T08:01:13Z</time>
      </trkpt>
      <trkpt lat="45.768029680475593" lon="8.014579424634576">
        <ele>948.96000000000004</ele>
        <time>2019-02-24T08:01:23Z</time>
      </trkpt>
      <trkpt lat="45.768046025186777" lon="8.014675313606858">
        <ele>947.51999999999998</ele>
        <time>2019-02-24T08:01:33Z</time>
      </trkpt>
      <trkpt lat="45.768017778173089" lon="8.014674643054605">
        <ele>945.11000000000001</ele>
        <time>2019-02-24T08:01:38Z</time>
      </trkpt>
      <trkpt lat="45.767974779009819" lon="8.014660812914372">
        <ele>943.66999999999996</ele>
        <time>2019-02-24T08:01:47Z</time>
      </trkpt>
      <trkpt lat="45.767949214205146" lon="8.014638433232904">
        <ele>944.14999999999998</ele>
        <time>2019-02-24T08:01:55Z</time>
      </trkpt>
      <trkpt lat="45.767944687977433" lon="8.014622004702687">
        <ele>946.07000000000005</ele>
        <time>2019-02-24T08:02:04Z</time>
      </trkpt>
      <trkpt lat="45.76794502325356" lon="8.014573389664292">
        <ele>947.51999999999998</ele>
        <time>2019-02-24T08:02:23Z</time>
      </trkpt>
      <trkpt lat="45.767927505075932" lon="8.014568276703358">
        <ele>950.88</ele>
        <time>2019-02-24T08:02:38Z</time>
      </trkpt>
      <trkpt lat="45.767927169799805" lon="8.014544136822224">
        <ele>953.76999999999998</ele>
        <time>2019-02-24T08:02:50Z</time>
      </trkpt>
      <trkpt lat="45.76793965883553" lon="8.014478422701359">
        <ele>955.69000000000005</ele>
        <time>2019-02-24T08:03:10Z</time>
      </trkpt>
      <trkpt lat="45.767914177849889" lon="8.01445503719151">
        <ele>956.64999999999998</ele>
        <time>2019-02-24T08:03:34Z</time>
      </trkpt>
      <trkpt lat="45.767921218648553" lon="8.014451349154115">
        <ele>959.04999999999995</ele>
        <time>2019-02-24T08:03:43Z</time>
      </trkpt>
      <trkpt lat="45.767931528389454" lon="8.014449505135417">
        <ele>960.98000000000002</ele>
        <time>2019-02-24T08:03:48Z</time>
      </trkpt>
      <trkpt lat="45.767929097637534" lon="8.014456126838923">
        <ele>963.38</ele>
        <time>2019-02-24T08:03:57Z</time>
      </trkpt>
      <trkpt lat="45.767934545874596" lon="8.014491917565465">
        <ele>964.34000000000003</ele>
        <time>2019-02-24T08:04:06Z</time>
      </trkpt>
      <trkpt lat="45.7679498847574" lon="8.014510609209538">
        <ele>962.41999999999996</ele>
        <time>2019-02-24T08:04:11Z</time>
      </trkpt>
      <trkpt lat="45.76794502325356" lon="8.014494013041258">
        <ele>964.82000000000005</ele>
        <time>2019-02-24T08:04:21Z</time>
      </trkpt>
      <trkpt lat="45.767935384064913" lon="8.014498958364129">
        <ele>969.14999999999998</ele>
        <time>2019-02-24T08:04:34Z</time>
      </trkpt>
      <trkpt lat="45.767944687977433" lon="8.014493007212877">
        <ele>970.11000000000001</ele>
        <time>2019-02-24T08:04:36Z</time>
      </trkpt>
      <trkpt lat="45.767950303852558" lon="8.014494683593512">
        <ele>972.02999999999997</ele>
        <time>2019-02-24T08:04:39Z</time>
      </trkpt>
      <trkpt lat="45.767947705462575" lon="8.014434250071645">
        <ele>975.88</ele>
        <time>2019-02-24T08:04:56Z</time>
      </trkpt>
      <trkpt lat="45.767945861443877" lon="8.0144296400249">
        <ele>975.88</ele>
        <time>2019-02-24T08:04:57Z</time>
      </trkpt>
      <trkpt lat="45.767963547259569" lon="8.014469034969807">
        <ele>973.47000000000003</ele>
        <time>2019-02-24T08:05:15Z</time>
      </trkpt>
      <trkpt lat="45.767949214205146" lon="8.014435758814216">
        <ele>976.84000000000003</ele>
        <time>2019-02-24T08:05:36Z</time>
      </trkpt>
      <trkpt lat="45.76792842708528" lon="8.014428047463298">
        <ele>979.72000000000003</ele>
        <time>2019-02-24T08:05:48Z</time>
      </trkpt>
      <trkpt lat="45.767930019646883" lon="8.014399046078324">
        <ele>979.24000000000001</ele>
        <time>2019-02-24T08:06:07Z</time>
      </trkpt>
      <trkpt lat="45.7679342944175" lon="8.014386557042599">
        <ele>977.32000000000005</ele>
        <time>2019-02-24T08:06:14Z</time>
      </trkpt>
      <trkpt lat="45.767968911677599" lon="8.014469118788838">
        <ele>975.88</ele>
        <time>2019-02-24T08:06:27Z</time>
      </trkpt>
      <trkpt lat="45.768004534766078" lon="8.014503652229905">
        <ele>973.95000000000005</ele>
        <time>2019-02-24T08:06:38Z</time>
      </trkpt>
      <trkpt lat="45.768022304400802" lon="8.014536257833242">
        <ele>974.42999999999995</ele>
        <time>2019-02-24T08:06:51Z</time>
      </trkpt>
      <trkpt lat="45.768034374341369" lon="8.014612533152103">
        <ele>971.54999999999995</ele>
        <time>2019-02-24T08:07:00Z</time>
      </trkpt>
      <trkpt lat="45.768021633848548" lon="8.014639941975474">
        <ele>969.63</ele>
        <time>2019-02-24T08:07:08Z</time>
      </trkpt>
      <trkpt lat="45.768019203096628" lon="8.014660812914372">
        <ele>966.25999999999999</ele>
        <time>2019-02-24T08:07:17Z</time>
      </trkpt>
      <trkpt lat="45.768021298572421" lon="8.014665171504021">
        <ele>966.25999999999999</ele>
        <time>2019-02-24T08:07:18Z</time>
      </trkpt>
      <trkpt lat="45.768025992438197" lon="8.014704650267959">
        <ele>964.82000000000005</ele>
        <time>2019-02-24T08:07:24Z</time>
      </trkpt>
      <trkpt lat="45.767956841737032" lon="8.014701129868627">
        <ele>964.34000000000003</ele>
        <time>2019-02-24T08:07:33Z</time>
      </trkpt>
      <trkpt lat="45.767925241962075" lon="8.014730047434568">
        <ele>965.29999999999995</ele>
        <time>2019-02-24T08:07:43Z</time>
      </trkpt>
      <trkpt lat="45.767937144264579" lon="8.01478922367096">
        <ele>963.38</ele>
        <time>2019-02-24T08:07:52Z</time>
      </trkpt>
      <trkpt lat="45.767947286367416" lon="8.01483515650034">
        <ele>962.41999999999996</ele>
        <time>2019-02-24T08:08:02Z</time>
      </trkpt>
      <trkpt lat="45.767878722399473" lon="8.014823840931058">
        <ele>961.94000000000005</ele>
        <time>2019-02-24T08:08:12Z</time>
      </trkpt>
      <trkpt lat="45.767831616103649" lon="8.014758126810193">
        <ele>961.94000000000005</ele>
        <time>2019-02-24T08:08:24Z</time>
      </trkpt>
      <trkpt lat="45.767819797620177" lon="8.014749828726053">
        <ele>962.89999999999998</ele>
        <time>2019-02-24T08:08:33Z</time>
      </trkpt>
      <trkpt lat="45.76784435659647" lon="8.01480389200151">
        <ele>965.77999999999997</ele>
        <time>2019-02-24T08:08:42Z</time>
      </trkpt>
      <trkpt lat="45.767859779298306" lon="8.01484982483089">
        <ele>966.74000000000001</ele>
        <time>2019-02-24T08:08:51Z</time>
      </trkpt>
      <trkpt lat="45.76785558834672" lon="8.014891147613525">
        <ele>966.74000000000001</ele>
        <time>2019-02-24T08:09:01Z</time>
      </trkpt>
      <trkpt lat="45.767865478992462" lon="8.014925178140402">
        <ele>967.22000000000003</ele>
        <time>2019-02-24T08:09:09Z</time>
      </trkpt>
      <trkpt lat="45.767868077382445" lon="8.01497639156878">
        <ele>967.70000000000005</ele>
        <time>2019-02-24T08:09:17Z</time>
      </trkpt>
      <trkpt lat="45.767874699085951" lon="8.015026180073619">
        <ele>969.63</ele>
        <time>2019-02-24T08:09:28Z</time>
      </trkpt>
      <trkpt lat="45.767902107909322" lon="8.015067586675286">
        <ele>972.02999999999997</ele>
        <time>2019-02-24T08:09:38Z</time>
      </trkpt>
      <trkpt lat="45.767911747097969" lon="8.015080410987139">
        <ele>972.99000000000001</ele>
        <time>2019-02-24T08:09:41Z</time>
      </trkpt>
      <trkpt lat="45.767922392114997" lon="8.015140425413847">
        <ele>974.42999999999995</ele>
        <time>2019-02-24T08:09:49Z</time>
      </trkpt>
      <trkpt lat="45.767910657450557" lon="8.015204882249236">
        <ele>974.90999999999997</ele>
        <time>2019-02-24T08:09:59Z</time>
      </trkpt>
      <trkpt lat="45.767852235585451" lon="8.015163308009505">
        <ele>977.32000000000005</ele>
        <time>2019-02-24T08:10:09Z</time>
      </trkpt>
      <trkpt lat="45.767824156209826" lon="8.015145789831877">
        <ele>979.24000000000001</ele>
        <time>2019-02-24T08:10:18Z</time>
      </trkpt>
      <trkpt lat="45.767840081825852" lon="8.015194404870272">
        <ele>980.67999999999995</ele>
        <time>2019-02-24T08:10:28Z</time>
      </trkpt>
      <trkpt lat="45.767853576689959" lon="8.015270344913006">
        <ele>983.57000000000005</ele>
        <time>2019-02-24T08:10:40Z</time>
      </trkpt>
      <trkpt lat="45.767851732671261" lon="8.01531108096242">
        <ele>984.04999999999995</ele>
        <time>2019-02-24T08:10:50Z</time>
      </trkpt>
      <trkpt lat="45.767850140109658" lon="8.01540395244956">
        <ele>984.04999999999995</ele>
        <time>2019-02-24T08:11:01Z</time>
      </trkpt>
      <trkpt lat="45.767756681889296" lon="8.015333795920014">
        <ele>982.12</ele>
        <time>2019-02-24T08:11:14Z</time>
      </trkpt>
      <trkpt lat="45.767718460410833" lon="8.015283169224858">
        <ele>983.57000000000005</ele>
        <time>2019-02-24T08:11:24Z</time>
      </trkpt>
      <trkpt lat="45.767671689391136" lon="8.015276379883289">
        <ele>985.49000000000001</ele>
        <time>2019-02-24T08:11:35Z</time>
      </trkpt>
      <trkpt lat="45.767628354951739" lon="8.015263555571437">
        <ele>987.40999999999997</ele>
        <time>2019-02-24T08:11:45Z</time>
      </trkpt>
      <trkpt lat="45.767558449879289" lon="8.015181915834546">
        <ele>988.85000000000002</ele>
        <time>2019-02-24T08:11:58Z</time>
      </trkpt>
      <trkpt lat="45.76751452870667" lon="8.015170432627201">
        <ele>989.33000000000004</ele>
        <time>2019-02-24T08:12:07Z</time>
      </trkpt>
      <trkpt lat="45.767466416582465" lon="8.015106478706002">
        <ele>989.33000000000004</ele>
        <time>2019-02-24T08:12:16Z</time>
      </trkpt>
      <trkpt lat="45.767381926998496" lon="8.015033388510346">
        <ele>989.33000000000004</ele>
        <time>2019-02-24T08:12:28Z</time>
      </trkpt>
      <trkpt lat="45.767350494861603" lon="8.014986617490649">
        <ele>990.29999999999995</ele>
        <time>2019-02-24T08:12:38Z</time>
      </trkpt>
      <trkpt lat="45.767308585345745" lon="8.014907659962773">
        <ele>991.74000000000001</ele>
        <time>2019-02-24T08:12:49Z</time>
      </trkpt>
      <trkpt lat="45.767287211492658" lon="8.014879412949085">
        <ele>993.17999999999995</ele>
        <time>2019-02-24T08:12:53Z</time>
      </trkpt>
      <trkpt lat="45.76724580489099" lon="8.014801042154431">
        <ele>994.62</ele>
        <time>2019-02-24T08:13:02Z</time>
      </trkpt>
      <trkpt lat="45.767240524291992" lon="8.014777405187488">
        <ele>996.05999999999995</ele>
        <time>2019-02-24T08:13:05Z</time>
      </trkpt>
      <trkpt lat="45.767200123518705" lon="8.014697944745421">
        <ele>998.47000000000003</ele>
        <time>2019-02-24T08:13:16Z</time>
      </trkpt>
      <trkpt lat="45.767142958939075" lon="8.014689814299345">
        <ele>1000.87</ele>
        <time>2019-02-24T08:13:26Z</time>
      </trkpt>
      <trkpt lat="45.767120243981481" lon="8.014693250879645">
        <ele>1004.23</ele>
        <time>2019-02-24T08:13:36Z</time>
      </trkpt>
      <trkpt lat="45.767086884006858" lon="8.014722084626555">
        <ele>1003.75</ele>
        <time>2019-02-24T08:13:45Z</time>
      </trkpt>
      <trkpt lat="45.767082776874304" lon="8.014613538980484">
        <ele>1001.35</ele>
        <time>2019-02-24T08:13:56Z</time>
      </trkpt>
      <trkpt lat="45.767015051096678" lon="8.014626950025559">
        <ele>1002.79</ele>
        <time>2019-02-24T08:14:08Z</time>
      </trkpt>
      <trkpt lat="45.766997700557113" lon="8.014642121270299">
        <ele>1004.23</ele>
        <time>2019-02-24T08:14:16Z</time>
      </trkpt>
      <trkpt lat="45.766927041113377" lon="8.014666931703687">
        <ele>1005.6799999999999</ele>
        <time>2019-02-24T08:14:26Z</time>
      </trkpt>
      <trkpt lat="45.766900386661291" lon="8.014669110998511">
        <ele>1008.08</ele>
        <time>2019-02-24T08:14:33Z</time>
      </trkpt>
      <trkpt lat="45.766840036958456" lon="8.014695094898343">
        <ele>1010.96</ele>
        <time>2019-02-24T08:14:43Z</time>
      </trkpt>
      <trkpt lat="45.766821093857288" lon="8.014702554792166">
        <ele>1012.41</ele>
        <time>2019-02-24T08:14:46Z</time>
      </trkpt>
      <trkpt lat="45.766771137714386" lon="8.014688137918711">
        <ele>1011.9299999999999</ele>
        <time>2019-02-24T08:14:55Z</time>
      </trkpt>
      <trkpt lat="45.766723193228245" lon="8.014651844277978">
        <ele>1014.33</ele>
        <time>2019-02-24T08:15:04Z</time>
      </trkpt>
      <trkpt lat="45.766684217378497" lon="8.014676738530397">
        <ele>1016.73</ele>
        <time>2019-02-24T08:15:13Z</time>
      </trkpt>
      <trkpt lat="45.766640296205878" lon="8.014665925875306">
        <ele>1017.6900000000001</ele>
        <time>2019-02-24T08:15:25Z</time>
      </trkpt>
      <trkpt lat="45.766602074727416" lon="8.014624267816544">
        <ele>1019.13</ele>
        <time>2019-02-24T08:15:34Z</time>
      </trkpt>
      <trkpt lat="45.766584137454629" lon="8.014575568959117">
        <ele>1020.58</ele>
        <time>2019-02-24T08:15:43Z</time>
      </trkpt>
      <trkpt lat="45.766547424718738" lon="8.014581855386496">
        <ele>1022.02</ele>
        <time>2019-02-24T08:15:54Z</time>
      </trkpt>
      <trkpt lat="45.766549352556467" lon="8.014546148478985">
        <ele>1022.98</ele>
        <time>2019-02-24T08:16:04Z</time>
      </trkpt>
      <trkpt lat="45.766558069735765" lon="8.014509519562125">
        <ele>1024.4200000000001</ele>
        <time>2019-02-24T08:16:20Z</time>
      </trkpt>
      <trkpt lat="45.766541389748454" lon="8.014516392722726">
        <ele>1023.46</ele>
        <time>2019-02-24T08:16:28Z</time>
      </trkpt>
      <trkpt lat="45.766546670347452" lon="8.014515889808536">
        <ele>1022.5</ele>
        <time>2019-02-24T08:16:46Z</time>
      </trkpt>
      <trkpt lat="45.766535857692361" lon="8.014543633908033">
        <ele>1022.98</ele>
        <time>2019-02-24T08:17:01Z</time>
      </trkpt>
      <trkpt lat="45.766535354778171" lon="8.014513207599521">
        <ele>1024.9000000000001</ele>
        <time>2019-02-24T08:17:26Z</time>
      </trkpt>
      <trkpt lat="45.76653141528368" lon="8.014512369409204">
        <ele>1024.9000000000001</ele>
        <time>2019-02-24T08:17:39Z</time>
      </trkpt>
      <trkpt lat="45.76653778553009" lon="8.014532066881657">
        <ele>1026.3399999999999</ele>
        <time>2019-02-24T08:17:55Z</time>
      </trkpt>
      <trkpt lat="45.766534181311727" lon="8.014473980292678">
        <ele>1023.46</ele>
        <time>2019-02-24T08:18:10Z</time>
      </trkpt>
      <trkpt lat="45.766540970653296" lon="8.014472555369139">
        <ele>1024.9000000000001</ele>
        <time>2019-02-24T08:18:28Z</time>
      </trkpt>
      <trkpt lat="45.766526721417904" lon="8.01450633443892">
        <ele>1025.3800000000001</ele>
        <time>2019-02-24T08:18:39Z</time>
      </trkpt>
      <trkpt lat="45.766547676175833" lon="8.014525780454278">
        <ele>1026.8299999999999</ele>
        <time>2019-02-24T08:18:58Z</time>
      </trkpt>
      <trkpt lat="45.76655488461256" lon="8.014514548704028">
        <ele>1027.79</ele>
        <time>2019-02-24T08:19:14Z</time>
      </trkpt>
      <trkpt lat="45.766540467739105" lon="8.014512956142426">
        <ele>1029.23</ele>
        <time>2019-02-24T08:19:25Z</time>
      </trkpt>
      <trkpt lat="45.766536695882678" lon="8.014490827918053">
        <ele>1026.3399999999999</ele>
        <time>2019-02-24T08:19:39Z</time>
      </trkpt>
      <trkpt lat="45.766521105542779" lon="8.014507172629237">
        <ele>1024.9000000000001</ele>
        <time>2019-02-24T08:19:51Z</time>
      </trkpt>
      <trkpt lat="45.766542730852962" lon="8.014503065496683">
        <ele>1025.3800000000001</ele>
        <time>2019-02-24T08:20:10Z</time>
      </trkpt>
      <trkpt lat="45.766538036987185" lon="8.01451706327498">
        <ele>1025.3800000000001</ele>
        <time>2019-02-24T08:20:25Z</time>
      </trkpt>
      <trkpt lat="45.766540300101042" lon="8.014501892030239">
        <ele>1024.9000000000001</ele>
        <time>2019-02-24T08:20:35Z</time>
      </trkpt>
      <trkpt lat="45.766531582921743" lon="8.014502311125398">
        <ele>1026.3399999999999</ele>
        <time>2019-02-24T08:20:55Z</time>
      </trkpt>
      <trkpt lat="45.766525715589523" lon="8.014489570632577">
        <ele>1025.8599999999999</ele>
        <time>2019-02-24T08:21:12Z</time>
      </trkpt>
      <trkpt lat="45.766507694497705" lon="8.01446626894176">
        <ele>1024.9000000000001</ele>
        <time>2019-02-24T08:21:22Z</time>
      </trkpt>
      <trkpt lat="45.766463940963149" lon="8.014421174302697">
        <ele>1025.3800000000001</ele>
        <time>2019-02-24T08:21:32Z</time>
      </trkpt>
      <trkpt lat="45.76640828512609" lon="8.014394855126739">
        <ele>1025.3800000000001</ele>
        <time>2019-02-24T08:21:43Z</time>
      </trkpt>
      <trkpt lat="45.766358161345124" lon="8.014320507645607">
        <ele>1026.3399999999999</ele>
        <time>2019-02-24T08:21:53Z</time>
      </trkpt>
      <trkpt lat="45.766317760571837" lon="8.014253536239266">
        <ele>1027.79</ele>
        <time>2019-02-24T08:22:02Z</time>
      </trkpt>
      <trkpt lat="45.766252297908068" lon="8.014214895665646">
        <ele>1028.75</ele>
        <time>2019-02-24T08:22:12Z</time>
      </trkpt>
      <trkpt lat="45.766212232410908" lon="8.014236856251955">
        <ele>1029.71</ele>
        <time>2019-02-24T08:22:23Z</time>
      </trkpt>
      <trkpt lat="45.766152553260326" lon="8.014176758006215">
        <ele>1031.6300000000001</ele>
        <time>2019-02-24T08:22:36Z</time>
      </trkpt>
      <trkpt lat="45.766113577410579" lon="8.014172902330756">
        <ele>1033.0699999999999</ele>
        <time>2019-02-24T08:22:45Z</time>
      </trkpt>
      <trkpt lat="45.766048701480031" lon="8.014158820733428">
        <ele>1035</ele>
        <time>2019-02-24T08:22:58Z</time>
      </trkpt>
      <trkpt lat="45.765995727851987" lon="8.014155048877001">
        <ele>1037.4000000000001</ele>
        <time>2019-02-24T08:23:07Z</time>
      </trkpt>
      <trkpt lat="45.765945268794894" lon="8.014183463528752">
        <ele>1039.3199999999999</ele>
        <time>2019-02-24T08:23:18Z</time>
      </trkpt>
      <trkpt lat="45.765922553837299" lon="8.014192348346114">
        <ele>1039.8</ele>
        <time>2019-02-24T08:23:23Z</time>
      </trkpt>
      <trkpt lat="45.765844602137804" lon="8.014089083299041">
        <ele>1039.3199999999999</ele>
        <time>2019-02-24T08:23:35Z</time>
      </trkpt>
      <trkpt lat="45.765821216627955" lon="8.014078689739108">
        <ele>1039.8</ele>
        <time>2019-02-24T08:23:38Z</time>
      </trkpt>
      <trkpt lat="45.765741001814604" lon="8.013994367793202">
        <ele>1038.3599999999999</ele>
        <time>2019-02-24T08:23:51Z</time>
      </trkpt>
      <trkpt lat="45.765702947974205" lon="8.013974502682686">
        <ele>1040.76</ele>
        <time>2019-02-24T08:24:00Z</time>
      </trkpt>
      <trkpt lat="45.765662211924791" lon="8.01391557790339">
        <ele>1042.21</ele>
        <time>2019-02-24T08:24:10Z</time>
      </trkpt>
      <trkpt lat="45.765612255781889" lon="8.013868890702725">
        <ele>1044.1300000000001</ele>
        <time>2019-02-24T08:24:20Z</time>
      </trkpt>
      <trkpt lat="45.765566909685731" lon="8.013836452737451">
        <ele>1045.5699999999999</ele>
        <time>2019-02-24T08:24:31Z</time>
      </trkpt>
      <trkpt lat="45.765527430921793" lon="8.013813905417919">
        <ele>1047.49</ele>
        <time>2019-02-24T08:24:41Z</time>
      </trkpt>
      <trkpt lat="45.765475211665034" lon="8.013785909861326">
        <ele>1049.9000000000001</ele>
        <time>2019-02-24T08:24:52Z</time>
      </trkpt>
      <trkpt lat="45.765393991023302" lon="8.013737797737122">
        <ele>1052.3</ele>
        <time>2019-02-24T08:25:02Z</time>
      </trkpt>
      <trkpt lat="45.765309166163206" lon="8.013725476339459">
        <ele>1053.74</ele>
        <time>2019-02-24T08:25:13Z</time>
      </trkpt>
      <trkpt lat="45.765269687399268" lon="8.013716172426939">
        <ele>1054.7</ele>
        <time>2019-02-24T08:25:18Z</time>
      </trkpt>
      <trkpt lat="45.765185616910458" lon="8.013692870736122">
        <ele>1057.5899999999999</ele>
        <time>2019-02-24T08:25:30Z</time>
      </trkpt>
      <trkpt lat="45.765120908617973" lon="8.013676777482033">
        <ele>1057.1099999999999</ele>
        <time>2019-02-24T08:25:40Z</time>
      </trkpt>
      <trkpt lat="45.76505720615387" lon="8.013672083616257">
        <ele>1058.0699999999999</ele>
        <time>2019-02-24T08:25:50Z</time>
      </trkpt>
      <trkpt lat="45.764984702691436" lon="8.013657331466675">
        <ele>1058.55</ele>
        <time>2019-02-24T08:26:01Z</time>
      </trkpt>
      <trkpt lat="45.764945894479752" lon="8.013633862137795">
        <ele>1059.51</ele>
        <time>2019-02-24T08:26:11Z</time>
      </trkpt>
      <trkpt lat="45.764881437644362" lon="8.013599328696728">
        <ele>1061.4300000000001</ele>
        <time>2019-02-24T08:26:22Z</time>
      </trkpt>
      <trkpt lat="45.764844305813313" lon="8.013586085289717">
        <ele>1064.3199999999999</ele>
        <time>2019-02-24T08:26:28Z</time>
      </trkpt>
      <trkpt lat="45.764829972758889" lon="8.01362925209105">
        <ele>1067.6800000000001</ele>
        <time>2019-02-24T08:26:38Z</time>
      </trkpt>
      <trkpt lat="45.76483684591949" lon="8.013676106929779">
        <ele>1071.53</ele>
        <time>2019-02-24T08:26:47Z</time>
      </trkpt>
      <trkpt lat="45.764842294156551" lon="8.013679794967175">
        <ele>1072.01</ele>
        <time>2019-02-24T08:26:49Z</time>
      </trkpt>
      <trkpt lat="45.764839192852378" lon="8.013729499652982">
        <ele>1074.4100000000001</ele>
        <time>2019-02-24T08:27:01Z</time>
      </trkpt>
      <trkpt lat="45.764816645532846" lon="8.013727404177189">
        <ele>1072.97</ele>
        <time>2019-02-24T08:27:06Z</time>
      </trkpt>
      <trkpt lat="45.764767611399293" lon="8.013750370591879">
        <ele>1075.3699999999999</ele>
        <time>2019-02-24T08:27:15Z</time>
      </trkpt>
      <trkpt lat="45.764723857864738" lon="8.013800494372845">
        <ele>1077.78</ele>
        <time>2019-02-24T08:27:25Z</time>
      </trkpt>
      <trkpt lat="45.764708267524838" lon="8.013799572363496">
        <ele>1078.74</ele>
        <time>2019-02-24T08:27:27Z</time>
      </trkpt>
      <trkpt lat="45.764668202027678" lon="8.013842236250639">
        <ele>1081.1400000000001</ele>
        <time>2019-02-24T08:27:37Z</time>
      </trkpt>
      <trkpt lat="45.764621933922172" lon="8.013836452737451">
        <ele>1077.78</ele>
        <time>2019-02-24T08:27:44Z</time>
      </trkpt>
      <trkpt lat="45.764562422409654" lon="8.013829914852977">
        <ele>1077.78</ele>
        <time>2019-02-24T08:27:53Z</time>
      </trkpt>
      <trkpt lat="45.764521602541208" lon="8.013834189623594">
        <ele>1079.22</ele>
        <time>2019-02-24T08:27:59Z</time>
      </trkpt>
      <trkpt lat="45.764473490417004" lon="8.01384475082159">
        <ele>1082.5799999999999</ele>
        <time>2019-02-24T08:28:09Z</time>
      </trkpt>
      <trkpt lat="45.764525625854731" lon="8.013868387788534">
        <ele>1084.02</ele>
        <time>2019-02-24T08:28:18Z</time>
      </trkpt>
      <trkpt lat="45.764556806534529" lon="8.013931838795543">
        <ele>1084.5</ele>
        <time>2019-02-24T08:28:27Z</time>
      </trkpt>
      <trkpt lat="45.764583963900805" lon="8.013972993940115">
        <ele>1084.99</ele>
        <time>2019-02-24T08:28:35Z</time>
      </trkpt>
      <trkpt lat="45.764612462371588" lon="8.014007527381182">
        <ele>1085.47</ele>
        <time>2019-02-24T08:28:45Z</time>
      </trkpt>
      <trkpt lat="45.764656635001302" lon="8.014039378613234">
        <ele>1086.9100000000001</ele>
        <time>2019-02-24T08:28:55Z</time>
      </trkpt>
      <trkpt lat="45.76465068385005" lon="8.014078522101045">
        <ele>1088.8299999999999</ele>
        <time>2019-02-24T08:29:06Z</time>
      </trkpt>
      <trkpt lat="45.764582874253392" lon="8.014107523486018">
        <ele>1088.3499999999999</ele>
        <time>2019-02-24T08:29:15Z</time>
      </trkpt>
      <trkpt lat="45.764520093798637" lon="8.014096627011895">
        <ele>1089.79</ele>
        <time>2019-02-24T08:29:25Z</time>
      </trkpt>
      <trkpt lat="45.764470053836703" lon="8.014078689739108">
        <ele>1090.27</ele>
        <time>2019-02-24T08:29:34Z</time>
      </trkpt>
      <trkpt lat="45.764431999996305" lon="8.014059159904718">
        <ele>1093.6400000000001</ele>
        <time>2019-02-24T08:29:45Z</time>
      </trkpt>
      <trkpt lat="45.764399645850062" lon="8.014057567343116">
        <ele>1094.5999999999999</ele>
        <time>2019-02-24T08:29:53Z</time>
      </trkpt>
      <trkpt lat="45.764372488483787" lon="8.014063686132431">
        <ele>1097.48</ele>
        <time>2019-02-24T08:30:03Z</time>
      </trkpt>
      <trkpt lat="45.764319933950901" lon="8.014074079692364">
        <ele>1100.8499999999999</ele>
        <time>2019-02-24T08:30:13Z</time>
      </trkpt>
      <trkpt lat="45.764291435480118" lon="8.014084724709392">
        <ele>1103.25</ele>
        <time>2019-02-24T08:30:18Z</time>
      </trkpt>
      <trkpt lat="45.764236617833376" lon="8.014113390818238">
        <ele>1106.1300000000001</ele>
        <time>2019-02-24T08:30:27Z</time>
      </trkpt>
      <trkpt lat="45.764204682782292" lon="8.014136860147119">
        <ele>1109.5</ele>
        <time>2019-02-24T08:30:36Z</time>
      </trkpt>
      <trkpt lat="45.76418892480433" lon="8.014141889289022">
        <ele>1109.98</ele>
        <time>2019-02-24T08:30:38Z</time>
      </trkpt>
      <trkpt lat="45.764134442433715" lon="8.014175249263644">
        <ele>1111.9000000000001</ele>
        <time>2019-02-24T08:30:48Z</time>
      </trkpt>
      <trkpt lat="45.764110386371613" lon="8.014224953949451">
        <ele>1113.8199999999999</ele>
        <time>2019-02-24T08:30:57Z</time>
      </trkpt>
      <trkpt lat="45.764084318652749" lon="8.014270970597863">
        <ele>1116.23</ele>
        <time>2019-02-24T08:31:10Z</time>
      </trkpt>
      <trkpt lat="45.764039978384972" lon="8.0142742395401">
        <ele>1114.79</ele>
        <time>2019-02-24T08:31:22Z</time>
      </trkpt>
      <trkpt lat="45.763998487964272" lon="8.014301564544439">
        <ele>1116.71</ele>
        <time>2019-02-24T08:31:32Z</time>
      </trkpt>
      <trkpt lat="45.764023549854755" lon="8.014359986409545">
        <ele>1118.6300000000001</ele>
        <time>2019-02-24T08:31:43Z</time>
      </trkpt>
      <trkpt lat="45.764047438278794" lon="8.014407427981496">
        <ele>1121.03</ele>
        <time>2019-02-24T08:31:53Z</time>
      </trkpt>
      <trkpt lat="45.76399739831686" lon="8.014417653903365">
        <ele>1124.4000000000001</ele>
        <time>2019-02-24T08:32:03Z</time>
      </trkpt>
      <trkpt lat="45.763971079140902" lon="8.014381946995854">
        <ele>1126.3199999999999</ele>
        <time>2019-02-24T08:32:11Z</time>
      </trkpt>
      <trkpt lat="45.763960350304842" lon="8.014415055513382">
        <ele>1122.48</ele>
        <time>2019-02-24T08:32:15Z</time>
      </trkpt>
      <trkpt lat="45.763963535428047" lon="8.014424107968807">
        <ele>1122.48</ele>
        <time>2019-02-24T08:32:16Z</time>
      </trkpt>
      <trkpt lat="45.76396320015192" lon="8.014467526227236">
        <ele>1123.4400000000001</ele>
        <time>2019-02-24T08:32:24Z</time>
      </trkpt>
      <trkpt lat="45.763936378061771" lon="8.014450427144766">
        <ele>1123.4400000000001</ele>
        <time>2019-02-24T08:32:31Z</time>
      </trkpt>
      <trkpt lat="45.763899749144912" lon="8.014491330832243">
        <ele>1122.96</ele>
        <time>2019-02-24T08:32:41Z</time>
      </trkpt>
      <trkpt lat="45.763923889026046" lon="8.014558386057615">
        <ele>1124.8800000000001</ele>
        <time>2019-02-24T08:32:50Z</time>
      </trkpt>
      <trkpt lat="45.763894887641072" lon="8.014560146257281">
        <ele>1126.3199999999999</ele>
        <time>2019-02-24T08:32:58Z</time>
      </trkpt>
      <trkpt lat="45.763835124671459" lon="8.014558972790837">
        <ele>1126.3199999999999</ele>
        <time>2019-02-24T08:33:08Z</time>
      </trkpt>
      <trkpt lat="45.763846775516868" lon="8.01456592977047">
        <ele>1128.73</ele>
        <time>2019-02-24T08:33:20Z</time>
      </trkpt>
      <trkpt lat="45.763861779123545" lon="8.014629296958447">
        <ele>1126.8</ele>
        <time>2019-02-24T08:33:26Z</time>
      </trkpt>
      <trkpt lat="45.763877704739571" lon="8.014679085463285">
        <ele>1127.28</ele>
        <time>2019-02-24T08:33:36Z</time>
      </trkpt>
      <trkpt lat="45.763886086642742" lon="8.014711188152432">
        <ele>1130.6500000000001</ele>
        <time>2019-02-24T08:33:42Z</time>
      </trkpt>
      <trkpt lat="45.763889858499169" lon="8.014712696895003">
        <ele>1130.6500000000001</ele>
        <time>2019-02-24T08:33:44Z</time>
      </trkpt>
      <trkpt lat="45.763921374455094" lon="8.014762653037906">
        <ele>1131.6099999999999</ele>
        <time>2019-02-24T08:33:55Z</time>
      </trkpt>
      <trkpt lat="45.763878626748919" lon="8.014797521755099">
        <ele>1133.05</ele>
        <time>2019-02-24T08:34:04Z</time>
      </trkpt>
      <trkpt lat="45.763843422755599" lon="8.014781177043915">
        <ele>1129.6900000000001</ele>
        <time>2019-02-24T08:34:07Z</time>
      </trkpt>
      <trkpt lat="45.763821294531226" lon="8.014765502884984">
        <ele>1128.24</ele>
        <time>2019-02-24T08:34:10Z</time>
      </trkpt>
      <trkpt lat="45.763776954263449" lon="8.014728371053934">
        <ele>1128.24</ele>
        <time>2019-02-24T08:34:20Z</time>
      </trkpt>
      <trkpt lat="45.763731272891164" lon="8.014744548127055">
        <ele>1129.21</ele>
        <time>2019-02-24T08:34:29Z</time>
      </trkpt>
      <trkpt lat="45.763771757483482" lon="8.01483222283423">
        <ele>1129.21</ele>
        <time>2019-02-24T08:34:40Z</time>
      </trkpt>
      <trkpt lat="45.763694727793336" lon="8.014806155115366">
        <ele>1130.1700000000001</ele>
        <time>2019-02-24T08:34:50Z</time>
      </trkpt>
      <trkpt lat="45.763699421659112" lon="8.014840856194496">
        <ele>1133.53</ele>
        <time>2019-02-24T08:35:01Z</time>
      </trkpt>
      <trkpt lat="45.763712665066123" lon="8.014873210340738">
        <ele>1134.97</ele>
        <time>2019-02-24T08:35:12Z</time>
      </trkpt>
      <trkpt lat="45.763726830482483" lon="8.014946384355426">
        <ele>1136.9000000000001</ele>
        <time>2019-02-24T08:35:23Z</time>
      </trkpt>
      <trkpt lat="45.763728842139244" lon="8.014971362426877">
        <ele>1138.3399999999999</ele>
        <time>2019-02-24T08:35:27Z</time>
      </trkpt>
      <trkpt lat="45.763715850189328" lon="8.015054930001497">
        <ele>1139.78</ele>
        <time>2019-02-24T08:35:38Z</time>
      </trkpt>
      <trkpt lat="45.763688357546926" lon="8.015132881700993">
        <ele>1142.1800000000001</ele>
        <time>2019-02-24T08:35:46Z</time>
      </trkpt>
      <trkpt lat="45.763632198795676" lon="8.015152327716351">
        <ele>1142.1800000000001</ele>
        <time>2019-02-24T08:35:55Z</time>
      </trkpt>
      <trkpt lat="45.763608645647764" lon="8.015198260545731">
        <ele>1144.1099999999999</ele>
        <time>2019-02-24T08:36:04Z</time>
      </trkpt>
      <trkpt lat="45.763597246259451" lon="8.015263639390469">
        <ele>1146.51</ele>
        <time>2019-02-24T08:36:14Z</time>
      </trkpt>
      <trkpt lat="45.763582494109869" lon="8.015268333256245">
        <ele>1146.99</ele>
        <time>2019-02-24T08:36:16Z</time>
      </trkpt>
      <trkpt lat="45.763531699776649" lon="8.015284426510334">
        <ele>1148.9100000000001</ele>
        <time>2019-02-24T08:36:25Z</time>
      </trkpt>
      <trkpt lat="45.7635757047683" lon="8.015348212793469">
        <ele>1152.28</ele>
        <time>2019-02-24T08:36:35Z</time>
      </trkpt>
      <trkpt lat="45.763523234054446" lon="8.015387691557407">
        <ele>1152.76</ele>
        <time>2019-02-24T08:36:45Z</time>
      </trkpt>
      <trkpt lat="45.76349750161171" lon="8.015367826446891">
        <ele>1151.3199999999999</ele>
        <time>2019-02-24T08:36:48Z</time>
      </trkpt>
      <trkpt lat="45.763428267091513" lon="8.01534628495574">
        <ele>1151.8</ele>
        <time>2019-02-24T08:36:57Z</time>
      </trkpt>
      <trkpt lat="45.76341301202774" lon="8.015336645767093">
        <ele>1151.3199999999999</ele>
        <time>2019-02-24T08:37:00Z</time>
      </trkpt>
      <trkpt lat="45.763349728658795" lon="8.015323402360082">
        <ele>1151.3199999999999</ele>
        <time>2019-02-24T08:37:10Z</time>
      </trkpt>
      <trkpt lat="45.763352327048779" lon="8.015356510877609">
        <ele>1152.28</ele>
        <time>2019-02-24T08:37:15Z</time>
      </trkpt>
      <trkpt lat="45.763372024521232" lon="8.015449298545718">
        <ele>1153.72</ele>
        <time>2019-02-24T08:37:26Z</time>
      </trkpt>
      <trkpt lat="45.763370348140597" lon="8.015521299093962">
        <ele>1154.6800000000001</ele>
        <time>2019-02-24T08:37:35Z</time>
      </trkpt>
      <trkpt lat="45.76332408003509" lon="8.015547282993794">
        <ele>1156.5999999999999</ele>
        <time>2019-02-24T08:37:44Z</time>
      </trkpt>
      <trkpt lat="45.763267669826746" lon="8.015614841133356">
        <ele>1159.01</ele>
        <time>2019-02-24T08:37:56Z</time>
      </trkpt>
      <trkpt lat="45.763257024809718" lon="8.015655409544706">
        <ele>1160.45</ele>
        <time>2019-02-24T08:38:05Z</time>
      </trkpt>
      <trkpt lat="45.763297341763973" lon="8.015699833631516">
        <ele>1160.9300000000001</ele>
        <time>2019-02-24T08:38:15Z</time>
      </trkpt>
      <trkpt lat="45.763302706182003" lon="8.015754399821162">
        <ele>1161.8900000000001</ele>
        <time>2019-02-24T08:38:23Z</time>
      </trkpt>
      <trkpt lat="45.763254929333925" lon="8.015762278810144">
        <ele>1162.3699999999999</ele>
        <time>2019-02-24T08:38:32Z</time>
      </trkpt>
      <trkpt lat="45.763247720897198" lon="8.015778288245201">
        <ele>1164.77</ele>
        <time>2019-02-24T08:38:42Z</time>
      </trkpt>
      <trkpt lat="45.763242021203041" lon="8.015766721218824">
        <ele>1166.22</ele>
        <time>2019-02-24T08:38:49Z</time>
      </trkpt>
      <trkpt lat="45.763247972354293" lon="8.015781976282597">
        <ele>1162.8499999999999</ele>
        <time>2019-02-24T08:39:04Z</time>
      </trkpt>
      <trkpt lat="45.763246212154627" lon="8.015781138092279">
        <ele>1162.8499999999999</ele>
        <time>2019-02-24T08:39:05Z</time>
      </trkpt>
      <trkpt lat="45.763267669826746" lon="8.015745934098959">
        <ele>1161.8900000000001</ele>
        <time>2019-02-24T08:39:26Z</time>
      </trkpt>
      <trkpt lat="45.763239003717899" lon="8.015741910785437">
        <ele>1162.3699999999999</ele>
        <time>2019-02-24T08:39:44Z</time>
      </trkpt>
      <trkpt lat="45.763246966525912" lon="8.01578801125288">
        <ele>1165.26</ele>
        <time>2019-02-24T08:39:57Z</time>
      </trkpt>
      <trkpt lat="45.763266915455461" lon="8.015781389549375">
        <ele>1167.6600000000001</ele>
        <time>2019-02-24T08:40:06Z</time>
      </trkpt>
      <trkpt lat="45.763244032859802" lon="8.015791531652212">
        <ele>1167.6600000000001</ele>
        <time>2019-02-24T08:40:15Z</time>
      </trkpt>
      <trkpt lat="45.763254929333925" lon="8.015789519995451">
        <ele>1168.6199999999999</ele>
        <time>2019-02-24T08:40:28Z</time>
      </trkpt>
      <trkpt lat="45.763247050344944" lon="8.015770157799125">
        <ele>1168.6199999999999</ele>
        <time>2019-02-24T08:40:40Z</time>
      </trkpt>
      <trkpt lat="45.763247050344944" lon="8.015724644064903">
        <ele>1169.0999999999999</ele>
        <time>2019-02-24T08:40:56Z</time>
      </trkpt>
      <trkpt lat="45.763250319287181" lon="8.015782311558723">
        <ele>1166.22</ele>
        <time>2019-02-24T08:41:06Z</time>
      </trkpt>
      <trkpt lat="45.763230454176664" lon="8.015768229961395">
        <ele>1164.29</ele>
        <time>2019-02-24T08:41:10Z</time>
      </trkpt>
      <trkpt lat="45.763228107243776" lon="8.015780635178089">
        <ele>1164.77</ele>
        <time>2019-02-24T08:41:23Z</time>
      </trkpt>
      <trkpt lat="45.763243613764644" lon="8.015777701511979">
        <ele>1164.77</ele>
        <time>2019-02-24T08:41:33Z</time>
      </trkpt>
      <trkpt lat="45.76322291046381" lon="8.015799159184098">
        <ele>1163.8099999999999</ele>
        <time>2019-02-24T08:41:44Z</time>
      </trkpt>
      <trkpt lat="45.763192987069488" lon="8.015774264931679">
        <ele>1167.1800000000001</ele>
        <time>2019-02-24T08:42:05Z</time>
      </trkpt>
      <trkpt lat="45.763239674270153" lon="8.015744341537356">
        <ele>1167.1800000000001</ele>
        <time>2019-02-24T08:42:28Z</time>
      </trkpt>
      <trkpt lat="45.763239338994026" lon="8.015744425356388">
        <ele>1167.1800000000001</ele>
        <time>2019-02-24T08:42:29Z</time>
      </trkpt>
      <trkpt lat="45.763252917677164" lon="8.015744090080261">
        <ele>1163.8099999999999</ele>
        <time>2019-02-24T08:42:46Z</time>
      </trkpt>
      <trkpt lat="45.76325467787683" lon="8.015752136707306">
        <ele>1160.45</ele>
        <time>2019-02-24T08:42:49Z</time>
      </trkpt>
      <trkpt lat="45.763251073658466" lon="8.015751298516989">
        <ele>1159.97</ele>
        <time>2019-02-24T08:42:50Z</time>
      </trkpt>
      <trkpt lat="45.763256186619401" lon="8.015819527208805">
        <ele>1159.01</ele>
        <time>2019-02-24T08:43:05Z</time>
      </trkpt>
      <trkpt lat="45.763244954869151" lon="8.015775354579091">
        <ele>1160.45</ele>
        <time>2019-02-24T08:43:12Z</time>
      </trkpt>
      <trkpt lat="45.763250989839435" lon="8.015796476975083">
        <ele>1161.8900000000001</ele>
        <time>2019-02-24T08:43:24Z</time>
      </trkpt>
      <trkpt lat="45.763194747269154" lon="8.015810642391443">
        <ele>1164.77</ele>
        <time>2019-02-24T08:43:32Z</time>
      </trkpt>
      <trkpt lat="45.763192987069488" lon="8.015817012637854">
        <ele>1165.26</ele>
        <time>2019-02-24T08:43:33Z</time>
      </trkpt>
      <trkpt lat="45.763155268505216" lon="8.015842409804463">
        <ele>1167.1800000000001</ele>
        <time>2019-02-24T08:43:44Z</time>
      </trkpt>
      <trkpt lat="45.763154262676835" lon="8.015870405361056">
        <ele>1168.6199999999999</ele>
        <time>2019-02-24T08:43:51Z</time>
      </trkpt>
      <trkpt lat="45.763162560760975" lon="8.015876021236181">
        <ele>1169.0999999999999</ele>
        <time>2019-02-24T08:43:53Z</time>
      </trkpt>
      <trkpt lat="45.763205727562308" lon="8.015907201915979">
        <ele>1169.0999999999999</ele>
        <time>2019-02-24T08:44:01Z</time>
      </trkpt>
      <trkpt lat="45.763235231861472" lon="8.015924049541354">
        <ele>1170.54</ele>
        <time>2019-02-24T08:44:06Z</time>
      </trkpt>
      <trkpt lat="45.763250403106213" lon="8.015957996249199">
        <ele>1170.54</ele>
        <time>2019-02-24T08:44:10Z</time>
      </trkpt>
      <trkpt lat="45.763275632634759" lon="8.016004683449864">
        <ele>1170.0599999999999</ele>
        <time>2019-02-24T08:44:20Z</time>
      </trkpt>
      <trkpt lat="45.763216372579336" lon="8.016080288216472">
        <ele>1170.54</ele>
        <time>2019-02-24T08:44:30Z</time>
      </trkpt>
      <trkpt lat="45.763182425871491" lon="8.016122197732329">
        <ele>1171.5</ele>
        <time>2019-02-24T08:44:39Z</time>
      </trkpt>
      <trkpt lat="45.763216288760304" lon="8.016176596283913">
        <ele>1172.47</ele>
        <time>2019-02-24T08:44:48Z</time>
      </trkpt>
      <trkpt lat="45.76326004229486" lon="8.016216242685914">
        <ele>1170.54</ele>
        <time>2019-02-24T08:44:58Z</time>
      </trkpt>
      <trkpt lat="45.763303460553288" lon="8.016258906573057">
        <ele>1171.02</ele>
        <time>2019-02-24T08:45:08Z</time>
      </trkpt>
      <trkpt lat="45.763338832184672" lon="8.01632453687489">
        <ele>1171.98</ele>
        <time>2019-02-24T08:45:18Z</time>
      </trkpt>
      <trkpt lat="45.76337487436831" lon="8.016342222690582">
        <ele>1173.9100000000001</ele>
        <time>2019-02-24T08:45:26Z</time>
      </trkpt>
      <trkpt lat="45.763363474979997" lon="8.016370972618461">
        <ele>1174.3900000000001</ele>
        <time>2019-02-24T08:45:29Z</time>
      </trkpt>
      <trkpt lat="45.763362972065806" lon="8.016422688961029">
        <ele>1177.27</ele>
        <time>2019-02-24T08:45:40Z</time>
      </trkpt>
      <trkpt lat="45.763357523828745" lon="8.01646769978106">
        <ele>1178.23</ele>
        <time>2019-02-24T08:45:48Z</time>
      </trkpt>
      <trkpt lat="45.763336652889848" lon="8.016514554619789">
        <ele>1180.6400000000001</ele>
        <time>2019-02-24T08:45:57Z</time>
      </trkpt>
      <trkpt lat="45.763302119448781" lon="8.016553781926632">
        <ele>1182.5599999999999</ele>
        <time>2019-02-24T08:46:05Z</time>
      </trkpt>
      <trkpt lat="45.763297509402037" lon="8.016561744734645">
        <ele>1182.5599999999999</ele>
        <time>2019-02-24T08:46:06Z</time>
      </trkpt>
      <trkpt lat="45.763199608772993" lon="8.016606420278549">
        <ele>1184.48</ele>
        <time>2019-02-24T08:46:18Z</time>
      </trkpt>
      <trkpt lat="45.763147221878171" lon="8.016652185469866">
        <ele>1184.96</ele>
        <time>2019-02-24T08:46:27Z</time>
      </trkpt>
      <trkpt lat="45.763166416436434" lon="8.016661405563355">
        <ele>1187.3699999999999</ele>
        <time>2019-02-24T08:46:36Z</time>
      </trkpt>
      <trkpt lat="45.763200614601374" lon="8.016703147441149">
        <ele>1190.73</ele>
        <time>2019-02-24T08:46:47Z</time>
      </trkpt>
      <trkpt lat="45.763234812766314" lon="8.016770537942648">
        <ele>1191.6900000000001</ele>
        <time>2019-02-24T08:46:57Z</time>
      </trkpt>
      <trkpt lat="45.763266161084175" lon="8.016798617318273">
        <ele>1192.6500000000001</ele>
        <time>2019-02-24T08:47:06Z</time>
      </trkpt>
      <trkpt lat="45.763283763080835" lon="8.016792079433799">
        <ele>1194.0899999999999</ele>
        <time>2019-02-24T08:47:17Z</time>
      </trkpt>
      <trkpt lat="45.763296587392688" lon="8.016819404438138">
        <ele>1193.1300000000001</ele>
        <time>2019-02-24T08:47:30Z</time>
      </trkpt>
      <trkpt lat="45.763293486088514" lon="8.016847483813763">
        <ele>1195.54</ele>
        <time>2019-02-24T08:47:40Z</time>
      </trkpt>
      <trkpt lat="45.763309663161635" lon="8.016859302297235">
        <ele>1196.5</ele>
        <time>2019-02-24T08:47:50Z</time>
      </trkpt>
      <trkpt lat="45.763288624584675" lon="8.016918143257499">
        <ele>1199.3800000000001</ele>
        <time>2019-02-24T08:48:01Z</time>
      </trkpt>
      <trkpt lat="45.763298682868481" lon="8.016933230683208">
        <ele>1201.3</ele>
        <time>2019-02-24T08:48:10Z</time>
      </trkpt>
      <trkpt lat="45.76330061070621" lon="8.016978073865175">
        <ele>1201.3</ele>
        <time>2019-02-24T08:48:19Z</time>
      </trkpt>
      <trkpt lat="45.763296587392688" lon="8.017007913440466">
        <ele>1202.75</ele>
        <time>2019-02-24T08:48:27Z</time>
      </trkpt>
      <trkpt lat="45.763292144984007" lon="8.017042279243469">
        <ele>1202.27</ele>
        <time>2019-02-24T08:48:35Z</time>
      </trkpt>
      <trkpt lat="45.763253755867481" lon="8.017079578712583">
        <ele>1199.8599999999999</ele>
        <time>2019-02-24T08:48:45Z</time>
      </trkpt>
      <trkpt lat="45.763247134163976" lon="8.017123583704233">
        <ele>1199.8599999999999</ele>
        <time>2019-02-24T08:48:56Z</time>
      </trkpt>
      <trkpt lat="45.76326054520905" lon="8.017140766605735">
        <ele>1199.3800000000001</ele>
        <time>2019-02-24T08:49:06Z</time>
      </trkpt>
      <trkpt lat="45.763244703412056" lon="8.017186112701893">
        <ele>1201.3</ele>
        <time>2019-02-24T08:49:14Z</time>
      </trkpt>
      <trkpt lat="45.763243613764644" lon="8.017227603122592">
        <ele>1202.27</ele>
        <time>2019-02-24T08:49:24Z</time>
      </trkpt>
      <trkpt lat="45.763265155255795" lon="8.017246462404728">
        <ele>1202.75</ele>
        <time>2019-02-24T08:49:32Z</time>
      </trkpt>
      <trkpt lat="45.763309914618731" lon="8.017254173755646">
        <ele>1205.6300000000001</ele>
        <time>2019-02-24T08:49:42Z</time>
      </trkpt>
      <trkpt lat="45.76331477612257" lon="8.01725878380239">
        <ele>1206.1099999999999</ele>
        <time>2019-02-24T08:49:43Z</time>
      </trkpt>
      <trkpt lat="45.763388788327575" lon="8.017245708033443">
        <ele>1207.0699999999999</ele>
        <time>2019-02-24T08:49:53Z</time>
      </trkpt>
      <trkpt lat="45.763422902673483" lon="8.017286444082856">
        <ele>1207.0699999999999</ele>
        <time>2019-02-24T08:50:03Z</time>
      </trkpt>
      <trkpt lat="45.763421980664134" lon="8.01734670996666">
        <ele>1208.03</ele>
        <time>2019-02-24T08:50:13Z</time>
      </trkpt>
      <trkpt lat="45.76337730512023" lon="8.017417788505554">
        <ele>1209</ele>
        <time>2019-02-24T08:50:21Z</time>
      </trkpt>
      <trkpt lat="45.763388285413384" lon="8.017416363582015">
        <ele>1211.8800000000001</ele>
        <time>2019-02-24T08:50:31Z</time>
      </trkpt>
      <trkpt lat="45.763423321768641" lon="8.017400521785021">
        <ele>1215.24</ele>
        <time>2019-02-24T08:50:37Z</time>
      </trkpt>
      <trkpt lat="45.763424411416054" lon="8.017408568412066">
        <ele>1216.21</ele>
        <time>2019-02-24T08:50:49Z</time>
      </trkpt>
      <trkpt lat="45.763469254598022" lon="8.017410160973668">
        <ele>1217.1700000000001</ele>
        <time>2019-02-24T08:51:00Z</time>
      </trkpt>
      <trkpt lat="45.763490963727236" lon="8.017474953085184">
        <ele>1217.6500000000001</ele>
        <time>2019-02-24T08:51:09Z</time>
      </trkpt>
      <trkpt lat="45.763491047546268" lon="8.017487609758973">
        <ele>1217.6500000000001</ele>
        <time>2019-02-24T08:51:11Z</time>
      </trkpt>
      <trkpt lat="45.763522731140256" lon="8.017575703561306">
        <ele>1215.72</ele>
        <time>2019-02-24T08:51:20Z</time>
      </trkpt>
      <trkpt lat="45.763576291501522" lon="8.017612583935261">
        <ele>1213.8</ele>
        <time>2019-02-24T08:51:30Z</time>
      </trkpt>
      <trkpt lat="45.763643346726894" lon="8.017675364390016">
        <ele>1213.8</ele>
        <time>2019-02-24T08:51:40Z</time>
      </trkpt>
      <trkpt lat="45.763682574033737" lon="8.017743425443769">
        <ele>1214.28</ele>
        <time>2019-02-24T08:51:51Z</time>
      </trkpt>
      <trkpt lat="45.76369640417397" lon="8.017855659127235">
        <ele>1212.8399999999999</ele>
        <time>2019-02-24T08:52:02Z</time>
      </trkpt>
      <trkpt lat="45.763772679492831" lon="8.017931682989001">
        <ele>1214.28</ele>
        <time>2019-02-24T08:52:13Z</time>
      </trkpt>
      <trkpt lat="45.763803524896502" lon="8.017964120954275">
        <ele>1218.1300000000001</ele>
        <time>2019-02-24T08:52:22Z</time>
      </trkpt>
      <trkpt lat="45.763808637857437" lon="8.017968814820051">
        <ele>1218.1300000000001</ele>
        <time>2019-02-24T08:52:23Z</time>
      </trkpt>
      <trkpt lat="45.763863287866116" lon="8.018011813983321">
        <ele>1221.49</ele>
        <time>2019-02-24T08:52:29Z</time>
      </trkpt>
      <trkpt lat="45.763924811035395" lon="8.018054477870464">
        <ele>1224.8599999999999</ele>
        <time>2019-02-24T08:52:36Z</time>
      </trkpt>
      <trkpt lat="45.763947106897831" lon="8.018076522275806">
        <ele>1225.8199999999999</ele>
        <time>2019-02-24T08:52:38Z</time>
      </trkpt>
      <trkpt lat="45.764005947858095" lon="8.018154641613364">
        <ele>1228.7</ele>
        <time>2019-02-24T08:52:48Z</time>
      </trkpt>
      <trkpt lat="45.764049030840397" lon="8.018212057650089">
        <ele>1231.1099999999999</ele>
        <time>2019-02-24T08:52:58Z</time>
      </trkpt>
      <trkpt lat="45.764098484069109" lon="8.018229743465781">
        <ele>1234.47</ele>
        <time>2019-02-24T08:53:07Z</time>
      </trkpt>
      <trkpt lat="45.764134358614683" lon="8.018284225836396">
        <ele>1235.4300000000001</ele>
        <time>2019-02-24T08:53:16Z</time>
      </trkpt>
      <trkpt lat="45.764114744961262" lon="8.018339797854424">
        <ele>1235.9100000000001</ele>
        <time>2019-02-24T08:53:24Z</time>
      </trkpt>
      <trkpt lat="45.764132933691144" lon="8.018383383750916">
        <ele>1237.3499999999999</ele>
        <time>2019-02-24T08:53:34Z</time>
      </trkpt>
      <trkpt lat="45.764119606465101" lon="8.018413474783301">
        <ele>1239.28</ele>
        <time>2019-02-24T08:53:42Z</time>
      </trkpt>
      <trkpt lat="45.764105776324868" lon="8.018448511138558">
        <ele>1240.24</ele>
        <time>2019-02-24T08:53:52Z</time>
      </trkpt>
      <trkpt lat="45.764005696401" lon="8.018477931618691">
        <ele>1241.2</ele>
        <time>2019-02-24T08:54:01Z</time>
      </trkpt>
      <trkpt lat="45.763998823240399" lon="8.018520511686802">
        <ele>1243.5999999999999</ele>
        <time>2019-02-24T08:54:10Z</time>
      </trkpt>
      <trkpt lat="45.764022711664438" lon="8.018560912460089">
        <ele>1244.5599999999999</ele>
        <time>2019-02-24T08:54:22Z</time>
      </trkpt>
      <trkpt lat="45.764019694179296" lon="8.018578682094812">
        <ele>1248.4100000000001</ele>
        <time>2019-02-24T08:54:35Z</time>
      </trkpt>
      <trkpt lat="45.764024388045073" lon="8.018590500578284">
        <ele>1250.3299999999999</ele>
        <time>2019-02-24T08:54:51Z</time>
      </trkpt>
      <trkpt lat="45.764025812968612" lon="8.018637774512172">
        <ele>1249.8499999999999</ele>
        <time>2019-02-24T08:55:01Z</time>
      </trkpt>
      <trkpt lat="45.76401986181736" lon="8.018718492239714">
        <ele>1251.29</ele>
        <time>2019-02-24T08:55:12Z</time>
      </trkpt>
      <trkpt lat="45.764008210971951" lon="8.018763838335872">
        <ele>1253.22</ele>
        <time>2019-02-24T08:55:20Z</time>
      </trkpt>
      <trkpt lat="45.76396320015192" lon="8.018807843327522">
        <ele>1254.1800000000001</ele>
        <time>2019-02-24T08:55:29Z</time>
      </trkpt>
      <trkpt lat="45.763901257887483" lon="8.018824523314834">
        <ele>1251.77</ele>
        <time>2019-02-24T08:55:39Z</time>
      </trkpt>
      <trkpt lat="45.763891451060772" lon="8.018830642104149">
        <ele>1253.7</ele>
        <time>2019-02-24T08:55:43Z</time>
      </trkpt>
      <trkpt lat="45.763884577900171" lon="8.018831145018339">
        <ele>1254.6600000000001</ele>
        <time>2019-02-24T08:55:51Z</time>
      </trkpt>
      <trkpt lat="45.763853564858437" lon="8.018842292949557">
        <ele>1256.0999999999999</ele>
        <time>2019-02-24T08:56:00Z</time>
      </trkpt>
      <trkpt lat="45.763799753040075" lon="8.018872970715165">
        <ele>1256.5799999999999</ele>
        <time>2019-02-24T08:56:09Z</time>
      </trkpt>
      <trkpt lat="45.763772847130895" lon="8.018934577703476">
        <ele>1258.5</ele>
        <time>2019-02-24T08:56:20Z</time>
      </trkpt>
      <trkpt lat="45.763751221820712" lon="8.019000962376595">
        <ele>1260.4300000000001</ele>
        <time>2019-02-24T08:56:30Z</time>
      </trkpt>
      <trkpt lat="45.763737978413701" lon="8.019024766981602">
        <ele>1262.3499999999999</ele>
        <time>2019-02-24T08:56:36Z</time>
      </trkpt>
      <trkpt lat="45.763797238469124" lon="8.019027952104807">
        <ele>1261.8699999999999</ele>
        <time>2019-02-24T08:56:46Z</time>
      </trkpt>
      <trkpt lat="45.763831436634064" lon="8.019120739772916">
        <ele>1260.9100000000001</ele>
        <time>2019-02-24T08:56:57Z</time>
      </trkpt>
      <trkpt lat="45.763847446069121" lon="8.019123841077089">
        <ele>1260.9100000000001</ele>
        <time>2019-02-24T08:57:04Z</time>
      </trkpt>
      <trkpt lat="45.763833448290825" lon="8.019196763634682">
        <ele>1260.9100000000001</ele>
        <time>2019-02-24T08:57:15Z</time>
      </trkpt>
      <trkpt lat="45.763860773295164" lon="8.019273541867733">
        <ele>1260.4300000000001</ele>
        <time>2019-02-24T08:57:26Z</time>
      </trkpt>
      <trkpt lat="45.763844596222043" lon="8.019343614578247">
        <ele>1263.3099999999999</ele>
        <time>2019-02-24T08:57:36Z</time>
      </trkpt>
      <trkpt lat="45.763832442462444" lon="8.019403293728828">
        <ele>1266.1900000000001</ele>
        <time>2019-02-24T08:57:46Z</time>
      </trkpt>
      <trkpt lat="45.763865299522877" lon="8.01941410638392">
        <ele>1266.6700000000001</ele>
        <time>2019-02-24T08:57:50Z</time>
      </trkpt>
      <trkpt lat="45.763886841014028" lon="8.019437324255705">
        <ele>1269.5599999999999</ele>
        <time>2019-02-24T08:57:58Z</time>
      </trkpt>
      <trkpt lat="45.763903688639402" lon="8.019490633159876">
        <ele>1269.5599999999999</ele>
        <time>2019-02-24T08:58:07Z</time>
      </trkpt>
      <trkpt lat="45.763906538486481" lon="8.019516197964549">
        <ele>1271</ele>
        <time>2019-02-24T08:58:13Z</time>
      </trkpt>
      <trkpt lat="45.763886924833059" lon="8.019590461626649">
        <ele>1272.4400000000001</ele>
        <time>2019-02-24T08:58:22Z</time>
      </trkpt>
      <trkpt lat="45.763896061107516" lon="8.019639411941171">
        <ele>1273.8800000000001</ele>
        <time>2019-02-24T08:58:30Z</time>
      </trkpt>
      <trkpt lat="45.763860018923879" lon="8.019673358649015">
        <ele>1276.77</ele>
        <time>2019-02-24T08:58:41Z</time>
      </trkpt>
      <trkpt lat="45.763838477432728" lon="8.019688948988915">
        <ele>1277.73</ele>
        <time>2019-02-24T08:58:48Z</time>
      </trkpt>
      <trkpt lat="45.763830598443747" lon="8.019671346992254">
        <ele>1278.6900000000001</ele>
        <time>2019-02-24T08:58:55Z</time>
      </trkpt>
      <trkpt lat="45.763833615928888" lon="8.019742760807276">
        <ele>1280.6099999999999</ele>
        <time>2019-02-24T08:59:06Z</time>
      </trkpt>
      <trkpt lat="45.763828251510859" lon="8.019746700301766">
        <ele>1280.6099999999999</ele>
        <time>2019-02-24T08:59:10Z</time>
      </trkpt>
      <trkpt lat="45.763780055567622" lon="8.019765475764871">
        <ele>1282.0599999999999</ele>
        <time>2019-02-24T08:59:18Z</time>
      </trkpt>
      <trkpt lat="45.763733368366957" lon="8.019811576232314">
        <ele>1285.4200000000001</ele>
        <time>2019-02-24T08:59:26Z</time>
      </trkpt>
      <trkpt lat="45.763691458851099" lon="8.019868908450007">
        <ele>1286.3800000000001</ele>
        <time>2019-02-24T08:59:36Z</time>
      </trkpt>
      <trkpt lat="45.763724064454436" lon="8.019883576780558">
        <ele>1287.8199999999999</ele>
        <time>2019-02-24T08:59:44Z</time>
      </trkpt>
      <trkpt lat="45.763697410002351" lon="8.019941747188568">
        <ele>1290.71</ele>
        <time>2019-02-24T08:59:53Z</time>
      </trkpt>
      <trkpt lat="45.76368416659534" lon="8.019952140748501">
        <ele>1291.1900000000001</ele>
        <time>2019-02-24T08:59:55Z</time>
      </trkpt>
      <trkpt lat="45.763614093884826" lon="8.019986255094409">
        <ele>1292.1500000000001</ele>
        <time>2019-02-24T09:00:05Z</time>
      </trkpt>
      <trkpt lat="45.763603951781988" lon="8.020018776878715">
        <ele>1294.0699999999999</ele>
        <time>2019-02-24T09:00:12Z</time>
      </trkpt>
      <trkpt lat="45.763640580698848" lon="8.020042246207595">
        <ele>1296.48</ele>
        <time>2019-02-24T09:00:22Z</time>
      </trkpt>
      <trkpt lat="45.763666816055775" lon="8.020109804347158">
        <ele>1297.9200000000001</ele>
        <time>2019-02-24T09:00:32Z</time>
      </trkpt>
      <trkpt lat="45.763628259301186" lon="8.020141320303083">
        <ele>1295.51</ele>
        <time>2019-02-24T09:00:38Z</time>
      </trkpt>
      <trkpt lat="45.763592468574643" lon="8.020126819610596">
        <ele>1296.96</ele>
        <time>2019-02-24T09:00:47Z</time>
      </trkpt>
      <trkpt lat="45.763592217117548" lon="8.020141487941146">
        <ele>1297.9200000000001</ele>
        <time>2019-02-24T09:00:54Z</time>
      </trkpt>
      <trkpt lat="45.763590708374977" lon="8.020193874835968">
        <ele>1300.3199999999999</ele>
        <time>2019-02-24T09:01:04Z</time>
      </trkpt>
      <trkpt lat="45.763498758897185" lon="8.020157748833299">
        <ele>1302.24</ele>
        <time>2019-02-24T09:01:15Z</time>
      </trkpt>
      <trkpt lat="45.763495825231075" lon="8.020222038030624">
        <ele>1302.72</ele>
        <time>2019-02-24T09:01:24Z</time>
      </trkpt>
      <trkpt lat="45.763515690341592" lon="8.020254140719771">
        <ele>1304.6500000000001</ele>
        <time>2019-02-24T09:01:32Z</time>
      </trkpt>
      <trkpt lat="45.763517282903194" lon="8.020266378298402">
        <ele>1305.1300000000001</ele>
        <time>2019-02-24T09:01:34Z</time>
      </trkpt>
      <trkpt lat="45.763450479134917" lon="8.02026679739356">
        <ele>1306.0899999999999</ele>
        <time>2019-02-24T09:01:42Z</time>
      </trkpt>
      <trkpt lat="45.76340421102941" lon="8.020300073549151">
        <ele>1308.97</ele>
        <time>2019-02-24T09:01:54Z</time>
      </trkpt>
      <trkpt lat="45.763413347303867" lon="8.02033418789506">
        <ele>1310.9000000000001</ele>
        <time>2019-02-24T09:02:04Z</time>
      </trkpt>
      <trkpt lat="45.763484677299857" lon="8.020395627245307">
        <ele>1310.4100000000001</ele>
        <time>2019-02-24T09:02:15Z</time>
      </trkpt>
      <trkpt lat="45.76351803727448" lon="8.020421862602234">
        <ele>1312.3399999999999</ele>
        <time>2019-02-24T09:02:24Z</time>
      </trkpt>
      <trkpt lat="45.763559611514211" lon="8.020476931706071">
        <ele>1313.3</ele>
        <time>2019-02-24T09:02:33Z</time>
      </trkpt>
      <trkpt lat="45.763550223782659" lon="8.020549267530441">
        <ele>1315.22</ele>
        <time>2019-02-24T09:02:43Z</time>
      </trkpt>
      <trkpt lat="45.763490628451109" lon="8.02053208462894">
        <ele>1314.74</ele>
        <time>2019-02-24T09:02:53Z</time>
      </trkpt>
      <trkpt lat="45.763468416407704" lon="8.020550860092044">
        <ele>1315.7</ele>
        <time>2019-02-24T09:03:01Z</time>
      </trkpt>
      <trkpt lat="45.76345550827682" lon="8.020573658868671">
        <ele>1318.0999999999999</ele>
        <time>2019-02-24T09:03:10Z</time>
      </trkpt>
      <trkpt lat="45.763482414186001" lon="8.02065085619688">
        <ele>1319.55</ele>
        <time>2019-02-24T09:03:20Z</time>
      </trkpt>
      <trkpt lat="45.763440085574985" lon="8.02069628611207">
        <ele>1319.55</ele>
        <time>2019-02-24T09:03:31Z</time>
      </trkpt>
      <trkpt lat="45.763396332040429" lon="8.02068455144763">
        <ele>1319.55</ele>
        <time>2019-02-24T09:03:36Z</time>
      </trkpt>
      <trkpt lat="45.763332964852452" lon="8.020670469850302">
        <ele>1322.4300000000001</ele>
        <time>2019-02-24T09:03:55Z</time>
      </trkpt>
      <trkpt lat="45.763283260166645" lon="8.020638534799218">
        <ele>1325.8</ele>
        <time>2019-02-24T09:04:26Z</time>
      </trkpt>
      <trkpt lat="45.763227771967649" lon="8.020703662186861">
        <ele>1327.72</ele>
        <time>2019-02-24T09:04:37Z</time>
      </trkpt>
      <trkpt lat="45.763207655400038" lon="8.020726125687361">
        <ele>1330.5999999999999</ele>
        <time>2019-02-24T09:04:56Z</time>
      </trkpt>
      <trkpt lat="45.763185443356633" lon="8.02075588144362">
        <ele>1333.01</ele>
        <time>2019-02-24T09:05:01Z</time>
      </trkpt>
      <trkpt lat="45.763156777247787" lon="8.020766023546457">
        <ele>1336.3699999999999</ele>
        <time>2019-02-24T09:05:18Z</time>
      </trkpt>
      <trkpt lat="45.763136325404048" lon="8.020732998847961">
        <ele>1339.25</ele>
        <time>2019-02-24T09:05:22Z</time>
      </trkpt>
      <trkpt lat="45.763134900480509" lon="8.020731322467327">
        <ele>1339.73</ele>
        <time>2019-02-24T09:05:23Z</time>
      </trkpt>
      <trkpt lat="45.763142444193363" lon="8.020708188414574">
        <ele>1337.8099999999999</ele>
        <time>2019-02-24T09:05:45Z</time>
      </trkpt>
      <trkpt lat="45.763166164979339" lon="8.020678348839283">
        <ele>1336.8499999999999</ele>
        <time>2019-02-24T09:05:59Z</time>
      </trkpt>
      <trkpt lat="45.76319164596498" lon="8.0207016505301">
        <ele>1336.3699999999999</ele>
        <time>2019-02-24T09:06:12Z</time>
      </trkpt>
      <trkpt lat="45.763215031474829" lon="8.020734926685691">
        <ele>1338.77</ele>
        <time>2019-02-24T09:06:27Z</time>
      </trkpt>
      <trkpt lat="45.763239590451121" lon="8.020723192021251">
        <ele>1342.1400000000001</ele>
        <time>2019-02-24T09:06:36Z</time>
      </trkpt>
      <trkpt lat="45.763220395892859" lon="8.020719168707728">
        <ele>1345.02</ele>
        <time>2019-02-24T09:06:46Z</time>
      </trkpt>
      <trkpt lat="45.763254594057798" lon="8.020703662186861">
        <ele>1347.9100000000001</ele>
        <time>2019-02-24T09:07:05Z</time>
      </trkpt>
      <trkpt lat="45.763244116678834" lon="8.020700728520751">
        <ele>1350.3099999999999</ele>
        <time>2019-02-24T09:07:24Z</time>
      </trkpt>
      <trkpt lat="45.763210505247116" lon="8.020691256970167">
        <ele>1351.27</ele>
        <time>2019-02-24T09:07:40Z</time>
      </trkpt>
      <trkpt lat="45.763250067830086" lon="8.020684719085693">
        <ele>1352.23</ele>
        <time>2019-02-24T09:07:57Z</time>
      </trkpt>
      <trkpt lat="45.763305556029081" lon="8.020694861188531">
        <ele>1351.75</ele>
        <time>2019-02-24T09:08:18Z</time>
      </trkpt>
      <trkpt lat="45.763303292915225" lon="8.020644234493375">
        <ele>1352.23</ele>
        <time>2019-02-24T09:08:32Z</time>
      </trkpt>
      <trkpt lat="45.763259958475828" lon="8.020669799298048">
        <ele>1355.5999999999999</ele>
        <time>2019-02-24T09:08:43Z</time>
      </trkpt>
      <trkpt lat="45.763248642906547" lon="8.020660160109401">
        <ele>1358</ele>
        <time>2019-02-24T09:08:58Z</time>
      </trkpt>
      <trkpt lat="45.763192987069488" lon="8.020700309425592">
        <ele>1358</ele>
        <time>2019-02-24T09:09:16Z</time>
      </trkpt>
      <trkpt lat="45.763186365365982" lon="8.020625794306397">
        <ele>1356.0799999999999</ele>
        <time>2019-02-24T09:09:30Z</time>
      </trkpt>
      <trkpt lat="45.76328007504344" lon="8.02066158503294">
        <ele>1352.71</ele>
        <time>2019-02-24T09:09:45Z</time>
      </trkpt>
      <trkpt lat="45.763310417532921" lon="8.0207016505301">
        <ele>1353.6700000000001</ele>
        <time>2019-02-24T09:09:57Z</time>
      </trkpt>
      <trkpt lat="45.76330597512424" lon="8.020710535347462">
        <ele>1353.6700000000001</ele>
        <time>2019-02-24T09:10:11Z</time>
      </trkpt>
      <trkpt lat="45.763283427804708" lon="8.020708607509732">
        <ele>1352.71</ele>
        <time>2019-02-24T09:10:25Z</time>
      </trkpt>
      <trkpt lat="45.76329231262207" lon="8.020682455971837">
        <ele>1353.6700000000001</ele>
        <time>2019-02-24T09:10:39Z</time>
      </trkpt>
      <trkpt lat="45.763283092528582" lon="8.020693771541119">
        <ele>1353.6700000000001</ele>
        <time>2019-02-24T09:10:51Z</time>
      </trkpt>
      <trkpt lat="45.763235567137599" lon="8.02071045152843">
        <ele>1354.1500000000001</ele>
        <time>2019-02-24T09:11:03Z</time>
      </trkpt>
      <trkpt lat="45.763237411156297" lon="8.020739536732435">
        <ele>1355.5999999999999</ele>
        <time>2019-02-24T09:11:24Z</time>
      </trkpt>
      <trkpt lat="45.763197429478168" lon="8.020761664956808">
        <ele>1358</ele>
        <time>2019-02-24T09:11:39Z</time>
      </trkpt>
      <trkpt lat="45.763232549652457" lon="8.02073584869504">
        <ele>1356.5599999999999</ele>
        <time>2019-02-24T09:11:54Z</time>
      </trkpt>
      <trkpt lat="45.76322827488184" lon="8.02075395360589">
        <ele>1356.5599999999999</ele>
        <time>2019-02-24T09:12:12Z</time>
      </trkpt>
      <trkpt lat="45.763224670663476" lon="8.020803574472666">
        <ele>1353.1900000000001</ele>
        <time>2019-02-24T09:12:19Z</time>
      </trkpt>
      <trkpt lat="45.763220563530922" lon="8.020812710747123">
        <ele>1352.71</ele>
        <time>2019-02-24T09:12:21Z</time>
      </trkpt>
      <trkpt lat="45.763190723955631" lon="8.020814554765821">
        <ele>1348.8699999999999</ele>
        <time>2019-02-24T09:12:26Z</time>
      </trkpt>
      <trkpt lat="45.763189382851124" lon="8.020795527845621">
        <ele>1345.98</ele>
        <time>2019-02-24T09:12:45Z</time>
      </trkpt>
      <trkpt lat="45.763190304860473" lon="8.020789995789528">
        <ele>1343.5799999999999</ele>
        <time>2019-02-24T09:12:50Z</time>
      </trkpt>
      <trkpt lat="45.763176558539271" lon="8.02073392085731">
        <ele>1342.1400000000001</ele>
        <time>2019-02-24T09:13:09Z</time>
      </trkpt>
      <trkpt lat="45.763160800561309" lon="8.020743727684021">
        <ele>1343.5799999999999</ele>
        <time>2019-02-24T09:13:31Z</time>
      </trkpt>
      <trkpt lat="45.763156861066818" lon="8.020740374922752">
        <ele>1346.46</ele>
        <time>2019-02-24T09:13:47Z</time>
      </trkpt>
      <trkpt lat="45.763159207999706" lon="8.020724952220917">
        <ele>1348.3900000000001</ele>
        <time>2019-02-24T09:14:06Z</time>
      </trkpt>
      <trkpt lat="45.763194160535932" lon="8.020725706592202">
        <ele>1349.3499999999999</ele>
        <time>2019-02-24T09:14:24Z</time>
      </trkpt>
      <trkpt lat="45.763180498033762" lon="8.020765772089362">
        <ele>1345.5</ele>
        <time>2019-02-24T09:14:34Z</time>
      </trkpt>
      <trkpt lat="45.763176809996367" lon="8.020799132063985">
        <ele>1342.1400000000001</ele>
        <time>2019-02-24T09:14:42Z</time>
      </trkpt>
      <trkpt lat="45.763145377859473" lon="8.020776165649295">
        <ele>1341.6600000000001</ele>
        <time>2019-02-24T09:15:03Z</time>
      </trkpt>
      <trkpt lat="45.763154681771994" lon="8.020774992182851">
        <ele>1342.6199999999999</ele>
        <time>2019-02-24T09:15:18Z</time>
      </trkpt>
      <trkpt lat="45.76319701038301" lon="8.020740458741784">
        <ele>1344.54</ele>
        <time>2019-02-24T09:15:33Z</time>
      </trkpt>
      <trkpt lat="45.763226179406047" lon="8.020774070173502">
        <ele>1346.46</ele>
        <time>2019-02-24T09:15:50Z</time>
      </trkpt>
      <trkpt lat="45.763219390064478" lon="8.020780440419912">
        <ele>1344.0599999999999</ele>
        <time>2019-02-24T09:16:06Z</time>
      </trkpt>
      <trkpt lat="45.763172199949622" lon="8.020810279995203">
        <ele>1342.6199999999999</ele>
        <time>2019-02-24T09:16:24Z</time>
      </trkpt>
      <trkpt lat="45.76316038146615" lon="8.020867444574833">
        <ele>1342.6199999999999</ele>
        <time>2019-02-24T09:16:31Z</time>
      </trkpt>
      <trkpt lat="45.763162560760975" lon="8.020892757922411">
        <ele>1344.0599999999999</ele>
        <time>2019-02-24T09:16:38Z</time>
      </trkpt>
      <trkpt lat="45.763148311525583" lon="8.020963417366147">
        <ele>1342.6199999999999</ele>
        <time>2019-02-24T09:16:47Z</time>
      </trkpt>
      <trkpt lat="45.763064073398709" lon="8.020978672429919">
        <ele>1342.6199999999999</ele>
        <time>2019-02-24T09:16:56Z</time>
      </trkpt>
      <trkpt lat="45.76299861073494" lon="8.020960735157132">
        <ele>1342.1400000000001</ele>
        <time>2019-02-24T09:17:07Z</time>
      </trkpt>
      <trkpt lat="45.762942116707563" lon="8.020958639681339">
        <ele>1341.1800000000001</ele>
        <time>2019-02-24T09:17:17Z</time>
      </trkpt>
      <trkpt lat="45.762882605195045" lon="8.02095771767199">
        <ele>1343.5799999999999</ele>
        <time>2019-02-24T09:17:27Z</time>
      </trkpt>
      <trkpt lat="45.762792751193047" lon="8.020952269434929">
        <ele>1345.5</ele>
        <time>2019-02-24T09:17:39Z</time>
      </trkpt>
      <trkpt lat="45.762722594663501" lon="8.020968278869987">
        <ele>1346.9400000000001</ele>
        <time>2019-02-24T09:17:51Z</time>
      </trkpt>
      <trkpt lat="45.762652354314923" lon="8.020995939150453">
        <ele>1349.3499999999999</ele>
        <time>2019-02-24T09:18:02Z</time>
      </trkpt>
      <trkpt lat="45.762622766196728" lon="8.021013960242271">
        <ele>1351.75</ele>
        <time>2019-02-24T09:18:08Z</time>
      </trkpt>
      <trkpt lat="45.762595692649484" lon="8.021046482026577">
        <ele>1351.75</ele>
        <time>2019-02-24T09:18:17Z</time>
      </trkpt>
      <trkpt lat="45.762531571090221" lon="8.021063162013888">
        <ele>1351.27</ele>
        <time>2019-02-24T09:18:28Z</time>
      </trkpt>
      <trkpt lat="45.762487733736634" lon="8.021050589159131">
        <ele>1352.71</ele>
        <time>2019-02-24T09:18:39Z</time>
      </trkpt>
      <trkpt lat="45.762437023222446" lon="8.021058216691017">
        <ele>1356.5599999999999</ele>
        <time>2019-02-24T09:18:50Z</time>
      </trkpt>
      <trkpt lat="45.762403579428792" lon="8.021049499511719">
        <ele>1358</ele>
        <time>2019-02-24T09:19:01Z</time>
      </trkpt>
      <trkpt lat="45.762359155341983" lon="8.021070957183838">
        <ele>1357.04</ele>
        <time>2019-02-24T09:19:11Z</time>
      </trkpt>
      <trkpt lat="45.762366028502584" lon="8.021091660484672">
        <ele>1358.48</ele>
        <time>2019-02-24T09:19:23Z</time>
      </trkpt>
      <trkpt lat="45.762379774823785" lon="8.02113214507699">
        <ele>1360.4000000000001</ele>
        <time>2019-02-24T09:19:33Z</time>
      </trkpt>
      <trkpt lat="45.762391006574035" lon="8.021148573607206">
        <ele>1363.77</ele>
        <time>2019-02-24T09:19:39Z</time>
      </trkpt>
      <trkpt lat="45.762401232495904" lon="8.021155530586839">
        <ele>1364.73</ele>
        <time>2019-02-24T09:19:41Z</time>
      </trkpt>
      <trkpt lat="45.762434676289558" lon="8.02118293941021">
        <ele>1368.0899999999999</ele>
        <time>2019-02-24T09:19:47Z</time>
      </trkpt>
      <trkpt lat="45.762363681569695" lon="8.02120691165328">
        <ele>1366.1700000000001</ele>
        <time>2019-02-24T09:19:56Z</time>
      </trkpt>
      <trkpt lat="45.762293441221118" lon="8.021210432052612">
        <ele>1365.21</ele>
        <time>2019-02-24T09:20:05Z</time>
      </trkpt>
      <trkpt lat="45.762213310226798" lon="8.02120003849268">
        <ele>1366.6500000000001</ele>
        <time>2019-02-24T09:20:18Z</time>
      </trkpt>
      <trkpt lat="45.762249352410436" lon="8.021261310204864">
        <ele>1366.1700000000001</ele>
        <time>2019-02-24T09:20:27Z</time>
      </trkpt>
      <trkpt lat="45.762260667979717" lon="8.021280001848936">
        <ele>1367.6099999999999</ele>
        <time>2019-02-24T09:20:31Z</time>
      </trkpt>
      <trkpt lat="45.762293441221118" lon="8.021320067346096">
        <ele>1370.98</ele>
        <time>2019-02-24T09:20:38Z</time>
      </trkpt>
      <trkpt lat="45.76225396245718" lon="8.021374046802521">
        <ele>1374.3399999999999</ele>
        <time>2019-02-24T09:20:46Z</time>
      </trkpt>
      <trkpt lat="45.762260248884559" lon="8.021411430090666">
        <ele>1377.71</ele>
        <time>2019-02-24T09:20:53Z</time>
      </trkpt>
      <trkpt lat="45.762285478413105" lon="8.021424254402518">
        <ele>1381.0699999999999</ele>
        <time>2019-02-24T09:21:00Z</time>
      </trkpt>
      <trkpt lat="45.762260835617781" lon="8.02147077396512">
        <ele>1382.03</ele>
        <time>2019-02-24T09:21:08Z</time>
      </trkpt>
      <trkpt lat="45.762232756242156" lon="8.021540176123381">
        <ele>1384.4400000000001</ele>
        <time>2019-02-24T09:21:19Z</time>
      </trkpt>
      <trkpt lat="45.762264607474208" lon="8.021563393995166">
        <ele>1388.28</ele>
        <time>2019-02-24T09:21:26Z</time>
      </trkpt>
      <trkpt lat="45.762267373502254" lon="8.021566243842244">
        <ele>1388.28</ele>
        <time>2019-02-24T09:21:27Z</time>
      </trkpt>
      <trkpt lat="45.762306097894907" lon="8.021572111174464">
        <ele>1390.6800000000001</ele>
        <time>2019-02-24T09:21:34Z</time>
      </trkpt>
      <trkpt lat="45.762322945520282" lon="8.021563142538071">
        <ele>1394.05</ele>
        <time>2019-02-24T09:21:42Z</time>
      </trkpt>
      <trkpt lat="45.762346666306257" lon="8.021569512784481">
        <ele>1397.4100000000001</ele>
        <time>2019-02-24T09:21:49Z</time>
      </trkpt>
      <trkpt lat="45.762406010180712" lon="8.021578313782811">
        <ele>1400.3</ele>
        <time>2019-02-24T09:21:57Z</time>
      </trkpt>
      <trkpt lat="45.762426713481545" lon="8.021627515554428">
        <ele>1400.3</ele>
        <time>2019-02-24T09:22:07Z</time>
      </trkpt>
      <trkpt lat="45.762427719309926" lon="8.021633299067617">
        <ele>1397.4100000000001</ele>
        <time>2019-02-24T09:22:16Z</time>
      </trkpt>
      <trkpt lat="45.76247725635767" lon="8.021679064258933">
        <ele>1396.9300000000001</ele>
        <time>2019-02-24T09:22:26Z</time>
      </trkpt>
      <trkpt lat="45.762522434815764" lon="8.021680070087314">
        <ele>1397.4100000000001</ele>
        <time>2019-02-24T09:22:36Z</time>
      </trkpt>
      <trkpt lat="45.762540036812425" lon="8.0216945707798">
        <ele>1399.3399999999999</ele>
        <time>2019-02-24T09:22:44Z</time>
      </trkpt>
      <trkpt lat="45.762565098702908" lon="8.021717118099332">
        <ele>1399.8199999999999</ele>
        <time>2019-02-24T09:22:51Z</time>
      </trkpt>
      <trkpt lat="45.762604409828782" lon="8.021759446710348">
        <ele>1401.26</ele>
        <time>2019-02-24T09:23:00Z</time>
      </trkpt>
      <trkpt lat="45.76254615560174" lon="8.021863214671612">
        <ele>1399.8199999999999</ele>
        <time>2019-02-24T09:23:11Z</time>
      </trkpt>
      <trkpt lat="45.762545904144645" lon="8.021928761154413">
        <ele>1399.3399999999999</ele>
        <time>2019-02-24T09:23:22Z</time>
      </trkpt>
      <trkpt lat="45.762555375695229" lon="8.021962959319353">
        <ele>1400.78</ele>
        <time>2019-02-24T09:23:33Z</time>
      </trkpt>
      <trkpt lat="45.762506760656834" lon="8.02198676392436">
        <ele>1401.74</ele>
        <time>2019-02-24T09:23:44Z</time>
      </trkpt>
      <trkpt lat="45.762501312419772" lon="8.022027667611837">
        <ele>1403.1800000000001</ele>
        <time>2019-02-24T09:23:54Z</time>
      </trkpt>
      <trkpt lat="45.762519165873528" lon="8.02206689491868">
        <ele>1404.6199999999999</ele>
        <time>2019-02-24T09:24:01Z</time>
      </trkpt>
      <trkpt lat="45.762537186965346" lon="8.022116683423519">
        <ele>1407.51</ele>
        <time>2019-02-24T09:24:12Z</time>
      </trkpt>
      <trkpt lat="45.762489745393395" lon="8.022184744477272">
        <ele>1407.99</ele>
        <time>2019-02-24T09:24:24Z</time>
      </trkpt>
      <trkpt lat="45.762463845312595" lon="8.022208968177438">
        <ele>1408.95</ele>
        <time>2019-02-24T09:24:32Z</time>
      </trkpt>
      <trkpt lat="45.762421349063516" lon="8.022234449163079">
        <ele>1410.3900000000001</ele>
        <time>2019-02-24T09:24:43Z</time>
      </trkpt>
      <trkpt lat="45.762387234717607" lon="8.02226185798645">
        <ele>1410.3900000000001</ele>
        <time>2019-02-24T09:24:54Z</time>
      </trkpt>
      <trkpt lat="45.762372985482216" lon="8.022310892120004">
        <ele>1413.76</ele>
        <time>2019-02-24T09:25:01Z</time>
      </trkpt>
      <trkpt lat="45.762390671297908" lon="8.022338803857565">
        <ele>1417.1199999999999</ele>
        <time>2019-02-24T09:25:09Z</time>
      </trkpt>
      <trkpt lat="45.762378098443151" lon="8.022382725030184">
        <ele>1419.04</ele>
        <time>2019-02-24T09:25:19Z</time>
      </trkpt>
      <trkpt lat="45.762365777045488" lon="8.022399237379432">
        <ele>1420.97</ele>
        <time>2019-02-24T09:25:31Z</time>
      </trkpt>
      <trkpt lat="45.762331914156675" lon="8.022411558777094">
        <ele>1422.8900000000001</ele>
        <time>2019-02-24T09:25:43Z</time>
      </trkpt>
      <trkpt lat="45.762273157015443" lon="8.022416085004807">
        <ele>1423.3699999999999</ele>
        <time>2019-02-24T09:25:52Z</time>
      </trkpt>
      <trkpt lat="45.762241892516613" lon="8.022492025047541">
        <ele>1425.77</ele>
        <time>2019-02-24T09:26:01Z</time>
      </trkpt>
      <trkpt lat="45.7622373662889" lon="8.022502502426505">
        <ele>1425.77</ele>
        <time>2019-02-24T09:26:02Z</time>
      </trkpt>
      <trkpt lat="45.76219042763114" lon="8.022486912086606">
        <ele>1427.21</ele>
        <time>2019-02-24T09:26:11Z</time>
      </trkpt>
      <trkpt lat="45.762117505073547" lon="8.022465957328677">
        <ele>1425.29</ele>
        <time>2019-02-24T09:26:20Z</time>
      </trkpt>
      <trkpt lat="45.76211909763515" lon="8.022495629265904">
        <ele>1424.3299999999999</ele>
        <time>2019-02-24T09:26:24Z</time>
      </trkpt>
      <trkpt lat="45.762121779844165" lon="8.022537706419826">
        <ele>1423.8499999999999</ele>
        <time>2019-02-24T09:26:33Z</time>
      </trkpt>
      <trkpt lat="45.762140890583396" lon="8.022582465782762">
        <ele>1424.8099999999999</ele>
        <time>2019-02-24T09:26:42Z</time>
      </trkpt>
      <trkpt lat="45.762185649946332" lon="8.022635774686933">
        <ele>1427.21</ele>
        <time>2019-02-24T09:26:53Z</time>
      </trkpt>
      <trkpt lat="45.762176513671875" lon="8.022692603990436">
        <ele>1428.1800000000001</ele>
        <time>2019-02-24T09:27:04Z</time>
      </trkpt>
      <trkpt lat="45.762174082919955" lon="8.022757060825825">
        <ele>1429.1400000000001</ele>
        <time>2019-02-24T09:27:13Z</time>
      </trkpt>
      <trkpt lat="45.762167545035481" lon="8.022814644500613">
        <ele>1429.6199999999999</ele>
        <time>2019-02-24T09:27:22Z</time>
      </trkpt>
      <trkpt lat="45.76213913038373" lon="8.022883208468556">
        <ele>1430.5799999999999</ele>
        <time>2019-02-24T09:27:34Z</time>
      </trkpt>
      <trkpt lat="45.762163521721959" lon="8.022933583706617">
        <ele>1432.02</ele>
        <time>2019-02-24T09:27:45Z</time>
      </trkpt>
      <trkpt lat="45.762117924168706" lon="8.022893937304616">
        <ele>1432.5</ele>
        <time>2019-02-24T09:27:52Z</time>
      </trkpt>
      <trkpt lat="45.762065453454852" lon="8.022861583158374">
        <ele>1432.98</ele>
        <time>2019-02-24T09:28:02Z</time>
      </trkpt>
      <trkpt lat="45.762040643021464" lon="8.022870048880577">
        <ele>1433.9400000000001</ele>
        <time>2019-02-24T09:28:08Z</time>
      </trkpt>
      <trkpt lat="45.761987753212452" lon="8.022852949798107">
        <ele>1435.8699999999999</ele>
        <time>2019-02-24T09:28:17Z</time>
      </trkpt>
      <trkpt lat="45.761969396844506" lon="8.022871557623148">
        <ele>1436.8299999999999</ele>
        <time>2019-02-24T09:28:27Z</time>
      </trkpt>
      <trkpt lat="45.76196227222681" lon="8.022827971726656">
        <ele>1437.3099999999999</ele>
        <time>2019-02-24T09:28:36Z</time>
      </trkpt>
      <trkpt lat="45.761897983029485" lon="8.022814141586423">
        <ele>1437.79</ele>
        <time>2019-02-24T09:28:48Z</time>
      </trkpt>
      <trkpt lat="45.761874429881573" lon="8.022834677249193">
        <ele>1438.75</ele>
        <time>2019-02-24T09:28:56Z</time>
      </trkpt>
      <trkpt lat="45.76182346791029" lon="8.022833839058876">
        <ele>1440.1900000000001</ele>
        <time>2019-02-24T09:29:05Z</time>
      </trkpt>
      <trkpt lat="45.761820198968053" lon="8.022879101336002">
        <ele>1442.1099999999999</ele>
        <time>2019-02-24T09:29:16Z</time>
      </trkpt>
      <trkpt lat="45.761867221444845" lon="8.0229552090168">
        <ele>1443.0799999999999</ele>
        <time>2019-02-24T09:29:26Z</time>
      </trkpt>
      <trkpt lat="45.761860683560371" lon="8.023000890389085">
        <ele>1443.5599999999999</ele>
        <time>2019-02-24T09:29:37Z</time>
      </trkpt>
      <trkpt lat="45.761838220059872" lon="8.02305051125586">
        <ele>1444.52</ele>
        <time>2019-02-24T09:29:44Z</time>
      </trkpt>
      <trkpt lat="45.761817768216133" lon="8.023099880665541">
        <ele>1446.4400000000001</ele>
        <time>2019-02-24T09:29:53Z</time>
      </trkpt>
      <trkpt lat="45.761777954176068" lon="8.023095773532987">
        <ele>1446.4400000000001</ele>
        <time>2019-02-24T09:30:01Z</time>
      </trkpt>
      <trkpt lat="45.761703522875905" lon="8.023034082725644">
        <ele>1448.3599999999999</ele>
        <time>2019-02-24T09:30:14Z</time>
      </trkpt>
      <trkpt lat="45.761680556461215" lon="8.023011786863208">
        <ele>1449.3199999999999</ele>
        <time>2019-02-24T09:30:23Z</time>
      </trkpt>
      <trkpt lat="45.761670498177409" lon="8.023008853197098">
        <ele>1451.73</ele>
        <time>2019-02-24T09:30:30Z</time>
      </trkpt>
      <trkpt lat="45.761662619188428" lon="8.02300063893199">
        <ele>1453.6500000000001</ele>
        <time>2019-02-24T09:30:41Z</time>
      </trkpt>
      <trkpt lat="45.761649375781417" lon="8.023027712479234">
        <ele>1455.5699999999999</ele>
        <time>2019-02-24T09:30:51Z</time>
      </trkpt>
      <trkpt lat="45.761644849553704" lon="8.02309057675302">
        <ele>1457.02</ele>
        <time>2019-02-24T09:31:00Z</time>
      </trkpt>
      <trkpt lat="45.76164610683918" lon="8.023132402449846">
        <ele>1458.9400000000001</ele>
        <time>2019-02-24T09:31:12Z</time>
      </trkpt>
      <trkpt lat="45.761656919494271" lon="8.023185711354017">
        <ele>1460.3800000000001</ele>
        <time>2019-02-24T09:31:21Z</time>
      </trkpt>
      <trkpt lat="45.761606376618147" lon="8.023156123235822">
        <ele>1461.3399999999999</ele>
        <time>2019-02-24T09:31:31Z</time>
      </trkpt>
      <trkpt lat="45.761584918946028" lon="8.023127792403102">
        <ele>1462.78</ele>
        <time>2019-02-24T09:31:39Z</time>
      </trkpt>
      <trkpt lat="45.761573016643524" lon="8.023160398006439">
        <ele>1462.78</ele>
        <time>2019-02-24T09:31:50Z</time>
      </trkpt>
      <trkpt lat="45.7616036105901" lon="8.023231392726302">
        <ele>1463.74</ele>
        <time>2019-02-24T09:31:58Z</time>
      </trkpt>
      <trkpt lat="45.761630097404122" lon="8.023293586447835">
        <ele>1465.1900000000001</ele>
        <time>2019-02-24T09:32:09Z</time>
      </trkpt>
      <trkpt lat="45.761623056605458" lon="8.023324934765697">
        <ele>1466.6300000000001</ele>
        <time>2019-02-24T09:32:20Z</time>
      </trkpt>
      <trkpt lat="45.761564131826162" lon="8.023305824026465">
        <ele>1472.8800000000001</ele>
        <time>2019-02-24T09:32:27Z</time>
      </trkpt>
      <trkpt lat="45.761557258665562" lon="8.023306494578719">
        <ele>1468.55</ele>
        <time>2019-02-24T09:32:28Z</time>
      </trkpt>
      <trkpt lat="45.761556588113308" lon="8.023294173181057">
        <ele>1467.5899999999999</ele>
        <time>2019-02-24T09:32:30Z</time>
      </trkpt>
      <trkpt lat="45.761504452675581" lon="8.023301213979721">
        <ele>1469.99</ele>
        <time>2019-02-24T09:32:37Z</time>
      </trkpt>
      <trkpt lat="45.761501183733344" lon="8.023293502628803">
        <ele>1471.4400000000001</ele>
        <time>2019-02-24T09:32:42Z</time>
      </trkpt>
      <trkpt lat="45.761458771303296" lon="8.023285204544663">
        <ele>1472.4000000000001</ele>
        <time>2019-02-24T09:32:54Z</time>
      </trkpt>
      <trkpt lat="45.761454915627837" lon="8.023319821804762">
        <ele>1469.99</ele>
        <time>2019-02-24T09:32:59Z</time>
      </trkpt>
      <trkpt lat="45.761440917849541" lon="8.023318815976381">
        <ele>1470.47</ele>
        <time>2019-02-24T09:33:09Z</time>
      </trkpt>
      <trkpt lat="45.761424908414483" lon="8.023337591439486">
        <ele>1473.8399999999999</ele>
        <time>2019-02-24T09:33:17Z</time>
      </trkpt>
      <trkpt lat="45.761423651129007" lon="8.023342620581389">
        <ele>1474.8</ele>
        <time>2019-02-24T09:33:19Z</time>
      </trkpt>
      <trkpt lat="45.761398756876588" lon="8.023317810148001">
        <ele>1474.3199999999999</ele>
        <time>2019-02-24T09:33:24Z</time>
      </trkpt>
      <trkpt lat="45.761370677500963" lon="8.023288641124964">
        <ele>1475.28</ele>
        <time>2019-02-24T09:33:28Z</time>
      </trkpt>
      <trkpt lat="45.761303957551718" lon="8.023246480152011">
        <ele>1476.24</ele>
        <time>2019-02-24T09:33:39Z</time>
      </trkpt>
      <trkpt lat="45.761271771043539" lon="8.023280762135983">
        <ele>1476.72</ele>
        <time>2019-02-24T09:33:49Z</time>
      </trkpt>
      <trkpt lat="45.76126204803586" lon="8.023379081860185">
        <ele>1478.6500000000001</ele>
        <time>2019-02-24T09:34:03Z</time>
      </trkpt>
      <trkpt lat="45.76126984320581" lon="8.023454183712602">
        <ele>1479.6099999999999</ele>
        <time>2019-02-24T09:34:13Z</time>
      </trkpt>
      <trkpt lat="45.761283840984106" lon="8.023518556728959">
        <ele>1480.5699999999999</ele>
        <time>2019-02-24T09:34:23Z</time>
      </trkpt>
      <trkpt lat="45.761243272572756" lon="8.023515203967691">
        <ele>1480.5699999999999</ele>
        <time>2019-02-24T09:34:32Z</time>
      </trkpt>
      <trkpt lat="45.761198094114661" lon="8.023469522595406">
        <ele>1482.01</ele>
        <time>2019-02-24T09:34:48Z</time>
      </trkpt>
      <trkpt lat="45.761144366115332" lon="8.02347413264215">
        <ele>1484.8900000000001</ele>
        <time>2019-02-24T09:34:56Z</time>
      </trkpt>
      <trkpt lat="45.76108125038445" lon="8.023484526202083">
        <ele>1486.3399999999999</ele>
        <time>2019-02-24T09:35:07Z</time>
      </trkpt>
      <trkpt lat="45.761049399152398" lon="8.023478239774704">
        <ele>1487.78</ele>
        <time>2019-02-24T09:35:19Z</time>
      </trkpt>
      <trkpt lat="45.761018302291632" lon="8.023486621677876">
        <ele>1489.7</ele>
        <time>2019-02-24T09:35:30Z</time>
      </trkpt>
      <trkpt lat="45.760943870991468" lon="8.023407161235809">
        <ele>1491.1400000000001</ele>
        <time>2019-02-24T09:35:42Z</time>
      </trkpt>
      <trkpt lat="45.760859632864594" lon="8.023392241448164">
        <ele>1492.0999999999999</ele>
        <time>2019-02-24T09:35:55Z</time>
      </trkpt>
      <trkpt lat="45.760825518518686" lon="8.023410430178046">
        <ele>1493.0599999999999</ele>
        <time>2019-02-24T09:36:07Z</time>
      </trkpt>
      <trkpt lat="45.760771119967103" lon="8.023401880636811">
        <ele>1495.47</ele>
        <time>2019-02-24T09:36:19Z</time>
      </trkpt>
      <trkpt lat="45.760736502707005" lon="8.023428535088897">
        <ele>1496.9100000000001</ele>
        <time>2019-02-24T09:36:29Z</time>
      </trkpt>
      <trkpt lat="45.760753937065601" lon="8.023452423512936">
        <ele>1498.3499999999999</ele>
        <time>2019-02-24T09:36:40Z</time>
      </trkpt>
      <trkpt lat="45.760773299261928" lon="8.023499445989728">
        <ele>1500.27</ele>
        <time>2019-02-24T09:36:49Z</time>
      </trkpt>
      <trkpt lat="45.760810514912009" lon="8.023516964167357">
        <ele>1501.24</ele>
        <time>2019-02-24T09:36:57Z</time>
      </trkpt>
      <trkpt lat="45.760869858786464" lon="8.02359382621944">
        <ele>1502.6800000000001</ele>
        <time>2019-02-24T09:37:09Z</time>
      </trkpt>
      <trkpt lat="45.760896429419518" lon="8.02362265996635">
        <ele>1504.5999999999999</ele>
        <time>2019-02-24T09:37:22Z</time>
      </trkpt>
      <trkpt lat="45.760938841849566" lon="8.023638669401407">
        <ele>1509.4100000000001</ele>
        <time>2019-02-24T09:37:27Z</time>
      </trkpt>
      <trkpt lat="45.760920653119683" lon="8.023660210892558">
        <ele>1509.8900000000001</ele>
        <time>2019-02-24T09:37:28Z</time>
      </trkpt>
      <trkpt lat="45.760901374742389" lon="8.023668425157666">
        <ele>1507.97</ele>
        <time>2019-02-24T09:37:32Z</time>
      </trkpt>
      <trkpt lat="45.760849323123693" lon="8.023685943335295">
        <ele>1511.3299999999999</ele>
        <time>2019-02-24T09:37:40Z</time>
      </trkpt>
      <trkpt lat="45.760861728340387" lon="8.023699186742306">
        <ele>1514.21</ele>
        <time>2019-02-24T09:37:44Z</time>
      </trkpt>
      <trkpt lat="45.76089701615274" lon="8.023773701861501">
        <ele>1514.6900000000001</ele>
        <time>2019-02-24T09:37:58Z</time>
      </trkpt>
      <trkpt lat="45.760901039466262" lon="8.023801948875189">
        <ele>1516.6199999999999</ele>
        <time>2019-02-24T09:38:00Z</time>
      </trkpt>
      <trkpt lat="45.760900033637881" lon="8.023848719894886">
        <ele>1516.6199999999999</ele>
        <time>2019-02-24T09:38:12Z</time>
      </trkpt>
      <trkpt lat="45.760910427197814" lon="8.023910745978355">
        <ele>1519.02</ele>
        <time>2019-02-24T09:38:24Z</time>
      </trkpt>
      <trkpt lat="45.760838175192475" lon="8.023938490077853">
        <ele>1519.98</ele>
        <time>2019-02-24T09:38:38Z</time>
      </trkpt>
      <trkpt lat="45.76081202365458" lon="8.023982914164662">
        <ele>1519.5</ele>
        <time>2019-02-24T09:38:48Z</time>
      </trkpt>
      <trkpt lat="45.760837001726031" lon="8.02401359193027">
        <ele>1519.98</ele>
        <time>2019-02-24T09:38:57Z</time>
      </trkpt>
      <trkpt lat="45.760833481326699" lon="8.023999594151974">
        <ele>1519.98</ele>
        <time>2019-02-24T09:39:10Z</time>
      </trkpt>
      <trkpt lat="45.76084328815341" lon="8.02401015534997">
        <ele>1520.9400000000001</ele>
        <time>2019-02-24T09:39:20Z</time>
      </trkpt>
      <trkpt lat="45.760829541832209" lon="8.024105625227094">
        <ele>1521.4200000000001</ele>
        <time>2019-02-24T09:39:33Z</time>
      </trkpt>
      <trkpt lat="45.760781848803163" lon="8.024162705987692">
        <ele>1522.8699999999999</ele>
        <time>2019-02-24T09:39:45Z</time>
      </trkpt>
      <trkpt lat="45.760704148560762" lon="8.024169746786356">
        <ele>1524.3099999999999</ele>
        <time>2019-02-24T09:39:56Z</time>
      </trkpt>
      <trkpt lat="45.760638685896993" lon="8.024153569713235">
        <ele>1525.27</ele>
        <time>2019-02-24T09:40:08Z</time>
      </trkpt>
      <trkpt lat="45.760610438883305" lon="8.024153653532267">
        <ele>1525.75</ele>
        <time>2019-02-24T09:40:20Z</time>
      </trkpt>
      <trkpt lat="45.760556710883975" lon="8.02415281534195">
        <ele>1526.71</ele>
        <time>2019-02-24T09:40:30Z</time>
      </trkpt>
      <trkpt lat="45.760523434728384" lon="8.024158766493201">
        <ele>1527.6700000000001</ele>
        <time>2019-02-24T09:40:39Z</time>
      </trkpt>
      <trkpt lat="45.760472305119038" lon="8.024134458974004">
        <ele>1529.1099999999999</ele>
        <time>2019-02-24T09:40:51Z</time>
      </trkpt>
      <trkpt lat="45.760433161631227" lon="8.024110905826092">
        <ele>1530.0799999999999</ele>
        <time>2019-02-24T09:40:57Z</time>
      </trkpt>
      <trkpt lat="45.760356215760112" lon="8.024071091786027">
        <ele>1531.04</ele>
        <time>2019-02-24T09:41:07Z</time>
      </trkpt>
      <trkpt lat="45.760276084765792" lon="8.024018537253141">
        <ele>1532.48</ele>
        <time>2019-02-24T09:41:17Z</time>
      </trkpt>
      <trkpt lat="45.760204754769802" lon="8.023973358795047">
        <ele>1532.96</ele>
        <time>2019-02-24T09:41:26Z</time>
      </trkpt>
      <trkpt lat="45.760189583525062" lon="8.023974867537618">
        <ele>1532.96</ele>
        <time>2019-02-24T09:41:28Z</time>
      </trkpt>
      <trkpt lat="45.76009470038116" lon="8.023982411250472">
        <ele>1534.4000000000001</ele>
        <time>2019-02-24T09:41:39Z</time>
      </trkpt>
      <trkpt lat="45.760088916867971" lon="8.023978136479855">
        <ele>1534.4000000000001</ele>
        <time>2019-02-24T09:41:40Z</time>
      </trkpt>
      <trkpt lat="45.760006941854954" lon="8.023945111781359">
        <ele>1535.3599999999999</ele>
        <time>2019-02-24T09:41:50Z</time>
      </trkpt>
      <trkpt lat="45.759941646829247" lon="8.023936897516251">
        <ele>1535.8399999999999</ele>
        <time>2019-02-24T09:42:01Z</time>
      </trkpt>
      <trkpt lat="45.759872579947114" lon="8.023896245285869">
        <ele>1536.8</ele>
        <time>2019-02-24T09:42:11Z</time>
      </trkpt>
      <trkpt lat="45.759809715673327" lon="8.023935640230775">
        <ele>1537.77</ele>
        <time>2019-02-24T09:42:21Z</time>
      </trkpt>
      <trkpt lat="45.759800998494029" lon="8.023942345753312">
        <ele>1539.21</ele>
        <time>2019-02-24T09:42:33Z</time>
      </trkpt>
      <trkpt lat="45.759808626025915" lon="8.02393295802176">
        <ele>1539.6900000000001</ele>
        <time>2019-02-24T09:42:42Z</time>
      </trkpt>
      <trkpt lat="45.759804099798203" lon="8.023959612473846">
        <ele>1540.1700000000001</ele>
        <time>2019-02-24T09:43:01Z</time>
      </trkpt>
      <trkpt lat="45.759809296578169" lon="8.024003868922591">
        <ele>1541.6099999999999</ele>
        <time>2019-02-24T09:43:23Z</time>
      </trkpt>
      <trkpt lat="45.759807117283344" lon="8.023960031569004">
        <ele>1542.5699999999999</ele>
        <time>2019-02-24T09:43:44Z</time>
      </trkpt>
      <trkpt lat="45.759816588833928" lon="8.023896832019091">
        <ele>1529.1099999999999</ele>
        <time>2019-02-24T09:43:56Z</time>
      </trkpt>
      <trkpt lat="45.759809464216232" lon="8.023894736543298">
        <ele>1529.5899999999999</ele>
        <time>2019-02-24T09:43:57Z</time>
      </trkpt>
      <trkpt lat="45.759793538600206" lon="8.023909572511911">
        <ele>1526.23</ele>
        <time>2019-02-24T09:44:04Z</time>
      </trkpt>
      <trkpt lat="45.759792197495699" lon="8.023900017142296">
        <ele>1523.8299999999999</ele>
        <time>2019-02-24T09:44:07Z</time>
      </trkpt>
      <trkpt lat="45.759801836684346" lon="8.023903872817755">
        <ele>1527.1900000000001</ele>
        <time>2019-02-24T09:44:12Z</time>
      </trkpt>
      <trkpt lat="45.759786581620574" lon="8.023887276649475">
        <ele>1524.3099999999999</ele>
        <time>2019-02-24T09:44:18Z</time>
      </trkpt>
      <trkpt lat="45.759771578013897" lon="8.023866908624768">
        <ele>1520.46</ele>
        <time>2019-02-24T09:44:29Z</time>
      </trkpt>
      <trkpt lat="45.759766465052962" lon="8.023859029635787">
        <ele>1516.1400000000001</ele>
        <time>2019-02-24T09:44:31Z</time>
      </trkpt>
      <trkpt lat="45.759760765358806" lon="8.023850563913584">
        <ele>1512.29</ele>
        <time>2019-02-24T09:44:33Z</time>
      </trkpt>
      <trkpt lat="45.759754898026586" lon="8.023845199495554">
        <ele>1508.9300000000001</ele>
        <time>2019-02-24T09:44:35Z</time>
      </trkpt>
      <trkpt lat="45.759747019037604" lon="8.02384402602911">
        <ele>1505.0799999999999</ele>
        <time>2019-02-24T09:44:38Z</time>
      </trkpt>
      <trkpt lat="45.759745175018907" lon="8.023844696581364">
        <ele>1505.0799999999999</ele>
        <time>2019-02-24T09:44:39Z</time>
      </trkpt>
      <trkpt lat="45.759742157533765" lon="8.023875039070845">
        <ele>1507.97</ele>
        <time>2019-02-24T09:44:45Z</time>
      </trkpt>
      <trkpt lat="45.759747689589858" lon="8.023890964686871">
        <ele>1511.3299999999999</ele>
        <time>2019-02-24T09:44:50Z</time>
      </trkpt>
      <trkpt lat="45.759751293808222" lon="8.023895490914583">
        <ele>1514.6900000000001</ele>
        <time>2019-02-24T09:44:54Z</time>
      </trkpt>
      <trkpt lat="45.759755736216903" lon="8.023900100961328">
        <ele>1516.6199999999999</ele>
        <time>2019-02-24T09:44:57Z</time>
      </trkpt>
      <trkpt lat="45.75974534265697" lon="8.023886354640126">
        <ele>1520.9400000000001</ele>
        <time>2019-02-24T09:45:17Z</time>
      </trkpt>
      <trkpt lat="45.759751377627254" lon="8.023895407095552">
        <ele>1523.8299999999999</ele>
        <time>2019-02-24T09:45:20Z</time>
      </trkpt>
      <trkpt lat="45.759764201939106" lon="8.023908231407404">
        <ele>1528.1500000000001</ele>
        <time>2019-02-24T09:45:24Z</time>
      </trkpt>
      <trkpt lat="45.759774846956134" lon="8.023908482864499">
        <ele>1532</ele>
        <time>2019-02-24T09:45:27Z</time>
      </trkpt>
      <trkpt lat="45.759785575792193" lon="8.023917702957988">
        <ele>1533.9200000000001</ele>
        <time>2019-02-24T09:45:30Z</time>
      </trkpt>
      <trkpt lat="45.759804854169488" lon="8.023965395987034">
        <ele>1536.3199999999999</ele>
        <time>2019-02-24T09:45:57Z</time>
      </trkpt>
      <trkpt lat="45.759806027635932" lon="8.0239671561867">
        <ele>1536.8</ele>
        <time>2019-02-24T09:45:58Z</time>
      </trkpt>
      <trkpt lat="45.759806362912059" lon="8.02398769184947">
        <ele>1539.6900000000001</ele>
        <time>2019-02-24T09:46:11Z</time>
      </trkpt>
      <trkpt lat="45.759807033464313" lon="8.023993140086532">
        <ele>1540.6500000000001</ele>
        <time>2019-02-24T09:46:13Z</time>
      </trkpt>
      <trkpt lat="45.759797813370824" lon="8.023994984105229">
        <ele>1543.53</ele>
        <time>2019-02-24T09:46:22Z</time>
      </trkpt>
      <trkpt lat="45.759798567742109" lon="8.023951984941959">
        <ele>1544.98</ele>
        <time>2019-02-24T09:46:43Z</time>
      </trkpt>
      <trkpt lat="45.759785324335098" lon="8.023935053497553">
        <ele>1544.5</ele>
        <time>2019-02-24T09:46:56Z</time>
      </trkpt>
      <trkpt lat="45.75979370623827" lon="8.023977633565664">
        <ele>1544.01</ele>
        <time>2019-02-24T09:47:11Z</time>
      </trkpt>
      <trkpt lat="45.759778702631593" lon="8.023952152580023">
        <ele>1546.9000000000001</ele>
        <time>2019-02-24T09:47:25Z</time>
      </trkpt>
      <trkpt lat="45.75975607149303" lon="8.023921139538288">
        <ele>1544.98</ele>
        <time>2019-02-24T09:47:40Z</time>
      </trkpt>
      <trkpt lat="45.759764453396201" lon="8.023913679644465">
        <ele>1545.46</ele>
        <time>2019-02-24T09:47:56Z</time>
      </trkpt>
      <trkpt lat="45.75977467931807" lon="8.023909404873848">
        <ele>1546.9000000000001</ele>
        <time>2019-02-24T09:48:14Z</time>
      </trkpt>
      <trkpt lat="45.759781217202544" lon="8.023943183943629">
        <ele>1549.3</ele>
        <time>2019-02-24T09:48:31Z</time>
      </trkpt>
      <trkpt lat="45.759772248566151" lon="8.023935975506902">
        <ele>1551.22</ele>
        <time>2019-02-24T09:48:47Z</time>
      </trkpt>
      <trkpt lat="45.759763699024916" lon="8.023928431794047">
        <ele>1551.71</ele>
        <time>2019-02-24T09:48:56Z</time>
      </trkpt>
      <trkpt lat="45.759755820035934" lon="8.023934634402394">
        <ele>1553.1500000000001</ele>
        <time>2019-02-24T09:49:12Z</time>
      </trkpt>
      <trkpt lat="45.7597575802356" lon="8.023929772898555">
        <ele>1554.5899999999999</ele>
        <time>2019-02-24T09:49:27Z</time>
      </trkpt>
      <trkpt lat="45.759746516123414" lon="8.023929018527269">
        <ele>1555.0699999999999</ele>
        <time>2019-02-24T09:49:42Z</time>
      </trkpt>
      <trkpt lat="45.759744672104716" lon="8.023927761241794">
        <ele>1556.51</ele>
        <time>2019-02-24T09:49:56Z</time>
      </trkpt>
      <trkpt lat="45.759735871106386" lon="8.023925665766001">
        <ele>1557.47</ele>
        <time>2019-02-24T09:50:11Z</time>
      </trkpt>
      <trkpt lat="45.759773422032595" lon="8.023944441229105">
        <ele>1554.5899999999999</ele>
        <time>2019-02-24T09:50:34Z</time>
      </trkpt>
      <trkpt lat="45.759758334606886" lon="8.023964306339622">
        <ele>1556.99</ele>
        <time>2019-02-24T09:50:50Z</time>
      </trkpt>
      <trkpt lat="45.759760262444615" lon="8.023972688242793">
        <ele>1557.47</ele>
        <time>2019-02-24T09:51:06Z</time>
      </trkpt>
      <trkpt lat="45.759775768965483" lon="8.023970592767">
        <ele>1559.8800000000001</ele>
        <time>2019-02-24T09:51:20Z</time>
      </trkpt>
      <trkpt lat="45.75974877923727" lon="8.02388752810657">
        <ele>1558.9200000000001</ele>
        <time>2019-02-24T09:51:44Z</time>
      </trkpt>
      <trkpt lat="45.75976193882525" lon="8.023893143981695">
        <ele>1556.51</ele>
        <time>2019-02-24T09:52:01Z</time>
      </trkpt>
      <trkpt lat="45.759769733995199" lon="8.023898005485535">
        <ele>1557.95</ele>
        <time>2019-02-24T09:52:16Z</time>
      </trkpt>
      <trkpt lat="45.759747270494699" lon="8.023903788998723">
        <ele>1559.8800000000001</ele>
        <time>2019-02-24T09:52:31Z</time>
      </trkpt>
      <trkpt lat="45.759741738438606" lon="8.023919127881527">
        <ele>1561.3199999999999</ele>
        <time>2019-02-24T09:52:44Z</time>
      </trkpt>
      <trkpt lat="45.75974240899086" lon="8.023921307176352">
        <ele>1562.28</ele>
        <time>2019-02-24T09:53:01Z</time>
      </trkpt>
      <trkpt lat="45.759727992117405" lon="8.023900017142296">
        <ele>1562.28</ele>
        <time>2019-02-24T09:53:15Z</time>
      </trkpt>
      <trkpt lat="45.759717263281345" lon="8.02390462718904">
        <ele>1563.72</ele>
        <time>2019-02-24T09:53:29Z</time>
      </trkpt>
      <trkpt lat="45.759719274938107" lon="8.023958103731275">
        <ele>1567.5699999999999</ele>
        <time>2019-02-24T09:53:43Z</time>
      </trkpt>
      <trkpt lat="45.759740397334099" lon="8.02398526109755">
        <ele>1570.45</ele>
        <time>2019-02-24T09:53:47Z</time>
      </trkpt>
      <trkpt lat="45.759738134220243" lon="8.024003952741623">
        <ele>1572.8499999999999</ele>
        <time>2019-02-24T09:53:55Z</time>
      </trkpt>
      <trkpt lat="45.759751964360476" lon="8.024013424292207">
        <ele>1567.0899999999999</ele>
        <time>2019-02-24T09:53:57Z</time>
      </trkpt>
      <trkpt lat="45.759760178625584" lon="8.024014011025429">
        <ele>1564.2</ele>
        <time>2019-02-24T09:53:58Z</time>
      </trkpt>
      <trkpt lat="45.759766884148121" lon="8.024011999368668">
        <ele>1560.3599999999999</ele>
        <time>2019-02-24T09:54:00Z</time>
      </trkpt>
      <trkpt lat="45.759768141433597" lon="8.024020465090871">
        <ele>1557.47</ele>
        <time>2019-02-24T09:54:06Z</time>
      </trkpt>
      <trkpt lat="45.759774846956134" lon="8.024000516161323">
        <ele>1555.55</ele>
        <time>2019-02-24T09:54:20Z</time>
      </trkpt>
      <trkpt lat="45.759785240516067" lon="8.024012669920921">
        <ele>1552.1900000000001</ele>
        <time>2019-02-24T09:54:40Z</time>
      </trkpt>
      <trkpt lat="45.759794879704714" lon="8.023999091237783">
        <ele>1548.3399999999999</ele>
        <time>2019-02-24T09:54:44Z</time>
      </trkpt>
      <trkpt lat="45.759787922725081" lon="8.023991715162993">
        <ele>1545.9400000000001</ele>
        <time>2019-02-24T09:55:02Z</time>
      </trkpt>
      <trkpt lat="45.759779792279005" lon="8.023991463705897">
        <ele>1545.9400000000001</ele>
        <time>2019-02-24T09:55:17Z</time>
      </trkpt>
      <trkpt lat="45.759775014594197" lon="8.023991128429771">
        <ele>1546.9000000000001</ele>
        <time>2019-02-24T09:55:31Z</time>
      </trkpt>
      <trkpt lat="45.759776942431927" lon="8.023993643000722">
        <ele>1546.4200000000001</ele>
        <time>2019-02-24T09:55:42Z</time>
      </trkpt>
      <trkpt lat="45.759770153090358" lon="8.023985931649804">
        <ele>1544.98</ele>
        <time>2019-02-24T09:55:59Z</time>
      </trkpt>
      <trkpt lat="45.759769482538104" lon="8.023993726819754">
        <ele>1544.5</ele>
        <time>2019-02-24T09:56:15Z</time>
      </trkpt>
      <trkpt lat="45.759767051786184" lon="8.023986769840121">
        <ele>1545.46</ele>
        <time>2019-02-24T09:56:23Z</time>
      </trkpt>
      <trkpt lat="45.759719861671329" lon="8.024028930813074">
        <ele>1546.9000000000001</ele>
        <time>2019-02-24T09:56:34Z</time>
      </trkpt>
      <trkpt lat="45.759701253846288" lon="8.024087771773338">
        <ele>1547.3800000000001</ele>
        <time>2019-02-24T09:56:44Z</time>
      </trkpt>
      <trkpt lat="45.759686585515738" lon="8.024125574156642">
        <ele>1548.3399999999999</ele>
        <time>2019-02-24T09:56:53Z</time>
      </trkpt>
      <trkpt lat="45.759663954377174" lon="8.024178799241781">
        <ele>1549.78</ele>
        <time>2019-02-24T09:57:03Z</time>
      </trkpt>
      <trkpt lat="45.759659009054303" lon="8.024220373481512">
        <ele>1553.1500000000001</ele>
        <time>2019-02-24T09:57:11Z</time>
      </trkpt>
      <trkpt lat="45.759663619101048" lon="8.024278627708554">
        <ele>1553.1500000000001</ele>
        <time>2019-02-24T09:57:22Z</time>
      </trkpt>
      <trkpt lat="45.759694213047624" lon="8.024357249960303">
        <ele>1552.6700000000001</ele>
        <time>2019-02-24T09:57:34Z</time>
      </trkpt>
      <trkpt lat="45.759655991569161" lon="8.024376695975661">
        <ele>1555.0699999999999</ele>
        <time>2019-02-24T09:57:46Z</time>
      </trkpt>
      <trkpt lat="45.759612657129765" lon="8.024392118677497">
        <ele>1557.47</ele>
        <time>2019-02-24T09:57:56Z</time>
      </trkpt>
      <trkpt lat="45.759564377367496" lon="8.024412905797362">
        <ele>1557.95</ele>
        <time>2019-02-24T09:58:05Z</time>
      </trkpt>
      <trkpt lat="45.759594971314073" lon="8.024413073435426">
        <ele>1557.47</ele>
        <time>2019-02-24T09:58:17Z</time>
      </trkpt>
      <trkpt lat="45.759614584967494" lon="8.024445679038763">
        <ele>1556.99</ele>
        <time>2019-02-24T09:58:26Z</time>
      </trkpt>
      <trkpt lat="45.759589606896043" lon="8.024468310177326">
        <ele>1557.47</ele>
        <time>2019-02-24T09:58:37Z</time>
      </trkpt>
      <trkpt lat="45.759531771764159" lon="8.024469986557961">
        <ele>1557.95</ele>
        <time>2019-02-24T09:58:50Z</time>
      </trkpt>
      <trkpt lat="45.759495059028268" lon="8.024519439786673">
        <ele>1558.9200000000001</ele>
        <time>2019-02-24T09:59:00Z</time>
      </trkpt>
      <trkpt lat="45.75946731492877" lon="8.024569982662797">
        <ele>1559.4000000000001</ele>
        <time>2019-02-24T09:59:10Z</time>
      </trkpt>
      <trkpt lat="45.759458178654313" lon="8.024642737582326">
        <ele>1559.8800000000001</ele>
        <time>2019-02-24T09:59:18Z</time>
      </trkpt>
      <trkpt lat="45.759457340463996" lon="8.024700405076146">
        <ele>1562.28</ele>
        <time>2019-02-24T09:59:29Z</time>
      </trkpt>
      <trkpt lat="45.759437559172511" lon="8.024738291278482">
        <ele>1565.1600000000001</ele>
        <time>2019-02-24T09:59:37Z</time>
      </trkpt>
      <trkpt lat="45.759388273581862" lon="8.024741057306528">
        <ele>1567.5699999999999</ele>
        <time>2019-02-24T09:59:49Z</time>
      </trkpt>
      <trkpt lat="45.759314596652985" lon="8.024747679010034">
        <ele>1569.49</ele>
        <time>2019-02-24T10:00:03Z</time>
      </trkpt>
      <trkpt lat="45.759287606924772" lon="8.024724293500185">
        <ele>1569.97</ele>
        <time>2019-02-24T10:00:12Z</time>
      </trkpt>
      <trkpt lat="45.759247709065676" lon="8.024743990972638">
        <ele>1572.8499999999999</ele>
        <time>2019-02-24T10:00:21Z</time>
      </trkpt>
      <trkpt lat="45.759205631911755" lon="8.024779027327895">
        <ele>1575.74</ele>
        <time>2019-02-24T10:00:33Z</time>
      </trkpt>
      <trkpt lat="45.759225497022271" lon="8.024826468899846">
        <ele>1576.22</ele>
        <time>2019-02-24T10:00:45Z</time>
      </trkpt>
      <trkpt lat="45.759288026019931" lon="8.024892099201679">
        <ele>1574.78</ele>
        <time>2019-02-24T10:00:57Z</time>
      </trkpt>
      <trkpt lat="45.759302526712418" lon="8.024891344830394">
        <ele>1574.78</ele>
        <time>2019-02-24T10:01:08Z</time>
      </trkpt>
      <trkpt lat="45.759301604703069" lon="8.024899391457439">
        <ele>1572.8499999999999</ele>
        <time>2019-02-24T10:01:20Z</time>
      </trkpt>
      <trkpt lat="45.759293893352151" lon="8.024933505803347">
        <ele>1572.8499999999999</ele>
        <time>2019-02-24T10:01:28Z</time>
      </trkpt>
      <trkpt lat="45.759292133152485" lon="8.024960914626718">
        <ele>1574.3</ele>
        <time>2019-02-24T10:01:42Z</time>
      </trkpt>
      <trkpt lat="45.759336641058326" lon="8.025009781122208">
        <ele>1576.22</ele>
        <time>2019-02-24T10:01:50Z</time>
      </trkpt>
      <trkpt lat="45.759378047659993" lon="8.025037022307515">
        <ele>1576.22</ele>
        <time>2019-02-24T10:02:01Z</time>
      </trkpt>
      <trkpt lat="45.759408054873347" lon="8.025073148310185">
        <ele>1577.6600000000001</ele>
        <time>2019-02-24T10:02:11Z</time>
      </trkpt>
      <trkpt lat="45.759422639384866" lon="8.025123020634055">
        <ele>1578.6199999999999</ele>
        <time>2019-02-24T10:02:23Z</time>
      </trkpt>
      <trkpt lat="45.75945901684463" lon="8.025169456377626">
        <ele>1580.0599999999999</ele>
        <time>2019-02-24T10:02:33Z</time>
      </trkpt>
      <trkpt lat="45.759518276900053" lon="8.025244306772947">
        <ele>1581.51</ele>
        <time>2019-02-24T10:02:46Z</time>
      </trkpt>
      <trkpt lat="45.759525317698717" lon="8.025308344513178">
        <ele>1582.95</ele>
        <time>2019-02-24T10:02:57Z</time>
      </trkpt>
      <trkpt lat="45.759563622996211" lon="8.025332232937217">
        <ele>1585.3499999999999</ele>
        <time>2019-02-24T10:03:06Z</time>
      </trkpt>
      <trkpt lat="45.759573765099049" lon="8.025369364768267">
        <ele>1585.3499999999999</ele>
        <time>2019-02-24T10:03:17Z</time>
      </trkpt>
      <trkpt lat="45.759581476449966" lon="8.025409514084458">
        <ele>1587.75</ele>
        <time>2019-02-24T10:03:29Z</time>
      </trkpt>
      <trkpt lat="45.759584661573172" lon="8.025454105809331">
        <ele>1590.6400000000001</ele>
        <time>2019-02-24T10:03:40Z</time>
      </trkpt>
      <trkpt lat="45.759621541947126" lon="8.025484867393971">
        <ele>1589.6800000000001</ele>
        <time>2019-02-24T10:03:51Z</time>
      </trkpt>
      <trkpt lat="45.759640568867326" lon="8.02556156180799">
        <ele>1591.5999999999999</ele>
        <time>2019-02-24T10:04:03Z</time>
      </trkpt>
      <trkpt lat="45.759670911356807" lon="8.025600370019674">
        <ele>1592.0799999999999</ele>
        <time>2019-02-24T10:04:13Z</time>
      </trkpt>
      <trkpt lat="45.759700667113066" lon="8.025680668652058">
        <ele>1593.52</ele>
        <time>2019-02-24T10:04:25Z</time>
      </trkpt>
      <trkpt lat="45.759733691811562" lon="8.025721237063408">
        <ele>1594</ele>
        <time>2019-02-24T10:04:35Z</time>
      </trkpt>
      <trkpt lat="45.759789682924747" lon="8.025765577331185">
        <ele>1593.04</ele>
        <time>2019-02-24T10:04:47Z</time>
      </trkpt>
      <trkpt lat="45.759761771187186" lon="8.025768091902137">
        <ele>1593.04</ele>
        <time>2019-02-24T10:04:57Z</time>
      </trkpt>
      <trkpt lat="45.759754730388522" lon="8.02581855095923">
        <ele>1594.48</ele>
        <time>2019-02-24T10:05:14Z</time>
      </trkpt>
      <trkpt lat="45.759814577177167" lon="8.025867752730846">
        <ele>1594</ele>
        <time>2019-02-24T10:05:24Z</time>
      </trkpt>
      <trkpt lat="45.759842740371823" lon="8.02593388594687">
        <ele>1594</ele>
        <time>2019-02-24T10:05:32Z</time>
      </trkpt>
      <trkpt lat="45.759862018749118" lon="8.025992978364229">
        <ele>1595.9300000000001</ele>
        <time>2019-02-24T10:05:38Z</time>
      </trkpt>
      <trkpt lat="45.759909460321069" lon="8.026065733283758">
        <ele>1596.8900000000001</ele>
        <time>2019-02-24T10:05:48Z</time>
      </trkpt>
      <trkpt lat="45.759938964620233" lon="8.0261723510921">
        <ele>1597.8499999999999</ele>
        <time>2019-02-24T10:06:00Z</time>
      </trkpt>
      <trkpt lat="45.759990848600864" lon="8.026220882311463">
        <ele>1598.3299999999999</ele>
        <time>2019-02-24T10:06:09Z</time>
      </trkpt>
      <trkpt lat="45.760012725368142" lon="8.026230186223984">
        <ele>1598.8099999999999</ele>
        <time>2019-02-24T10:06:13Z</time>
      </trkpt>
      <trkpt lat="45.760079445317388" lon="8.026304449886084">
        <ele>1599.77</ele>
        <time>2019-02-24T10:06:25Z</time>
      </trkpt>
      <trkpt lat="45.760119678452611" lon="8.026361614465714">
        <ele>1602.1700000000001</ele>
        <time>2019-02-24T10:06:34Z</time>
      </trkpt>
      <trkpt lat="45.760173741728067" lon="8.026413079351187">
        <ele>1602.6600000000001</ele>
        <time>2019-02-24T10:06:43Z</time>
      </trkpt>
      <trkpt lat="45.760237779468298" lon="8.026475524529815">
        <ele>1603.1400000000001</ele>
        <time>2019-02-24T10:06:53Z</time>
      </trkpt>
      <trkpt lat="45.760302236303687" lon="8.026537885889411">
        <ele>1603.1400000000001</ele>
        <time>2019-02-24T10:07:05Z</time>
      </trkpt>
      <trkpt lat="45.760391587391496" lon="8.02659060806036">
        <ele>1603.6199999999999</ele>
        <time>2019-02-24T10:07:19Z</time>
      </trkpt>
      <trkpt lat="45.760450595989823" lon="8.026682306081057">
        <ele>1605.54</ele>
        <time>2019-02-24T10:07:31Z</time>
      </trkpt>
      <trkpt lat="45.76049342751503" lon="8.026699824258685">
        <ele>1607.9400000000001</ele>
        <time>2019-02-24T10:07:40Z</time>
      </trkpt>
      <trkpt lat="45.760549670085311" lon="8.026738297194243">
        <ele>1609.3800000000001</ele>
        <time>2019-02-24T10:07:49Z</time>
      </trkpt>
      <trkpt lat="45.760619826614857" lon="8.026875257492065">
        <ele>1610.3499999999999</ele>
        <time>2019-02-24T10:08:04Z</time>
      </trkpt>
      <trkpt lat="45.760639356449246" lon="8.02696586586535">
        <ele>1611.79</ele>
        <time>2019-02-24T10:08:14Z</time>
      </trkpt>
      <trkpt lat="45.760644050315022" lon="8.026976510882378">
        <ele>1611.79</ele>
        <time>2019-02-24T10:08:15Z</time>
      </trkpt>
      <trkpt lat="45.76070498675108" lon="8.02701573818922">
        <ele>1613.23</ele>
        <time>2019-02-24T10:08:26Z</time>
      </trkpt>
      <trkpt lat="45.760773634538054" lon="8.027047505602241">
        <ele>1614.1900000000001</ele>
        <time>2019-02-24T10:08:38Z</time>
      </trkpt>
      <trkpt lat="45.760844377800822" lon="8.027113135904074">
        <ele>1615.6300000000001</ele>
        <time>2019-02-24T10:08:49Z</time>
      </trkpt>
      <trkpt lat="45.760910678654909" lon="8.027211036533117">
        <ele>1616.1099999999999</ele>
        <time>2019-02-24T10:09:00Z</time>
      </trkpt>
      <trkpt lat="45.760936159640551" lon="8.02727029658854">
        <ele>1617.0699999999999</ele>
        <time>2019-02-24T10:09:08Z</time>
      </trkpt>
      <trkpt lat="45.7609473913908" lon="8.027333412319422">
        <ele>1618.52</ele>
        <time>2019-02-24T10:09:20Z</time>
      </trkpt>
      <trkpt lat="45.76097471639514" lon="8.02739929407835">
        <ele>1621.4000000000001</ele>
        <time>2019-02-24T10:09:29Z</time>
      </trkpt>
      <trkpt lat="45.760993575677276" lon="8.027469282969832">
        <ele>1622.8399999999999</ele>
        <time>2019-02-24T10:09:39Z</time>
      </trkpt>
      <trkpt lat="45.761024504899979" lon="8.027477581053972">
        <ele>1623.3199999999999</ele>
        <time>2019-02-24T10:09:44Z</time>
      </trkpt>
      <trkpt lat="45.761077478528023" lon="8.027545977383852">
        <ele>1624.77</ele>
        <time>2019-02-24T10:09:55Z</time>
      </trkpt>
      <trkpt lat="45.761124081909657" lon="8.027599202468991">
        <ele>1623.8</ele>
        <time>2019-02-24T10:10:06Z</time>
      </trkpt>
      <trkpt lat="45.761156938970089" lon="8.027660306543112">
        <ele>1625.73</ele>
        <time>2019-02-24T10:10:17Z</time>
      </trkpt>
      <trkpt lat="45.761191556230187" lon="8.027726355940104">
        <ele>1627.1700000000001</ele>
        <time>2019-02-24T10:10:27Z</time>
      </trkpt>
      <trkpt lat="45.761207146570086" lon="8.027783185243607">
        <ele>1628.1300000000001</ele>
        <time>2019-02-24T10:10:36Z</time>
      </trkpt>
      <trkpt lat="45.761227514594793" lon="8.027850408107042">
        <ele>1629.5699999999999</ele>
        <time>2019-02-24T10:10:48Z</time>
      </trkpt>
      <trkpt lat="45.761229274794459" lon="8.027903968468308">
        <ele>1630.53</ele>
        <time>2019-02-24T10:10:56Z</time>
      </trkpt>
      <trkpt lat="45.761254420503974" lon="8.027970688417554">
        <ele>1631.49</ele>
        <time>2019-02-24T10:11:07Z</time>
      </trkpt>
      <trkpt lat="45.761274117976427" lon="8.02802768535912">
        <ele>1631.49</ele>
        <time>2019-02-24T10:11:16Z</time>
      </trkpt>
      <trkpt lat="45.761296162381768" lon="8.028095411136746">
        <ele>1633.4200000000001</ele>
        <time>2019-02-24T10:11:28Z</time>
      </trkpt>
      <trkpt lat="45.761320386081934" lon="8.02816397510469">
        <ele>1634.3800000000001</ele>
        <time>2019-02-24T10:11:39Z</time>
      </trkpt>
      <trkpt lat="45.761331114917994" lon="8.028208399191499">
        <ele>1633.4200000000001</ele>
        <time>2019-02-24T10:11:49Z</time>
      </trkpt>
      <trkpt lat="45.761342933401465" lon="8.028273275122047">
        <ele>1634.8599999999999</ele>
        <time>2019-02-24T10:11:58Z</time>
      </trkpt>
      <trkpt lat="45.761352404952049" lon="8.028328428044915">
        <ele>1634.8599999999999</ele>
        <time>2019-02-24T10:12:09Z</time>
      </trkpt>
      <trkpt lat="45.761365564540029" lon="8.028395986184478">
        <ele>1633.9000000000001</ele>
        <time>2019-02-24T10:12:19Z</time>
      </trkpt>
      <trkpt lat="45.761374700814486" lon="8.028448624536395">
        <ele>1633.9000000000001</ele>
        <time>2019-02-24T10:12:29Z</time>
      </trkpt>
      <trkpt lat="45.761393811553717" lon="8.028494557365775">
        <ele>1635.3399999999999</ele>
        <time>2019-02-24T10:12:38Z</time>
      </trkpt>
      <trkpt lat="45.761412838473916" lon="8.028530683368444">
        <ele>1636.3</ele>
        <time>2019-02-24T10:12:50Z</time>
      </trkpt>
      <trkpt lat="45.76144628226757" lon="8.028588769957423">
        <ele>1637.26</ele>
        <time>2019-02-24T10:13:00Z</time>
      </trkpt>
      <trkpt lat="45.761474864557385" lon="8.028620621189475">
        <ele>1639.1900000000001</ele>
        <time>2019-02-24T10:13:12Z</time>
      </trkpt>
      <trkpt lat="45.761512918397784" lon="8.028685580939055">
        <ele>1641.1099999999999</ele>
        <time>2019-02-24T10:13:24Z</time>
      </trkpt>
      <trkpt lat="45.761550134047866" lon="8.028728747740388">
        <ele>1642.0699999999999</ele>
        <time>2019-02-24T10:13:31Z</time>
      </trkpt>
      <trkpt lat="45.76158600859344" lon="8.028758000582457">
        <ele>1643.99</ele>
        <time>2019-02-24T10:13:41Z</time>
      </trkpt>
      <trkpt lat="45.761612076312304" lon="8.028792701661587">
        <ele>1647.3599999999999</ele>
        <time>2019-02-24T10:13:51Z</time>
      </trkpt>
      <trkpt lat="45.761639568954706" lon="8.02886176854372">
        <ele>1650.24</ele>
        <time>2019-02-24T10:14:01Z</time>
      </trkpt>
      <trkpt lat="45.761687513440847" lon="8.028897140175104">
        <ele>1652.6400000000001</ele>
        <time>2019-02-24T10:14:13Z</time>
      </trkpt>
      <trkpt lat="45.761677036061883" lon="8.028932260349393">
        <ele>1653.5999999999999</ele>
        <time>2019-02-24T10:14:22Z</time>
      </trkpt>
      <trkpt lat="45.761673096567392" lon="8.028933936730027">
        <ele>1655.05</ele>
        <time>2019-02-24T10:14:39Z</time>
      </trkpt>
      <trkpt lat="45.761685837060213" lon="8.028977354988456">
        <ele>1654.0899999999999</ele>
        <time>2019-02-24T10:14:52Z</time>
      </trkpt>
      <trkpt lat="45.761677958071232" lon="8.029028484597802">
        <ele>1654.0899999999999</ele>
        <time>2019-02-24T10:15:01Z</time>
      </trkpt>
      <trkpt lat="45.761692710220814" lon="8.029071232303977">
        <ele>1655.05</ele>
        <time>2019-02-24T10:15:11Z</time>
      </trkpt>
      <trkpt lat="45.761712407693267" lon="8.029125798493624">
        <ele>1656.01</ele>
        <time>2019-02-24T10:15:23Z</time>
      </trkpt>
      <trkpt lat="45.761697320267558" lon="8.029216658324003">
        <ele>1657.9300000000001</ele>
        <time>2019-02-24T10:15:33Z</time>
      </trkpt>
      <trkpt lat="45.761699248105288" lon="8.029307015240192">
        <ele>1658.8900000000001</ele>
        <time>2019-02-24T10:15:44Z</time>
      </trkpt>
      <trkpt lat="45.761723723262548" lon="8.029347332194448">
        <ele>1659.8499999999999</ele>
        <time>2019-02-24T10:15:56Z</time>
      </trkpt>
      <trkpt lat="45.761708887293935" lon="8.029414722695947">
        <ele>1661.3</ele>
        <time>2019-02-24T10:16:06Z</time>
      </trkpt>
      <trkpt lat="45.761677036061883" lon="8.029461409896612">
        <ele>1662.26</ele>
        <time>2019-02-24T10:16:15Z</time>
      </trkpt>
      <trkpt lat="45.76163537800312" lon="8.029516730457544">
        <ele>1663.7</ele>
        <time>2019-02-24T10:16:26Z</time>
      </trkpt>
      <trkpt lat="45.761596402153373" lon="8.029538942500949">
        <ele>1664.1800000000001</ele>
        <time>2019-02-24T10:16:34Z</time>
      </trkpt>
      <trkpt lat="45.761551056057215" lon="8.0295898206532">
        <ele>1664.6600000000001</ele>
        <time>2019-02-24T10:16:44Z</time>
      </trkpt>
      <trkpt lat="45.761483665555716" lon="8.029643967747688">
        <ele>1665.6199999999999</ele>
        <time>2019-02-24T10:16:56Z</time>
      </trkpt>
      <trkpt lat="45.761503614485264" lon="8.029684368520975">
        <ele>1667.0599999999999</ele>
        <time>2019-02-24T10:17:06Z</time>
      </trkpt>
      <trkpt lat="45.761526580899954" lon="8.029761398211122">
        <ele>1669.47</ele>
        <time>2019-02-24T10:17:18Z</time>
      </trkpt>
      <trkpt lat="45.76156647875905" lon="8.029819317162037">
        <ele>1671.3900000000001</ele>
        <time>2019-02-24T10:17:29Z</time>
      </trkpt>
      <trkpt lat="45.761637389659882" lon="8.02987958304584">
        <ele>1673.3099999999999</ele>
        <time>2019-02-24T10:17:39Z</time>
      </trkpt>
      <trkpt lat="45.761685166507959" lon="8.029938256368041">
        <ele>1676.2</ele>
        <time>2019-02-24T10:17:50Z</time>
      </trkpt>
      <trkpt lat="45.761674102395773" lon="8.030007993802428">
        <ele>1678.1199999999999</ele>
        <time>2019-02-24T10:18:01Z</time>
      </trkpt>
      <trkpt lat="45.761712742969394" lon="8.030053256079555">
        <ele>1679.5599999999999</ele>
        <time>2019-02-24T10:18:11Z</time>
      </trkpt>
      <trkpt lat="45.761736966669559" lon="8.030124418437481">
        <ele>1681.96</ele>
        <time>2019-02-24T10:18:21Z</time>
      </trkpt>
      <trkpt lat="45.761760603636503" lon="8.030203459784389">
        <ele>1684.8499999999999</ele>
        <time>2019-02-24T10:18:32Z</time>
      </trkpt>
      <trkpt lat="45.761791029945016" lon="8.030271688476205">
        <ele>1686.29</ele>
        <time>2019-02-24T10:18:43Z</time>
      </trkpt>
      <trkpt lat="45.761885577812791" lon="8.030326506122947">
        <ele>1685.8099999999999</ele>
        <time>2019-02-24T10:18:54Z</time>
      </trkpt>
      <trkpt lat="45.761946933344007" lon="8.03038283251226">
        <ele>1685.8099999999999</ele>
        <time>2019-02-24T10:19:03Z</time>
      </trkpt>
      <trkpt lat="45.761981382966042" lon="8.030468663200736">
        <ele>1686.29</ele>
        <time>2019-02-24T10:19:13Z</time>
      </trkpt>
      <trkpt lat="45.7619818020612" lon="8.030475452542305">
        <ele>1686.77</ele>
        <time>2019-02-24T10:19:14Z</time>
      </trkpt>
      <trkpt lat="45.761997560039163" lon="8.03054359741509">
        <ele>1688.21</ele>
        <time>2019-02-24T10:19:25Z</time>
      </trkpt>
      <trkpt lat="45.76201013289392" lon="8.030623812228441">
        <ele>1690.1400000000001</ele>
        <time>2019-02-24T10:19:35Z</time>
      </trkpt>
      <trkpt lat="45.762048354372382" lon="8.030694052577019">
        <ele>1690.6199999999999</ele>
        <time>2019-02-24T10:19:48Z</time>
      </trkpt>
      <trkpt lat="45.762054808437824" lon="8.030729172751308">
        <ele>1692.54</ele>
        <time>2019-02-24T10:19:59Z</time>
      </trkpt>
      <trkpt lat="45.76209269464016" lon="8.030781224370003">
        <ele>1693.98</ele>
        <time>2019-02-24T10:20:09Z</time>
      </trkpt>
      <trkpt lat="45.762144159525633" lon="8.03083872422576">
        <ele>1694.46</ele>
        <time>2019-02-24T10:20:18Z</time>
      </trkpt>
      <trkpt lat="45.762181961908937" lon="8.030914748087525">
        <ele>1696.3800000000001</ele>
        <time>2019-02-24T10:20:27Z</time>
      </trkpt>
      <trkpt lat="45.762218339368701" lon="8.030968476086855">
        <ele>1697.8299999999999</ele>
        <time>2019-02-24T10:20:38Z</time>
      </trkpt>
      <trkpt lat="45.762240383774042" lon="8.031067298725247">
        <ele>1697.8299999999999</ele>
        <time>2019-02-24T10:20:48Z</time>
      </trkpt>
      <trkpt lat="45.762269301339984" lon="8.03114709444344">
        <ele>1698.3099999999999</ele>
        <time>2019-02-24T10:20:58Z</time>
      </trkpt>
      <trkpt lat="45.762319089844823" lon="8.031191015616059">
        <ele>1699.27</ele>
        <time>2019-02-24T10:21:08Z</time>
      </trkpt>
      <trkpt lat="45.762312300503254" lon="8.031176598742604">
        <ele>1702.1500000000001</ele>
        <time>2019-02-24T10:21:22Z</time>
      </trkpt>
      <trkpt lat="45.76232336461544" lon="8.031169725582004">
        <ele>1703.5899999999999</ele>
        <time>2019-02-24T10:21:34Z</time>
      </trkpt>
      <trkpt lat="45.762311294674873" lon="8.031225381419063">
        <ele>1703.5899999999999</ele>
        <time>2019-02-24T10:21:42Z</time>
      </trkpt>
      <trkpt lat="45.76232822611928" lon="8.031310541555286">
        <ele>1702.6300000000001</ele>
        <time>2019-02-24T10:21:52Z</time>
      </trkpt>
      <trkpt lat="45.762311043217778" lon="8.03131515160203">
        <ele>1702.1500000000001</ele>
        <time>2019-02-24T10:22:05Z</time>
      </trkpt>
      <trkpt lat="45.762313473969698" lon="8.031315822154284">
        <ele>1701.6700000000001</ele>
        <time>2019-02-24T10:22:18Z</time>
      </trkpt>
      <trkpt lat="45.762329567223787" lon="8.031306602060795">
        <ele>1702.1500000000001</ele>
        <time>2019-02-24T10:22:35Z</time>
      </trkpt>
      <trkpt lat="45.76230626553297" lon="8.031279779970646">
        <ele>1703.5899999999999</ele>
        <time>2019-02-24T10:22:54Z</time>
      </trkpt>
      <trkpt lat="45.762313641607761" lon="8.031301740556955">
        <ele>1702.1500000000001</ele>
        <time>2019-02-24T10:23:05Z</time>
      </trkpt>
      <trkpt lat="45.762286903336644" lon="8.031309535726905">
        <ele>1701.1900000000001</ele>
        <time>2019-02-24T10:23:31Z</time>
      </trkpt>
      <trkpt lat="45.762301487848163" lon="8.031293526291847">
        <ele>1700.23</ele>
        <time>2019-02-24T10:23:56Z</time>
      </trkpt>
      <trkpt lat="45.762297715991735" lon="8.031312804669142">
        <ele>1697.8299999999999</ele>
        <time>2019-02-24T10:24:04Z</time>
      </trkpt>
      <trkpt lat="45.762295871973038" lon="8.031320599839091">
        <ele>1697.3399999999999</ele>
        <time>2019-02-24T10:24:13Z</time>
      </trkpt>
      <trkpt lat="45.7622822932899" lon="8.031308026984334">
        <ele>1699.27</ele>
        <time>2019-02-24T10:24:22Z</time>
      </trkpt>
      <trkpt lat="45.762289920821786" lon="8.03127852268517">
        <ele>1701.6700000000001</ele>
        <time>2019-02-24T10:24:36Z</time>
      </trkpt>
      <trkpt lat="45.762288914993405" lon="8.031289670616388">
        <ele>1704.55</ele>
        <time>2019-02-24T10:24:55Z</time>
      </trkpt>
      <trkpt lat="45.762296793982387" lon="8.031308362260461">
        <ele>1704.0699999999999</ele>
        <time>2019-02-24T10:25:15Z</time>
      </trkpt>
      <trkpt lat="45.762306852266192" lon="8.031300650909543">
        <ele>1705.52</ele>
        <time>2019-02-24T10:25:35Z</time>
      </trkpt>
      <trkpt lat="45.762312216684222" lon="8.031309619545937">
        <ele>1704.55</ele>
        <time>2019-02-24T10:25:37Z</time>
      </trkpt>
      <trkpt lat="45.762324202805758" lon="8.031297884881496">
        <ele>1701.6700000000001</ele>
        <time>2019-02-24T10:25:41Z</time>
      </trkpt>
      <trkpt lat="45.762314479798079" lon="8.03129268810153">
        <ele>1701.6700000000001</ele>
        <time>2019-02-24T10:25:56Z</time>
      </trkpt>
      <trkpt lat="45.762304840609431" lon="8.031329149380326">
        <ele>1700.23</ele>
        <time>2019-02-24T10:26:18Z</time>
      </trkpt>
      <trkpt lat="45.762304924428463" lon="8.03131808526814">
        <ele>1702.1500000000001</ele>
        <time>2019-02-24T10:26:39Z</time>
      </trkpt>
      <trkpt lat="45.762304002419114" lon="8.031301824375987">
        <ele>1699.27</ele>
        <time>2019-02-24T10:26:51Z</time>
      </trkpt>
      <trkpt lat="45.762292854487896" lon="8.031331496313214">
        <ele>1700.23</ele>
        <time>2019-02-24T10:27:24Z</time>
      </trkpt>
      <trkpt lat="45.762296877801418" lon="8.031340800225735">
        <ele>1700.23</ele>
        <time>2019-02-24T10:27:46Z</time>
      </trkpt>
      <trkpt lat="45.762309869751334" lon="8.031311631202698">
        <ele>1700.71</ele>
        <time>2019-02-24T10:28:02Z</time>
      </trkpt>
      <trkpt lat="45.762320514768362" lon="8.031286904588342">
        <ele>1700.23</ele>
        <time>2019-02-24T10:28:11Z</time>
      </trkpt>
      <trkpt lat="45.76230869628489" lon="8.031280701979995">
        <ele>1703.1099999999999</ele>
        <time>2019-02-24T10:28:29Z</time>
      </trkpt>
      <trkpt lat="45.762311378493905" lon="8.031294029206038">
        <ele>1703.5899999999999</ele>
        <time>2019-02-24T10:28:51Z</time>
      </trkpt>
      <trkpt lat="45.762307941913605" lon="8.031303752213717">
        <ele>1704.55</ele>
        <time>2019-02-24T10:29:12Z</time>
      </trkpt>
      <trkpt lat="45.762302745133638" lon="8.031281037256122">
        <ele>1703.1099999999999</ele>
        <time>2019-02-24T10:29:46Z</time>
      </trkpt>
      <trkpt lat="45.762303164228797" lon="8.031303836032748">
        <ele>1702.1500000000001</ele>
        <time>2019-02-24T10:30:07Z</time>
      </trkpt>
      <trkpt lat="45.762285897508264" lon="8.031271314248443">
        <ele>1702.6300000000001</ele>
        <time>2019-02-24T10:30:16Z</time>
      </trkpt>
      <trkpt lat="45.762279191985726" lon="8.031256645917893">
        <ele>1702.1500000000001</ele>
        <time>2019-02-24T10:30:28Z</time>
      </trkpt>
      <trkpt lat="45.762280113995075" lon="8.031245246529579">
        <ele>1702.1500000000001</ele>
        <time>2019-02-24T10:30:38Z</time>
      </trkpt>
      <trkpt lat="45.762283885851502" lon="8.03123158402741">
        <ele>1701.1900000000001</ele>
        <time>2019-02-24T10:30:48Z</time>
      </trkpt>
      <trkpt lat="45.762266367673874" lon="8.03124675527215">
        <ele>1700.23</ele>
        <time>2019-02-24T10:30:58Z</time>
      </trkpt>
      <trkpt lat="45.762263853102922" lon="8.031258070841432">
        <ele>1700.71</ele>
        <time>2019-02-24T10:31:08Z</time>
      </trkpt>
      <trkpt lat="45.762263014912605" lon="8.031259244307876">
        <ele>1702.1500000000001</ele>
        <time>2019-02-24T10:31:29Z</time>
      </trkpt>
      <trkpt lat="45.762276006862521" lon="8.031281623989344">
        <ele>1702.1500000000001</ele>
        <time>2019-02-24T10:31:45Z</time>
      </trkpt>
      <trkpt lat="45.762277264147997" lon="8.031265866011381">
        <ele>1702.6300000000001</ele>
        <time>2019-02-24T10:32:04Z</time>
      </trkpt>
      <trkpt lat="45.762277850881219" lon="8.03126678802073">
        <ele>1702.6300000000001</ele>
        <time>2019-02-24T10:32:18Z</time>
      </trkpt>
      <trkpt lat="45.762271480634809" lon="8.031265446916223">
        <ele>1702.6300000000001</ele>
        <time>2019-02-24T10:32:30Z</time>
      </trkpt>
      <trkpt lat="45.762260835617781" lon="8.031281875446439">
        <ele>1701.1900000000001</ele>
        <time>2019-02-24T10:32:43Z</time>
      </trkpt>
      <trkpt lat="45.762263434007764" lon="8.031283048912883">
        <ele>1700.71</ele>
        <time>2019-02-24T10:32:53Z</time>
      </trkpt>
      <trkpt lat="45.762263182550669" lon="8.031280199065805">
        <ele>1701.1900000000001</ele>
        <time>2019-02-24T10:33:05Z</time>
      </trkpt>
      <trkpt lat="45.762250358238816" lon="8.031285647302866">
        <ele>1701.1900000000001</ele>
        <time>2019-02-24T10:33:20Z</time>
      </trkpt>
      <trkpt lat="45.762234516441822" lon="8.031290676444769">
        <ele>1700.71</ele>
        <time>2019-02-24T10:33:27Z</time>
      </trkpt>
      <trkpt lat="45.762170311063528" lon="8.031274331733584">
        <ele>1700.23</ele>
        <time>2019-02-24T10:33:34Z</time>
      </trkpt>
      <trkpt lat="45.762082720175385" lon="8.031214904040098">
        <ele>1700.23</ele>
        <time>2019-02-24T10:33:44Z</time>
      </trkpt>
      <trkpt lat="45.762010468170047" lon="8.031220603734255">
        <ele>1701.6700000000001</ele>
        <time>2019-02-24T10:33:52Z</time>
      </trkpt>
      <trkpt lat="45.76199060305953" lon="8.031178861856461">
        <ele>1701.1900000000001</ele>
        <time>2019-02-24T10:34:05Z</time>
      </trkpt>
      <trkpt lat="45.761988256126642" lon="8.031168635934591">
        <ele>1701.1900000000001</ele>
        <time>2019-02-24T10:34:15Z</time>
      </trkpt>
      <trkpt lat="45.76198372989893" lon="8.031163774430752">
        <ele>1701.6700000000001</ele>
        <time>2019-02-24T10:34:28Z</time>
      </trkpt>
      <trkpt lat="45.761955063790083" lon="8.031210293993354">
        <ele>1702.1500000000001</ele>
        <time>2019-02-24T10:34:37Z</time>
      </trkpt>
      <trkpt lat="45.761953303590417" lon="8.031227057799697">
        <ele>1704.0699999999999</ele>
        <time>2019-02-24T10:34:46Z</time>
      </trkpt>
      <trkpt lat="45.76194416731596" lon="8.031223621219397">
        <ele>1706</ele>
        <time>2019-02-24T10:34:55Z</time>
      </trkpt>
      <trkpt lat="45.761905275285244" lon="8.031222531571984">
        <ele>1706</ele>
        <time>2019-02-24T10:34:59Z</time>
      </trkpt>
      <trkpt lat="45.761862276121974" lon="8.031254634261131">
        <ele>1704.55</ele>
        <time>2019-02-24T10:35:05Z</time>
      </trkpt>
      <trkpt lat="45.761811314150691" lon="8.031295789405704">
        <ele>1705.52</ele>
        <time>2019-02-24T10:35:12Z</time>
      </trkpt>
      <trkpt lat="45.761761525645852" lon="8.031292604282498">
        <ele>1706.48</ele>
        <time>2019-02-24T10:35:20Z</time>
      </trkpt>
      <trkpt lat="45.761705785989761" lon="8.031281540170312">
        <ele>1707.4400000000001</ele>
        <time>2019-02-24T10:35:30Z</time>
      </trkpt>
      <trkpt lat="45.761640826240182" lon="8.031296376138926">
        <ele>1707.4400000000001</ele>
        <time>2019-02-24T10:35:40Z</time>
      </trkpt>
      <trkpt lat="45.761625906452537" lon="8.031304925680161">
        <ele>1707.4400000000001</ele>
        <time>2019-02-24T10:35:42Z</time>
      </trkpt>
      <trkpt lat="45.761550301685929" lon="8.031368376687169">
        <ele>1706.96</ele>
        <time>2019-02-24T10:35:51Z</time>
      </trkpt>
      <trkpt lat="45.761552397161722" lon="8.031374663114548">
        <ele>1706.96</ele>
        <time>2019-02-24T10:36:00Z</time>
      </trkpt>
      <trkpt lat="45.761524820700288" lon="8.031414644792676">
        <ele>1707.4400000000001</ele>
        <time>2019-02-24T10:36:08Z</time>
      </trkpt>
      <trkpt lat="45.761492885649204" lon="8.03142067976296">
        <ele>1707.9200000000001</ele>
        <time>2019-02-24T10:36:12Z</time>
      </trkpt>
      <trkpt lat="45.761391464620829" lon="8.031405173242092">
        <ele>1710.3199999999999</ele>
        <time>2019-02-24T10:36:23Z</time>
      </trkpt>
      <trkpt lat="45.761309657245874" lon="8.0314065143466">
        <ele>1711.28</ele>
        <time>2019-02-24T10:36:32Z</time>
      </trkpt>
      <trkpt lat="45.7611736189574" lon="8.031375333666802">
        <ele>1711.76</ele>
        <time>2019-02-24T10:36:45Z</time>
      </trkpt>
      <trkpt lat="45.761055601760745" lon="8.031356558203697">
        <ele>1711.76</ele>
        <time>2019-02-24T10:36:56Z</time>
      </trkpt>
      <trkpt lat="45.760949905961752" lon="8.031334010884166">
        <ele>1710.8</ele>
        <time>2019-02-24T10:37:06Z</time>
      </trkpt>
      <trkpt lat="45.760849909856915" lon="8.031313139945269">
        <ele>1711.76</ele>
        <time>2019-02-24T10:37:17Z</time>
      </trkpt>
      <trkpt lat="45.760749746114016" lon="8.031298387795687">
        <ele>1712.25</ele>
        <time>2019-02-24T10:37:26Z</time>
      </trkpt>
      <trkpt lat="45.760648995637894" lon="8.031298387795687">
        <ele>1711.76</ele>
        <time>2019-02-24T10:37:36Z</time>
      </trkpt>
      <trkpt lat="45.760625107213855" lon="8.031324287876487">
        <ele>1711.28</ele>
        <time>2019-02-24T10:37:39Z</time>
      </trkpt>
      <trkpt lat="45.760566182434559" lon="8.031316744163632">
        <ele>1711.76</ele>
        <time>2019-02-24T10:37:49Z</time>
      </trkpt>
      <trkpt lat="45.760497450828552" lon="8.031233260408044">
        <ele>1712.25</ele>
        <time>2019-02-24T10:37:59Z</time>
      </trkpt>
      <trkpt lat="45.760488230735064" lon="8.031220436096191">
        <ele>1712.25</ele>
        <time>2019-02-24T10:38:00Z</time>
      </trkpt>
      <trkpt lat="45.760403741151094" lon="8.03112261928618">
        <ele>1713.21</ele>
        <time>2019-02-24T10:38:11Z</time>
      </trkpt>
      <trkpt lat="45.760369375348091" lon="8.031067047268152">
        <ele>1713.6900000000001</ele>
        <time>2019-02-24T10:38:17Z</time>
      </trkpt>
      <trkpt lat="45.760317239910364" lon="8.03098582662642">
        <ele>1715.1300000000001</ele>
        <time>2019-02-24T10:38:27Z</time>
      </trkpt>
      <trkpt lat="45.760271726176143" lon="8.030923549085856">
        <ele>1716.5699999999999</ele>
        <time>2019-02-24T10:38:36Z</time>
      </trkpt>
      <trkpt lat="45.760250268504024" lon="8.0309056956321">
        <ele>1717.05</ele>
        <time>2019-02-24T10:38:39Z</time>
      </trkpt>
      <trkpt lat="45.760185308754444" lon="8.03080796264112">
        <ele>1717.05</ele>
        <time>2019-02-24T10:38:49Z</time>
      </trkpt>
      <trkpt lat="45.760090006515384" lon="8.030728837475181">
        <ele>1716.5699999999999</ele>
        <time>2019-02-24T10:38:59Z</time>
      </trkpt>
      <trkpt lat="45.760012557730079" lon="8.030589614063501">
        <ele>1716.5699999999999</ele>
        <time>2019-02-24T10:39:10Z</time>
      </trkpt>
      <trkpt lat="45.760004511103034" lon="8.030580980703235">
        <ele>1716.0899999999999</ele>
        <time>2019-02-24T10:39:11Z</time>
      </trkpt>
      <trkpt lat="45.759981460869312" lon="8.030581986531615">
        <ele>1716.0899999999999</ele>
        <time>2019-02-24T10:39:13Z</time>
      </trkpt>
      <trkpt lat="45.759924799203873" lon="8.030517864972353">
        <ele>1715.6099999999999</ele>
        <time>2019-02-24T10:39:20Z</time>
      </trkpt>
      <trkpt lat="45.759817343205214" lon="8.03046346642077">
        <ele>1715.1300000000001</ele>
        <time>2019-02-24T10:39:31Z</time>
      </trkpt>
      <trkpt lat="45.759764201939106" lon="8.030430693179369">
        <ele>1716.0899999999999</ele>
        <time>2019-02-24T10:39:37Z</time>
      </trkpt>
      <trkpt lat="45.759748611599207" lon="8.030416946858168">
        <ele>1716.5699999999999</ele>
        <time>2019-02-24T10:39:39Z</time>
      </trkpt>
      <trkpt lat="45.759717347100377" lon="8.030388951301575">
        <ele>1717.05</ele>
        <time>2019-02-24T10:39:43Z</time>
      </trkpt>
      <trkpt lat="45.759642664343119" lon="8.030378809198737">
        <ele>1717.53</ele>
        <time>2019-02-24T10:39:51Z</time>
      </trkpt>
      <trkpt lat="45.759582314640284" lon="8.030317118391395">
        <ele>1718.01</ele>
        <time>2019-02-24T10:39:59Z</time>
      </trkpt>
      <trkpt lat="45.759458094835281" lon="8.030229611322284">
        <ele>1718.01</ele>
        <time>2019-02-24T10:40:13Z</time>
      </trkpt>
      <trkpt lat="45.759436469525099" lon="8.030218379572034">
        <ele>1718.01</ele>
        <time>2019-02-24T10:40:26Z</time>
      </trkpt>
      <trkpt lat="45.759397661313415" lon="8.030169261619449">
        <ele>1718.01</ele>
        <time>2019-02-24T10:40:34Z</time>
      </trkpt>
      <trkpt lat="45.759347788989544" lon="8.030092064291239">
        <ele>1717.53</ele>
        <time>2019-02-24T10:40:45Z</time>
      </trkpt>
      <trkpt lat="45.759351644665003" lon="8.03007060661912">
        <ele>1717.05</ele>
        <time>2019-02-24T10:40:56Z</time>
      </trkpt>
      <trkpt lat="45.759349800646305" lon="8.030090220272541">
        <ele>1718.01</ele>
        <time>2019-02-24T10:41:11Z</time>
      </trkpt>
      <trkpt lat="45.759344352409244" lon="8.030087118968368">
        <ele>1716.5699999999999</ele>
        <time>2019-02-24T10:41:23Z</time>
      </trkpt>
      <trkpt lat="45.759344017133117" lon="8.030063482001424">
        <ele>1717.53</ele>
        <time>2019-02-24T10:41:45Z</time>
      </trkpt>
      <trkpt lat="45.759346280246973" lon="8.030078150331974">
        <ele>1717.53</ele>
        <time>2019-02-24T10:41:57Z</time>
      </trkpt>
      <trkpt lat="45.759344855323434" lon="8.030084436759353">
        <ele>1718.01</ele>
        <time>2019-02-24T10:42:13Z</time>
      </trkpt>
      <trkpt lat="45.759342340752482" lon="8.030080497264862">
        <ele>1717.05</ele>
        <time>2019-02-24T10:42:30Z</time>
      </trkpt>
      <trkpt lat="45.759334294125438" lon="8.030082928016782">
        <ele>1717.53</ele>
        <time>2019-02-24T10:42:41Z</time>
      </trkpt>
      <trkpt lat="45.759304370731115" lon="8.030064404010773">
        <ele>1718.01</ele>
        <time>2019-02-24T10:42:55Z</time>
      </trkpt>
      <trkpt lat="45.75922935269773" lon="8.030003635212779">
        <ele>1717.53</ele>
        <time>2019-02-24T10:43:06Z</time>
      </trkpt>
      <trkpt lat="45.75914871878922" lon="8.029962396249175">
        <ele>1716.5699999999999</ele>
        <time>2019-02-24T10:43:18Z</time>
      </trkpt>
      <trkpt lat="45.759131535887718" lon="8.029943788424134">
        <ele>1717.05</ele>
        <time>2019-02-24T10:43:29Z</time>
      </trkpt>
      <trkpt lat="45.75911988504231" lon="8.029948063194752">
        <ele>1716.0899999999999</ele>
        <time>2019-02-24T10:43:46Z</time>
      </trkpt>
      <trkpt lat="45.759108569473028" lon="8.029918475076556">
        <ele>1715.1300000000001</ele>
        <time>2019-02-24T10:43:49Z</time>
      </trkpt>
      <trkpt lat="45.759012764319777" lon="8.02983071655035">
        <ele>1712.25</ele>
        <time>2019-02-24T10:44:00Z</time>
      </trkpt>
      <trkpt lat="45.758966244757175" lon="8.029808420687914">
        <ele>1712.25</ele>
        <time>2019-02-24T10:44:06Z</time>
      </trkpt>
      <trkpt lat="45.758857699111104" lon="8.029900453984737">
        <ele>1710.3199999999999</ele>
        <time>2019-02-24T10:44:17Z</time>
      </trkpt>
      <trkpt lat="45.758812101557851" lon="8.030007071793079">
        <ele>1711.28</ele>
        <time>2019-02-24T10:44:26Z</time>
      </trkpt>
      <trkpt lat="45.758771449327469" lon="8.030062895268202">
        <ele>1710.3199999999999</ele>
        <time>2019-02-24T10:44:33Z</time>
      </trkpt>
      <trkpt lat="45.758768012747169" lon="8.03005987778306">
        <ele>1708.4000000000001</ele>
        <time>2019-02-24T10:44:47Z</time>
      </trkpt>
      <trkpt lat="45.758775388821959" lon="8.030068259686232">
        <ele>1706</ele>
        <time>2019-02-24T10:44:59Z</time>
      </trkpt>
      <trkpt lat="45.758756445720792" lon="8.030081586912274">
        <ele>1705.04</ele>
        <time>2019-02-24T10:45:26Z</time>
      </trkpt>
      <trkpt lat="45.758754434064031" lon="8.03009994328022">
        <ele>1703.5899999999999</ele>
        <time>2019-02-24T10:45:39Z</time>
      </trkpt>
      <trkpt lat="45.758662819862366" lon="8.030079575255513">
        <ele>1703.1099999999999</ele>
        <time>2019-02-24T10:45:47Z</time>
      </trkpt>
      <trkpt lat="45.758545221760869" lon="8.030080748721957">
        <ele>1702.6300000000001</ele>
        <time>2019-02-24T10:45:59Z</time>
      </trkpt>
      <trkpt lat="45.758513705804944" lon="8.030072199180722">
        <ele>1703.1099999999999</ele>
        <time>2019-02-24T10:46:02Z</time>
      </trkpt>
      <trkpt lat="45.758419828489423" lon="8.030034648254514">
        <ele>1704.55</ele>
        <time>2019-02-24T10:46:12Z</time>
      </trkpt>
      <trkpt lat="45.758388647809625" lon="8.030018471181393">
        <ele>1705.52</ele>
        <time>2019-02-24T10:46:15Z</time>
      </trkpt>
      <trkpt lat="45.758373392745852" lon="8.03000514395535">
        <ele>1705.52</ele>
        <time>2019-02-24T10:46:17Z</time>
      </trkpt>
      <trkpt lat="45.75828873552382" lon="8.029969017952681">
        <ele>1707.4400000000001</ele>
        <time>2019-02-24T10:46:27Z</time>
      </trkpt>
      <trkpt lat="45.758242551237345" lon="8.029970191419125">
        <ele>1707.4400000000001</ele>
        <time>2019-02-24T10:46:32Z</time>
      </trkpt>
      <trkpt lat="45.758132245391607" lon="8.029926437884569">
        <ele>1707.9200000000001</ele>
        <time>2019-02-24T10:46:43Z</time>
      </trkpt>
      <trkpt lat="45.758100058883429" lon="8.029916295781732">
        <ele>1708.4000000000001</ele>
        <time>2019-02-24T10:46:46Z</time>
      </trkpt>
      <trkpt lat="45.758058484643698" lon="8.029919397085905">
        <ele>1708.8800000000001</ele>
        <time>2019-02-24T10:46:51Z</time>
      </trkpt>
      <trkpt lat="45.757952621206641" lon="8.02989131771028">
        <ele>1710.3199999999999</ele>
        <time>2019-02-24T10:47:02Z</time>
      </trkpt>
      <trkpt lat="45.757839716970921" lon="8.029864747077227">
        <ele>1711.28</ele>
        <time>2019-02-24T10:47:13Z</time>
      </trkpt>
      <trkpt lat="45.757783893495798" lon="8.029838260263205">
        <ele>1711.28</ele>
        <time>2019-02-24T10:47:19Z</time>
      </trkpt>
      <trkpt lat="45.757705606520176" lon="8.029818143695593">
        <ele>1713.21</ele>
        <time>2019-02-24T10:47:28Z</time>
      </trkpt>
      <trkpt lat="45.757632935419679" lon="8.029777072370052">
        <ele>1714.6500000000001</ele>
        <time>2019-02-24T10:47:37Z</time>
      </trkpt>
      <trkpt lat="45.757564539089799" lon="8.029747568070889">
        <ele>1715.1300000000001</ele>
        <time>2019-02-24T10:47:45Z</time>
      </trkpt>
      <trkpt lat="45.757468398660421" lon="8.029684200882912">
        <ele>1716.0899999999999</ele>
        <time>2019-02-24T10:47:56Z</time>
      </trkpt>
      <trkpt lat="45.75745515525341" lon="8.029671963304281">
        <ele>1717.05</ele>
        <time>2019-02-24T10:47:58Z</time>
      </trkpt>
      <trkpt lat="45.757419867441058" lon="8.029636088758707">
        <ele>1717.53</ele>
        <time>2019-02-24T10:48:03Z</time>
      </trkpt>
      <trkpt lat="45.75737745501101" lon="8.029604656621814">
        <ele>1718.97</ele>
        <time>2019-02-24T10:48:09Z</time>
      </trkpt>
      <trkpt lat="45.757290618494153" lon="8.029549336060882">
        <ele>1720.4200000000001</ele>
        <time>2019-02-24T10:48:21Z</time>
      </trkpt>
      <trkpt lat="45.757226161658764" lon="8.02949552424252">
        <ele>1721.3800000000001</ele>
        <time>2019-02-24T10:48:30Z</time>
      </trkpt>
      <trkpt lat="45.757200429216027" lon="8.029461996629834">
        <ele>1721.8599999999999</ele>
        <time>2019-02-24T10:48:34Z</time>
      </trkpt>
      <trkpt lat="45.757168410345912" lon="8.029442550614476">
        <ele>1722.3399999999999</ele>
        <time>2019-02-24T10:48:38Z</time>
      </trkpt>
      <trkpt lat="45.757128931581974" lon="8.029410531744361">
        <ele>1722.8199999999999</ele>
        <time>2019-02-24T10:48:43Z</time>
      </trkpt>
      <trkpt lat="45.75709112919867" lon="8.029384715482593">
        <ele>1723.3</ele>
        <time>2019-02-24T10:48:48Z</time>
      </trkpt>
      <trkpt lat="45.757058775052428" lon="8.029366191476584">
        <ele>1723.78</ele>
        <time>2019-02-24T10:48:51Z</time>
      </trkpt>
      <trkpt lat="45.756973531097174" lon="8.029315648600459">
        <ele>1724.74</ele>
        <time>2019-02-24T10:49:01Z</time>
      </trkpt>
      <trkpt lat="45.756877809762955" lon="8.02928639575839">
        <ele>1726.1800000000001</ele>
        <time>2019-02-24T10:49:11Z</time>
      </trkpt>
      <trkpt lat="45.756786614656448" lon="8.029212886467576">
        <ele>1727.6300000000001</ele>
        <time>2019-02-24T10:49:22Z</time>
      </trkpt>
      <trkpt lat="45.756770940497518" lon="8.02919888868928">
        <ele>1728.5899999999999</ele>
        <time>2019-02-24T10:49:24Z</time>
      </trkpt>
      <trkpt lat="45.756734479218721" lon="8.02917298860848">
        <ele>1728.5899999999999</ele>
        <time>2019-02-24T10:49:33Z</time>
      </trkpt>
      <trkpt lat="45.75674319639802" lon="8.029155470430851">
        <ele>1730.51</ele>
        <time>2019-02-24T10:49:54Z</time>
      </trkpt>
      <trkpt lat="45.756702711805701" lon="8.029132084921002">
        <ele>1730.51</ele>
        <time>2019-02-24T10:50:03Z</time>
      </trkpt>
      <trkpt lat="45.756670776754618" lon="8.029121104627848">
        <ele>1730.99</ele>
        <time>2019-02-24T10:50:15Z</time>
      </trkpt>
      <trkpt lat="45.756629537791014" lon="8.029082464054227">
        <ele>1731.47</ele>
        <time>2019-02-24T10:50:20Z</time>
      </trkpt>
      <trkpt lat="45.756608750671148" lon="8.029064610600472">
        <ele>1731.95</ele>
        <time>2019-02-24T10:50:23Z</time>
      </trkpt>
      <trkpt lat="45.75652333907783" lon="8.028974505141377">
        <ele>1733.8800000000001</ele>
        <time>2019-02-24T10:50:35Z</time>
      </trkpt>
      <trkpt lat="45.756509844213724" lon="8.028966626152396">
        <ele>1734.3599999999999</ele>
        <time>2019-02-24T10:50:37Z</time>
      </trkpt>
      <trkpt lat="45.756471287459135" lon="8.028941648080945">
        <ele>1735.3199999999999</ele>
        <time>2019-02-24T10:50:46Z</time>
      </trkpt>
      <trkpt lat="45.756427198648453" lon="8.029031837359071">
        <ele>1735.8</ele>
        <time>2019-02-24T10:50:52Z</time>
      </trkpt>
      <trkpt lat="45.756406243890524" lon="8.029072238132358">
        <ele>1736.28</ele>
        <time>2019-02-24T10:50:55Z</time>
      </trkpt>
      <trkpt lat="45.756326364353299" lon="8.029072321951389">
        <ele>1738.2</ele>
        <time>2019-02-24T10:51:05Z</time>
      </trkpt>
      <trkpt lat="45.756284538656473" lon="8.028994202613831">
        <ele>1739.1600000000001</ele>
        <time>2019-02-24T10:51:15Z</time>
      </trkpt>
      <trkpt lat="45.756233660504222" lon="8.028985569253564">
        <ele>1740.1199999999999</ele>
        <time>2019-02-24T10:51:23Z</time>
      </trkpt>
      <trkpt lat="45.756161659955978" lon="8.028917424380779">
        <ele>1742.05</ele>
        <time>2019-02-24T10:51:35Z</time>
      </trkpt>
      <trkpt lat="45.756110362708569" lon="8.028908791020513">
        <ele>1743.97</ele>
        <time>2019-02-24T10:51:45Z</time>
      </trkpt>
      <trkpt lat="45.756113044917583" lon="8.028892278671265">
        <ele>1744.45</ele>
        <time>2019-02-24T10:51:58Z</time>
      </trkpt>
      <trkpt lat="45.756095694378018" lon="8.02889496088028">
        <ele>1744.45</ele>
        <time>2019-02-24T10:52:02Z</time>
      </trkpt>
      <trkpt lat="45.756019419059157" lon="8.028813991695643">
        <ele>1746.3699999999999</ele>
        <time>2019-02-24T10:52:14Z</time>
      </trkpt>
      <trkpt lat="45.755977006629109" lon="8.028757162392139">
        <ele>1748.29</ele>
        <time>2019-02-24T10:52:22Z</time>
      </trkpt>
      <trkpt lat="45.755970720201731" lon="8.028756743296981">
        <ele>1748.29</ele>
        <time>2019-02-24T10:52:23Z</time>
      </trkpt>
      <trkpt lat="45.755902491509914" lon="8.028744924813509">
        <ele>1750.7</ele>
        <time>2019-02-24T10:52:34Z</time>
      </trkpt>
      <trkpt lat="45.755892936140299" lon="8.028752217069268">
        <ele>1752.6199999999999</ele>
        <time>2019-02-24T10:52:45Z</time>
      </trkpt>
      <trkpt lat="45.755882291123271" lon="8.028740985319018">
        <ele>1751.6600000000001</ele>
        <time>2019-02-24T10:52:59Z</time>
      </trkpt>
      <trkpt lat="45.755827305838466" lon="8.028687424957752">
        <ele>1752.6199999999999</ele>
        <time>2019-02-24T10:53:06Z</time>
      </trkpt>
      <trkpt lat="45.755772152915597" lon="8.028623890131712">
        <ele>1755.02</ele>
        <time>2019-02-24T10:53:16Z</time>
      </trkpt>
      <trkpt lat="45.755730327218771" lon="8.028600169345737">
        <ele>1757.9100000000001</ele>
        <time>2019-02-24T10:53:25Z</time>
      </trkpt>
      <trkpt lat="45.755666373297572" lon="8.028564210981131">
        <ele>1760.79</ele>
        <time>2019-02-24T10:53:36Z</time>
      </trkpt>
      <trkpt lat="45.755623374134302" lon="8.028517859056592">
        <ele>1763.6800000000001</ele>
        <time>2019-02-24T10:53:45Z</time>
      </trkpt>
      <trkpt lat="45.755617506802082" lon="8.028522301465273">
        <ele>1764.6400000000001</ele>
        <time>2019-02-24T10:53:47Z</time>
      </trkpt>
      <trkpt lat="45.755553301423788" lon="8.028580388054252">
        <ele>1765.1199999999999</ele>
        <time>2019-02-24T10:53:58Z</time>
      </trkpt>
      <trkpt lat="45.755554307252169" lon="8.028556667268276">
        <ele>1765.5999999999999</ele>
        <time>2019-02-24T10:54:09Z</time>
      </trkpt>
      <trkpt lat="45.755525473505259" lon="8.028547530993819">
        <ele>1766.5599999999999</ele>
        <time>2019-02-24T10:54:23Z</time>
      </trkpt>
      <trkpt lat="45.755454646423459" lon="8.028461197391152">
        <ele>1765.5999999999999</ele>
        <time>2019-02-24T10:54:36Z</time>
      </trkpt>
      <trkpt lat="45.755450371652842" lon="8.028423981741071">
        <ele>1766.5599999999999</ele>
        <time>2019-02-24T10:54:46Z</time>
      </trkpt>
      <trkpt lat="45.755429668352008" lon="8.028408726677299">
        <ele>1768</ele>
        <time>2019-02-24T10:54:59Z</time>
      </trkpt>
      <trkpt lat="45.755365630611777" lon="8.02836874499917">
        <ele>1768.96</ele>
        <time>2019-02-24T10:55:10Z</time>
      </trkpt>
      <trkpt lat="45.755346603691578" lon="8.028346868231893">
        <ele>1769.4400000000001</ele>
        <time>2019-02-24T10:55:15Z</time>
      </trkpt>
      <trkpt lat="45.75527929700911" lon="8.028271095827222">
        <ele>1770.8900000000001</ele>
        <time>2019-02-24T10:55:26Z</time>
      </trkpt>
      <trkpt lat="45.755243841558695" lon="8.028229856863618">
        <ele>1773.29</ele>
        <time>2019-02-24T10:55:34Z</time>
      </trkpt>
      <trkpt lat="45.755221713334322" lon="8.028186354786158">
        <ele>1774.73</ele>
        <time>2019-02-24T10:55:43Z</time>
      </trkpt>
      <trkpt lat="45.755148623138666" lon="8.028193647041917">
        <ele>1775.6900000000001</ele>
        <time>2019-02-24T10:55:55Z</time>
      </trkpt>
      <trkpt lat="45.755088524892926" lon="8.028175877407193">
        <ele>1777.6099999999999</ele>
        <time>2019-02-24T10:56:05Z</time>
      </trkpt>
      <trkpt lat="45.755020882934332" lon="8.028151234611869">
        <ele>1778.5799999999999</ele>
        <time>2019-02-24T10:56:17Z</time>
      </trkpt>
      <trkpt lat="45.754952318966389" lon="8.028139919042587">
        <ele>1779.0599999999999</ele>
        <time>2019-02-24T10:56:30Z</time>
      </trkpt>
      <trkpt lat="45.754915438592434" lon="8.028132542967796">
        <ele>1780.5</ele>
        <time>2019-02-24T10:56:35Z</time>
      </trkpt>
      <trkpt lat="45.754837822169065" lon="8.028045119717717">
        <ele>1782.4200000000001</ele>
        <time>2019-02-24T10:56:46Z</time>
      </trkpt>
      <trkpt lat="45.754789793863893" lon="8.027985775843263">
        <ele>1783.8599999999999</ele>
        <time>2019-02-24T10:56:55Z</time>
      </trkpt>
      <trkpt lat="45.754745453596115" lon="8.027939172461629">
        <ele>1785.79</ele>
        <time>2019-02-24T10:57:05Z</time>
      </trkpt>
      <trkpt lat="45.754704130813479" lon="8.027928359806538">
        <ele>1788.1900000000001</ele>
        <time>2019-02-24T10:57:16Z</time>
      </trkpt>
      <trkpt lat="45.754652498289943" lon="8.027865160256624">
        <ele>1791.0699999999999</ele>
        <time>2019-02-24T10:57:27Z</time>
      </trkpt>
      <trkpt lat="45.754598937928677" lon="8.027833811938763">
        <ele>1793</ele>
        <time>2019-02-24T10:57:39Z</time>
      </trkpt>
      <trkpt lat="45.754542946815491" lon="8.027807911857963">
        <ele>1794.4400000000001</ele>
        <time>2019-02-24T10:57:51Z</time>
      </trkpt>
      <trkpt lat="45.754494247958064" lon="8.027755357325077">
        <ele>1796.3599999999999</ele>
        <time>2019-02-24T10:58:03Z</time>
      </trkpt>
      <trkpt lat="45.754430713132024" lon="8.027756446972489">
        <ele>1797.3199999999999</ele>
        <time>2019-02-24T10:58:15Z</time>
      </trkpt>
      <trkpt lat="45.754393581300974" lon="8.027770612388849">
        <ele>1798.76</ele>
        <time>2019-02-24T10:58:25Z</time>
      </trkpt>
      <trkpt lat="45.754341026768088" lon="8.027780503034592">
        <ele>1801.1700000000001</ele>
        <time>2019-02-24T10:58:36Z</time>
      </trkpt>
      <trkpt lat="45.75429517775774" lon="8.027798607945442">
        <ele>1802.6099999999999</ele>
        <time>2019-02-24T10:58:46Z</time>
      </trkpt>
      <trkpt lat="45.754219740629196" lon="8.027789974585176">
        <ele>1803.5699999999999</ele>
        <time>2019-02-24T10:58:57Z</time>
      </trkpt>
      <trkpt lat="45.754163581877947" lon="8.027855772525072">
        <ele>1802.6099999999999</ele>
        <time>2019-02-24T10:59:07Z</time>
      </trkpt>
      <trkpt lat="45.754103315994143" lon="8.027896089479327">
        <ele>1804.53</ele>
        <time>2019-02-24T10:59:17Z</time>
      </trkpt>
      <trkpt lat="45.754057550802827" lon="8.027855437248945">
        <ele>1806.45</ele>
        <time>2019-02-24T10:59:28Z</time>
      </trkpt>
      <trkpt lat="45.754017820581794" lon="8.027773629873991">
        <ele>1808.3800000000001</ele>
        <time>2019-02-24T10:59:39Z</time>
      </trkpt>
      <trkpt lat="45.753976330161095" lon="8.02780095487833">
        <ele>1809.3399999999999</ele>
        <time>2019-02-24T10:59:48Z</time>
      </trkpt>
      <trkpt lat="45.753902234137058" lon="8.027797099202871">
        <ele>1810.3</ele>
        <time>2019-02-24T11:00:00Z</time>
      </trkpt>
      <trkpt lat="45.753856049850583" lon="8.027804223820567">
        <ele>1811.26</ele>
        <time>2019-02-24T11:00:12Z</time>
      </trkpt>
      <trkpt lat="45.753838699311018" lon="8.027762649580836">
        <ele>1813.1800000000001</ele>
        <time>2019-02-24T11:00:21Z</time>
      </trkpt>
      <trkpt lat="45.753799807280302" lon="8.027742616832256">
        <ele>1815.5899999999999</ele>
        <time>2019-02-24T11:00:32Z</time>
      </trkpt>
      <trkpt lat="45.753763178363442" lon="8.027744712308049">
        <ele>1817.51</ele>
        <time>2019-02-24T11:00:40Z</time>
      </trkpt>
      <trkpt lat="45.753720765933394" lon="8.027699114754796">
        <ele>1820.8699999999999</ele>
        <time>2019-02-24T11:00:51Z</time>
      </trkpt>
      <trkpt lat="45.753688830882311" lon="8.027682937681675">
        <ele>1822.8</ele>
        <time>2019-02-24T11:01:01Z</time>
      </trkpt>
      <trkpt lat="45.753644909709692" lon="8.02767975255847">
        <ele>1824.24</ele>
        <time>2019-02-24T11:01:11Z</time>
      </trkpt>
      <trkpt lat="45.753608616068959" lon="8.027658881619573">
        <ele>1826.6400000000001</ele>
        <time>2019-02-24T11:01:22Z</time>
      </trkpt>
      <trkpt lat="45.753571400418878" lon="8.027614206075668">
        <ele>1828.5599999999999</ele>
        <time>2019-02-24T11:01:31Z</time>
      </trkpt>
      <trkpt lat="45.753523036837578" lon="8.027601633220911">
        <ele>1829.53</ele>
        <time>2019-02-24T11:01:41Z</time>
      </trkpt>
      <trkpt lat="45.753489509224892" lon="8.02760498598218">
        <ele>1830.01</ele>
        <time>2019-02-24T11:01:50Z</time>
      </trkpt>
      <trkpt lat="45.753452545031905" lon="8.027585539966822">
        <ele>1831.45</ele>
        <time>2019-02-24T11:02:00Z</time>
      </trkpt>
      <trkpt lat="45.753426728770137" lon="8.027549162507057">
        <ele>1832.4100000000001</ele>
        <time>2019-02-24T11:02:10Z</time>
      </trkpt>
      <trkpt lat="45.753376185894012" lon="8.027523094788194">
        <ele>1833.8499999999999</ele>
        <time>2019-02-24T11:02:18Z</time>
      </trkpt>
      <trkpt lat="45.753317680209875" lon="8.027515970170498">
        <ele>1834.3299999999999</ele>
        <time>2019-02-24T11:02:28Z</time>
      </trkpt>
      <trkpt lat="45.753259174525738" lon="8.027488812804222">
        <ele>1834.3299999999999</ele>
        <time>2019-02-24T11:02:38Z</time>
      </trkpt>
      <trkpt lat="45.753215672448277" lon="8.027471881359816">
        <ele>1835.29</ele>
        <time>2019-02-24T11:02:49Z</time>
      </trkpt>
      <trkpt lat="45.753219863399863" lon="8.027469450607896">
        <ele>1834.8099999999999</ele>
        <time>2019-02-24T11:03:07Z</time>
      </trkpt>
      <trkpt lat="45.753224138170481" lon="8.027447406202555">
        <ele>1836.74</ele>
        <time>2019-02-24T11:03:24Z</time>
      </trkpt>
      <trkpt lat="45.753218354657292" lon="8.02744866348803">
        <ele>1836.74</ele>
        <time>2019-02-24T11:03:34Z</time>
      </trkpt>
      <trkpt lat="45.753218103200197" lon="8.02749015390873">
        <ele>1837.22</ele>
        <time>2019-02-24T11:03:46Z</time>
      </trkpt>
      <trkpt lat="45.753214079886675" lon="8.027501637116075">
        <ele>1837.7</ele>
        <time>2019-02-24T11:03:58Z</time>
      </trkpt>
      <trkpt lat="45.753208128735423" lon="8.027504067867994">
        <ele>1837.7</ele>
        <time>2019-02-24T11:04:12Z</time>
      </trkpt>
      <trkpt lat="45.753212152048945" lon="8.027465175837278">
        <ele>1837.7</ele>
        <time>2019-02-24T11:04:24Z</time>
      </trkpt>
      <trkpt lat="45.753220282495022" lon="8.027417482808232">
        <ele>1836.26</ele>
        <time>2019-02-24T11:04:38Z</time>
      </trkpt>
      <trkpt lat="45.753228664398193" lon="8.027436761185527">
        <ele>1836.26</ele>
        <time>2019-02-24T11:04:57Z</time>
      </trkpt>
      <trkpt lat="45.753212822601199" lon="8.027454698458314">
        <ele>1835.77</ele>
        <time>2019-02-24T11:05:10Z</time>
      </trkpt>
      <trkpt lat="45.753179043531418" lon="8.027459140866995">
        <ele>1836.26</ele>
        <time>2019-02-24T11:05:26Z</time>
      </trkpt>
      <trkpt lat="45.753128500655293" lon="8.027379596605897">
        <ele>1836.26</ele>
        <time>2019-02-24T11:05:38Z</time>
      </trkpt>
      <trkpt lat="45.753093548119068" lon="8.027343302965164">
        <ele>1838.6600000000001</ele>
        <time>2019-02-24T11:05:48Z</time>
      </trkpt>
      <trkpt lat="45.75304476544261" lon="8.027343973517418">
        <ele>1842.02</ele>
        <time>2019-02-24T11:06:00Z</time>
      </trkpt>
      <trkpt lat="45.752991624176502" lon="8.027366520836949">
        <ele>1843.95</ele>
        <time>2019-02-24T11:06:11Z</time>
      </trkpt>
      <trkpt lat="45.752963125705719" lon="8.027335843071342">
        <ele>1846.3499999999999</ele>
        <time>2019-02-24T11:06:20Z</time>
      </trkpt>
      <trkpt lat="45.752920210361481" lon="8.027310110628605">
        <ele>1848.27</ele>
        <time>2019-02-24T11:06:31Z</time>
      </trkpt>
      <trkpt lat="45.752885760739446" lon="8.027260741218925">
        <ele>1851.1600000000001</ele>
        <time>2019-02-24T11:06:41Z</time>
      </trkpt>
      <trkpt lat="45.752824572846293" lon="8.027224531397224">
        <ele>1853.5599999999999</ele>
        <time>2019-02-24T11:06:52Z</time>
      </trkpt>
      <trkpt lat="45.752789368852973" lon="8.02718480117619">
        <ele>1855.48</ele>
        <time>2019-02-24T11:07:03Z</time>
      </trkpt>
      <trkpt lat="45.752733880653977" lon="8.027120344340801">
        <ele>1855.96</ele>
        <time>2019-02-24T11:07:17Z</time>
      </trkpt>
      <trkpt lat="45.75272960588336" lon="8.02704700268805">
        <ele>1857.4000000000001</ele>
        <time>2019-02-24T11:07:27Z</time>
      </trkpt>
      <trkpt lat="45.752690630033612" lon="8.026963099837303">
        <ele>1856.4400000000001</ele>
        <time>2019-02-24T11:07:39Z</time>
      </trkpt>
      <trkpt lat="45.752646205946803" lon="8.026922279968858">
        <ele>1856.9200000000001</ele>
        <time>2019-02-24T11:07:50Z</time>
      </trkpt>
      <trkpt lat="45.752615360543132" lon="8.026858158409596">
        <ele>1857.8900000000001</ele>
        <time>2019-02-24T11:08:01Z</time>
      </trkpt>
      <trkpt lat="45.752584096044302" lon="8.026797389611602">
        <ele>1858.3699999999999</ele>
        <time>2019-02-24T11:08:12Z</time>
      </trkpt>
      <trkpt lat="45.752536989748478" lon="8.026721952483058">
        <ele>1858.8499999999999</ele>
        <time>2019-02-24T11:08:23Z</time>
      </trkpt>
      <trkpt lat="45.752515615895391" lon="8.026642492040992">
        <ele>1859.3299999999999</ele>
        <time>2019-02-24T11:08:33Z</time>
      </trkpt>
      <trkpt lat="45.752499606460333" lon="8.026596894487739">
        <ele>1861.73</ele>
        <time>2019-02-24T11:08:42Z</time>
      </trkpt>
      <trkpt lat="45.752453422173858" lon="8.026504777371883">
        <ele>1863.1700000000001</ele>
        <time>2019-02-24T11:08:53Z</time>
      </trkpt>
      <trkpt lat="45.752421068027616" lon="8.026441996917129">
        <ele>1864.1300000000001</ele>
        <time>2019-02-24T11:09:03Z</time>
      </trkpt>
      <trkpt lat="45.752406064420938" lon="8.026392040774226">
        <ele>1866.0599999999999</ele>
        <time>2019-02-24T11:09:12Z</time>
      </trkpt>
      <trkpt lat="45.752367842942476" lon="8.026353064924479">
        <ele>1867.5</ele>
        <time>2019-02-24T11:09:23Z</time>
      </trkpt>
      <trkpt lat="45.752349151298404" lon="8.026332780718803">
        <ele>1868.9400000000001</ele>
        <time>2019-02-24T11:09:33Z</time>
      </trkpt>
      <trkpt lat="45.752346552908421" lon="8.026304114609957">
        <ele>1870.3800000000001</ele>
        <time>2019-02-24T11:09:46Z</time>
      </trkpt>
      <trkpt lat="45.752316378057003" lon="8.026254326105118">
        <ele>1871.8199999999999</ele>
        <time>2019-02-24T11:09:59Z</time>
      </trkpt>
      <trkpt lat="45.752280503511429" lon="8.026215434074402">
        <ele>1874.71</ele>
        <time>2019-02-24T11:10:09Z</time>
      </trkpt>
      <trkpt lat="45.752258040010929" lon="8.026186097413302">
        <ele>1876.1500000000001</ele>
        <time>2019-02-24T11:10:20Z</time>
      </trkpt>
      <trkpt lat="45.752236749976873" lon="8.026164639741182">
        <ele>1876.6300000000001</ele>
        <time>2019-02-24T11:10:29Z</time>
      </trkpt>
      <trkpt lat="45.752187967300415" lon="8.026164807379246">
        <ele>1876.6300000000001</ele>
        <time>2019-02-24T11:10:41Z</time>
      </trkpt>
      <trkpt lat="45.752163324505091" lon="8.026107726618648">
        <ele>1877.1099999999999</ele>
        <time>2019-02-24T11:10:51Z</time>
      </trkpt>
      <trkpt lat="45.752147566527128" lon="8.026086017489433">
        <ele>1879.03</ele>
        <time>2019-02-24T11:11:01Z</time>
      </trkpt>
      <trkpt lat="45.752129461616278" lon="8.026042683050036">
        <ele>1880.96</ele>
        <time>2019-02-24T11:11:11Z</time>
      </trkpt>
      <trkpt lat="45.752102388069034" lon="8.025967665016651">
        <ele>1882.8800000000001</ele>
        <time>2019-02-24T11:11:21Z</time>
      </trkpt>
      <trkpt lat="45.752097358927131" lon="8.025935394689441">
        <ele>1883.3599999999999</ele>
        <time>2019-02-24T11:11:30Z</time>
      </trkpt>
      <trkpt lat="45.75207338668406" lon="8.02591142244637">
        <ele>1883.3599999999999</ele>
        <time>2019-02-24T11:11:42Z</time>
      </trkpt>
      <trkpt lat="45.7520523481071" lon="8.025882337242365">
        <ele>1884.8</ele>
        <time>2019-02-24T11:11:52Z</time>
      </trkpt>
      <trkpt lat="45.752011528238654" lon="8.025872278958559">
        <ele>1884.8</ele>
        <time>2019-02-24T11:12:05Z</time>
      </trkpt>
      <trkpt lat="45.751991327852011" lon="8.025890970602632">
        <ele>1886.24</ele>
        <time>2019-02-24T11:12:15Z</time>
      </trkpt>
      <trkpt lat="45.751943215727806" lon="8.025862975046039">
        <ele>1888.1700000000001</ele>
        <time>2019-02-24T11:12:26Z</time>
      </trkpt>
      <trkpt lat="45.75194195844233" lon="8.025837494060397">
        <ele>1890.0899999999999</ele>
        <time>2019-02-24T11:12:36Z</time>
      </trkpt>
      <trkpt lat="45.751944808289409" lon="8.025828525424004">
        <ele>1890.5699999999999</ele>
        <time>2019-02-24T11:12:48Z</time>
      </trkpt>
      <trkpt lat="45.751952268183231" lon="8.025837829336524">
        <ele>1890.5699999999999</ele>
        <time>2019-02-24T11:13:00Z</time>
      </trkpt>
      <trkpt lat="45.751931900158525" lon="8.025821233168244">
        <ele>1890.5699999999999</ele>
        <time>2019-02-24T11:13:15Z</time>
      </trkpt>
      <trkpt lat="45.751909939572215" lon="8.025803463533521">
        <ele>1890.5699999999999</ele>
        <time>2019-02-24T11:13:26Z</time>
      </trkpt>
      <trkpt lat="45.751900970935822" lon="8.025760715827346">
        <ele>1892.97</ele>
        <time>2019-02-24T11:13:34Z</time>
      </trkpt>
      <trkpt lat="45.751870879903436" lon="8.025723667815328">
        <ele>1894.4200000000001</ele>
        <time>2019-02-24T11:13:45Z</time>
      </trkpt>
      <trkpt lat="45.751833245158195" lon="8.025695253163576">
        <ele>1895.8599999999999</ele>
        <time>2019-02-24T11:13:54Z</time>
      </trkpt>
      <trkpt lat="45.751801393926144" lon="8.025633981451392">
        <ele>1897.3</ele>
        <time>2019-02-24T11:14:05Z</time>
      </trkpt>
      <trkpt lat="45.75177532620728" lon="8.025592491030693">
        <ele>1900.1800000000001</ele>
        <time>2019-02-24T11:14:15Z</time>
      </trkpt>
      <trkpt lat="45.751745738089085" lon="8.025560304522514">
        <ele>1900.1800000000001</ele>
        <time>2019-02-24T11:14:27Z</time>
      </trkpt>
      <trkpt lat="45.751726627349854" lon="8.025509845465422">
        <ele>1901.6300000000001</ele>
        <time>2019-02-24T11:14:37Z</time>
      </trkpt>
      <trkpt lat="45.751681951805949" lon="8.025473300367594">
        <ele>1903.0699999999999</ele>
        <time>2019-02-24T11:14:50Z</time>
      </trkpt>
      <trkpt lat="45.751657728105783" lon="8.025412783026695">
        <ele>1904.03</ele>
        <time>2019-02-24T11:14:59Z</time>
      </trkpt>
      <trkpt lat="45.751627134159207" lon="8.025350254029036">
        <ele>1905.47</ele>
        <time>2019-02-24T11:15:11Z</time>
      </trkpt>
      <trkpt lat="45.75160383246839" lon="8.025296190753579">
        <ele>1907.8699999999999</ele>
        <time>2019-02-24T11:15:21Z</time>
      </trkpt>
      <trkpt lat="45.751564018428326" lon="8.025248246267438">
        <ele>1908.3499999999999</ele>
        <time>2019-02-24T11:15:34Z</time>
      </trkpt>
      <trkpt lat="45.751535771414638" lon="8.025230308994651">
        <ele>1910.76</ele>
        <time>2019-02-24T11:15:45Z</time>
      </trkpt>
      <trkpt lat="45.751512888818979" lon="8.025258639827371">
        <ele>1911.24</ele>
        <time>2019-02-24T11:15:55Z</time>
      </trkpt>
      <trkpt lat="45.751469722017646" lon="8.025255873799324">
        <ele>1913.1600000000001</ele>
        <time>2019-02-24T11:16:04Z</time>
      </trkpt>
      <trkpt lat="45.751439882442355" lon="8.025225279852748">
        <ele>1915.5599999999999</ele>
        <time>2019-02-24T11:16:15Z</time>
      </trkpt>
      <trkpt lat="45.751397889107466" lon="8.025157386437058">
        <ele>1917.49</ele>
        <time>2019-02-24T11:16:27Z</time>
      </trkpt>
      <trkpt lat="45.75135899707675" lon="8.025147160515189">
        <ele>1917.97</ele>
        <time>2019-02-24T11:16:38Z</time>
      </trkpt>
      <trkpt lat="45.751318847760558" lon="8.025101646780968">
        <ele>1920.8499999999999</ele>
        <time>2019-02-24T11:16:48Z</time>
      </trkpt>
      <trkpt lat="45.75125833041966" lon="8.025089912116528">
        <ele>1922.77</ele>
        <time>2019-02-24T11:16:58Z</time>
      </trkpt>
      <trkpt lat="45.751221785321832" lon="8.025057641789317">
        <ele>1923.74</ele>
        <time>2019-02-24T11:17:10Z</time>
      </trkpt>
      <trkpt lat="45.751191861927509" lon="8.025033669546247">
        <ele>1924.7</ele>
        <time>2019-02-24T11:17:19Z</time>
      </trkpt>
      <trkpt lat="45.751164956018329" lon="8.024993604049087">
        <ele>1925.6600000000001</ele>
        <time>2019-02-24T11:17:28Z</time>
      </trkpt>
      <trkpt lat="45.751141989603639" lon="8.024957058951259">
        <ele>1926.6199999999999</ele>
        <time>2019-02-24T11:17:38Z</time>
      </trkpt>
      <trkpt lat="45.751127237454057" lon="8.02490777336061">
        <ele>1929.02</ele>
        <time>2019-02-24T11:17:48Z</time>
      </trkpt>
      <trkpt lat="45.751068061217666" lon="8.024891680106521">
        <ele>1929.5</ele>
        <time>2019-02-24T11:17:58Z</time>
      </trkpt>
      <trkpt lat="45.751037551090121" lon="8.024833425879479">
        <ele>1929.5</ele>
        <time>2019-02-24T11:18:08Z</time>
      </trkpt>
      <trkpt lat="45.751008968800306" lon="8.024777434766293">
        <ele>1929.5</ele>
        <time>2019-02-24T11:18:20Z</time>
      </trkpt>
      <trkpt lat="45.751012992113829" lon="8.024763101711869">
        <ele>1930.95</ele>
        <time>2019-02-24T11:18:31Z</time>
      </trkpt>
      <trkpt lat="45.751016093418002" lon="8.024761592969298">
        <ele>1929.98</ele>
        <time>2019-02-24T11:18:39Z</time>
      </trkpt>
      <trkpt lat="45.751008884981275" lon="8.024758324027062">
        <ele>1930.46</ele>
        <time>2019-02-24T11:18:51Z</time>
      </trkpt>
      <trkpt lat="45.75101307593286" lon="8.024762012064457">
        <ele>1930.95</ele>
        <time>2019-02-24T11:19:03Z</time>
      </trkpt>
      <trkpt lat="45.751008382067084" lon="8.024757653474808">
        <ele>1932.8699999999999</ele>
        <time>2019-02-24T11:19:26Z</time>
      </trkpt>
      <trkpt lat="45.75100326910615" lon="8.024756815284491">
        <ele>1932.8699999999999</ele>
        <time>2019-02-24T11:19:34Z</time>
      </trkpt>
      <trkpt lat="45.750999078154564" lon="8.024776596575975">
        <ele>1934.3099999999999</ele>
        <time>2019-02-24T11:19:42Z</time>
      </trkpt>
      <trkpt lat="45.750997988507152" lon="8.024792689830065">
        <ele>1934.79</ele>
        <time>2019-02-24T11:20:13Z</time>
      </trkpt>
      <trkpt lat="45.750988014042377" lon="8.024780452251434">
        <ele>1934.3099999999999</ele>
        <time>2019-02-24T11:20:43Z</time>
      </trkpt>
      <trkpt lat="45.751003352925181" lon="8.024769052863121">
        <ele>1934.3099999999999</ele>
        <time>2019-02-24T11:21:00Z</time>
      </trkpt>
      <trkpt lat="45.75101844035089" lon="8.024769388139248">
        <ele>1932.3900000000001</ele>
        <time>2019-02-24T11:21:17Z</time>
      </trkpt>
      <trkpt lat="45.751009220257401" lon="8.024784978479147">
        <ele>1931.9100000000001</ele>
        <time>2019-02-24T11:21:42Z</time>
      </trkpt>
      <trkpt lat="45.751002850010991" lon="8.024800233542919">
        <ele>1931.9100000000001</ele>
        <time>2019-02-24T11:22:10Z</time>
      </trkpt>
      <trkpt lat="45.75100377202034" lon="8.024761760607362">
        <ele>1931.9100000000001</ele>
        <time>2019-02-24T11:22:26Z</time>
      </trkpt>
      <trkpt lat="45.751013327389956" lon="8.024755474179983">
        <ele>1931.9100000000001</ele>
        <time>2019-02-24T11:22:40Z</time>
      </trkpt>
      <trkpt lat="45.751011651009321" lon="8.024762514978647">
        <ele>1932.3900000000001</ele>
        <time>2019-02-24T11:22:50Z</time>
      </trkpt>
      <trkpt lat="45.751005448400974" lon="8.024784810841084">
        <ele>1931.4300000000001</ele>
        <time>2019-02-24T11:23:04Z</time>
      </trkpt>
      <trkpt lat="45.751001928001642" lon="8.024796713143587">
        <ele>1932.3900000000001</ele>
        <time>2019-02-24T11:23:30Z</time>
      </trkpt>
      <trkpt lat="45.750999497249722" lon="8.024795791134238">
        <ele>1931.9100000000001</ele>
        <time>2019-02-24T11:24:05Z</time>
      </trkpt>
      <trkpt lat="45.750999832525849" lon="8.024797299876809">
        <ele>1931.9100000000001</ele>
        <time>2019-02-24T11:24:40Z</time>
      </trkpt>
      <trkpt lat="45.751001844182611" lon="8.024782715365291">
        <ele>1932.3900000000001</ele>
        <time>2019-02-24T11:25:18Z</time>
      </trkpt>
      <trkpt lat="45.75100620277226" lon="8.024786151945591">
        <ele>1931.9100000000001</ele>
        <time>2019-02-24T11:25:50Z</time>
      </trkpt>
      <trkpt lat="45.751008298248053" lon="8.024788247421384">
        <ele>1933.8299999999999</ele>
        <time>2019-02-24T11:26:02Z</time>
      </trkpt>
      <trkpt lat="45.750975692644715" lon="8.024800568819046">
        <ele>1934.3099999999999</ele>
        <time>2019-02-24T11:26:16Z</time>
      </trkpt>
      <trkpt lat="45.750996060669422" lon="8.02476704120636">
        <ele>1932.3900000000001</ele>
        <time>2019-02-24T11:26:22Z</time>
      </trkpt>
      <trkpt lat="45.75100620277226" lon="8.02475924603641">
        <ele>1932.3900000000001</ele>
        <time>2019-02-24T11:26:34Z</time>
      </trkpt>
      <trkpt lat="45.750997820869088" lon="8.024766705930233">
        <ele>1933.3499999999999</ele>
        <time>2019-02-24T11:26:50Z</time>
      </trkpt>
      <trkpt lat="45.750953480601311" lon="8.024717420339584">
        <ele>1932.8699999999999</ele>
        <time>2019-02-24T11:26:58Z</time>
      </trkpt>
      <trkpt lat="45.750881899148226" lon="8.024661177769303">
        <ele>1934.3099999999999</ele>
        <time>2019-02-24T11:27:09Z</time>
      </trkpt>
      <trkpt lat="45.750846778973937" lon="8.024601163342595">
        <ele>1935.27</ele>
        <time>2019-02-24T11:27:18Z</time>
      </trkpt>
      <trkpt lat="45.750829009339213" lon="8.024568725377321">
        <ele>1936.71</ele>
        <time>2019-02-24T11:27:25Z</time>
      </trkpt>
      <trkpt lat="45.750794811174273" lon="8.024501502513886">
        <ele>1938.1600000000001</ele>
        <time>2019-02-24T11:27:35Z</time>
      </trkpt>
      <trkpt lat="45.750754410400987" lon="8.024452049285173">
        <ele>1939.5999999999999</ele>
        <time>2019-02-24T11:27:48Z</time>
      </trkpt>
      <trkpt lat="45.75073110871017" lon="8.024407625198364">
        <ele>1941.52</ele>
        <time>2019-02-24T11:27:59Z</time>
      </trkpt>
      <trkpt lat="45.750702610239387" lon="8.024363871663809">
        <ele>1944.4000000000001</ele>
        <time>2019-02-24T11:28:08Z</time>
      </trkpt>
      <trkpt lat="45.750660533085465" lon="8.024318860843778">
        <ele>1946.3299999999999</ele>
        <time>2019-02-24T11:28:20Z</time>
      </trkpt>
      <trkpt lat="45.750633124262094" lon="8.024259181693196">
        <ele>1947.77</ele>
        <time>2019-02-24T11:28:32Z</time>
      </trkpt>
      <trkpt lat="45.750593729317188" lon="8.024194221943617">
        <ele>1948.25</ele>
        <time>2019-02-24T11:28:43Z</time>
      </trkpt>
      <trkpt lat="45.75055668130517" lon="8.02413278259337">
        <ele>1950.1700000000001</ele>
        <time>2019-02-24T11:28:56Z</time>
      </trkpt>
      <trkpt lat="45.750513346865773" lon="8.024060865864158">
        <ele>1950.6500000000001</ele>
        <time>2019-02-24T11:29:06Z</time>
      </trkpt>
      <trkpt lat="45.750471856445074" lon="8.024017279967666">
        <ele>1953.54</ele>
        <time>2019-02-24T11:29:16Z</time>
      </trkpt>
      <trkpt lat="45.75043304823339" lon="8.023956511169672">
        <ele>1955.46</ele>
        <time>2019-02-24T11:29:25Z</time>
      </trkpt>
      <trkpt lat="45.750406142324209" lon="8.023885264992714">
        <ele>1956.4200000000001</ele>
        <time>2019-02-24T11:29:36Z</time>
      </trkpt>
      <trkpt lat="45.750370770692825" lon="8.02379759028554">
        <ele>1957.3800000000001</ele>
        <time>2019-02-24T11:29:47Z</time>
      </trkpt>
      <trkpt lat="45.750343445688486" lon="8.023735731840134">
        <ele>1958.3399999999999</ele>
        <time>2019-02-24T11:29:57Z</time>
      </trkpt>
      <trkpt lat="45.750333638861775" lon="8.023672783747315">
        <ele>1959.3</ele>
        <time>2019-02-24T11:30:07Z</time>
      </trkpt>
      <trkpt lat="45.750304386019707" lon="8.023620061576366">
        <ele>1960.75</ele>
        <time>2019-02-24T11:30:18Z</time>
      </trkpt>
      <trkpt lat="45.750290052965283" lon="8.023566417396069">
        <ele>1961.23</ele>
        <time>2019-02-24T11:30:26Z</time>
      </trkpt>
      <trkpt lat="45.750233726575971" lon="8.023518640547991">
        <ele>1962.1900000000001</ele>
        <time>2019-02-24T11:30:38Z</time>
      </trkpt>
      <trkpt lat="45.750183016061783" lon="8.023470779880881">
        <ele>1963.1500000000001</ele>
        <time>2019-02-24T11:30:48Z</time>
      </trkpt>
      <trkpt lat="45.750148985534906" lon="8.023414285853505">
        <ele>1964.5899999999999</ele>
        <time>2019-02-24T11:30:57Z</time>
      </trkpt>
      <trkpt lat="45.750091401860118" lon="8.023346811532974">
        <ele>1965.0699999999999</ele>
        <time>2019-02-24T11:31:07Z</time>
      </trkpt>
      <trkpt lat="45.750014707446098" lon="8.023320492357016">
        <ele>1965.55</ele>
        <time>2019-02-24T11:31:17Z</time>
      </trkpt>
      <trkpt lat="45.750004984438419" lon="8.023269698023796">
        <ele>1965.55</ele>
        <time>2019-02-24T11:31:22Z</time>
      </trkpt>
      <trkpt lat="45.749942203983665" lon="8.023210521787405">
        <ele>1966.99</ele>
        <time>2019-02-24T11:31:34Z</time>
      </trkpt>
      <trkpt lat="45.749868275597692" lon="8.023156793788075">
        <ele>1967.96</ele>
        <time>2019-02-24T11:31:47Z</time>
      </trkpt>
      <trkpt lat="45.749819492921233" lon="8.023106586188078">
        <ele>1969.8800000000001</ele>
        <time>2019-02-24T11:31:58Z</time>
      </trkpt>
      <trkpt lat="45.749771045520902" lon="8.023074315860868">
        <ele>1971.8</ele>
        <time>2019-02-24T11:32:08Z</time>
      </trkpt>
      <trkpt lat="45.749752353876829" lon="8.023059898987413">
        <ele>1973.24</ele>
        <time>2019-02-24T11:32:19Z</time>
      </trkpt>
      <trkpt lat="45.749710947275162" lon="8.023039195686579">
        <ele>1974.2</ele>
        <time>2019-02-24T11:32:30Z</time>
      </trkpt>
      <trkpt lat="45.749669289216399" lon="8.022987144067884">
        <ele>1975.6500000000001</ele>
        <time>2019-02-24T11:32:40Z</time>
      </trkpt>
      <trkpt lat="45.749639282003045" lon="8.02296644076705">
        <ele>1977.0899999999999</ele>
        <time>2019-02-24T11:32:51Z</time>
      </trkpt>
      <trkpt lat="45.749603239819407" lon="8.022958394140005">
        <ele>1979.49</ele>
        <time>2019-02-24T11:33:02Z</time>
      </trkpt>
      <trkpt lat="45.749546661973" lon="8.022910617291927">
        <ele>1981.4100000000001</ele>
        <time>2019-02-24T11:33:15Z</time>
      </trkpt>
      <trkpt lat="45.749503495171666" lon="8.022853117436171">
        <ele>1983.3399999999999</ele>
        <time>2019-02-24T11:33:26Z</time>
      </trkpt>
      <trkpt lat="45.749478936195374" lon="8.022851189598441">
        <ele>1985.26</ele>
        <time>2019-02-24T11:33:37Z</time>
      </trkpt>
      <trkpt lat="45.749440798535943" lon="8.022840544581413">
        <ele>1985.74</ele>
        <time>2019-02-24T11:33:47Z</time>
      </trkpt>
      <trkpt lat="45.749403331428766" lon="8.022788073867559">
        <ele>1987.6600000000001</ele>
        <time>2019-02-24T11:33:58Z</time>
      </trkpt>
      <trkpt lat="45.749385058879852" lon="8.022777093574405">
        <ele>1987.1800000000001</ele>
        <time>2019-02-24T11:34:06Z</time>
      </trkpt>
      <trkpt lat="45.749336779117584" lon="8.022745074704289">
        <ele>1988.6199999999999</ele>
        <time>2019-02-24T11:34:17Z</time>
      </trkpt>
      <trkpt lat="45.749306688085198" lon="8.022712552919984">
        <ele>1991.51</ele>
        <time>2019-02-24T11:34:26Z</time>
      </trkpt>
      <trkpt lat="45.749265113845468" lon="8.022644072771072">
        <ele>1991.99</ele>
        <time>2019-02-24T11:34:38Z</time>
      </trkpt>
      <trkpt lat="45.749247679486871" lon="8.022672655060887">
        <ele>1993.4300000000001</ele>
        <time>2019-02-24T11:34:50Z</time>
      </trkpt>
      <trkpt lat="45.74923544190824" lon="8.022647760808468">
        <ele>1993.4300000000001</ele>
        <time>2019-02-24T11:35:04Z</time>
      </trkpt>
      <trkpt lat="45.749205853790045" lon="8.022634936496615">
        <ele>1994.8699999999999</ele>
        <time>2019-02-24T11:35:19Z</time>
      </trkpt>
      <trkpt lat="45.749146593734622" lon="8.022584225982428">
        <ele>1997.28</ele>
        <time>2019-02-24T11:35:29Z</time>
      </trkpt>
      <trkpt lat="45.749113401398063" lon="8.022581376135349">
        <ele>1998.72</ele>
        <time>2019-02-24T11:35:37Z</time>
      </trkpt>
      <trkpt lat="45.749110970646143" lon="8.022569809108973">
        <ele>1999.2</ele>
        <time>2019-02-24T11:35:52Z</time>
      </trkpt>
      <trkpt lat="45.749116586521268" lon="8.022536113858223">
        <ele>1999.6800000000001</ele>
        <time>2019-02-24T11:36:02Z</time>
      </trkpt>
      <trkpt lat="45.749114993959665" lon="8.022537538781762">
        <ele>1999.6800000000001</ele>
        <time>2019-02-24T11:36:15Z</time>
      </trkpt>
      <trkpt lat="45.749059170484543" lon="8.022526977583766">
        <ele>2000.1600000000001</ele>
        <time>2019-02-24T11:36:24Z</time>
      </trkpt>
      <trkpt lat="45.748990271240473" lon="8.022513315081596">
        <ele>2001.5999999999999</ele>
        <time>2019-02-24T11:36:35Z</time>
      </trkpt>
      <trkpt lat="45.748969651758671" lon="8.022499736398459">
        <ele>2002.0799999999999</ele>
        <time>2019-02-24T11:36:44Z</time>
      </trkpt>
      <trkpt lat="45.748980967327952" lon="8.022493030875921">
        <ele>2001.5999999999999</ele>
        <time>2019-02-24T11:37:00Z</time>
      </trkpt>
      <trkpt lat="45.748981218785048" lon="8.022479955106974">
        <ele>2002.0799999999999</ele>
        <time>2019-02-24T11:37:18Z</time>
      </trkpt>
      <trkpt lat="45.74897694401443" lon="8.022479200735688">
        <ele>2001.5999999999999</ele>
        <time>2019-02-24T11:37:38Z</time>
      </trkpt>
      <trkpt lat="45.748975351452827" lon="8.022499484941363">
        <ele>2002.0799999999999</ele>
        <time>2019-02-24T11:37:51Z</time>
      </trkpt>
      <trkpt lat="45.748977027833462" lon="8.022576682269573">
        <ele>2002.0799999999999</ele>
        <time>2019-02-24T11:38:01Z</time>
      </trkpt>
      <trkpt lat="45.748970741406083" lon="8.022582633420825">
        <ele>2002.0799999999999</ele>
        <time>2019-02-24T11:38:11Z</time>
      </trkpt>
      <trkpt lat="45.748961437493563" lon="8.022538796067238">
        <ele>2003.04</ele>
        <time>2019-02-24T11:38:26Z</time>
      </trkpt>
      <trkpt lat="45.748907206580043" lon="8.022459419444203">
        <ele>2002.0799999999999</ele>
        <time>2019-02-24T11:38:35Z</time>
      </trkpt>
      <trkpt lat="45.748895304277539" lon="8.022446259856224">
        <ele>2001.5999999999999</ele>
        <time>2019-02-24T11:38:37Z</time>
      </trkpt>
      <trkpt lat="45.748856663703918" lon="8.022426730021834">
        <ele>2001.5999999999999</ele>
        <time>2019-02-24T11:38:41Z</time>
      </trkpt>
      <trkpt lat="45.748767731711268" lon="8.022394459694624">
        <ele>2003.52</ele>
        <time>2019-02-24T11:38:50Z</time>
      </trkpt>
      <trkpt lat="45.748758427798748" lon="8.022389933466911">
        <ele>2003.04</ele>
        <time>2019-02-24T11:38:51Z</time>
      </trkpt>
      <trkpt lat="45.748699335381389" lon="8.022360177710652">
        <ele>2004.97</ele>
        <time>2019-02-24T11:39:01Z</time>
      </trkpt>
      <trkpt lat="45.74862171895802" lon="8.022317597642541">
        <ele>2005.9300000000001</ele>
        <time>2019-02-24T11:39:14Z</time>
      </trkpt>
      <trkpt lat="45.748562039807439" lon="8.022278705611825">
        <ele>2006.8900000000001</ele>
        <time>2019-02-24T11:39:24Z</time>
      </trkpt>
      <trkpt lat="45.748503198847175" lon="8.022269066423178">
        <ele>2008.3299999999999</ele>
        <time>2019-02-24T11:39:34Z</time>
      </trkpt>
      <trkpt lat="45.74844921939075" lon="8.022292284294963">
        <ele>2010.25</ele>
        <time>2019-02-24T11:39:44Z</time>
      </trkpt>
      <trkpt lat="45.748441088944674" lon="8.022277448326349">
        <ele>2011.22</ele>
        <time>2019-02-24T11:39:52Z</time>
      </trkpt>
      <trkpt lat="45.748378727585077" lon="8.022278370335698">
        <ele>2011.7</ele>
        <time>2019-02-24T11:40:00Z</time>
      </trkpt>
      <trkpt lat="45.748312091454864" lon="8.022259762510657">
        <ele>2012.6600000000001</ele>
        <time>2019-02-24T11:40:08Z</time>
      </trkpt>
      <trkpt lat="45.748258782550693" lon="8.022265629842877">
        <ele>2013.6199999999999</ele>
        <time>2019-02-24T11:40:14Z</time>
      </trkpt>
      <trkpt lat="45.748240510001779" lon="8.02225255407393">
        <ele>2013.6199999999999</ele>
        <time>2019-02-24T11:40:16Z</time>
      </trkpt>
      <trkpt lat="45.748170940205455" lon="8.02224911749363">
        <ele>2015.0599999999999</ele>
        <time>2019-02-24T11:40:25Z</time>
      </trkpt>
      <trkpt lat="45.748093323782086" lon="8.022238975390792">
        <ele>2015.54</ele>
        <time>2019-02-24T11:40:35Z</time>
      </trkpt>
      <trkpt lat="45.748087204992771" lon="8.022238472476602">
        <ele>2015.54</ele>
        <time>2019-02-24T11:40:36Z</time>
      </trkpt>
      <trkpt lat="45.748030794784427" lon="8.022244423627853">
        <ele>2016.5</ele>
        <time>2019-02-24T11:40:44Z</time>
      </trkpt>
      <trkpt lat="45.747989555820823" lon="8.022211482748389">
        <ele>2017.9400000000001</ele>
        <time>2019-02-24T11:40:52Z</time>
      </trkpt>
      <trkpt lat="45.747927110642195" lon="8.022218942642212">
        <ele>2019.3900000000001</ele>
        <time>2019-02-24T11:41:01Z</time>
      </trkpt>
      <trkpt lat="45.747863911092281" lon="8.022238975390792">
        <ele>2020.8299999999999</ele>
        <time>2019-02-24T11:41:11Z</time>
      </trkpt>
      <trkpt lat="45.747814709320664" lon="8.022238975390792">
        <ele>2022.27</ele>
        <time>2019-02-24T11:41:20Z</time>
      </trkpt>
      <trkpt lat="45.747755449265242" lon="8.022237131372094">
        <ele>2024.1900000000001</ele>
        <time>2019-02-24T11:41:31Z</time>
      </trkpt>
      <trkpt lat="45.747711611911654" lon="8.022236628457904">
        <ele>2027.5599999999999</ele>
        <time>2019-02-24T11:41:40Z</time>
      </trkpt>
      <trkpt lat="45.747682107612491" lon="8.022257667034864">
        <ele>2028.04</ele>
        <time>2019-02-24T11:41:50Z</time>
      </trkpt>
      <trkpt lat="45.747669199481606" lon="8.022255571559072">
        <ele>2028.52</ele>
        <time>2019-02-24T11:42:00Z</time>
      </trkpt>
      <trkpt lat="45.747631816193461" lon="8.022246100008488">
        <ele>2029.96</ele>
        <time>2019-02-24T11:42:09Z</time>
      </trkpt>
      <trkpt lat="45.7476004678756" lon="8.022195138037205">
        <ele>2030.4400000000001</ele>
        <time>2019-02-24T11:42:18Z</time>
      </trkpt>
      <trkpt lat="45.747556546702981" lon="8.022208716720343">
        <ele>2032.3599999999999</ele>
        <time>2019-02-24T11:42:28Z</time>
      </trkpt>
      <trkpt lat="45.747527461498976" lon="8.022207878530026">
        <ele>2034.29</ele>
        <time>2019-02-24T11:42:38Z</time>
      </trkpt>
      <trkpt lat="45.747499130666256" lon="8.022195221856237">
        <ele>2036.21</ele>
        <time>2019-02-24T11:42:52Z</time>
      </trkpt>
      <trkpt lat="45.747476164251566" lon="8.022243836894631">
        <ele>2037.6500000000001</ele>
        <time>2019-02-24T11:43:03Z</time>
      </trkpt>
      <trkpt lat="45.747445737943053" lon="8.022251045331359">
        <ele>2038.6099999999999</ele>
        <time>2019-02-24T11:43:13Z</time>
      </trkpt>
      <trkpt lat="45.747429057955742" lon="8.022215170785785">
        <ele>2038.6099999999999</ele>
        <time>2019-02-24T11:43:23Z</time>
      </trkpt>
      <trkpt lat="45.747394356876612" lon="8.02218952216208">
        <ele>2039.5699999999999</ele>
        <time>2019-02-24T11:43:33Z</time>
      </trkpt>
      <trkpt lat="45.747396033257246" lon="8.022190611809492">
        <ele>2040.05</ele>
        <time>2019-02-24T11:43:47Z</time>
      </trkpt>
      <trkpt lat="45.747370636090636" lon="8.022223133593798">
        <ele>2041.02</ele>
        <time>2019-02-24T11:43:59Z</time>
      </trkpt>
      <trkpt lat="45.747341550886631" lon="8.022240065038204">
        <ele>2042.46</ele>
        <time>2019-02-24T11:44:04Z</time>
      </trkpt>
      <trkpt lat="45.747278518974781" lon="8.022258589044213">
        <ele>2044.3800000000001</ele>
        <time>2019-02-24T11:44:14Z</time>
      </trkpt>
      <trkpt lat="45.747230993583798" lon="8.022244339808822">
        <ele>2046.78</ele>
        <time>2019-02-24T11:44:24Z</time>
      </trkpt>
      <trkpt lat="45.74720517732203" lon="8.022256577387452">
        <ele>2048.23</ele>
        <time>2019-02-24T11:44:32Z</time>
      </trkpt>
      <trkpt lat="45.747165279462934" lon="8.022266970947385">
        <ele>2050.6300000000001</ele>
        <time>2019-02-24T11:44:41Z</time>
      </trkpt>
      <trkpt lat="45.747143235057592" lon="8.02227552048862">
        <ele>2051.5900000000001</ele>
        <time>2019-02-24T11:44:49Z</time>
      </trkpt>
      <trkpt lat="45.747112305834889" lon="8.022288260981441">
        <ele>2052.5500000000002</ele>
        <time>2019-02-24T11:44:58Z</time>
      </trkpt>
      <trkpt lat="45.747080454602838" lon="8.022302007302642">
        <ele>2053.5100000000002</ele>
        <time>2019-02-24T11:45:06Z</time>
      </trkpt>
      <trkpt lat="45.747038964182138" lon="8.022300079464912">
        <ele>2053.5100000000002</ele>
        <time>2019-02-24T11:45:15Z</time>
      </trkpt>
      <trkpt lat="45.747047429904342" lon="8.022325895726681">
        <ele>2054.4699999999998</ele>
        <time>2019-02-24T11:45:24Z</time>
      </trkpt>
      <trkpt lat="45.747024798765779" lon="8.022343078628182">
        <ele>2056.4000000000001</ele>
        <time>2019-02-24T11:45:35Z</time>
      </trkpt>
      <trkpt lat="45.746986577287316" lon="8.022318771108985">
        <ele>2059.7600000000002</ele>
        <time>2019-02-24T11:45:43Z</time>
      </trkpt>
      <trkpt lat="45.746966125443578" lon="8.022360932081938">
        <ele>2063.1300000000001</ele>
        <time>2019-02-24T11:45:52Z</time>
      </trkpt>
      <trkpt lat="45.746918516233563" lon="8.022368811070919">
        <ele>2066.4899999999998</ele>
        <time>2019-02-24T11:46:03Z</time>
      </trkpt>
      <trkpt lat="45.746864285320044" lon="8.022340480238199">
        <ele>2066.9699999999998</ele>
        <time>2019-02-24T11:46:13Z</time>
      </trkpt>
      <trkpt lat="45.746813490986824" lon="8.022341402247548">
        <ele>2067.4499999999998</ele>
        <time>2019-02-24T11:46:23Z</time>
      </trkpt>
      <trkpt lat="45.746770827099681" lon="8.02238549105823">
        <ele>2069.3800000000001</ele>
        <time>2019-02-24T11:46:33Z</time>
      </trkpt>
      <trkpt lat="45.746758170425892" lon="8.022400327026844">
        <ele>2069.3800000000001</ele>
        <time>2019-02-24T11:46:43Z</time>
      </trkpt>
      <trkpt lat="45.746724726632237" lon="8.022423461079598">
        <ele>2069.8600000000001</ele>
        <time>2019-02-24T11:46:48Z</time>
      </trkpt>
      <trkpt lat="45.746662197634578" lon="8.022437291219831">
        <ele>2071.3000000000002</ele>
        <time>2019-02-24T11:46:58Z</time>
      </trkpt>
      <trkpt lat="45.746591538190842" lon="8.022457491606474">
        <ele>2072.2600000000002</ele>
        <time>2019-02-24T11:47:08Z</time>
      </trkpt>
      <trkpt lat="45.746562452986836" lon="8.02248565480113">
        <ele>2073.2199999999998</ele>
        <time>2019-02-24T11:47:19Z</time>
      </trkpt>
      <trkpt lat="45.746521968394518" lon="8.022467382252216">
        <ele>2074.1799999999998</ele>
        <time>2019-02-24T11:47:30Z</time>
      </trkpt>
      <trkpt lat="45.746534708887339" lon="8.022451288998127">
        <ele>2074.1799999999998</ele>
        <time>2019-02-24T11:47:37Z</time>
      </trkpt>
      <trkpt lat="45.746534876525402" lon="8.022445505484939">
        <ele>2075.6199999999999</ele>
        <time>2019-02-24T11:47:53Z</time>
      </trkpt>
      <trkpt lat="45.74652548879385" lon="8.022466711699963">
        <ele>2074.6599999999999</ele>
        <time>2019-02-24T11:48:01Z</time>
      </trkpt>
      <trkpt lat="45.746526410803199" lon="8.022460173815489">
        <ele>2072.7399999999998</ele>
        <time>2019-02-24T11:48:16Z</time>
      </trkpt>
      <trkpt lat="45.746516352519393" lon="8.02245925180614">
        <ele>2073.6999999999998</ele>
        <time>2019-02-24T11:48:40Z</time>
      </trkpt>
      <trkpt lat="45.746509730815887" lon="8.022457826882601">
        <ele>2074.6599999999999</ele>
        <time>2019-02-24T11:49:03Z</time>
      </trkpt>
      <trkpt lat="45.746513418853283" lon="8.022454222664237">
        <ele>2074.1799999999998</ele>
        <time>2019-02-24T11:49:32Z</time>
      </trkpt>
      <trkpt lat="45.746516017243266" lon="8.022449612617493">
        <ele>2073.2199999999998</ele>
        <time>2019-02-24T11:50:08Z</time>
      </trkpt>
      <trkpt lat="45.746517358347774" lon="8.022459335625172">
        <ele>2072.7399999999998</ele>
        <time>2019-02-24T11:50:38Z</time>
      </trkpt>
      <trkpt lat="45.746516101062298" lon="8.022460089996457">
        <ele>2073.6999999999998</ele>
        <time>2019-02-24T11:51:10Z</time>
      </trkpt>
      <trkpt lat="45.746520543470979" lon="8.022460844367743">
        <ele>2073.2199999999998</ele>
        <time>2019-02-24T11:51:36Z</time>
      </trkpt>
      <trkpt lat="45.746514424681664" lon="8.022455479949713">
        <ele>2074.1799999999998</ele>
        <time>2019-02-24T11:52:11Z</time>
      </trkpt>
      <trkpt lat="45.746514089405537" lon="8.022448942065239">
        <ele>2073.2199999999998</ele>
        <time>2019-02-24T11:52:48Z</time>
      </trkpt>
      <trkpt lat="45.746513335034251" lon="8.022447684779763">
        <ele>2072.2600000000002</ele>
        <time>2019-02-24T11:53:15Z</time>
      </trkpt>
      <trkpt lat="45.746506126597524" lon="8.022436033934355">
        <ele>2072.7399999999998</ele>
        <time>2019-02-24T11:53:58Z</time>
      </trkpt>
      <trkpt lat="45.746506964787841" lon="8.022441230714321">
        <ele>2072.7399999999998</ele>
        <time>2019-02-24T11:54:25Z</time>
      </trkpt>
      <trkpt lat="45.746513586491346" lon="8.022446427494288">
        <ele>2071.7800000000002</ele>
        <time>2019-02-24T11:54:59Z</time>
      </trkpt>
      <trkpt lat="45.746512915939093" lon="8.022441901266575">
        <ele>2072.2600000000002</ele>
        <time>2019-02-24T11:55:31Z</time>
      </trkpt>
      <trkpt lat="45.746517442166805" lon="8.022449193522334">
        <ele>2072.2600000000002</ele>
        <time>2019-02-24T11:55:46Z</time>
      </trkpt>
      <trkpt lat="45.746517525985837" lon="8.022434609010816">
        <ele>2074.1799999999998</ele>
        <time>2019-02-24T11:55:50Z</time>
      </trkpt>
      <trkpt lat="45.746543761342764" lon="8.022462520748377">
        <ele>2073.2199999999998</ele>
        <time>2019-02-24T11:56:02Z</time>
      </trkpt>
      <trkpt lat="45.746545772999525" lon="8.022463275119662">
        <ele>2071.7800000000002</ele>
        <time>2019-02-24T11:56:15Z</time>
      </trkpt>
      <trkpt lat="45.746549880132079" lon="8.022462269291282">
        <ele>2071.7800000000002</ele>
        <time>2019-02-24T11:56:34Z</time>
      </trkpt>
      <trkpt lat="45.746556166559458" lon="8.022445421665907">
        <ele>2071.7800000000002</ele>
        <time>2019-02-24T11:56:43Z</time>
      </trkpt>
      <trkpt lat="45.746553149074316" lon="8.022456569597125">
        <ele>2072.7399999999998</ele>
        <time>2019-02-24T11:57:03Z</time>
      </trkpt>
      <trkpt lat="45.746548874303699" lon="8.022464029490948">
        <ele>2073.6999999999998</ele>
        <time>2019-02-24T11:57:15Z</time>
      </trkpt>
      <trkpt lat="45.746553568169475" lon="8.02246218547225">
        <ele>2074.6599999999999</ele>
        <time>2019-02-24T11:57:35Z</time>
      </trkpt>
      <trkpt lat="45.746550383046269" lon="8.022448690608144">
        <ele>2075.1399999999999</ele>
        <time>2019-02-24T11:57:49Z</time>
      </trkpt>
      <trkpt lat="45.746559770777822" lon="8.0224475171417">
        <ele>2075.1399999999999</ele>
        <time>2019-02-24T11:58:00Z</time>
      </trkpt>
      <trkpt lat="45.746555160731077" lon="8.022443158552051">
        <ele>2073.6999999999998</ele>
        <time>2019-02-24T11:58:20Z</time>
      </trkpt>
      <trkpt lat="45.74657921679318" lon="8.022409044206142">
        <ele>2072.7399999999998</ele>
        <time>2019-02-24T11:58:32Z</time>
      </trkpt>
      <trkpt lat="45.746596734970808" lon="8.022417342290282">
        <ele>2074.1799999999998</ele>
        <time>2019-02-24T11:58:48Z</time>
      </trkpt>
      <trkpt lat="45.746603021398187" lon="8.022440727800131">
        <ele>2073.6999999999998</ele>
        <time>2019-02-24T11:59:02Z</time>
      </trkpt>
      <trkpt lat="45.746620455756783" lon="8.022436872124672">
        <ele>2073.6999999999998</ele>
        <time>2019-02-24T11:59:15Z</time>
      </trkpt>
      <trkpt lat="45.746682314202189" lon="8.022432513535023">
        <ele>2072.7399999999998</ele>
        <time>2019-02-24T11:59:25Z</time>
      </trkpt>
      <trkpt lat="45.746739227324724" lon="8.022380964830518">
        <ele>2070.8200000000002</ele>
        <time>2019-02-24T11:59:36Z</time>
      </trkpt>
      <trkpt lat="45.746775018051267" lon="8.022334612905979">
        <ele>2069.8600000000001</ele>
        <time>2019-02-24T11:59:45Z</time>
      </trkpt>
      <trkpt lat="45.746828997507691" lon="8.022293876856566">
        <ele>2067.9299999999998</ele>
        <time>2019-02-24T11:59:56Z</time>
      </trkpt>
      <trkpt lat="45.746863028034568" lon="8.022305360063911">
        <ele>2066.0100000000002</ele>
        <time>2019-02-24T12:00:05Z</time>
      </trkpt>
      <trkpt lat="45.746913151815534" lon="8.022330924868584">
        <ele>2065.0500000000002</ele>
        <time>2019-02-24T12:00:15Z</time>
      </trkpt>
      <trkpt lat="45.746923042461276" lon="8.022301755845547">
        <ele>2063.6100000000001</ele>
        <time>2019-02-24T12:00:25Z</time>
      </trkpt>
      <trkpt lat="45.746919019147754" lon="8.022265965119004">
        <ele>2063.1300000000001</ele>
        <time>2019-02-24T12:00:35Z</time>
      </trkpt>
      <trkpt lat="45.746927401050925" lon="8.02223059348762">
        <ele>2062.1700000000001</ele>
        <time>2019-02-24T12:00:44Z</time>
      </trkpt>
      <trkpt lat="45.746949445456266" lon="8.022169657051563">
        <ele>2060.7199999999998</ele>
        <time>2019-02-24T12:00:55Z</time>
      </trkpt>
      <trkpt lat="45.746981045231223" lon="8.022171501070261">
        <ele>2059.7600000000002</ele>
        <time>2019-02-24T12:01:04Z</time>
      </trkpt>
      <trkpt lat="45.747009040787816" lon="8.022182900458574">
        <ele>2059.2800000000002</ele>
        <time>2019-02-24T12:01:13Z</time>
      </trkpt>
      <trkpt lat="45.747039886191487" lon="8.022192372009158">
        <ele>2057.3600000000001</ele>
        <time>2019-02-24T12:01:23Z</time>
      </trkpt>
      <trkpt lat="45.747049273923039" lon="8.022185750305653">
        <ele>2056.4000000000001</ele>
        <time>2019-02-24T12:01:32Z</time>
      </trkpt>
      <trkpt lat="45.74705027975142" lon="8.022143002599478">
        <ele>2053.9899999999998</ele>
        <time>2019-02-24T12:01:42Z</time>
      </trkpt>
      <trkpt lat="45.747085986658931" lon="8.022176278755069">
        <ele>2053.9899999999998</ele>
        <time>2019-02-24T12:01:52Z</time>
      </trkpt>
      <trkpt lat="45.747107611969113" lon="8.022197484970093">
        <ele>2054.4699999999998</ele>
        <time>2019-02-24T12:02:01Z</time>
      </trkpt>
      <trkpt lat="45.747127728536725" lon="8.022198406979442">
        <ele>2054.96</ele>
        <time>2019-02-24T12:02:11Z</time>
      </trkpt>
      <trkpt lat="45.747143737971783" lon="8.022185079753399">
        <ele>2054.4699999999998</ele>
        <time>2019-02-24T12:02:22Z</time>
      </trkpt>
      <trkpt lat="45.74716511182487" lon="8.022198406979442">
        <ele>2053.5100000000002</ele>
        <time>2019-02-24T12:02:33Z</time>
      </trkpt>
      <trkpt lat="45.747179863974452" lon="8.022215003147721">
        <ele>2052.5500000000002</ele>
        <time>2019-02-24T12:02:43Z</time>
      </trkpt>
      <trkpt lat="45.747200483456254" lon="8.022203603759408">
        <ele>2050.1500000000001</ele>
        <time>2019-02-24T12:02:51Z</time>
      </trkpt>
      <trkpt lat="45.747227724641562" lon="8.022184744477272">
        <ele>2047.75</ele>
        <time>2019-02-24T12:03:02Z</time>
      </trkpt>
      <trkpt lat="45.74725940823555" lon="8.022193210199475">
        <ele>2046.78</ele>
        <time>2019-02-24T12:03:12Z</time>
      </trkpt>
      <trkpt lat="45.74729067273438" lon="8.022199580445886">
        <ele>2045.8199999999999</ele>
        <time>2019-02-24T12:03:21Z</time>
      </trkpt>
      <trkpt lat="45.747326882556081" lon="8.022198155522347">
        <ele>2044.3800000000001</ele>
        <time>2019-02-24T12:03:30Z</time>
      </trkpt>
      <trkpt lat="45.747356805950403" lon="8.022197317332029">
        <ele>2041.98</ele>
        <time>2019-02-24T12:03:38Z</time>
      </trkpt>
      <trkpt lat="45.747391423210502" lon="8.022193377837539">
        <ele>2041.02</ele>
        <time>2019-02-24T12:03:46Z</time>
      </trkpt>
      <trkpt lat="45.747428890317678" lon="8.022163202986121">
        <ele>2038.6099999999999</ele>
        <time>2019-02-24T12:03:56Z</time>
      </trkpt>
      <trkpt lat="45.747468201443553" lon="8.022171501070261">
        <ele>2036.6900000000001</ele>
        <time>2019-02-24T12:04:07Z</time>
      </trkpt>
      <trkpt lat="45.747475074604154" lon="8.02217585965991">
        <ele>2036.6900000000001</ele>
        <time>2019-02-24T12:04:18Z</time>
      </trkpt>
      <trkpt lat="45.747504578903317" lon="8.02214895375073">
        <ele>2036.6900000000001</ele>
        <time>2019-02-24T12:04:34Z</time>
      </trkpt>
      <trkpt lat="45.747582446783781" lon="8.022169908508658">
        <ele>2033.8099999999999</ele>
        <time>2019-02-24T12:04:44Z</time>
      </trkpt>
      <trkpt lat="45.747636845335364" lon="8.022165801376104">
        <ele>2030.9200000000001</ele>
        <time>2019-02-24T12:04:52Z</time>
      </trkpt>
      <trkpt lat="45.747712533921003" lon="8.022211315110326">
        <ele>2029.96</ele>
        <time>2019-02-24T12:05:01Z</time>
      </trkpt>
      <trkpt lat="45.74777640402317" lon="8.022193377837539">
        <ele>2028.52</ele>
        <time>2019-02-24T12:05:09Z</time>
      </trkpt>
      <trkpt lat="45.747858379036188" lon="8.02218172699213">
        <ele>2024.6700000000001</ele>
        <time>2019-02-24T12:05:18Z</time>
      </trkpt>
      <trkpt lat="45.747935492545366" lon="8.022183068096638">
        <ele>2021.79</ele>
        <time>2019-02-24T12:05:27Z</time>
      </trkpt>
      <trkpt lat="45.747942114248872" lon="8.022183487191796">
        <ele>2021.3099999999999</ele>
        <time>2019-02-24T12:05:28Z</time>
      </trkpt>
      <trkpt lat="45.747955022379756" lon="8.022174434736371">
        <ele>2020.8299999999999</ele>
        <time>2019-02-24T12:05:30Z</time>
      </trkpt>
      <trkpt lat="45.747980251908302" lon="8.022202430292964">
        <ele>2018.9100000000001</ele>
        <time>2019-02-24T12:05:41Z</time>
      </trkpt>
      <trkpt lat="45.748037751764059" lon="8.022159347310662">
        <ele>2017.9400000000001</ele>
        <time>2019-02-24T12:05:50Z</time>
      </trkpt>
      <trkpt lat="45.748065412044525" lon="8.02217829041183">
        <ele>2017.46</ele>
        <time>2019-02-24T12:05:53Z</time>
      </trkpt>
      <trkpt lat="45.748111177235842" lon="8.022223385050893">
        <ele>2015.54</ele>
        <time>2019-02-24T12:06:04Z</time>
      </trkpt>
      <trkpt lat="45.748120984062552" lon="8.02222765982151">
        <ele>2015.54</ele>
        <time>2019-02-24T12:06:07Z</time>
      </trkpt>
      <trkpt lat="45.748230451717973" lon="8.022226151078939">
        <ele>2014.0999999999999</ele>
        <time>2019-02-24T12:06:18Z</time>
      </trkpt>
      <trkpt lat="45.748339081183076" lon="8.022223971784115">
        <ele>2011.7</ele>
        <time>2019-02-24T12:06:28Z</time>
      </trkpt>
      <trkpt lat="45.748463300988078" lon="8.022248027846217">
        <ele>2009.77</ele>
        <time>2019-02-24T12:06:38Z</time>
      </trkpt>
      <trkpt lat="45.748582240194082" lon="8.022246435284615">
        <ele>2008.3299999999999</ele>
        <time>2019-02-24T12:06:49Z</time>
      </trkpt>
      <trkpt lat="45.748643428087234" lon="8.022267473861575">
        <ele>2007.3699999999999</ele>
        <time>2019-02-24T12:06:54Z</time>
      </trkpt>
      <trkpt lat="45.748759685084224" lon="8.022343078628182">
        <ele>2004.97</ele>
        <time>2019-02-24T12:07:07Z</time>
      </trkpt>
      <trkpt lat="45.748867560178041" lon="8.022396890446544">
        <ele>2003.52</ele>
        <time>2019-02-24T12:07:18Z</time>
      </trkpt>
      <trkpt lat="45.748954312875867" lon="8.022421952337027">
        <ele>2001.1199999999999</ele>
        <time>2019-02-24T12:07:28Z</time>
      </trkpt>
      <trkpt lat="45.7490424066782" lon="8.022459922358394">
        <ele>1999.2</ele>
        <time>2019-02-24T12:07:39Z</time>
      </trkpt>
      <trkpt lat="45.74914307333529" lon="8.022563606500626">
        <ele>1997.28</ele>
        <time>2019-02-24T12:07:52Z</time>
      </trkpt>
      <trkpt lat="45.749195627868176" lon="8.022515997290611">
        <ele>1994.3900000000001</ele>
        <time>2019-02-24T12:08:03Z</time>
      </trkpt>
      <trkpt lat="45.749223371967673" lon="8.022517506033182">
        <ele>1991.99</ele>
        <time>2019-02-24T12:08:14Z</time>
      </trkpt>
      <trkpt lat="45.749228987842798" lon="8.022532174363732">
        <ele>1992.95</ele>
        <time>2019-02-24T12:08:27Z</time>
      </trkpt>
      <trkpt lat="45.749244494363666" lon="8.022594368085265">
        <ele>1993.9100000000001</ele>
        <time>2019-02-24T12:08:37Z</time>
      </trkpt>
      <trkpt lat="45.749309035018086" lon="8.022686820477247">
        <ele>1991.03</ele>
        <time>2019-02-24T12:08:48Z</time>
      </trkpt>
      <trkpt lat="45.749370809644461" lon="8.022742224857211">
        <ele>1987.6600000000001</ele>
        <time>2019-02-24T12:08:57Z</time>
      </trkpt>
      <trkpt lat="45.74937860481441" lon="8.022743565961719">
        <ele>1987.1800000000001</ele>
        <time>2019-02-24T12:08:58Z</time>
      </trkpt>
      <trkpt lat="45.749425543472171" lon="8.022752366960049">
        <ele>1985.74</ele>
        <time>2019-02-24T12:09:04Z</time>
      </trkpt>
      <trkpt lat="45.749493185430765" lon="8.022818919271231">
        <ele>1983.3399999999999</ele>
        <time>2019-02-24T12:09:15Z</time>
      </trkpt>
      <trkpt lat="45.749504081904888" lon="8.02282084710896">
        <ele>1982.8599999999999</ele>
        <time>2019-02-24T12:09:17Z</time>
      </trkpt>
      <trkpt lat="45.749570550397038" lon="8.02288974635303">
        <ele>1980.45</ele>
        <time>2019-02-24T12:09:27Z</time>
      </trkpt>
      <trkpt lat="45.749657973647118" lon="8.022919837385416">
        <ele>1977.5699999999999</ele>
        <time>2019-02-24T12:09:38Z</time>
      </trkpt>
      <trkpt lat="45.749704157933593" lon="8.022957388311625">
        <ele>1974.2</ele>
        <time>2019-02-24T12:09:45Z</time>
      </trkpt>
      <trkpt lat="45.749724945053458" lon="8.023004913702607">
        <ele>1972.28</ele>
        <time>2019-02-24T12:09:50Z</time>
      </trkpt>
      <trkpt lat="45.749797029420733" lon="8.023093175143004">
        <ele>1969.8800000000001</ele>
        <time>2019-02-24T12:10:02Z</time>
      </trkpt>
      <trkpt lat="45.749802393838763" lon="8.02310231141746">
        <ele>1969.8800000000001</ele>
        <time>2019-02-24T12:10:03Z</time>
      </trkpt>
      <trkpt lat="45.749826449900866" lon="8.023132402449846">
        <ele>1968.4400000000001</ele>
        <time>2019-02-24T12:10:07Z</time>
      </trkpt>
      <trkpt lat="45.749855367466807" lon="8.023116560652852">
        <ele>1967.96</ele>
        <time>2019-02-24T12:10:10Z</time>
      </trkpt>
      <trkpt lat="45.749951507896185" lon="8.023185878992081">
        <ele>1965.0699999999999</ele>
        <time>2019-02-24T12:10:20Z</time>
      </trkpt>
      <trkpt lat="45.750007750466466" lon="8.02324203774333">
        <ele>1964.1099999999999</ele>
        <time>2019-02-24T12:10:26Z</time>
      </trkpt>
      <trkpt lat="45.750032057985663" lon="8.02331286482513">
        <ele>1963.1500000000001</ele>
        <time>2019-02-24T12:10:31Z</time>
      </trkpt>
      <trkpt lat="45.750125264748931" lon="8.023346476256847">
        <ele>1963.1500000000001</ele>
        <time>2019-02-24T12:10:41Z</time>
      </trkpt>
      <trkpt lat="45.750154182314873" lon="8.023372041061521">
        <ele>1963.1500000000001</ele>
        <time>2019-02-24T12:10:45Z</time>
      </trkpt>
      <trkpt lat="45.750214448198676" lon="8.023456949740648">
        <ele>1961.71</ele>
        <time>2019-02-24T12:10:55Z</time>
      </trkpt>
      <trkpt lat="45.750274797901511" lon="8.02351763471961">
        <ele>1960.75</ele>
        <time>2019-02-24T12:11:06Z</time>
      </trkpt>
      <trkpt lat="45.750323245301843" lon="8.023579157888889">
        <ele>1959.3</ele>
        <time>2019-02-24T12:11:16Z</time>
      </trkpt>
      <trkpt lat="45.750359119847417" lon="8.023708155378699">
        <ele>1956.4200000000001</ele>
        <time>2019-02-24T12:11:28Z</time>
      </trkpt>
      <trkpt lat="45.750378733500838" lon="8.023747717961669">
        <ele>1955.9400000000001</ele>
        <time>2019-02-24T12:11:38Z</time>
      </trkpt>
      <trkpt lat="45.750412428751588" lon="8.023833045735955">
        <ele>1954.98</ele>
        <time>2019-02-24T12:11:47Z</time>
      </trkpt>
      <trkpt lat="45.750445872545242" lon="8.023925414308906">
        <ele>1954.02</ele>
        <time>2019-02-24T12:11:57Z</time>
      </trkpt>
      <trkpt lat="45.750492224469781" lon="8.023979142308235">
        <ele>1953.0599999999999</ele>
        <time>2019-02-24T12:12:04Z</time>
      </trkpt>
      <trkpt lat="45.75054595246911" lon="8.024038234725595">
        <ele>1952.0899999999999</ele>
        <time>2019-02-24T12:12:11Z</time>
      </trkpt>
      <trkpt lat="45.750565147027373" lon="8.024071594700217">
        <ele>1952.0899999999999</ele>
        <time>2019-02-24T12:12:14Z</time>
      </trkpt>
      <trkpt lat="45.750616611912847" lon="8.024132950231433">
        <ele>1950.6500000000001</ele>
        <time>2019-02-24T12:12:21Z</time>
      </trkpt>
      <trkpt lat="45.750684589147568" lon="8.024254404008389">
        <ele>1948.25</ele>
        <time>2019-02-24T12:12:33Z</time>
      </trkpt>
      <trkpt lat="45.75075214728713" lon="8.024352556094527">
        <ele>1944.8800000000001</ele>
        <time>2019-02-24T12:12:44Z</time>
      </trkpt>
      <trkpt lat="45.750814005732536" lon="8.02443671040237">
        <ele>1941.52</ele>
        <time>2019-02-24T12:12:54Z</time>
      </trkpt>
      <trkpt lat="45.75087234377861" lon="8.024567048996687">
        <ele>1938.6400000000001</ele>
        <time>2019-02-24T12:13:06Z</time>
      </trkpt>
      <trkpt lat="45.750922383740544" lon="8.024636283516884">
        <ele>1936.71</ele>
        <time>2019-02-24T12:13:14Z</time>
      </trkpt>
      <trkpt lat="45.750956498086452" lon="8.024653466418386">
        <ele>1936.23</ele>
        <time>2019-02-24T12:13:18Z</time>
      </trkpt>
      <trkpt lat="45.751027911901474" lon="8.024760754778981">
        <ele>1935.27</ele>
        <time>2019-02-24T12:13:30Z</time>
      </trkpt>
      <trkpt lat="45.751044508069754" lon="8.024776261299849">
        <ele>1934.79</ele>
        <time>2019-02-24T12:13:33Z</time>
      </trkpt>
      <trkpt lat="45.751062612980604" lon="8.02478807978332">
        <ele>1934.3099999999999</ele>
        <time>2019-02-24T12:13:35Z</time>
      </trkpt>
      <trkpt lat="45.751122292131186" lon="8.024861589074135">
        <ele>1932.8699999999999</ele>
        <time>2019-02-24T12:13:43Z</time>
      </trkpt>
      <trkpt lat="45.751188844442368" lon="8.024947000667453">
        <ele>1930.95</ele>
        <time>2019-02-24T12:13:54Z</time>
      </trkpt>
      <trkpt lat="45.751265538856387" lon="8.02503040060401">
        <ele>1927.5799999999999</ele>
        <time>2019-02-24T12:14:07Z</time>
      </trkpt>
      <trkpt lat="45.751342568546534" lon="8.025060826912522">
        <ele>1925.6600000000001</ele>
        <time>2019-02-24T12:14:16Z</time>
      </trkpt>
      <trkpt lat="45.751378694549203" lon="8.025114722549915">
        <ele>1923.74</ele>
        <time>2019-02-24T12:14:24Z</time>
      </trkpt>
      <trkpt lat="45.751463184133172" lon="8.025140790268779">
        <ele>1922.29</ele>
        <time>2019-02-24T12:14:34Z</time>
      </trkpt>
      <trkpt lat="45.751524120569229" lon="8.025215221568942">
        <ele>1920.3699999999999</ele>
        <time>2019-02-24T12:14:45Z</time>
      </trkpt>
      <trkpt lat="45.751581201329827" lon="8.025273559615016">
        <ele>1917.49</ele>
        <time>2019-02-24T12:14:55Z</time>
      </trkpt>
      <trkpt lat="45.75164632871747" lon="8.025349415838718">
        <ele>1914.1199999999999</ele>
        <time>2019-02-24T12:15:08Z</time>
      </trkpt>
      <trkpt lat="45.751697458326817" lon="8.025395097211003">
        <ele>1912.2</ele>
        <time>2019-02-24T12:15:18Z</time>
      </trkpt>
      <trkpt lat="45.751746408641338" lon="8.025441700592637">
        <ele>1910.28</ele>
        <time>2019-02-24T12:15:27Z</time>
      </trkpt>
      <trkpt lat="45.751795694231987" lon="8.02552049048245">
        <ele>1907.3900000000001</ele>
        <time>2019-02-24T12:15:38Z</time>
      </trkpt>
      <trkpt lat="45.751817990094423" lon="8.025574050843716">
        <ele>1905.95</ele>
        <time>2019-02-24T12:15:45Z</time>
      </trkpt>
      <trkpt lat="45.751870628446341" lon="8.025637166574597">
        <ele>1903.55</ele>
        <time>2019-02-24T12:15:55Z</time>
      </trkpt>
      <trkpt lat="45.751919075846672" lon="8.025698186829686">
        <ele>1901.1400000000001</ele>
        <time>2019-02-24T12:16:05Z</time>
      </trkpt>
      <trkpt lat="45.751956794410944" lon="8.025749903172255">
        <ele>1899.22</ele>
        <time>2019-02-24T12:16:14Z</time>
      </trkpt>
      <trkpt lat="45.751987807452679" lon="8.025825005024672">
        <ele>1895.8599999999999</ele>
        <time>2019-02-24T12:16:24Z</time>
      </trkpt>
      <trkpt lat="45.752050001174212" lon="8.025846462696791">
        <ele>1893.9300000000001</ele>
        <time>2019-02-24T12:16:35Z</time>
      </trkpt>
      <trkpt lat="45.752086462453008" lon="8.025817545130849">
        <ele>1890.5699999999999</ele>
        <time>2019-02-24T12:16:43Z</time>
      </trkpt>
      <trkpt lat="45.752103058621287" lon="8.025840260088444">
        <ele>1889.1300000000001</ele>
        <time>2019-02-24T12:16:47Z</time>
      </trkpt>
      <trkpt lat="45.752152595669031" lon="8.025895496830344">
        <ele>1886.72</ele>
        <time>2019-02-24T12:16:58Z</time>
      </trkpt>
      <trkpt lat="45.752173969522119" lon="8.025995157659054">
        <ele>1885.28</ele>
        <time>2019-02-24T12:17:07Z</time>
      </trkpt>
      <trkpt lat="45.752193415537477" lon="8.026071768254042">
        <ele>1883.3599999999999</ele>
        <time>2019-02-24T12:17:16Z</time>
      </trkpt>
      <trkpt lat="45.752196935936809" lon="8.026077887043357">
        <ele>1883.3599999999999</ele>
        <time>2019-02-24T12:17:17Z</time>
      </trkpt>
      <trkpt lat="45.752253849059343" lon="8.02613521926105">
        <ele>1881.9200000000001</ele>
        <time>2019-02-24T12:17:28Z</time>
      </trkpt>
      <trkpt lat="45.752287125214934" lon="8.026130273938179">
        <ele>1880</ele>
        <time>2019-02-24T12:17:35Z</time>
      </trkpt>
      <trkpt lat="45.752339344471693" lon="8.026169082149863">
        <ele>1878.0699999999999</ele>
        <time>2019-02-24T12:17:43Z</time>
      </trkpt>
      <trkpt lat="45.752374297007918" lon="8.026242507621646">
        <ele>1875.6700000000001</ele>
        <time>2019-02-24T12:17:53Z</time>
      </trkpt>
      <trkpt lat="45.752403549849987" lon="8.026312328875065">
        <ele>1872.79</ele>
        <time>2019-02-24T12:18:03Z</time>
      </trkpt>
      <trkpt lat="45.752409584820271" lon="8.026317693293095">
        <ele>1872.3</ele>
        <time>2019-02-24T12:18:04Z</time>
      </trkpt>
      <trkpt lat="45.752463731914759" lon="8.026401428505778">
        <ele>1870.8599999999999</ele>
        <time>2019-02-24T12:18:15Z</time>
      </trkpt>
      <trkpt lat="45.752512263134122" lon="8.026505867019296">
        <ele>1868.9400000000001</ele>
        <time>2019-02-24T12:18:25Z</time>
      </trkpt>
      <trkpt lat="45.752592897042632" lon="8.02669077180326">
        <ele>1867.98</ele>
        <time>2019-02-24T12:18:39Z</time>
      </trkpt>
      <trkpt lat="45.752601195126772" lon="8.026715917512775">
        <ele>1867.5</ele>
        <time>2019-02-24T12:18:41Z</time>
      </trkpt>
      <trkpt lat="45.752656431868672" lon="8.026808369904757">
        <ele>1866.0599999999999</ele>
        <time>2019-02-24T12:18:51Z</time>
      </trkpt>
      <trkpt lat="45.752708232030272" lon="8.026901744306088">
        <ele>1863.1700000000001</ele>
        <time>2019-02-24T12:19:01Z</time>
      </trkpt>
      <trkpt lat="45.752757266163826" lon="8.027000986039639">
        <ele>1861.73</ele>
        <time>2019-02-24T12:19:10Z</time>
      </trkpt>
      <trkpt lat="45.75279850512743" lon="8.027055384591222">
        <ele>1860.29</ele>
        <time>2019-02-24T12:19:17Z</time>
      </trkpt>
      <trkpt lat="45.752804037183523" lon="8.027116069570184">
        <ele>1859.8099999999999</ele>
        <time>2019-02-24T12:19:22Z</time>
      </trkpt>
      <trkpt lat="45.752895483747125" lon="8.027198547497392">
        <ele>1856.4400000000001</ele>
        <time>2019-02-24T12:19:35Z</time>
      </trkpt>
      <trkpt lat="45.752951810136437" lon="8.027251353487372">
        <ele>1854.52</ele>
        <time>2019-02-24T12:19:46Z</time>
      </trkpt>
      <trkpt lat="45.753034539520741" lon="8.027311032637954">
        <ele>1852.1199999999999</ele>
        <time>2019-02-24T12:19:56Z</time>
      </trkpt>
      <trkpt lat="45.753083992749453" lon="8.027303740382195">
        <ele>1850.6800000000001</ele>
        <time>2019-02-24T12:20:01Z</time>
      </trkpt>
      <trkpt lat="45.753181977197528" lon="8.027311954647303">
        <ele>1847.79</ele>
        <time>2019-02-24T12:20:11Z</time>
      </trkpt>
      <trkpt lat="45.753195974975824" lon="8.0273396987468">
        <ele>1847.3099999999999</ele>
        <time>2019-02-24T12:20:13Z</time>
      </trkpt>
      <trkpt lat="45.753255905583501" lon="8.027415303513408">
        <ele>1844.9100000000001</ele>
        <time>2019-02-24T12:20:22Z</time>
      </trkpt>
      <trkpt lat="45.753357829526067" lon="8.027447909116745">
        <ele>1842.02</ele>
        <time>2019-02-24T12:20:34Z</time>
      </trkpt>
      <trkpt lat="45.753424884751439" lon="8.027480514720082">
        <ele>1839.1400000000001</ele>
        <time>2019-02-24T12:20:44Z</time>
      </trkpt>
      <trkpt lat="45.753499986603856" lon="8.027524687349796">
        <ele>1836.26</ele>
        <time>2019-02-24T12:20:53Z</time>
      </trkpt>
      <trkpt lat="45.753555139526725" lon="8.027536002919078">
        <ele>1832.8900000000001</ele>
        <time>2019-02-24T12:21:02Z</time>
      </trkpt>
      <trkpt lat="45.753596294671297" lon="8.027564669027925">
        <ele>1831.45</ele>
        <time>2019-02-24T12:21:07Z</time>
      </trkpt>
      <trkpt lat="45.753633426502347" lon="8.027587467804551">
        <ele>1830.49</ele>
        <time>2019-02-24T12:21:17Z</time>
      </trkpt>
      <trkpt lat="45.753676425665617" lon="8.027615714818239">
        <ele>1829.05</ele>
        <time>2019-02-24T12:21:26Z</time>
      </trkpt>
      <trkpt lat="45.753712803125381" lon="8.02765385247767">
        <ele>1827.1199999999999</ele>
        <time>2019-02-24T12:21:38Z</time>
      </trkpt>
      <trkpt lat="45.753716407343745" lon="8.02765779197216">
        <ele>1824.24</ele>
        <time>2019-02-24T12:21:53Z</time>
      </trkpt>
      <trkpt lat="45.753751024603844" lon="8.027665335685015">
        <ele>1822.8</ele>
        <time>2019-02-24T12:22:02Z</time>
      </trkpt>
      <trkpt lat="45.753826545551419" lon="8.027708670124412">
        <ele>1820.3900000000001</ele>
        <time>2019-02-24T12:22:14Z</time>
      </trkpt>
      <trkpt lat="45.753888571634889" lon="8.027720656245947">
        <ele>1817.99</ele>
        <time>2019-02-24T12:22:25Z</time>
      </trkpt>
      <trkpt lat="45.753938695415854" lon="8.027738593518734">
        <ele>1817.03</ele>
        <time>2019-02-24T12:22:36Z</time>
      </trkpt>
      <trkpt lat="45.753929894417524" lon="8.027746891602874">
        <ele>1816.55</ele>
        <time>2019-02-24T12:22:50Z</time>
      </trkpt>
      <trkpt lat="45.753956381231546" lon="8.02775451913476">
        <ele>1816.0699999999999</ele>
        <time>2019-02-24T12:23:04Z</time>
      </trkpt>
      <trkpt lat="45.753939198330045" lon="8.02778972312808">
        <ele>1815.5899999999999</ele>
        <time>2019-02-24T12:23:17Z</time>
      </trkpt>
      <trkpt lat="45.753988903015852" lon="8.027769355103374">
        <ele>1815.5899999999999</ele>
        <time>2019-02-24T12:23:26Z</time>
      </trkpt>
      <trkpt lat="45.754016563296318" lon="8.027760302647948">
        <ele>1814.6300000000001</ele>
        <time>2019-02-24T12:23:30Z</time>
      </trkpt>
      <trkpt lat="45.754089402034879" lon="8.027757704257965">
        <ele>1812.22</ele>
        <time>2019-02-24T12:23:39Z</time>
      </trkpt>
      <trkpt lat="45.754125276580453" lon="8.027766505256295">
        <ele>1809.8199999999999</ele>
        <time>2019-02-24T12:23:46Z</time>
      </trkpt>
      <trkpt lat="45.754140112549067" lon="8.027783436700702">
        <ele>1808.8599999999999</ele>
        <time>2019-02-24T12:23:49Z</time>
      </trkpt>
      <trkpt lat="45.754153691232204" lon="8.027813024818897">
        <ele>1806.9400000000001</ele>
        <time>2019-02-24T12:24:00Z</time>
      </trkpt>
      <trkpt lat="45.754165928810835" lon="8.027876140549779">
        <ele>1806.9400000000001</ele>
        <time>2019-02-24T12:24:09Z</time>
      </trkpt>
      <trkpt lat="45.75416031293571" lon="8.027864573523402">
        <ele>1806.45</ele>
        <time>2019-02-24T12:24:16Z</time>
      </trkpt>
      <trkpt lat="45.754143968224525" lon="8.027844959869981">
        <ele>1806.9400000000001</ele>
        <time>2019-02-24T12:24:28Z</time>
      </trkpt>
      <trkpt lat="45.754136927425861" lon="8.027851665392518">
        <ele>1805.97</ele>
        <time>2019-02-24T12:24:43Z</time>
      </trkpt>
      <trkpt lat="45.754137430340052" lon="8.027864238247275">
        <ele>1807.4200000000001</ele>
        <time>2019-02-24T12:24:56Z</time>
      </trkpt>
      <trkpt lat="45.754135586321354" lon="8.027864573523402">
        <ele>1806.45</ele>
        <time>2019-02-24T12:25:08Z</time>
      </trkpt>
      <trkpt lat="45.754150925204158" lon="8.027854766696692">
        <ele>1806.45</ele>
        <time>2019-02-24T12:25:23Z</time>
      </trkpt>
      <trkpt lat="45.754169784486294" lon="8.027891647070646">
        <ele>1806.45</ele>
        <time>2019-02-24T12:25:27Z</time>
      </trkpt>
      <trkpt lat="45.754261398687959" lon="8.027933891862631">
        <ele>1807.9000000000001</ele>
        <time>2019-02-24T12:25:38Z</time>
      </trkpt>
      <trkpt lat="45.754257375374436" lon="8.027914864942431">
        <ele>1808.3800000000001</ele>
        <time>2019-02-24T12:25:51Z</time>
      </trkpt>
      <trkpt lat="45.754275731742382" lon="8.027929030358791">
        <ele>1807.9000000000001</ele>
        <time>2019-02-24T12:25:58Z</time>
      </trkpt>
      <trkpt lat="45.754276067018509" lon="8.027932634577155">
        <ele>1807.9000000000001</ele>
        <time>2019-02-24T12:26:09Z</time>
      </trkpt>
      <trkpt lat="45.754228960722685" lon="8.027891982346773">
        <ele>1807.4200000000001</ele>
        <time>2019-02-24T12:26:23Z</time>
      </trkpt>
      <trkpt lat="45.754251088947058" lon="8.027822664007545">
        <ele>1804.53</ele>
        <time>2019-02-24T12:26:30Z</time>
      </trkpt>
      <trkpt lat="45.754289561882615" lon="8.027768852189183">
        <ele>1802.1300000000001</ele>
        <time>2019-02-24T12:26:35Z</time>
      </trkpt>
      <trkpt lat="45.754394587129354" lon="8.027751669287682">
        <ele>1799.73</ele>
        <time>2019-02-24T12:26:46Z</time>
      </trkpt>
      <trkpt lat="45.754425432533026" lon="8.027754686772823">
        <ele>1797.8</ele>
        <time>2019-02-24T12:26:56Z</time>
      </trkpt>
      <trkpt lat="45.754423337057233" lon="8.027742700651288">
        <ele>1798.28</ele>
        <time>2019-02-24T12:27:10Z</time>
      </trkpt>
      <trkpt lat="45.75442660599947" lon="8.02774622105062">
        <ele>1799.73</ele>
        <time>2019-02-24T12:27:26Z</time>
      </trkpt>
      <trkpt lat="45.754458038136363" lon="8.027742533013225">
        <ele>1799.73</ele>
        <time>2019-02-24T12:27:44Z</time>
      </trkpt>
      <trkpt lat="45.754464911296964" lon="8.027753010392189">
        <ele>1801.1700000000001</ele>
        <time>2019-02-24T12:27:59Z</time>
      </trkpt>
      <trkpt lat="45.754460636526346" lon="8.027743874117732">
        <ele>1799.24</ele>
        <time>2019-02-24T12:28:17Z</time>
      </trkpt>
      <trkpt lat="45.754509838297963" lon="8.027740688994527">
        <ele>1797.8</ele>
        <time>2019-02-24T12:28:21Z</time>
      </trkpt>
      <trkpt lat="45.754542611539364" lon="8.027758374810219">
        <ele>1796.3599999999999</ele>
        <time>2019-02-24T12:28:24Z</time>
      </trkpt>
      <trkpt lat="45.754660209640861" lon="8.02783272229135">
        <ele>1793</ele>
        <time>2019-02-24T12:28:34Z</time>
      </trkpt>
      <trkpt lat="45.754720224067569" lon="8.02792894653976">
        <ele>1791.55</ele>
        <time>2019-02-24T12:28:42Z</time>
      </trkpt>
      <trkpt lat="45.754817118868232" lon="8.027976974844933">
        <ele>1788.1900000000001</ele>
        <time>2019-02-24T12:28:50Z</time>
      </trkpt>
      <trkpt lat="45.754922060295939" lon="8.028085604310036">
        <ele>1786.75</ele>
        <time>2019-02-24T12:29:02Z</time>
      </trkpt>
      <trkpt lat="45.754952151328325" lon="8.028095746412873">
        <ele>1786.75</ele>
        <time>2019-02-24T12:29:05Z</time>
      </trkpt>
      <trkpt lat="45.754971764981747" lon="8.028114438056946">
        <ele>1786.75</ele>
        <time>2019-02-24T12:29:07Z</time>
      </trkpt>
      <trkpt lat="45.75504912994802" lon="8.028167746961117">
        <ele>1785.3099999999999</ele>
        <time>2019-02-24T12:29:15Z</time>
      </trkpt>
      <trkpt lat="45.755155077204108" lon="8.028147043660283">
        <ele>1782.4200000000001</ele>
        <time>2019-02-24T12:29:29Z</time>
      </trkpt>
      <trkpt lat="45.755246942862868" lon="8.02814100869">
        <ele>1780.5</ele>
        <time>2019-02-24T12:29:39Z</time>
      </trkpt>
      <trkpt lat="45.755263958126307" lon="8.028144277632237">
        <ele>1780.02</ele>
        <time>2019-02-24T12:29:41Z</time>
      </trkpt>
      <trkpt lat="45.755406366661191" lon="8.028191635385156">
        <ele>1778.0999999999999</ele>
        <time>2019-02-24T12:29:55Z</time>
      </trkpt>
      <trkpt lat="45.755536034703255" lon="8.028195993974805">
        <ele>1774.73</ele>
        <time>2019-02-24T12:30:09Z</time>
      </trkpt>
      <trkpt lat="45.755620105192065" lon="8.028199095278978">
        <ele>1771.8499999999999</ele>
        <time>2019-02-24T12:30:20Z</time>
      </trkpt>
      <trkpt lat="45.75568632222712" lon="8.028280148282647">
        <ele>1769.9200000000001</ele>
        <time>2019-02-24T12:30:32Z</time>
      </trkpt>
      <trkpt lat="45.755758490413427" lon="8.028320297598839">
        <ele>1768</ele>
        <time>2019-02-24T12:30:43Z</time>
      </trkpt>
      <trkpt lat="45.755813391879201" lon="8.028389699757099">
        <ele>1766.5599999999999</ele>
        <time>2019-02-24T12:30:53Z</time>
      </trkpt>
      <trkpt lat="45.755884218961" lon="8.028413839638233">
        <ele>1763.6800000000001</ele>
        <time>2019-02-24T12:31:04Z</time>
      </trkpt>
      <trkpt lat="45.75598731637001" lon="8.028439991176128">
        <ele>1760.79</ele>
        <time>2019-02-24T12:31:16Z</time>
      </trkpt>
      <trkpt lat="45.755998380482197" lon="8.028449965640903">
        <ele>1760.3099999999999</ele>
        <time>2019-02-24T12:31:18Z</time>
      </trkpt>
      <trkpt lat="45.756063675507903" lon="8.028554320335388">
        <ele>1756.95</ele>
        <time>2019-02-24T12:31:29Z</time>
      </trkpt>
      <trkpt lat="45.75608404353261" lon="8.028584495186806">
        <ele>1755.5</ele>
        <time>2019-02-24T12:31:32Z</time>
      </trkpt>
      <trkpt lat="45.756147997453809" lon="8.02861207164824">
        <ele>1754.0599999999999</ele>
        <time>2019-02-24T12:31:41Z</time>
      </trkpt>
      <trkpt lat="45.756280431523919" lon="8.028656495735049">
        <ele>1752.1400000000001</ele>
        <time>2019-02-24T12:31:53Z</time>
      </trkpt>
      <trkpt lat="45.756377745419741" lon="8.028668230399489">
        <ele>1750.7</ele>
        <time>2019-02-24T12:32:04Z</time>
      </trkpt>
      <trkpt lat="45.75643926858902" lon="8.028685580939055">
        <ele>1748.78</ele>
        <time>2019-02-24T12:32:13Z</time>
      </trkpt>
      <trkpt lat="45.756525183096528" lon="8.028622549027205">
        <ele>1745.4100000000001</ele>
        <time>2019-02-24T12:32:23Z</time>
      </trkpt>
      <trkpt lat="45.756545048207045" lon="8.028605282306671">
        <ele>1744.9300000000001</ele>
        <time>2019-02-24T12:32:25Z</time>
      </trkpt>
      <trkpt lat="45.756685864180326" lon="8.028647275641561">
        <ele>1742.05</ele>
        <time>2019-02-24T12:32:37Z</time>
      </trkpt>
      <trkpt lat="45.75670950114727" lon="8.028648281469941">
        <ele>1741.5699999999999</ele>
        <time>2019-02-24T12:32:39Z</time>
      </trkpt>
      <trkpt lat="45.756811173632741" lon="8.028682563453913">
        <ele>1740.1199999999999</ele>
        <time>2019-02-24T12:32:48Z</time>
      </trkpt>
      <trkpt lat="45.756884515285492" lon="8.028718521818519">
        <ele>1738.6800000000001</ele>
        <time>2019-02-24T12:32:55Z</time>
      </trkpt>
      <trkpt lat="45.756998173892498" lon="8.028782056644559">
        <ele>1737.72</ele>
        <time>2019-02-24T12:33:06Z</time>
      </trkpt>
      <trkpt lat="45.75711845420301" lon="8.02881290204823">
        <ele>1737.24</ele>
        <time>2019-02-24T12:33:17Z</time>
      </trkpt>
      <trkpt lat="45.757165225222707" lon="8.02882949821651">
        <ele>1737.72</ele>
        <time>2019-02-24T12:33:21Z</time>
      </trkpt>
      <trkpt lat="45.757300844416022" lon="8.028910970315337">
        <ele>1735.3199999999999</ele>
        <time>2019-02-24T12:33:33Z</time>
      </trkpt>
      <trkpt lat="45.757313501089811" lon="8.028917592018843">
        <ele>1735.3199999999999</ele>
        <time>2019-02-24T12:33:34Z</time>
      </trkpt>
      <trkpt lat="45.757357589900494" lon="8.028896721079946">
        <ele>1734.3599999999999</ele>
        <time>2019-02-24T12:33:40Z</time>
      </trkpt>
      <trkpt lat="45.75741408392787" lon="8.028822792693973">
        <ele>1732.9100000000001</ele>
        <time>2019-02-24T12:33:47Z</time>
      </trkpt>
      <trkpt lat="45.757554899901152" lon="8.028834611177445">
        <ele>1730.99</ele>
        <time>2019-02-24T12:33:59Z</time>
      </trkpt>
      <trkpt lat="45.757685489952564" lon="8.028882639482617">
        <ele>1729.0699999999999</ele>
        <time>2019-02-24T12:34:10Z</time>
      </trkpt>
      <trkpt lat="45.757812643423676" lon="8.028926393017173">
        <ele>1726.1800000000001</ele>
        <time>2019-02-24T12:34:21Z</time>
      </trkpt>
      <trkpt lat="45.757925882935524" lon="8.028972996398807">
        <ele>1724.26</ele>
        <time>2019-02-24T12:34:31Z</time>
      </trkpt>
      <trkpt lat="45.758078349754214" lon="8.029010714963079">
        <ele>1722.3399999999999</ele>
        <time>2019-02-24T12:34:44Z</time>
      </trkpt>
      <trkpt lat="45.758158480748534" lon="8.029043404385448">
        <ele>1720.9000000000001</ele>
        <time>2019-02-24T12:34:52Z</time>
      </trkpt>
      <trkpt lat="45.758247580379248" lon="8.029098976403475">
        <ele>1719.9400000000001</ele>
        <time>2019-02-24T12:35:01Z</time>
      </trkpt>
      <trkpt lat="45.758337266743183" lon="8.029119344428182">
        <ele>1718.49</ele>
        <time>2019-02-24T12:35:09Z</time>
      </trkpt>
      <trkpt lat="45.758458217605948" lon="8.029183801263571">
        <ele>1716.5699999999999</ele>
        <time>2019-02-24T12:35:19Z</time>
      </trkpt>
      <trkpt lat="45.758572211489081" lon="8.029247922822833">
        <ele>1714.6500000000001</ele>
        <time>2019-02-24T12:35:29Z</time>
      </trkpt>
      <trkpt lat="45.758694168180227" lon="8.029302572831512">
        <ele>1712.73</ele>
        <time>2019-02-24T12:35:40Z</time>
      </trkpt>
      <trkpt lat="45.758749153465033" lon="8.029331406578422">
        <ele>1712.73</ele>
        <time>2019-02-24T12:35:45Z</time>
      </trkpt>
      <trkpt lat="45.758774299174547" lon="8.029403407126665">
        <ele>1712.73</ele>
        <time>2019-02-24T12:35:49Z</time>
      </trkpt>
      <trkpt lat="45.758844874799252" lon="8.029463589191437">
        <ele>1713.21</ele>
        <time>2019-02-24T12:35:56Z</time>
      </trkpt>
      <trkpt lat="45.75897085480392" lon="8.029602477326989">
        <ele>1713.21</ele>
        <time>2019-02-24T12:36:10Z</time>
      </trkpt>
      <trkpt lat="45.759003041312099" lon="8.029615972191095">
        <ele>1713.21</ele>
        <time>2019-02-24T12:36:13Z</time>
      </trkpt>
      <trkpt lat="45.75907445512712" lon="8.02964941598475">
        <ele>1713.6900000000001</ele>
        <time>2019-02-24T12:36:20Z</time>
      </trkpt>
      <trkpt lat="45.75919565744698" lon="8.029717057943344">
        <ele>1713.6900000000001</ele>
        <time>2019-02-24T12:36:32Z</time>
      </trkpt>
      <trkpt lat="45.759226335212588" lon="8.029733821749687">
        <ele>1713.21</ele>
        <time>2019-02-24T12:36:35Z</time>
      </trkpt>
      <trkpt lat="45.759254163131118" lon="8.029759218916297">
        <ele>1713.6900000000001</ele>
        <time>2019-02-24T12:36:38Z</time>
      </trkpt>
      <trkpt lat="45.75930705294013" lon="8.029869608581066">
        <ele>1716.0899999999999</ele>
        <time>2019-02-24T12:36:48Z</time>
      </trkpt>
      <trkpt lat="45.759375030174851" lon="8.029937921091914">
        <ele>1718.97</ele>
        <time>2019-02-24T12:36:58Z</time>
      </trkpt>
      <trkpt lat="45.759381651878357" lon="8.029941860586405">
        <ele>1718.97</ele>
        <time>2019-02-24T12:36:59Z</time>
      </trkpt>
      <trkpt lat="45.75941065326333" lon="8.029938843101263">
        <ele>1719.9400000000001</ele>
        <time>2019-02-24T12:37:01Z</time>
      </trkpt>
      <trkpt lat="45.759479803964496" lon="8.029947392642498">
        <ele>1719.9400000000001</ele>
        <time>2019-02-24T12:37:09Z</time>
      </trkpt>
      <trkpt lat="45.759614501148462" lon="8.030017046257854">
        <ele>1720.4200000000001</ele>
        <time>2019-02-24T12:37:22Z</time>
      </trkpt>
      <trkpt lat="45.759654818102717" lon="8.030026853084564">
        <ele>1720.4200000000001</ele>
        <time>2019-02-24T12:37:26Z</time>
      </trkpt>
      <trkpt lat="45.759696392342448" lon="8.030042443424463">
        <ele>1719.9400000000001</ele>
        <time>2019-02-24T12:37:30Z</time>
      </trkpt>
      <trkpt lat="45.759762357920408" lon="8.030115701258183">
        <ele>1719.46</ele>
        <time>2019-02-24T12:37:38Z</time>
      </trkpt>
      <trkpt lat="45.759829413145781" lon="8.030121317133308">
        <ele>1717.05</ele>
        <time>2019-02-24T12:37:47Z</time>
      </trkpt>
      <trkpt lat="45.759909460321069" lon="8.030176889151335">
        <ele>1714.1700000000001</ele>
        <time>2019-02-24T12:37:56Z</time>
      </trkpt>
      <trkpt lat="45.759932342916727" lon="8.030185606330633">
        <ele>1713.6900000000001</ele>
        <time>2019-02-24T12:38:00Z</time>
      </trkpt>
      <trkpt lat="45.759955896064639" lon="8.030179822817445">
        <ele>1714.1700000000001</ele>
        <time>2019-02-24T12:38:03Z</time>
      </trkpt>
      <trkpt lat="45.76002923771739" lon="8.030178481712937">
        <ele>1712.25</ele>
        <time>2019-02-24T12:38:11Z</time>
      </trkpt>
      <trkpt lat="45.760062513872981" lon="8.03018351085484">
        <ele>1712.25</ele>
        <time>2019-02-24T12:38:14Z</time>
      </trkpt>
      <trkpt lat="45.760118756443262" lon="8.030203627422452">
        <ele>1711.28</ele>
        <time>2019-02-24T12:38:20Z</time>
      </trkpt>
      <trkpt lat="45.760139292106032" lon="8.030194323509932">
        <ele>1711.28</ele>
        <time>2019-02-24T12:38:22Z</time>
      </trkpt>
      <trkpt lat="45.760236186906695" lon="8.030278393998742">
        <ele>1711.76</ele>
        <time>2019-02-24T12:38:32Z</time>
      </trkpt>
      <trkpt lat="45.760342050343752" lon="8.030388113111258">
        <ele>1713.6900000000001</ele>
        <time>2019-02-24T12:38:43Z</time>
      </trkpt>
      <trkpt lat="45.760406004264951" lon="8.030468076467514">
        <ele>1714.6500000000001</ele>
        <time>2019-02-24T12:38:50Z</time>
      </trkpt>
      <trkpt lat="45.760476747527719" lon="8.03058123216033">
        <ele>1714.1700000000001</ele>
        <time>2019-02-24T12:39:00Z</time>
      </trkpt>
      <trkpt lat="45.760526871308684" lon="8.030650047585368">
        <ele>1713.6900000000001</ele>
        <time>2019-02-24T12:39:07Z</time>
      </trkpt>
      <trkpt lat="45.760549083352089" lon="8.030703775584698">
        <ele>1713.6900000000001</ele>
        <time>2019-02-24T12:39:11Z</time>
      </trkpt>
      <trkpt lat="45.760561153292656" lon="8.030721293762326">
        <ele>1714.1700000000001</ele>
        <time>2019-02-24T12:39:13Z</time>
      </trkpt>
      <trkpt lat="45.760652264580131" lon="8.030765969306231">
        <ele>1712.25</ele>
        <time>2019-02-24T12:39:24Z</time>
      </trkpt>
      <trkpt lat="45.760726779699326" lon="8.030823804438114">
        <ele>1711.28</ele>
        <time>2019-02-24T12:39:33Z</time>
      </trkpt>
      <trkpt lat="45.760839181020856" lon="8.030873173847795">
        <ele>1710.8</ele>
        <time>2019-02-24T12:39:42Z</time>
      </trkpt>
      <trkpt lat="45.760971615090966" lon="8.030891697853804">
        <ele>1710.8</ele>
        <time>2019-02-24T12:39:53Z</time>
      </trkpt>
      <trkpt lat="45.761074041947722" lon="8.030911227688193">
        <ele>1711.76</ele>
        <time>2019-02-24T12:40:02Z</time>
      </trkpt>
      <trkpt lat="45.761215360835195" lon="8.030925476923585">
        <ele>1712.73</ele>
        <time>2019-02-24T12:40:14Z</time>
      </trkpt>
      <trkpt lat="45.761308651417494" lon="8.030931847169995">
        <ele>1712.73</ele>
        <time>2019-02-24T12:40:22Z</time>
      </trkpt>
      <trkpt lat="45.761453658342361" lon="8.0309574957937">
        <ele>1713.6900000000001</ele>
        <time>2019-02-24T12:40:34Z</time>
      </trkpt>
      <trkpt lat="45.761497160419822" lon="8.030979624018073">
        <ele>1714.1700000000001</ele>
        <time>2019-02-24T12:40:38Z</time>
      </trkpt>
      <trkpt lat="45.761561198160052" lon="8.031005691736937">
        <ele>1713.6900000000001</ele>
        <time>2019-02-24T12:40:44Z</time>
      </trkpt>
      <trkpt lat="45.761601096019149" lon="8.03098239004612">
        <ele>1713.21</ele>
        <time>2019-02-24T12:40:48Z</time>
      </trkpt>
      <trkpt lat="45.761668235063553" lon="8.031004434451461">
        <ele>1712.25</ele>
        <time>2019-02-24T12:40:53Z</time>
      </trkpt>
      <trkpt lat="45.761701511219144" lon="8.031022036448121">
        <ele>1711.76</ele>
        <time>2019-02-24T12:40:56Z</time>
      </trkpt>
      <trkpt lat="45.7618264015764" lon="8.031073417514563">
        <ele>1711.28</ele>
        <time>2019-02-24T12:41:07Z</time>
      </trkpt>
      <trkpt lat="45.761835286393762" lon="8.031081547960639">
        <ele>1711.28</ele>
        <time>2019-02-24T12:41:08Z</time>
      </trkpt>
      <trkpt lat="45.76190359890461" lon="8.031165115535259">
        <ele>1710.3199999999999</ele>
        <time>2019-02-24T12:41:18Z</time>
      </trkpt>
      <trkpt lat="45.76192120090127" lon="8.031184896826744">
        <ele>1710.3199999999999</ele>
        <time>2019-02-24T12:41:20Z</time>
      </trkpt>
      <trkpt lat="45.762046510353684" lon="8.031200068071485">
        <ele>1708.4000000000001</ele>
        <time>2019-02-24T12:41:31Z</time>
      </trkpt>
      <trkpt lat="45.762124797329307" lon="8.031209874898195">
        <ele>1706.48</ele>
        <time>2019-02-24T12:41:37Z</time>
      </trkpt>
      <trkpt lat="45.762179531157017" lon="8.031224543228746">
        <ele>1706.96</ele>
        <time>2019-02-24T12:41:43Z</time>
      </trkpt>
      <trkpt lat="45.762287070974708" lon="8.031226135790348">
        <ele>1706</ele>
        <time>2019-02-24T12:41:53Z</time>
      </trkpt>
      <trkpt lat="45.762325543910265" lon="8.031228901818395">
        <ele>1706.48</ele>
        <time>2019-02-24T12:42:02Z</time>
      </trkpt>
      <trkpt lat="45.762312384322286" lon="8.031237618997693">
        <ele>1706.96</ele>
        <time>2019-02-24T12:42:06Z</time>
      </trkpt>
      <trkpt lat="45.762313054874539" lon="8.031225213780999">
        <ele>1706.96</ele>
        <time>2019-02-24T12:42:08Z</time>
      </trkpt>
      <trkpt lat="45.762315317988396" lon="8.031262261793017">
        <ele>1706</ele>
        <time>2019-02-24T12:42:20Z</time>
      </trkpt>
      <trkpt lat="45.76231699436903" lon="8.03126041777432">
        <ele>1705.04</ele>
        <time>2019-02-24T12:42:41Z</time>
      </trkpt>
      <trkpt lat="45.762317413464189" lon="8.031250610947609">
        <ele>1705.04</ele>
        <time>2019-02-24T12:43:03Z</time>
      </trkpt>
      <trkpt lat="45.762316072359681" lon="8.031248347833753">
        <ele>1706.48</ele>
        <time>2019-02-24T12:43:22Z</time>
      </trkpt>
      <trkpt lat="45.762328058481216" lon="8.031265614554286">
        <ele>1708.4000000000001</ele>
        <time>2019-02-24T12:43:41Z</time>
      </trkpt>
      <trkpt lat="45.762312887236476" lon="8.031253460794687">
        <ele>1708.8800000000001</ele>
        <time>2019-02-24T12:44:00Z</time>
      </trkpt>
      <trkpt lat="45.762312049046159" lon="8.03125848993659">
        <ele>1709.8399999999999</ele>
        <time>2019-02-24T12:44:22Z</time>
      </trkpt>
      <trkpt lat="45.762331411242485" lon="8.031243151053786">
        <ele>1710.8</ele>
        <time>2019-02-24T12:44:37Z</time>
      </trkpt>
      <trkpt lat="45.762325208634138" lon="8.031244659796357">
        <ele>1710.8</ele>
        <time>2019-02-24T12:44:50Z</time>
      </trkpt>
      <trkpt lat="45.762315317988396" lon="8.031253879889846">
        <ele>1711.28</ele>
        <time>2019-02-24T12:45:10Z</time>
      </trkpt>
      <trkpt lat="45.762339876964688" lon="8.031254382804036">
        <ele>1709.8399999999999</ele>
        <time>2019-02-24T12:45:30Z</time>
      </trkpt>
      <trkpt lat="45.762337697669864" lon="8.031261172145605">
        <ele>1708.8800000000001</ele>
        <time>2019-02-24T12:45:48Z</time>
      </trkpt>
      <trkpt lat="45.762337278574705" lon="8.031276511028409">
        <ele>1708.8800000000001</ele>
        <time>2019-02-24T12:46:06Z</time>
      </trkpt>
      <trkpt lat="45.762335686013103" lon="8.031293023377657">
        <ele>1710.3199999999999</ele>
        <time>2019-02-24T12:46:26Z</time>
      </trkpt>
      <trkpt lat="45.762337781488895" lon="8.03127609193325">
        <ele>1706.96</ele>
        <time>2019-02-24T12:46:37Z</time>
      </trkpt>
      <trkpt lat="45.762346414849162" lon="8.031243402510881">
        <ele>1705.52</ele>
        <time>2019-02-24T12:47:01Z</time>
      </trkpt>
      <trkpt lat="45.762350354343653" lon="8.031232757493854">
        <ele>1706.48</ele>
        <time>2019-02-24T12:47:24Z</time>
      </trkpt>
      <trkpt lat="45.762347336858511" lon="8.03123158402741">
        <ele>1705.04</ele>
        <time>2019-02-24T12:47:52Z</time>
      </trkpt>
      <trkpt lat="45.762345409020782" lon="8.031228734180331">
        <ele>1706.48</ele>
        <time>2019-02-24T12:48:23Z</time>
      </trkpt>
      <trkpt lat="45.762354293838143" lon="8.03122722543776">
        <ele>1707.4400000000001</ele>
        <time>2019-02-24T12:48:50Z</time>
      </trkpt>
      <trkpt lat="45.762352366000414" lon="8.031234936788678">
        <ele>1705.52</ele>
        <time>2019-02-24T12:49:18Z</time>
      </trkpt>
      <trkpt lat="45.762339541688561" lon="8.031235607340932">
        <ele>1706</ele>
        <time>2019-02-24T12:49:44Z</time>
      </trkpt>
      <trkpt lat="45.762345157563686" lon="8.031233428046107">
        <ele>1706</ele>
        <time>2019-02-24T12:50:11Z</time>
      </trkpt>
      <trkpt lat="45.76235462911427" lon="8.031223034486175">
        <ele>1708.4000000000001</ele>
        <time>2019-02-24T12:50:39Z</time>
      </trkpt>
      <trkpt lat="45.762330153957009" lon="8.031241055577993">
        <ele>1707.4400000000001</ele>
        <time>2019-02-24T12:51:06Z</time>
      </trkpt>
      <trkpt lat="45.762351863086224" lon="8.031241474673152">
        <ele>1706.96</ele>
        <time>2019-02-24T12:51:29Z</time>
      </trkpt>
      <trkpt lat="45.762349767610431" lon="8.031246336176992">
        <ele>1706.48</ele>
        <time>2019-02-24T12:51:46Z</time>
      </trkpt>
      <trkpt lat="45.762340631335974" lon="8.031243737787008">
        <ele>1706.96</ele>
        <time>2019-02-24T12:52:11Z</time>
      </trkpt>
      <trkpt lat="45.762338703498244" lon="8.031251449137926">
        <ele>1708.4000000000001</ele>
        <time>2019-02-24T12:52:31Z</time>
      </trkpt>
      <trkpt lat="45.762338032945991" lon="8.031243486329913">
        <ele>1709.8399999999999</ele>
        <time>2019-02-24T12:52:54Z</time>
      </trkpt>
      <trkpt lat="45.762338452041149" lon="8.031246419996023">
        <ele>1710.3199999999999</ele>
        <time>2019-02-24T12:53:17Z</time>
      </trkpt>
      <trkpt lat="45.76233945786953" lon="8.031249772757292">
        <ele>1709.8399999999999</ele>
        <time>2019-02-24T12:53:41Z</time>
      </trkpt>
      <trkpt lat="45.762332668527961" lon="8.031245665624738">
        <ele>1708.4000000000001</ele>
        <time>2019-02-24T12:54:07Z</time>
      </trkpt>
      <trkpt lat="45.762336943298578" lon="8.031248012557626">
        <ele>1707.4400000000001</ele>
        <time>2019-02-24T12:54:29Z</time>
      </trkpt>
      <trkpt lat="45.762334177270532" lon="8.031246503815055">
        <ele>1706.48</ele>
        <time>2019-02-24T12:54:56Z</time>
      </trkpt>
      <trkpt lat="45.762347001582384" lon="8.031246336176992">
        <ele>1707.4400000000001</ele>
        <time>2019-02-24T12:55:21Z</time>
      </trkpt>
      <trkpt lat="45.762336356565356" lon="8.031249856576324">
        <ele>1707.9200000000001</ele>
        <time>2019-02-24T12:55:41Z</time>
      </trkpt>
      <trkpt lat="45.76234339736402" lon="8.03123745135963">
        <ele>1708.8800000000001</ele>
        <time>2019-02-24T12:56:07Z</time>
      </trkpt>
      <trkpt lat="45.762347588315606" lon="8.031237116083503">
        <ele>1708.4000000000001</ele>
        <time>2019-02-24T12:56:33Z</time>
      </trkpt>
      <trkpt lat="45.762343816459179" lon="8.031240133568645">
        <ele>1710.3199999999999</ele>
        <time>2019-02-24T12:57:01Z</time>
      </trkpt>
      <trkpt lat="45.762348091229796" lon="8.031236864626408">
        <ele>1710.3199999999999</ele>
        <time>2019-02-24T12:57:20Z</time>
      </trkpt>
      <trkpt lat="45.76234046369791" lon="8.03124432452023">
        <ele>1709.3599999999999</ele>
        <time>2019-02-24T12:57:43Z</time>
      </trkpt>
      <trkpt lat="45.762356473132968" lon="8.031236194074154">
        <ele>1709.8399999999999</ele>
        <time>2019-02-24T12:58:01Z</time>
      </trkpt>
      <trkpt lat="45.76235068961978" lon="8.031248515471816">
        <ele>1710.8</ele>
        <time>2019-02-24T12:58:22Z</time>
      </trkpt>
      <trkpt lat="45.762346163392067" lon="8.031246922910214">
        <ele>1709.3599999999999</ele>
        <time>2019-02-24T12:58:43Z</time>
      </trkpt>
      <trkpt lat="45.762347336858511" lon="8.031246336176992">
        <ele>1709.3599999999999</ele>
        <time>2019-02-24T12:59:08Z</time>
      </trkpt>
      <trkpt lat="45.762326968833804" lon="8.031255388632417">
        <ele>1708.4000000000001</ele>
        <time>2019-02-24T12:59:33Z</time>
      </trkpt>
      <trkpt lat="45.762336188927293" lon="8.031249605119228">
        <ele>1708.8800000000001</ele>
        <time>2019-02-24T13:00:03Z</time>
      </trkpt>
      <trkpt lat="45.762345995754004" lon="8.031237870454788">
        <ele>1709.8399999999999</ele>
        <time>2019-02-24T13:00:23Z</time>
      </trkpt>
      <trkpt lat="45.762356473132968" lon="8.031234098598361">
        <ele>1710.3199999999999</ele>
        <time>2019-02-24T13:00:46Z</time>
      </trkpt>
      <trkpt lat="45.762350941076875" lon="8.031240468844771">
        <ele>1709.3599999999999</ele>
        <time>2019-02-24T13:01:10Z</time>
      </trkpt>
      <trkpt lat="45.762341720983386" lon="8.031245330348611">
        <ele>1707.9200000000001</ele>
        <time>2019-02-24T13:01:17Z</time>
      </trkpt>
      <trkpt lat="45.762338954955339" lon="8.031237032264471">
        <ele>1707.4400000000001</ele>
        <time>2019-02-24T13:01:31Z</time>
      </trkpt>
      <trkpt lat="45.762331411242485" lon="8.031236864626408">
        <ele>1706.48</ele>
        <time>2019-02-24T13:01:47Z</time>
      </trkpt>
      <trkpt lat="45.762337194755673" lon="8.031244408339262">
        <ele>1707.4400000000001</ele>
        <time>2019-02-24T13:01:57Z</time>
      </trkpt>
      <trkpt lat="45.762328142300248" lon="8.031261172145605">
        <ele>1710.3199999999999</ele>
        <time>2019-02-24T13:02:13Z</time>
      </trkpt>
      <trkpt lat="45.762338535860181" lon="8.031256562098861">
        <ele>1708.4000000000001</ele>
        <time>2019-02-24T13:02:28Z</time>
      </trkpt>
      <trkpt lat="45.762345995754004" lon="8.031254634261131">
        <ele>1708.4000000000001</ele>
        <time>2019-02-24T13:02:47Z</time>
      </trkpt>
      <trkpt lat="45.762336775660515" lon="8.031268129125238">
        <ele>1710.3199999999999</ele>
        <time>2019-02-24T13:03:11Z</time>
      </trkpt>
      <trkpt lat="45.762336775660515" lon="8.031254718080163">
        <ele>1711.28</ele>
        <time>2019-02-24T13:03:38Z</time>
      </trkpt>
      <trkpt lat="45.762328896671534" lon="8.03125605918467">
        <ele>1711.76</ele>
        <time>2019-02-24T13:04:02Z</time>
      </trkpt>
      <trkpt lat="45.762334680184722" lon="8.03126041777432">
        <ele>1711.76</ele>
        <time>2019-02-24T13:04:21Z</time>
      </trkpt>
      <trkpt lat="45.762332919985056" lon="8.031263938173652">
        <ele>1712.25</ele>
        <time>2019-02-24T13:04:43Z</time>
      </trkpt>
      <trkpt lat="45.762330824509263" lon="8.031258573755622">
        <ele>1712.73</ele>
        <time>2019-02-24T13:05:11Z</time>
      </trkpt>
      <trkpt lat="45.762326549738646" lon="8.031267710030079">
        <ele>1713.6900000000001</ele>
        <time>2019-02-24T13:05:35Z</time>
      </trkpt>
      <trkpt lat="45.762326801195741" lon="8.031274247914553">
        <ele>1713.6900000000001</ele>
        <time>2019-02-24T13:06:03Z</time>
      </trkpt>
      <trkpt lat="45.762325627729297" lon="8.03127022460103">
        <ele>1714.6500000000001</ele>
        <time>2019-02-24T13:06:25Z</time>
      </trkpt>
      <trkpt lat="45.762324538081884" lon="8.031266201287508">
        <ele>1713.6900000000001</ele>
        <time>2019-02-24T13:06:52Z</time>
      </trkpt>
      <trkpt lat="45.762330237776041" lon="8.031257232651115">
        <ele>1711.76</ele>
        <time>2019-02-24T13:07:16Z</time>
      </trkpt>
      <trkpt lat="45.76232872903347" lon="8.031256897374988">
        <ele>1712.25</ele>
        <time>2019-02-24T13:07:40Z</time>
      </trkpt>
      <trkpt lat="45.762335853651166" lon="8.031254215165973">
        <ele>1711.28</ele>
        <time>2019-02-24T13:08:08Z</time>
      </trkpt>
      <trkpt lat="45.762338284403086" lon="8.031253712251782">
        <ele>1710.8</ele>
        <time>2019-02-24T13:08:28Z</time>
      </trkpt>
      <trkpt lat="45.762331746518612" lon="8.031248766928911">
        <ele>1710.3199999999999</ele>
        <time>2019-02-24T13:08:54Z</time>
      </trkpt>
      <trkpt lat="45.762340128421783" lon="8.031251532956958">
        <ele>1708.4000000000001</ele>
        <time>2019-02-24T13:09:16Z</time>
      </trkpt>
      <trkpt lat="45.762342810630798" lon="8.031264021992683">
        <ele>1708.4000000000001</ele>
        <time>2019-02-24T13:09:33Z</time>
      </trkpt>
      <trkpt lat="45.762342056259513" lon="8.031254298985004">
        <ele>1707.9200000000001</ele>
        <time>2019-02-24T13:09:43Z</time>
      </trkpt>
      <trkpt lat="45.762353958562016" lon="8.03125505335629">
        <ele>1706.48</ele>
        <time>2019-02-24T13:09:52Z</time>
      </trkpt>
      <trkpt lat="45.762346666306257" lon="8.031234685331583">
        <ele>1706.48</ele>
        <time>2019-02-24T13:10:04Z</time>
      </trkpt>
      <trkpt lat="45.762300482019782" lon="8.031234769150615">
        <ele>1707.9200000000001</ele>
        <time>2019-02-24T13:10:14Z</time>
      </trkpt>
      <trkpt lat="45.762294111773372" lon="8.031199732795358">
        <ele>1709.3599999999999</ele>
        <time>2019-02-24T13:10:32Z</time>
      </trkpt>
      <trkpt lat="45.762283634394407" lon="8.031197553500533">
        <ele>1708.8800000000001</ele>
        <time>2019-02-24T13:10:47Z</time>
      </trkpt>
      <trkpt lat="45.762282377108932" lon="8.031207444146276">
        <ele>1707.9200000000001</ele>
        <time>2019-02-24T13:11:03Z</time>
      </trkpt>
      <trkpt lat="45.762287741526961" lon="8.03121205419302">
        <ele>1708.8800000000001</ele>
        <time>2019-02-24T13:11:14Z</time>
      </trkpt>
      <trkpt lat="45.762289669364691" lon="8.031237618997693">
        <ele>1709.3599999999999</ele>
        <time>2019-02-24T13:11:28Z</time>
      </trkpt>
      <trkpt lat="45.762287070974708" lon="8.031228566542268">
        <ele>1708.8800000000001</ele>
        <time>2019-02-24T13:11:43Z</time>
      </trkpt>
      <trkpt lat="45.762283382937312" lon="8.031199732795358">
        <ele>1708.8800000000001</ele>
        <time>2019-02-24T13:11:55Z</time>
      </trkpt>
      <trkpt lat="45.76229059137404" lon="8.031202079728246">
        <ele>1707.9200000000001</ele>
        <time>2019-02-24T13:12:11Z</time>
      </trkpt>
      <trkpt lat="45.762289753183722" lon="8.031196631491184">
        <ele>1708.8800000000001</ele>
        <time>2019-02-24T13:12:22Z</time>
      </trkpt>
      <trkpt lat="45.762295704334974" lon="8.03120375610888">
        <ele>1709.8399999999999</ele>
        <time>2019-02-24T13:12:33Z</time>
      </trkpt>
      <trkpt lat="45.762286651879549" lon="8.031185315921903">
        <ele>1708.8800000000001</ele>
        <time>2019-02-24T13:12:49Z</time>
      </trkpt>
      <trkpt lat="45.762277264147997" lon="8.031169977039099">
        <ele>1707.4400000000001</ele>
        <time>2019-02-24T13:13:02Z</time>
      </trkpt>
      <trkpt lat="45.762269049882889" lon="8.031172826886177">
        <ele>1707.4400000000001</ele>
        <time>2019-02-24T13:13:18Z</time>
      </trkpt>
      <trkpt lat="45.762282880023122" lon="8.031148435547948">
        <ele>1706.96</ele>
        <time>2019-02-24T13:13:29Z</time>
      </trkpt>
      <trkpt lat="45.762282628566027" lon="8.031136449426413">
        <ele>1707.9200000000001</ele>
        <time>2019-02-24T13:13:46Z</time>
      </trkpt>
      <trkpt lat="45.762293776497245" lon="8.031147178262472">
        <ele>1706.96</ele>
        <time>2019-02-24T13:13:57Z</time>
      </trkpt>
      <trkpt lat="45.762288412079215" lon="8.031144076958299">
        <ele>1706.96</ele>
        <time>2019-02-24T13:14:12Z</time>
      </trkpt>
      <trkpt lat="45.762293441221118" lon="8.031161176040769">
        <ele>1706</ele>
        <time>2019-02-24T13:14:22Z</time>
      </trkpt>
      <trkpt lat="45.762298051267862" lon="8.031159248203039">
        <ele>1706</ele>
        <time>2019-02-24T13:14:39Z</time>
      </trkpt>
      <trkpt lat="45.762300565838814" lon="8.031145082786679">
        <ele>1707.9200000000001</ele>
        <time>2019-02-24T13:14:53Z</time>
      </trkpt>
      <trkpt lat="45.762267708778381" lon="8.031131336465478">
        <ele>1708.4000000000001</ele>
        <time>2019-02-24T13:15:10Z</time>
      </trkpt>
      <trkpt lat="45.762272235006094" lon="8.031138041988015">
        <ele>1708.4000000000001</ele>
        <time>2019-02-24T13:15:19Z</time>
      </trkpt>
      <trkpt lat="45.762284891679883" lon="8.031147429719567">
        <ele>1708.4000000000001</ele>
        <time>2019-02-24T13:15:30Z</time>
      </trkpt>
      <trkpt lat="45.76228036545217" lon="8.03114659152925">
        <ele>1706.96</ele>
        <time>2019-02-24T13:15:47Z</time>
      </trkpt>
      <trkpt lat="45.762281119823456" lon="8.03115245886147">
        <ele>1706.48</ele>
        <time>2019-02-24T13:16:02Z</time>
      </trkpt>
      <trkpt lat="45.762295536696911" lon="8.031154721975327">
        <ele>1705.52</ele>
        <time>2019-02-24T13:16:15Z</time>
      </trkpt>
      <trkpt lat="45.762292854487896" lon="8.031143406406045">
        <ele>1705.52</ele>
        <time>2019-02-24T13:16:28Z</time>
      </trkpt>
      <trkpt lat="45.762292854487896" lon="8.031143909320235">
        <ele>1704.0699999999999</ele>
        <time>2019-02-24T13:16:39Z</time>
      </trkpt>
      <trkpt lat="45.762272318825126" lon="8.031148100271821">
        <ele>1706.96</ele>
        <time>2019-02-24T13:16:58Z</time>
      </trkpt>
      <trkpt lat="45.762281958013773" lon="8.03114558570087">
        <ele>1706.96</ele>
        <time>2019-02-24T13:17:25Z</time>
      </trkpt>
      <trkpt lat="45.762281287461519" lon="8.031138125807047">
        <ele>1707.4400000000001</ele>
        <time>2019-02-24T13:17:49Z</time>
      </trkpt>
      <trkpt lat="45.762264188379049" lon="8.031138461083174">
        <ele>1706.48</ele>
        <time>2019-02-24T13:18:00Z</time>
      </trkpt>
      <trkpt lat="45.76223979704082" lon="8.031097808852792">
        <ele>1705.04</ele>
        <time>2019-02-24T13:18:08Z</time>
      </trkpt>
      <trkpt lat="45.762247927486897" lon="8.030986832454801">
        <ele>1703.5899999999999</ele>
        <time>2019-02-24T13:18:18Z</time>
      </trkpt>
      <trkpt lat="45.762266367673874" lon="8.030877616256475">
        <ele>1701.1900000000001</ele>
        <time>2019-02-24T13:18:29Z</time>
      </trkpt>
      <trkpt lat="45.76227642595768" lon="8.030843669548631">
        <ele>1700.71</ele>
        <time>2019-02-24T13:18:32Z</time>
      </trkpt>
      <trkpt lat="45.762303080409765" lon="8.030795389786363">
        <ele>1699.75</ele>
        <time>2019-02-24T13:18:36Z</time>
      </trkpt>
      <trkpt lat="45.762325963005424" lon="8.030688185244799">
        <ele>1697.3399999999999</ele>
        <time>2019-02-24T13:18:47Z</time>
      </trkpt>
      <trkpt lat="45.762344738468528" lon="8.030638145282865">
        <ele>1695.9000000000001</ele>
        <time>2019-02-24T13:18:52Z</time>
      </trkpt>
      <trkpt lat="45.762398466467857" lon="8.030552063137293">
        <ele>1694.9400000000001</ele>
        <time>2019-02-24T13:19:00Z</time>
      </trkpt>
      <trkpt lat="45.762410033494234" lon="8.030433543026447">
        <ele>1692.0599999999999</ele>
        <time>2019-02-24T13:19:11Z</time>
      </trkpt>
      <trkpt lat="45.762377930805087" lon="8.030332792550325">
        <ele>1689.1700000000001</ele>
        <time>2019-02-24T13:19:20Z</time>
      </trkpt>
      <trkpt lat="45.762367034330964" lon="8.030315609648824">
        <ele>1688.6900000000001</ele>
        <time>2019-02-24T13:19:22Z</time>
      </trkpt>
      <trkpt lat="45.762308109551668" lon="8.030195580795407">
        <ele>1685.3299999999999</ele>
        <time>2019-02-24T13:19:35Z</time>
      </trkpt>
      <trkpt lat="45.76226519420743" lon="8.03011360578239">
        <ele>1683.8900000000001</ele>
        <time>2019-02-24T13:19:46Z</time>
      </trkpt>
      <trkpt lat="45.762238204479218" lon="8.030056357383728">
        <ele>1682.4400000000001</ele>
        <time>2019-02-24T13:19:53Z</time>
      </trkpt>
      <trkpt lat="45.762253208085895" lon="8.030020231381059">
        <ele>1681.96</ele>
        <time>2019-02-24T13:19:56Z</time>
      </trkpt>
      <trkpt lat="45.762242814525962" lon="8.029915625229478">
        <ele>1680.52</ele>
        <time>2019-02-24T13:20:07Z</time>
      </trkpt>
      <trkpt lat="45.762212220579386" lon="8.029863238334656">
        <ele>1678.1199999999999</ele>
        <time>2019-02-24T13:20:16Z</time>
      </trkpt>
      <trkpt lat="45.762187745422125" lon="8.029807079583406">
        <ele>1675.72</ele>
        <time>2019-02-24T13:20:25Z</time>
      </trkpt>
      <trkpt lat="45.762166120111942" lon="8.029747568070889">
        <ele>1674.27</ele>
        <time>2019-02-24T13:20:31Z</time>
      </trkpt>
      <trkpt lat="45.762148937210441" lon="8.029727954417467">
        <ele>1673.3099999999999</ele>
        <time>2019-02-24T13:20:33Z</time>
      </trkpt>
      <trkpt lat="45.762057742103934" lon="8.029646649956703">
        <ele>1670.4300000000001</ele>
        <time>2019-02-24T13:20:44Z</time>
      </trkpt>
      <trkpt lat="45.761983981356025" lon="8.02958738990128">
        <ele>1668.99</ele>
        <time>2019-02-24T13:20:53Z</time>
      </trkpt>
      <trkpt lat="45.761923547834158" lon="8.029543971642852">
        <ele>1667.54</ele>
        <time>2019-02-24T13:21:03Z</time>
      </trkpt>
      <trkpt lat="45.761900749057531" lon="8.029444729909301">
        <ele>1664.6600000000001</ele>
        <time>2019-02-24T13:21:14Z</time>
      </trkpt>
      <trkpt lat="45.761853139847517" lon="8.02937775850296">
        <ele>1662.26</ele>
        <time>2019-02-24T13:21:23Z</time>
      </trkpt>
      <trkpt lat="45.761790359392762" lon="8.029257478192449">
        <ele>1659.3699999999999</ele>
        <time>2019-02-24T13:21:35Z</time>
      </trkpt>
      <trkpt lat="45.76176873408258" lon="8.029211545363069">
        <ele>1657.45</ele>
        <time>2019-02-24T13:21:40Z</time>
      </trkpt>
      <trkpt lat="45.761674605309963" lon="8.029155805706978">
        <ele>1655.05</ele>
        <time>2019-02-24T13:21:52Z</time>
      </trkpt>
      <trkpt lat="45.761637724936008" lon="8.029093109071255">
        <ele>1652.1600000000001</ele>
        <time>2019-02-24T13:22:02Z</time>
      </trkpt>
      <trkpt lat="45.761564718559384" lon="8.02903326228261">
        <ele>1650.24</ele>
        <time>2019-02-24T13:22:12Z</time>
      </trkpt>
      <trkpt lat="45.761514846235514" lon="8.028960172086954">
        <ele>1649.28</ele>
        <time>2019-02-24T13:22:23Z</time>
      </trkpt>
      <trkpt lat="45.761498082429171" lon="8.028888339176774">
        <ele>1648.3199999999999</ele>
        <time>2019-02-24T13:22:35Z</time>
      </trkpt>
      <trkpt lat="45.761499088257551" lon="8.028807872906327">
        <ele>1646.8800000000001</ele>
        <time>2019-02-24T13:22:44Z</time>
      </trkpt>
      <trkpt lat="45.761493137106299" lon="8.028787923976779">
        <ele>1645.9100000000001</ele>
        <time>2019-02-24T13:22:46Z</time>
      </trkpt>
      <trkpt lat="45.761443180963397" lon="8.028697315603495">
        <ele>1643.51</ele>
        <time>2019-02-24T13:22:55Z</time>
      </trkpt>
      <trkpt lat="45.76141350902617" lon="8.028601510450244">
        <ele>1641.1099999999999</ele>
        <time>2019-02-24T13:23:07Z</time>
      </trkpt>
      <trkpt lat="45.761361373588443" lon="8.028514087200165">
        <ele>1638.7</ele>
        <time>2019-02-24T13:23:17Z</time>
      </trkpt>
      <trkpt lat="45.76133731752634" lon="8.028429178521037">
        <ele>1636.78</ele>
        <time>2019-02-24T13:23:27Z</time>
      </trkpt>
      <trkpt lat="45.761317787691951" lon="8.02833647467196">
        <ele>1636.78</ele>
        <time>2019-02-24T13:23:37Z</time>
      </trkpt>
      <trkpt lat="45.761300772428513" lon="8.028233963996172">
        <ele>1634.8599999999999</ele>
        <time>2019-02-24T13:23:47Z</time>
      </trkpt>
      <trkpt lat="45.761277135461569" lon="8.028128771111369">
        <ele>1633.4200000000001</ele>
        <time>2019-02-24T13:23:58Z</time>
      </trkpt>
      <trkpt lat="45.761237153783441" lon="8.028008574619889">
        <ele>1632.9400000000001</ele>
        <time>2019-02-24T13:24:11Z</time>
      </trkpt>
      <trkpt lat="45.761206978932023" lon="8.027918050065637">
        <ele>1631.98</ele>
        <time>2019-02-24T13:24:22Z</time>
      </trkpt>
      <trkpt lat="45.761173702776432" lon="8.02780975587666">
        <ele>1629.5699999999999</ele>
        <time>2019-02-24T13:24:34Z</time>
      </trkpt>
      <trkpt lat="45.761147886514664" lon="8.027695175260305">
        <ele>1626.6900000000001</ele>
        <time>2019-02-24T13:24:46Z</time>
      </trkpt>
      <trkpt lat="45.761141600087285" lon="8.027686793357134">
        <ele>1626.6900000000001</ele>
        <time>2019-02-24T13:24:48Z</time>
      </trkpt>
      <trkpt lat="45.761053338646889" lon="8.027566848322749">
        <ele>1624.77</ele>
        <time>2019-02-24T13:25:02Z</time>
      </trkpt>
      <trkpt lat="45.760975554585457" lon="8.027478670701385">
        <ele>1623.3199999999999</ele>
        <time>2019-02-24T13:25:14Z</time>
      </trkpt>
      <trkpt lat="45.760930040851235" lon="8.027355121448636">
        <ele>1620.4400000000001</ele>
        <time>2019-02-24T13:25:28Z</time>
      </trkpt>
      <trkpt lat="45.760890813544393" lon="8.027253868058324">
        <ele>1619</ele>
        <time>2019-02-24T13:25:41Z</time>
      </trkpt>
      <trkpt lat="45.760842701420188" lon="8.027151022106409">
        <ele>1616.5899999999999</ele>
        <time>2019-02-24T13:25:53Z</time>
      </trkpt>
      <trkpt lat="45.760805988684297" lon="8.027106346562505">
        <ele>1615.6300000000001</ele>
        <time>2019-02-24T13:25:58Z</time>
      </trkpt>
      <trkpt lat="45.760711273178458" lon="8.027054546400905">
        <ele>1615.1500000000001</ele>
        <time>2019-02-24T13:26:09Z</time>
      </trkpt>
      <trkpt lat="45.760656706988811" lon="8.027026299387217">
        <ele>1613.71</ele>
        <time>2019-02-24T13:26:16Z</time>
      </trkpt>
      <trkpt lat="45.760596105828881" lon="8.026910126209259">
        <ele>1612.27</ele>
        <time>2019-02-24T13:26:27Z</time>
      </trkpt>
      <trkpt lat="45.760549502447248" lon="8.026786241680384">
        <ele>1610.8299999999999</ele>
        <time>2019-02-24T13:26:39Z</time>
      </trkpt>
      <trkpt lat="45.760524775832891" lon="8.026752965524793">
        <ele>1608.9000000000001</ele>
        <time>2019-02-24T13:26:43Z</time>
      </trkpt>
      <trkpt lat="45.760451685637236" lon="8.026657663285732">
        <ele>1606.5</ele>
        <time>2019-02-24T13:26:54Z</time>
      </trkpt>
      <trkpt lat="45.760364513844252" lon="8.026571581140161">
        <ele>1604.0999999999999</ele>
        <time>2019-02-24T13:27:06Z</time>
      </trkpt>
      <trkpt lat="45.760297290980816" lon="8.026438476517797">
        <ele>1602.1700000000001</ele>
        <time>2019-02-24T13:27:18Z</time>
      </trkpt>
      <trkpt lat="45.760221937671304" lon="8.026361363008618">
        <ele>1601.21</ele>
        <time>2019-02-24T13:27:29Z</time>
      </trkpt>
      <trkpt lat="45.760202826932073" lon="8.026299253106117">
        <ele>1601.6900000000001</ele>
        <time>2019-02-24T13:27:39Z</time>
      </trkpt>
      <trkpt lat="45.760203329846263" lon="8.026201603934169">
        <ele>1599.29</ele>
        <time>2019-02-24T13:27:49Z</time>
      </trkpt>
      <trkpt lat="45.760183297097683" lon="8.026142679154873">
        <ele>1595.9300000000001</ele>
        <time>2019-02-24T13:27:55Z</time>
      </trkpt>
      <trkpt lat="45.760148176923394" lon="8.026050142943859">
        <ele>1593.04</ele>
        <time>2019-02-24T13:28:04Z</time>
      </trkpt>
      <trkpt lat="45.760132754221559" lon="8.025976466014981">
        <ele>1591.1199999999999</ele>
        <time>2019-02-24T13:28:12Z</time>
      </trkpt>
      <trkpt lat="45.760044408962131" lon="8.025844534859061">
        <ele>1588.24</ele>
        <time>2019-02-24T13:28:24Z</time>
      </trkpt>
      <trkpt lat="45.759992944076657" lon="8.02574428729713">
        <ele>1587.75</ele>
        <time>2019-02-24T13:28:37Z</time>
      </trkpt>
      <trkpt lat="45.759994955733418" lon="8.025735905393958">
        <ele>1588.72</ele>
        <time>2019-02-24T13:28:50Z</time>
      </trkpt>
      <trkpt lat="45.75995740480721" lon="8.025732720270753">
        <ele>1589.2</ele>
        <time>2019-02-24T13:28:55Z</time>
      </trkpt>
      <trkpt lat="45.75986553914845" lon="8.025673544034362">
        <ele>1588.72</ele>
        <time>2019-02-24T13:29:07Z</time>
      </trkpt>
      <trkpt lat="45.759857157245278" lon="8.025669353082776">
        <ele>1588.72</ele>
        <time>2019-02-24T13:29:08Z</time>
      </trkpt>
      <trkpt lat="45.759840896353126" lon="8.025623923167586">
        <ele>1588.24</ele>
        <time>2019-02-24T13:29:12Z</time>
      </trkpt>
      <trkpt lat="45.759758334606886" lon="8.02551462315023">
        <ele>1586.3099999999999</ele>
        <time>2019-02-24T13:29:26Z</time>
      </trkpt>
      <trkpt lat="45.759701086208224" lon="8.025436252355576">
        <ele>1585.3499999999999</ele>
        <time>2019-02-24T13:29:35Z</time>
      </trkpt>
      <trkpt lat="45.759627996012568" lon="8.025344973430038">
        <ele>1583.4300000000001</ele>
        <time>2019-02-24T13:29:47Z</time>
      </trkpt>
      <trkpt lat="45.75956990942359" lon="8.025301052257419">
        <ele>1582.95</ele>
        <time>2019-02-24T13:29:58Z</time>
      </trkpt>
      <trkpt lat="45.75952154584229" lon="8.025255370885134">
        <ele>1581.99</ele>
        <time>2019-02-24T13:30:07Z</time>
      </trkpt>
      <trkpt lat="45.759474188089371" lon="8.025221256539226">
        <ele>1580.0599999999999</ele>
        <time>2019-02-24T13:30:19Z</time>
      </trkpt>
      <trkpt lat="45.759395817294717" lon="8.025124948471785">
        <ele>1578.1400000000001</ele>
        <time>2019-02-24T13:30:32Z</time>
      </trkpt>
      <trkpt lat="45.759348627179861" lon="8.025061246007681">
        <ele>1576.22</ele>
        <time>2019-02-24T13:30:42Z</time>
      </trkpt>
      <trkpt lat="45.759280398488045" lon="8.024984216317534">
        <ele>1575.26</ele>
        <time>2019-02-24T13:30:52Z</time>
      </trkpt>
      <trkpt lat="45.759218288585544" lon="8.024880867451429">
        <ele>1572.3699999999999</ele>
        <time>2019-02-24T13:31:03Z</time>
      </trkpt>
      <trkpt lat="45.759190209209919" lon="8.024848680943251">
        <ele>1572.3699999999999</ele>
        <time>2019-02-24T13:31:06Z</time>
      </trkpt>
      <trkpt lat="45.759183336049318" lon="8.024737536907196">
        <ele>1569.97</ele>
        <time>2019-02-24T13:31:17Z</time>
      </trkpt>
      <trkpt lat="45.7591912150383" lon="8.024726305156946">
        <ele>1569.97</ele>
        <time>2019-02-24T13:31:32Z</time>
      </trkpt>
      <trkpt lat="45.759194064885378" lon="8.024725299328566">
        <ele>1569.97</ele>
        <time>2019-02-24T13:31:37Z</time>
      </trkpt>
      <trkpt lat="45.759271346032619" lon="8.024670230224729">
        <ele>1568.05</ele>
        <time>2019-02-24T13:31:47Z</time>
      </trkpt>
      <trkpt lat="45.759292971342802" lon="8.024659417569637">
        <ele>1567.0899999999999</ele>
        <time>2019-02-24T13:31:49Z</time>
      </trkpt>
      <trkpt lat="45.759316105395555" lon="8.024654975160956">
        <ele>1566.1199999999999</ele>
        <time>2019-02-24T13:31:51Z</time>
      </trkpt>
      <trkpt lat="45.759376538917422" lon="8.024630919098854">
        <ele>1565.1600000000001</ele>
        <time>2019-02-24T13:32:01Z</time>
      </trkpt>
      <trkpt lat="45.759430602192879" lon="8.02456277422607">
        <ele>1563.72</ele>
        <time>2019-02-24T13:32:12Z</time>
      </trkpt>
      <trkpt lat="45.759470416232944" lon="8.024482810869813">
        <ele>1561.3199999999999</ele>
        <time>2019-02-24T13:32:22Z</time>
      </trkpt>
      <trkpt lat="45.759472008794546" lon="8.024476524442434">
        <ele>1561.3199999999999</ele>
        <time>2019-02-24T13:32:23Z</time>
      </trkpt>
      <trkpt lat="45.759540572762489" lon="8.024390358477831">
        <ele>1560.3599999999999</ele>
        <time>2019-02-24T13:32:33Z</time>
      </trkpt>
      <trkpt lat="45.759548870846629" lon="8.024370828643441">
        <ele>1560.3599999999999</ele>
        <time>2019-02-24T13:32:35Z</time>
      </trkpt>
      <trkpt lat="45.759562449529767" lon="8.024351969361305">
        <ele>1559.8800000000001</ele>
        <time>2019-02-24T13:32:37Z</time>
      </trkpt>
      <trkpt lat="45.759638138115406" lon="8.024362698197365">
        <ele>1558.4300000000001</ele>
        <time>2019-02-24T13:32:49Z</time>
      </trkpt>
      <trkpt lat="45.759701756760478" lon="8.024340318515897">
        <ele>1557.95</ele>
        <time>2019-02-24T13:33:02Z</time>
      </trkpt>
      <trkpt lat="45.759732015430927" lon="8.024317603558302">
        <ele>1556.99</ele>
        <time>2019-02-24T13:33:06Z</time>
      </trkpt>
      <trkpt lat="45.759824300184846" lon="8.024253817275167">
        <ele>1554.5899999999999</ele>
        <time>2019-02-24T13:33:16Z</time>
      </trkpt>
      <trkpt lat="45.759913315996528" lon="8.024216182529926">
        <ele>1552.6700000000001</ele>
        <time>2019-02-24T13:33:27Z</time>
      </trkpt>
      <trkpt lat="45.759986490011215" lon="8.024161281064153">
        <ele>1550.74</ele>
        <time>2019-02-24T13:33:40Z</time>
      </trkpt>
      <trkpt lat="45.760018592700362" lon="8.024155665189028">
        <ele>1549.78</ele>
        <time>2019-02-24T13:33:49Z</time>
      </trkpt>
      <trkpt lat="45.760094113647938" lon="8.024103948846459">
        <ele>1547.8599999999999</ele>
        <time>2019-02-24T13:34:00Z</time>
      </trkpt>
      <trkpt lat="45.760164856910706" lon="8.024083999916911">
        <ele>1546.9000000000001</ele>
        <time>2019-02-24T13:34:11Z</time>
      </trkpt>
      <trkpt lat="45.760244652628899" lon="8.024103529751301">
        <ele>1547.3800000000001</ele>
        <time>2019-02-24T13:34:21Z</time>
      </trkpt>
      <trkpt lat="45.760335261002183" lon="8.024138566106558">
        <ele>1545.9400000000001</ele>
        <time>2019-02-24T13:34:33Z</time>
      </trkpt>
      <trkpt lat="45.760362334549427" lon="8.024069918319583">
        <ele>1544.01</ele>
        <time>2019-02-24T13:34:43Z</time>
      </trkpt>
      <trkpt lat="45.760436179116368" lon="8.024081904441118">
        <ele>1541.1300000000001</ele>
        <time>2019-02-24T13:34:52Z</time>
      </trkpt>
      <trkpt lat="45.760512538254261" lon="8.024110989645124">
        <ele>1538.25</ele>
        <time>2019-02-24T13:35:02Z</time>
      </trkpt>
      <trkpt lat="45.760548915714025" lon="8.024135883897543">
        <ele>1537.77</ele>
        <time>2019-02-24T13:35:07Z</time>
      </trkpt>
      <trkpt lat="45.760612618178129" lon="8.024116102606058">
        <ele>1534.4000000000001</ele>
        <time>2019-02-24T13:35:18Z</time>
      </trkpt>
      <trkpt lat="45.760631142184138" lon="8.024126915261149">
        <ele>1532.48</ele>
        <time>2019-02-24T13:35:22Z</time>
      </trkpt>
      <trkpt lat="45.76073239557445" lon="8.024122975766659">
        <ele>1531.04</ele>
        <time>2019-02-24T13:35:33Z</time>
      </trkpt>
      <trkpt lat="45.760817555710673" lon="8.024074863642454">
        <ele>1531.04</ele>
        <time>2019-02-24T13:35:42Z</time>
      </trkpt>
      <trkpt lat="45.760832140222192" lon="8.024014346301556">
        <ele>1530.5599999999999</ele>
        <time>2019-02-24T13:35:52Z</time>
      </trkpt>
      <trkpt lat="45.760775059461594" lon="8.023945614695549">
        <ele>1527.6700000000001</ele>
        <time>2019-02-24T13:36:02Z</time>
      </trkpt>
      <trkpt lat="45.760827949270606" lon="8.023893563076854">
        <ele>1526.71</ele>
        <time>2019-02-24T13:36:12Z</time>
      </trkpt>
      <trkpt lat="45.760884946212173" lon="8.023823909461498">
        <ele>1523.8299999999999</ele>
        <time>2019-02-24T13:36:22Z</time>
      </trkpt>
      <trkpt lat="45.76087161898613" lon="8.023787448182702">
        <ele>1520.9400000000001</ele>
        <time>2019-02-24T13:36:27Z</time>
      </trkpt>
      <trkpt lat="45.760848987847567" lon="8.023759871721268">
        <ele>1517.5799999999999</ele>
        <time>2019-02-24T13:36:32Z</time>
      </trkpt>
      <trkpt lat="45.760876899585128" lon="8.023727936670184">
        <ele>1515.6600000000001</ele>
        <time>2019-02-24T13:36:42Z</time>
      </trkpt>
      <trkpt lat="45.760842449963093" lon="8.02364319562912">
        <ele>1515.1800000000001</ele>
        <time>2019-02-24T13:36:53Z</time>
      </trkpt>
      <trkpt lat="45.760837001726031" lon="8.023561136797071">
        <ele>1513.25</ele>
        <time>2019-02-24T13:37:04Z</time>
      </trkpt>
      <trkpt lat="45.760785536840558" lon="8.023505061864853">
        <ele>1509.8900000000001</ele>
        <time>2019-02-24T13:37:16Z</time>
      </trkpt>
      <trkpt lat="45.760754104703665" lon="8.02345703355968">
        <ele>1507.97</ele>
        <time>2019-02-24T13:37:25Z</time>
      </trkpt>
      <trkpt lat="45.760736670345068" lon="8.023382183164358">
        <ele>1505.0799999999999</ele>
        <time>2019-02-24T13:37:32Z</time>
      </trkpt>
      <trkpt lat="45.760809509083629" lon="8.023325018584728">
        <ele>1504.1199999999999</ele>
        <time>2019-02-24T13:37:43Z</time>
      </trkpt>
      <trkpt lat="45.760871786624193" lon="8.023332981392741">
        <ele>1505.0799999999999</ele>
        <time>2019-02-24T13:37:52Z</time>
      </trkpt>
      <trkpt lat="45.760958958417177" lon="8.023350080475211">
        <ele>1501.72</ele>
        <time>2019-02-24T13:38:02Z</time>
      </trkpt>
      <trkpt lat="45.760997598990798" lon="8.023381344974041">
        <ele>1500.76</ele>
        <time>2019-02-24T13:38:06Z</time>
      </trkpt>
      <trkpt lat="45.761073539033532" lon="8.02340523339808">
        <ele>1500.76</ele>
        <time>2019-02-24T13:38:17Z</time>
      </trkpt>
      <trkpt lat="45.761155346408486" lon="8.023403640836477">
        <ele>1499.3099999999999</ele>
        <time>2019-02-24T13:38:27Z</time>
      </trkpt>
      <trkpt lat="45.761201363056898" lon="8.02339450456202">
        <ele>1497.8699999999999</ele>
        <time>2019-02-24T13:38:39Z</time>
      </trkpt>
      <trkpt lat="45.761322984471917" lon="8.023427110165358">
        <ele>1497.3900000000001</ele>
        <time>2019-02-24T13:38:52Z</time>
      </trkpt>
      <trkpt lat="45.76132264919579" lon="8.023404814302921">
        <ele>1495.47</ele>
        <time>2019-02-24T13:38:55Z</time>
      </trkpt>
      <trkpt lat="45.761288953945041" lon="8.023268021643162">
        <ele>1491.1400000000001</ele>
        <time>2019-02-24T13:39:05Z</time>
      </trkpt>
      <trkpt lat="45.761262634769082" lon="8.023239271715283">
        <ele>1488.26</ele>
        <time>2019-02-24T13:39:10Z</time>
      </trkpt>
      <trkpt lat="45.761279063299298" lon="8.023171294480562">
        <ele>1484.8900000000001</ele>
        <time>2019-02-24T13:39:19Z</time>
      </trkpt>
      <trkpt lat="45.761289708316326" lon="8.023180430755019">
        <ele>1484.4100000000001</ele>
        <time>2019-02-24T13:39:20Z</time>
      </trkpt>
      <trkpt lat="45.761378053575754" lon="8.023281684145331">
        <ele>1481.53</ele>
        <time>2019-02-24T13:39:30Z</time>
      </trkpt>
      <trkpt lat="45.761441085487604" lon="8.023310601711273">
        <ele>1478.1600000000001</ele>
        <time>2019-02-24T13:39:39Z</time>
      </trkpt>
      <trkpt lat="45.761483246460557" lon="8.023291993886232">
        <ele>1477.6800000000001</ele>
        <time>2019-02-24T13:39:48Z</time>
      </trkpt>
      <trkpt lat="45.761563461273909" lon="8.023285707458854">
        <ele>1475.28</ele>
        <time>2019-02-24T13:40:00Z</time>
      </trkpt>
      <trkpt lat="45.761653985828161" lon="8.023330550640822">
        <ele>1471.9200000000001</ele>
        <time>2019-02-24T13:40:10Z</time>
      </trkpt>
      <trkpt lat="45.761635545641184" lon="8.023312781006098">
        <ele>1470.47</ele>
        <time>2019-02-24T13:40:13Z</time>
      </trkpt>
      <trkpt lat="45.761625319719315" lon="8.023275313898921">
        <ele>1469.03</ele>
        <time>2019-02-24T13:40:16Z</time>
      </trkpt>
      <trkpt lat="45.761577961966395" lon="8.023175653070211">
        <ele>1466.1500000000001</ele>
        <time>2019-02-24T13:40:25Z</time>
      </trkpt>
      <trkpt lat="45.761561281979084" lon="8.023093929514289">
        <ele>1463.26</ele>
        <time>2019-02-24T13:40:32Z</time>
      </trkpt>
      <trkpt lat="45.761633785441518" lon="8.023129971697927">
        <ele>1462.78</ele>
        <time>2019-02-24T13:40:42Z</time>
      </trkpt>
      <trkpt lat="45.761664211750031" lon="8.023160984739661">
        <ele>1463.26</ele>
        <time>2019-02-24T13:40:49Z</time>
      </trkpt>
      <trkpt lat="45.761651135981083" lon="8.023039447143674">
        <ele>1461.3399999999999</ele>
        <time>2019-02-24T13:40:59Z</time>
      </trkpt>
      <trkpt lat="45.761601682752371" lon="8.022931823506951">
        <ele>1458.46</ele>
        <time>2019-02-24T13:41:09Z</time>
      </trkpt>
      <trkpt lat="45.761663122102618" lon="8.022921597585082">
        <ele>1457.5</ele>
        <time>2019-02-24T13:41:18Z</time>
      </trkpt>
      <trkpt lat="45.76171207241714" lon="8.022985300049186">
        <ele>1454.6099999999999</ele>
        <time>2019-02-24T13:41:23Z</time>
      </trkpt>
      <trkpt lat="45.761719029396772" lon="8.023000471293926">
        <ele>1453.6500000000001</ele>
        <time>2019-02-24T13:41:25Z</time>
      </trkpt>
      <trkpt lat="45.761780384927988" lon="8.023057635873556">
        <ele>1452.21</ele>
        <time>2019-02-24T13:41:34Z</time>
      </trkpt>
      <trkpt lat="45.761835621669888" lon="8.023034585639834">
        <ele>1450.77</ele>
        <time>2019-02-24T13:41:43Z</time>
      </trkpt>
      <trkpt lat="45.761831430718303" lon="8.022934254258871">
        <ele>1447.8800000000001</ele>
        <time>2019-02-24T13:41:53Z</time>
      </trkpt>
      <trkpt lat="45.761790694668889" lon="8.02284968085587">
        <ele>1446.4400000000001</ele>
        <time>2019-02-24T13:42:02Z</time>
      </trkpt>
      <trkpt lat="45.761835370212793" lon="8.022787319496274">
        <ele>1444.04</ele>
        <time>2019-02-24T13:42:12Z</time>
      </trkpt>
      <trkpt lat="45.761856827884912" lon="8.022805508226156">
        <ele>1443.0799999999999</ele>
        <time>2019-02-24T13:42:14Z</time>
      </trkpt>
      <trkpt lat="45.761942574754357" lon="8.02279737778008">
        <ele>1442.1099999999999</ele>
        <time>2019-02-24T13:42:25Z</time>
      </trkpt>
      <trkpt lat="45.762011306360364" lon="8.022829312831163">
        <ele>1440.6700000000001</ele>
        <time>2019-02-24T13:42:35Z</time>
      </trkpt>
      <trkpt lat="45.762057490646839" lon="8.022840796038508">
        <ele>1437.79</ele>
        <time>2019-02-24T13:42:44Z</time>
      </trkpt>
      <trkpt lat="45.762132173404098" lon="8.022883292287588">
        <ele>1434.4200000000001</ele>
        <time>2019-02-24T13:42:53Z</time>
      </trkpt>
      <trkpt lat="45.762134101241827" lon="8.022834341973066">
        <ele>1431.54</ele>
        <time>2019-02-24T13:43:03Z</time>
      </trkpt>
      <trkpt lat="45.762133598327637" lon="8.022709116339684">
        <ele>1429.1400000000001</ele>
        <time>2019-02-24T13:43:15Z</time>
      </trkpt>
      <trkpt lat="45.762117924168706" lon="8.022588584572077">
        <ele>1426.25</ele>
        <time>2019-02-24T13:43:27Z</time>
      </trkpt>
      <trkpt lat="45.762115409597754" lon="8.022505771368742">
        <ele>1424.3299999999999</ele>
        <time>2019-02-24T13:43:36Z</time>
      </trkpt>
      <trkpt lat="45.762073500081897" lon="8.022412313148379">
        <ele>1422.8900000000001</ele>
        <time>2019-02-24T13:43:47Z</time>
      </trkpt>
      <trkpt lat="45.762089677155018" lon="8.022413402795792">
        <ele>1420.97</ele>
        <time>2019-02-24T13:43:53Z</time>
      </trkpt>
      <trkpt lat="45.762102250009775" lon="8.0224216170609">
        <ele>1420.49</ele>
        <time>2019-02-24T13:44:04Z</time>
      </trkpt>
      <trkpt lat="45.762112308293581" lon="8.022434525191784">
        <ele>1422.4100000000001</ele>
        <time>2019-02-24T13:44:17Z</time>
      </trkpt>
      <trkpt lat="45.762133933603764" lon="8.022404853254557">
        <ele>1423.8499999999999</ele>
        <time>2019-02-24T13:44:33Z</time>
      </trkpt>
      <trkpt lat="45.76222563162446" lon="8.022435698658228">
        <ele>1422.4100000000001</ele>
        <time>2019-02-24T13:44:44Z</time>
      </trkpt>
      <trkpt lat="45.762240132316947" lon="8.022361183539033">
        <ele>1419.52</ele>
        <time>2019-02-24T13:44:56Z</time>
      </trkpt>
      <trkpt lat="45.762311294674873" lon="8.022293709218502">
        <ele>1418.5599999999999</ele>
        <time>2019-02-24T13:45:07Z</time>
      </trkpt>
      <trkpt lat="45.762342140078545" lon="8.022200921550393">
        <ele>1415.6800000000001</ele>
        <time>2019-02-24T13:45:18Z</time>
      </trkpt>
      <trkpt lat="45.762402238324285" lon="8.022192791104317">
        <ele>1413.76</ele>
        <time>2019-02-24T13:45:27Z</time>
      </trkpt>
      <trkpt lat="45.762453367933631" lon="8.022153479978442">
        <ele>1410.3900000000001</ele>
        <time>2019-02-24T13:45:37Z</time>
      </trkpt>
      <trkpt lat="45.762512125074863" lon="8.022117773070931">
        <ele>1407.03</ele>
        <time>2019-02-24T13:45:46Z</time>
      </trkpt>
      <trkpt lat="45.762531571090221" lon="8.022067146375775">
        <ele>1403.6600000000001</ele>
        <time>2019-02-24T13:45:55Z</time>
      </trkpt>
      <trkpt lat="45.762528888881207" lon="8.022057423368096">
        <ele>1403.6600000000001</ele>
        <time>2019-02-24T13:45:56Z</time>
      </trkpt>
      <trkpt lat="45.76248412951827" lon="8.021951895207167">
        <ele>1400.3</ele>
        <time>2019-02-24T13:46:08Z</time>
      </trkpt>
      <trkpt lat="45.762530565261841" lon="8.021872602403164">
        <ele>1398.3699999999999</ele>
        <time>2019-02-24T13:46:20Z</time>
      </trkpt>
      <trkpt lat="45.762570546939969" lon="8.021780904382467">
        <ele>1395.01</ele>
        <time>2019-02-24T13:46:31Z</time>
      </trkpt>
      <trkpt lat="45.762542299926281" lon="8.021713513880968">
        <ele>1392.1300000000001</ele>
        <time>2019-02-24T13:46:42Z</time>
      </trkpt>
      <trkpt lat="45.762476837262511" lon="8.02168476395309">
        <ele>1391.1700000000001</ele>
        <time>2019-02-24T13:46:50Z</time>
      </trkpt>
      <trkpt lat="45.762391174212098" lon="8.021681075915694">
        <ele>1390.6800000000001</ele>
        <time>2019-02-24T13:47:00Z</time>
      </trkpt>
      <trkpt lat="45.762309450656176" lon="8.021683758124709">
        <ele>1387.8</ele>
        <time>2019-02-24T13:47:11Z</time>
      </trkpt>
      <trkpt lat="45.762285897508264" lon="8.02163053303957">
        <ele>1384.4400000000001</ele>
        <time>2019-02-24T13:47:17Z</time>
      </trkpt>
      <trkpt lat="45.762233007699251" lon="8.02159683778882">
        <ele>1382.03</ele>
        <time>2019-02-24T13:47:28Z</time>
      </trkpt>
      <trkpt lat="45.762190679088235" lon="8.021572362631559">
        <ele>1380.5899999999999</ele>
        <time>2019-02-24T13:47:36Z</time>
      </trkpt>
      <trkpt lat="45.762172741815448" lon="8.021502289921045">
        <ele>1377.71</ele>
        <time>2019-02-24T13:47:44Z</time>
      </trkpt>
      <trkpt lat="45.762188583612442" lon="8.021443784236908">
        <ele>1375.3</ele>
        <time>2019-02-24T13:47:53Z</time>
      </trkpt>
      <trkpt lat="45.762187913060188" lon="8.021372454240918">
        <ele>1373.8599999999999</ele>
        <time>2019-02-24T13:48:03Z</time>
      </trkpt>
      <trkpt lat="45.762219345197082" lon="8.021263740956783">
        <ele>1373.8599999999999</ele>
        <time>2019-02-24T13:48:14Z</time>
      </trkpt>
      <trkpt lat="45.76222269795835" lon="8.021175479516387">
        <ele>1370.5</ele>
        <time>2019-02-24T13:48:22Z</time>
      </trkpt>
      <trkpt lat="45.762221775949001" lon="8.02116340957582">
        <ele>1370.5</ele>
        <time>2019-02-24T13:48:23Z</time>
      </trkpt>
      <trkpt lat="45.76227449811995" lon="8.021170282736421">
        <ele>1369.05</ele>
        <time>2019-02-24T13:48:32Z</time>
      </trkpt>
      <trkpt lat="45.762337865307927" lon="8.021169528365135">
        <ele>1365.6900000000001</ele>
        <time>2019-02-24T13:48:41Z</time>
      </trkpt>
      <trkpt lat="45.762397879734635" lon="8.021175730973482">
        <ele>1364.25</ele>
        <time>2019-02-24T13:48:51Z</time>
      </trkpt>
      <trkpt lat="45.762354293838143" lon="8.021112447604537">
        <ele>1360.8800000000001</ele>
        <time>2019-02-24T13:49:00Z</time>
      </trkpt>
      <trkpt lat="45.762358065694571" lon="8.021024605259299">
        <ele>1358.96</ele>
        <time>2019-02-24T13:49:11Z</time>
      </trkpt>
      <trkpt lat="45.762402238324285" lon="8.021023431792855">
        <ele>1357.04</ele>
        <time>2019-02-24T13:49:18Z</time>
      </trkpt>
      <trkpt lat="45.762456636875868" lon="8.020994095131755">
        <ele>1357.52</ele>
        <time>2019-02-24T13:49:26Z</time>
      </trkpt>
      <trkpt lat="45.762549676001072" lon="8.020972888916731">
        <ele>1358</ele>
        <time>2019-02-24T13:49:37Z</time>
      </trkpt>
      <trkpt lat="45.762623185291886" lon="8.020956292748451">
        <ele>1357.04</ele>
        <time>2019-02-24T13:49:46Z</time>
      </trkpt>
      <trkpt lat="45.76267322525382" lon="8.020922597497702">
        <ele>1353.6700000000001</ele>
        <time>2019-02-24T13:49:53Z</time>
      </trkpt>
      <trkpt lat="45.762717565521598" lon="8.020879346877337">
        <ele>1350.3099999999999</ele>
        <time>2019-02-24T13:50:02Z</time>
      </trkpt>
      <trkpt lat="45.76280708424747" lon="8.020856883376837">
        <ele>1350.79</ele>
        <time>2019-02-24T13:50:13Z</time>
      </trkpt>
      <trkpt lat="45.762843210250139" lon="8.020852357149124">
        <ele>1350.79</ele>
        <time>2019-02-24T13:50:16Z</time>
      </trkpt>
      <trkpt lat="45.762873888015747" lon="8.020837185904384">
        <ele>1349.3499999999999</ele>
        <time>2019-02-24T13:50:19Z</time>
      </trkpt>
      <trkpt lat="45.762946978211403" lon="8.020879765972495">
        <ele>1347.4300000000001</ele>
        <time>2019-02-24T13:50:29Z</time>
      </trkpt>
      <trkpt lat="45.763036832213402" lon="8.020901223644614">
        <ele>1344.0599999999999</ele>
        <time>2019-02-24T13:50:39Z</time>
      </trkpt>
      <trkpt lat="45.763094834983349" lon="8.020902732387185">
        <ele>1341.1800000000001</ele>
        <time>2019-02-24T13:50:51Z</time>
      </trkpt>
      <trkpt lat="45.763097936287522" lon="8.020899798721075">
        <ele>1340.7</ele>
        <time>2019-02-24T13:50:52Z</time>
      </trkpt>
      <trkpt lat="45.763072706758976" lon="8.020828971639276">
        <ele>1338.29</ele>
        <time>2019-02-24T13:51:02Z</time>
      </trkpt>
      <trkpt lat="45.763084525242448" lon="8.020758228376508">
        <ele>1336.8499999999999</ele>
        <time>2019-02-24T13:51:11Z</time>
      </trkpt>
      <trkpt lat="45.763105815276504" lon="8.020695531740785">
        <ele>1333.49</ele>
        <time>2019-02-24T13:51:17Z</time>
      </trkpt>
      <trkpt lat="45.763160549104214" lon="8.020669464021921">
        <ele>1330.5999999999999</ele>
        <time>2019-02-24T13:51:26Z</time>
      </trkpt>
      <trkpt lat="45.763241266831756" lon="8.0206498503685">
        <ele>1329.6400000000001</ele>
        <time>2019-02-24T13:51:36Z</time>
      </trkpt>
      <trkpt lat="45.76330404728651" lon="8.020596709102392">
        <ele>1327.24</ele>
        <time>2019-02-24T13:51:47Z</time>
      </trkpt>
      <trkpt lat="45.763388033956289" lon="8.020633421838284">
        <ele>1326.28</ele>
        <time>2019-02-24T13:51:56Z</time>
      </trkpt>
      <trkpt lat="45.763468164950609" lon="8.020647251978517">
        <ele>1325.3099999999999</ele>
        <time>2019-02-24T13:52:06Z</time>
      </trkpt>
      <trkpt lat="45.763475373387337" lon="8.020635936409235">
        <ele>1324.8299999999999</ele>
        <time>2019-02-24T13:52:09Z</time>
      </trkpt>
      <trkpt lat="45.763444527983665" lon="8.02062788978219">
        <ele>1322.9100000000001</ele>
        <time>2019-02-24T13:52:13Z</time>
      </trkpt>
      <trkpt lat="45.763437654823065" lon="8.020590422675014">
        <ele>1320.51</ele>
        <time>2019-02-24T13:52:17Z</time>
      </trkpt>
      <trkpt lat="45.763445617631078" lon="8.020482128486037">
        <ele>1318.5899999999999</ele>
        <time>2019-02-24T13:52:28Z</time>
      </trkpt>
      <trkpt lat="45.763519881293178" lon="8.02051205188036">
        <ele>1317.1400000000001</ele>
        <time>2019-02-24T13:52:38Z</time>
      </trkpt>
      <trkpt lat="45.763557516038418" lon="8.020483972504735">
        <ele>1316.1800000000001</ele>
        <time>2019-02-24T13:52:50Z</time>
      </trkpt>
      <trkpt lat="45.763484258204699" lon="8.020413145422936">
        <ele>1314.26</ele>
        <time>2019-02-24T13:53:02Z</time>
      </trkpt>
      <trkpt lat="45.763419214636087" lon="8.020331170409918">
        <ele>1312.8199999999999</ele>
        <time>2019-02-24T13:53:12Z</time>
      </trkpt>
      <trkpt lat="45.763388285413384" lon="8.020247938111424">
        <ele>1311.8599999999999</ele>
        <time>2019-02-24T13:53:21Z</time>
      </trkpt>
      <trkpt lat="45.763455256819725" lon="8.020236706361175">
        <ele>1308.01</ele>
        <time>2019-02-24T13:53:30Z</time>
      </trkpt>
      <trkpt lat="45.76345601119101" lon="8.020164789631963">
        <ele>1305.6099999999999</ele>
        <time>2019-02-24T13:53:43Z</time>
      </trkpt>
      <trkpt lat="45.76348040252924" lon="8.020137464627624">
        <ele>1305.6099999999999</ele>
        <time>2019-02-24T13:53:52Z</time>
      </trkpt>
      <trkpt lat="45.763529185205698" lon="8.020154144614935">
        <ele>1303.2</ele>
        <time>2019-02-24T13:53:56Z</time>
      </trkpt>
      <trkpt lat="45.763558270409703" lon="8.020093208178878">
        <ele>1300.3199999999999</ele>
        <time>2019-02-24T13:54:06Z</time>
      </trkpt>
      <trkpt lat="45.763559946790338" lon="8.020073175430298">
        <ele>1298.4000000000001</ele>
        <time>2019-02-24T13:54:10Z</time>
      </trkpt>
      <trkpt lat="45.763633623719215" lon="8.020079210400581">
        <ele>1295.99</ele>
        <time>2019-02-24T13:54:20Z</time>
      </trkpt>
      <trkpt lat="45.763617111369967" lon="8.019982315599918">
        <ele>1294.55</ele>
        <time>2019-02-24T13:54:29Z</time>
      </trkpt>
      <trkpt lat="45.763579644262791" lon="8.019937891513109">
        <ele>1295.03</ele>
        <time>2019-02-24T13:54:36Z</time>
      </trkpt>
      <trkpt lat="45.763645945116878" lon="8.019892545416951">
        <ele>1294.0699999999999</ele>
        <time>2019-02-24T13:54:48Z</time>
      </trkpt>
      <trkpt lat="45.763695314526558" lon="8.019824484363198">
        <ele>1291.1900000000001</ele>
        <time>2019-02-24T13:54:55Z</time>
      </trkpt>
      <trkpt lat="45.763693805783987" lon="8.01978106610477">
        <ele>1288.78</ele>
        <time>2019-02-24T13:55:00Z</time>
      </trkpt>
      <trkpt lat="45.763737475499511" lon="8.019737144932151">
        <ele>1286.3800000000001</ele>
        <time>2019-02-24T13:55:10Z</time>
      </trkpt>
      <trkpt lat="45.763762956485152" lon="8.019713424146175">
        <ele>1283.98</ele>
        <time>2019-02-24T13:55:17Z</time>
      </trkpt>
      <trkpt lat="45.763808554038405" lon="8.019671933725476">
        <ele>1281.5699999999999</ele>
        <time>2019-02-24T13:55:26Z</time>
      </trkpt>
      <trkpt lat="45.763827413320541" lon="8.019593060016632">
        <ele>1278.21</ele>
        <time>2019-02-24T13:55:36Z</time>
      </trkpt>
      <trkpt lat="45.763861779123545" lon="8.019569674506784">
        <ele>1276.29</ele>
        <time>2019-02-24T13:55:45Z</time>
      </trkpt>
      <trkpt lat="45.763873932883143" lon="8.019478898495436">
        <ele>1275.8099999999999</ele>
        <time>2019-02-24T13:55:54Z</time>
      </trkpt>
      <trkpt lat="45.763843590393662" lon="8.019394157454372">
        <ele>1273.8800000000001</ele>
        <time>2019-02-24T13:56:04Z</time>
      </trkpt>
      <trkpt lat="45.763805871829391" lon="8.019331712275744">
        <ele>1271.96</ele>
        <time>2019-02-24T13:56:14Z</time>
      </trkpt>
      <trkpt lat="45.763853481039405" lon="8.019257448613644">
        <ele>1270.04</ele>
        <time>2019-02-24T13:56:23Z</time>
      </trkpt>
      <trkpt lat="45.763803860172629" lon="8.019175222143531">
        <ele>1266.6700000000001</ele>
        <time>2019-02-24T13:56:34Z</time>
      </trkpt>
      <trkpt lat="45.763823892921209" lon="8.019124930724502">
        <ele>1262.8299999999999</ele>
        <time>2019-02-24T13:56:40Z</time>
      </trkpt>
      <trkpt lat="45.763822803273797" lon="8.019129289314151">
        <ele>1261.8699999999999</ele>
        <time>2019-02-24T13:56:42Z</time>
      </trkpt>
      <trkpt lat="45.763832945376635" lon="8.019117806106806">
        <ele>1261.3900000000001</ele>
        <time>2019-02-24T13:56:50Z</time>
      </trkpt>
      <trkpt lat="45.763860773295164" lon="8.019156195223332">
        <ele>1262.8299999999999</ele>
        <time>2019-02-24T13:57:11Z</time>
      </trkpt>
      <trkpt lat="45.763855325058103" lon="8.019183268770576">
        <ele>1265.71</ele>
        <time>2019-02-24T13:57:32Z</time>
      </trkpt>
      <trkpt lat="45.76386203058064" lon="8.019160302355886">
        <ele>1269.0799999999999</ele>
        <time>2019-02-24T13:57:38Z</time>
      </trkpt>
      <trkpt lat="45.763860438019037" lon="8.019156865775585">
        <ele>1270.04</ele>
        <time>2019-02-24T13:57:40Z</time>
      </trkpt>
      <trkpt lat="45.763857588171959" lon="8.019149573519826">
        <ele>1273.4000000000001</ele>
        <time>2019-02-24T13:57:49Z</time>
      </trkpt>
      <trkpt lat="45.763853900134563" lon="8.019143454730511">
        <ele>1274.3599999999999</ele>
        <time>2019-02-24T13:57:51Z</time>
      </trkpt>
      <trkpt lat="45.763822635635734" lon="8.019145466387272">
        <ele>1272.9200000000001</ele>
        <time>2019-02-24T13:58:00Z</time>
      </trkpt>
      <trkpt lat="45.763817187398672" lon="8.019109088927507">
        <ele>1273.8800000000001</ele>
        <time>2019-02-24T13:58:13Z</time>
      </trkpt>
      <trkpt lat="45.763775864616036" lon="8.019207241013646">
        <ele>1272.4400000000001</ele>
        <time>2019-02-24T13:58:32Z</time>
      </trkpt>
      <trkpt lat="45.76381316408515" lon="8.019233141094446">
        <ele>1275.3299999999999</ele>
        <time>2019-02-24T13:58:49Z</time>
      </trkpt>
      <trkpt lat="45.76377360150218" lon="8.019257532432675">
        <ele>1278.21</ele>
        <time>2019-02-24T13:58:58Z</time>
      </trkpt>
      <trkpt lat="45.76380486600101" lon="8.019193410873413">
        <ele>1278.6900000000001</ele>
        <time>2019-02-24T13:59:09Z</time>
      </trkpt>
      <trkpt lat="45.763836549594998" lon="8.019192405045033">
        <ele>1281.5699999999999</ele>
        <time>2019-02-24T13:59:24Z</time>
      </trkpt>
      <trkpt lat="45.763795813545585" lon="8.019197769463062">
        <ele>1284.46</ele>
        <time>2019-02-24T13:59:43Z</time>
      </trkpt>
      <trkpt lat="45.763759519904852" lon="8.019247557967901">
        <ele>1286.8599999999999</ele>
        <time>2019-02-24T14:00:04Z</time>
      </trkpt>
      <trkpt lat="45.763821043074131" lon="8.019203888252378">
        <ele>1287.3399999999999</ele>
        <time>2019-02-24T14:00:27Z</time>
      </trkpt>
      <trkpt lat="45.763911483809352" lon="8.019089810550213">
        <ele>1284.46</ele>
        <time>2019-02-24T14:00:42Z</time>
      </trkpt>
      <trkpt lat="45.763902347534895" lon="8.019127110019326">
        <ele>1283.98</ele>
        <time>2019-02-24T14:00:59Z</time>
      </trkpt>
      <trkpt lat="45.76390846632421" lon="8.019138760864735">
        <ele>1284.46</ele>
        <time>2019-02-24T14:01:16Z</time>
      </trkpt>
      <trkpt lat="45.763926738873124" lon="8.019171198830009">
        <ele>1283.5</ele>
        <time>2019-02-24T14:01:39Z</time>
      </trkpt>
      <trkpt lat="45.763872675597668" lon="8.019173881039023">
        <ele>1283.5</ele>
        <time>2019-02-24T14:01:59Z</time>
      </trkpt>
      <trkpt lat="45.763872675597668" lon="8.019186537712812">
        <ele>1285.4200000000001</ele>
        <time>2019-02-24T14:02:21Z</time>
      </trkpt>
      <trkpt lat="45.763791790232062" lon="8.019198691472411">
        <ele>1288.3</ele>
        <time>2019-02-24T14:02:41Z</time>
      </trkpt>
      <trkpt lat="45.763769662007689" lon="8.019258873537183">
        <ele>1292.1500000000001</ele>
        <time>2019-02-24T14:02:53Z</time>
      </trkpt>
      <trkpt lat="45.763757172971964" lon="8.019269686192274">
        <ele>1292.1500000000001</ele>
        <time>2019-02-24T14:02:54Z</time>
      </trkpt>
      <trkpt lat="45.763697745278478" lon="8.019361970946193">
        <ele>1292.6300000000001</ele>
        <time>2019-02-24T14:03:14Z</time>
      </trkpt>
      <trkpt lat="45.76371006667614" lon="8.019320229068399">
        <ele>1294.0699999999999</ele>
        <time>2019-02-24T14:03:36Z</time>
      </trkpt>
      <trkpt lat="45.763752898201346" lon="8.019248060882092">
        <ele>1290.71</ele>
        <time>2019-02-24T14:03:49Z</time>
      </trkpt>
      <trkpt lat="45.763759268447757" lon="8.019240433350205">
        <ele>1290.71</ele>
        <time>2019-02-24T14:04:07Z</time>
      </trkpt>
      <trkpt lat="45.76385130174458" lon="8.019250072538853">
        <ele>1292.1500000000001</ele>
        <time>2019-02-24T14:04:25Z</time>
      </trkpt>
      <trkpt lat="45.763853145763278" lon="8.019257951527834">
        <ele>1294.55</ele>
        <time>2019-02-24T14:04:32Z</time>
      </trkpt>
      <trkpt lat="45.763885416090488" lon="8.019213946536183">
        <ele>1291.1900000000001</ele>
        <time>2019-02-24T14:04:43Z</time>
      </trkpt>
      <trkpt lat="45.763809559866786" lon="8.019251497462392">
        <ele>1287.8199999999999</ele>
        <time>2019-02-24T14:04:57Z</time>
      </trkpt>
      <trkpt lat="45.763773433864117" lon="8.019278654828668">
        <ele>1285.4200000000001</ele>
        <time>2019-02-24T14:05:01Z</time>
      </trkpt>
      <trkpt lat="45.763767063617706" lon="8.019259544089437">
        <ele>1285.9000000000001</ele>
        <time>2019-02-24T14:05:24Z</time>
      </trkpt>
      <trkpt lat="45.763839483261108" lon="8.019242528825998">
        <ele>1285.9000000000001</ele>
        <time>2019-02-24T14:05:43Z</time>
      </trkpt>
      <trkpt lat="45.763748623430729" lon="8.019257197156549">
        <ele>1285.9000000000001</ele>
        <time>2019-02-24T14:06:02Z</time>
      </trkpt>
      <trkpt lat="45.763793047517538" lon="8.019259460270405">
        <ele>1287.8199999999999</ele>
        <time>2019-02-24T14:06:21Z</time>
      </trkpt>
      <trkpt lat="45.763743007555604" lon="8.019305979833007">
        <ele>1291.1900000000001</ele>
        <time>2019-02-24T14:06:33Z</time>
      </trkpt>
      <trkpt lat="45.763725992292166" lon="8.019308159127832">
        <ele>1288.78</ele>
        <time>2019-02-24T14:06:49Z</time>
      </trkpt>
      <trkpt lat="45.763718280941248" lon="8.019293574616313">
        <ele>1288.3</ele>
        <time>2019-02-24T14:07:07Z</time>
      </trkpt>
      <trkpt lat="45.763704953715205" lon="8.019180167466402">
        <ele>1286.8599999999999</ele>
        <time>2019-02-24T14:07:15Z</time>
      </trkpt>
      <trkpt lat="45.76370126567781" lon="8.019146807491779">
        <ele>1283.98</ele>
        <time>2019-02-24T14:07:19Z</time>
      </trkpt>
      <trkpt lat="45.763685675337911" lon="8.019100371748209">
        <ele>1280.6099999999999</ele>
        <time>2019-02-24T14:07:24Z</time>
      </trkpt>
      <trkpt lat="45.763677041977644" lon="8.019099114462733">
        <ele>1279.6500000000001</ele>
        <time>2019-02-24T14:07:26Z</time>
      </trkpt>
      <trkpt lat="45.763675030320883" lon="8.019074723124504">
        <ele>1275.8099999999999</ele>
        <time>2019-02-24T14:07:30Z</time>
      </trkpt>
      <trkpt lat="45.763655919581652" lon="8.019074136391282">
        <ele>1272.4400000000001</ele>
        <time>2019-02-24T14:07:34Z</time>
      </trkpt>
      <trkpt lat="45.763636808842421" lon="8.019020492210984">
        <ele>1269.5599999999999</ele>
        <time>2019-02-24T14:07:38Z</time>
      </trkpt>
      <trkpt lat="45.763634294271469" lon="8.018971458077431">
        <ele>1266.6700000000001</ele>
        <time>2019-02-24T14:07:42Z</time>
      </trkpt>
      <trkpt lat="45.763667738065124" lon="8.018933236598969">
        <ele>1263.3099999999999</ele>
        <time>2019-02-24T14:07:47Z</time>
      </trkpt>
      <trkpt lat="45.763714089989662" lon="8.018869031220675">
        <ele>1259.9400000000001</ele>
        <time>2019-02-24T14:07:53Z</time>
      </trkpt>
      <trkpt lat="45.763773266226053" lon="8.018835335969925">
        <ele>1257.0599999999999</ele>
        <time>2019-02-24T14:07:58Z</time>
      </trkpt>
      <trkpt lat="45.763849122449756" lon="8.018800802528858">
        <ele>1253.7</ele>
        <time>2019-02-24T14:08:06Z</time>
      </trkpt>
      <trkpt lat="45.763917099684477" lon="8.018736010417342">
        <ele>1254.1800000000001</ele>
        <time>2019-02-24T14:08:16Z</time>
      </trkpt>
      <trkpt lat="45.763987926766276" lon="8.018718240782619">
        <ele>1253.7</ele>
        <time>2019-02-24T14:08:27Z</time>
      </trkpt>
      <trkpt lat="45.764040146023035" lon="8.01863425411284">
        <ele>1250.3299999999999</ele>
        <time>2019-02-24T14:08:37Z</time>
      </trkpt>
      <trkpt lat="45.76403453014791" lon="8.018618412315846">
        <ele>1249.3699999999999</ele>
        <time>2019-02-24T14:08:39Z</time>
      </trkpt>
      <trkpt lat="45.764034362509847" lon="8.018586980178952">
        <ele>1248.4100000000001</ele>
        <time>2019-02-24T14:08:42Z</time>
      </trkpt>
      <trkpt lat="45.76398516073823" lon="8.01852822303772">
        <ele>1246.49</ele>
        <time>2019-02-24T14:08:52Z</time>
      </trkpt>
      <trkpt lat="45.76399052515626" lon="8.018454797565937">
        <ele>1243.5999999999999</ele>
        <time>2019-02-24T14:09:00Z</time>
      </trkpt>
      <trkpt lat="45.764033691957593" lon="8.018426885828376">
        <ele>1241.6800000000001</ele>
        <time>2019-02-24T14:09:09Z</time>
      </trkpt>
      <trkpt lat="45.764083983376622" lon="8.01838849671185">
        <ele>1238.3199999999999</ele>
        <time>2019-02-24T14:09:17Z</time>
      </trkpt>
      <trkpt lat="45.764093287289143" lon="8.018355723470449">
        <ele>1236.8699999999999</ele>
        <time>2019-02-24T14:09:27Z</time>
      </trkpt>
      <trkpt lat="45.764131508767605" lon="8.018292523920536">
        <ele>1233.51</ele>
        <time>2019-02-24T14:09:36Z</time>
      </trkpt>
      <trkpt lat="45.764085743576288" lon="8.018245501443744">
        <ele>1230.1400000000001</ele>
        <time>2019-02-24T14:09:44Z</time>
      </trkpt>
      <trkpt lat="45.764046767726541" lon="8.018246423453093">
        <ele>1228.7</ele>
        <time>2019-02-24T14:09:48Z</time>
      </trkpt>
      <trkpt lat="45.764034949243069" lon="8.018231838941574">
        <ele>1228.22</ele>
        <time>2019-02-24T14:09:50Z</time>
      </trkpt>
      <trkpt lat="45.763991698622704" lon="8.018157742917538">
        <ele>1226.3</ele>
        <time>2019-02-24T14:10:00Z</time>
      </trkpt>
      <trkpt lat="45.763920033350587" lon="8.018083646893501">
        <ele>1226.3</ele>
        <time>2019-02-24T14:10:11Z</time>
      </trkpt>
      <trkpt lat="45.763844847679138" lon="8.017972419038415">
        <ele>1228.22</ele>
        <time>2019-02-24T14:10:23Z</time>
      </trkpt>
      <trkpt lat="45.763760274276137" lon="8.017867058515549">
        <ele>1224.8599999999999</ele>
        <time>2019-02-24T14:10:34Z</time>
      </trkpt>
      <trkpt lat="45.763710318133235" lon="8.017720123752952">
        <ele>1224.3800000000001</ele>
        <time>2019-02-24T14:10:44Z</time>
      </trkpt>
      <trkpt lat="45.763608142733574" lon="8.0176658090204">
        <ele>1222.45</ele>
        <time>2019-02-24T14:10:56Z</time>
      </trkpt>
      <trkpt lat="45.7636016048491" lon="8.017658516764641">
        <ele>1222.9300000000001</ele>
        <time>2019-02-24T14:10:57Z</time>
      </trkpt>
      <trkpt lat="45.763522312045097" lon="8.017600178718567">
        <ele>1222.45</ele>
        <time>2019-02-24T14:11:08Z</time>
      </trkpt>
      <trkpt lat="45.76348626986146" lon="8.017512168735266">
        <ele>1220.53</ele>
        <time>2019-02-24T14:11:18Z</time>
      </trkpt>
      <trkpt lat="45.763445030897856" lon="8.017419381067157">
        <ele>1221.01</ele>
        <time>2019-02-24T14:11:28Z</time>
      </trkpt>
      <trkpt lat="45.763396834954619" lon="8.017418459057808">
        <ele>1219.0899999999999</ele>
        <time>2019-02-24T14:11:38Z</time>
      </trkpt>
      <trkpt lat="45.763340843841434" lon="8.017444694414735">
        <ele>1219.5699999999999</ele>
        <time>2019-02-24T14:11:47Z</time>
      </trkpt>
      <trkpt lat="45.763346627354622" lon="8.017361462116242">
        <ele>1215.72</ele>
        <time>2019-02-24T14:11:58Z</time>
      </trkpt>
      <trkpt lat="45.76337730512023" lon="8.017317624762654">
        <ele>1212.8399999999999</ele>
        <time>2019-02-24T14:12:05Z</time>
      </trkpt>
      <trkpt lat="45.763401445001364" lon="8.017280241474509">
        <ele>1210.9200000000001</ele>
        <time>2019-02-24T14:12:09Z</time>
      </trkpt>
      <trkpt lat="45.763369677588344" lon="8.017287366092205">
        <ele>1208.03</ele>
        <time>2019-02-24T14:12:17Z</time>
      </trkpt>
      <trkpt lat="45.763303795829415" lon="8.017296921461821">
        <ele>1205.1500000000001</ele>
        <time>2019-02-24T14:12:26Z</time>
      </trkpt>
      <trkpt lat="45.763228610157967" lon="8.017296586185694">
        <ele>1206.1099999999999</ele>
        <time>2019-02-24T14:12:37Z</time>
      </trkpt>
      <trkpt lat="45.763196339830756" lon="8.017223915085197">
        <ele>1206.1099999999999</ele>
        <time>2019-02-24T14:12:46Z</time>
      </trkpt>
      <trkpt lat="45.763216372579336" lon="8.017168678343296">
        <ele>1203.23</ele>
        <time>2019-02-24T14:12:53Z</time>
      </trkpt>
      <trkpt lat="45.763228610157967" lon="8.017132971435785">
        <ele>1200.8199999999999</ele>
        <time>2019-02-24T14:12:59Z</time>
      </trkpt>
      <trkpt lat="45.763211091980338" lon="8.017103802412748">
        <ele>1199.3800000000001</ele>
        <time>2019-02-24T14:13:08Z</time>
      </trkpt>
      <trkpt lat="45.763233220204711" lon="8.017084775492549">
        <ele>1196.5</ele>
        <time>2019-02-24T14:13:12Z</time>
      </trkpt>
      <trkpt lat="45.763266663998365" lon="8.017072705551982">
        <ele>1194.5799999999999</ele>
        <time>2019-02-24T14:13:16Z</time>
      </trkpt>
      <trkpt lat="45.763314859941602" lon="8.017031047493219">
        <ele>1192.1700000000001</ele>
        <time>2019-02-24T14:13:24Z</time>
      </trkpt>
      <trkpt lat="45.763344028964639" lon="8.016983605921269">
        <ele>1191.6900000000001</ele>
        <time>2019-02-24T14:13:32Z</time>
      </trkpt>
      <trkpt lat="45.763370431959629" lon="8.016904145479202">
        <ele>1192.6500000000001</ele>
        <time>2019-02-24T14:13:43Z</time>
      </trkpt>
      <trkpt lat="45.76335241086781" lon="8.016869025304914">
        <ele>1192.1700000000001</ele>
        <time>2019-02-24T14:13:55Z</time>
      </trkpt>
      <trkpt lat="45.763303460553288" lon="8.016899451613426">
        <ele>1195.0599999999999</ele>
        <time>2019-02-24T14:14:08Z</time>
      </trkpt>
      <trkpt lat="45.763239087536931" lon="8.016901211813092">
        <ele>1196.5</ele>
        <time>2019-02-24T14:14:18Z</time>
      </trkpt>
      <trkpt lat="45.763200614601374" lon="8.016860140487552">
        <ele>1196.5</ele>
        <time>2019-02-24T14:14:25Z</time>
      </trkpt>
      <trkpt lat="45.763132385909557" lon="8.016764922067523">
        <ele>1196.02</ele>
        <time>2019-02-24T14:14:35Z</time>
      </trkpt>
      <trkpt lat="45.763112436980009" lon="8.016690826043487">
        <ele>1193.1300000000001</ele>
        <time>2019-02-24T14:14:43Z</time>
      </trkpt>
      <trkpt lat="45.763083687052131" lon="8.016662076115608">
        <ele>1191.6900000000001</ele>
        <time>2019-02-24T14:14:48Z</time>
      </trkpt>
      <trkpt lat="45.763080418109894" lon="8.016573982313275">
        <ele>1192.1700000000001</ele>
        <time>2019-02-24T14:14:58Z</time>
      </trkpt>
      <trkpt lat="45.763173373416066" lon="8.016548082232475">
        <ele>1188.8099999999999</ele>
        <time>2019-02-24T14:15:03Z</time>
      </trkpt>
      <trkpt lat="45.763211427256465" lon="8.016537101939321">
        <ele>1186.8800000000001</ele>
        <time>2019-02-24T14:15:05Z</time>
      </trkpt>
      <trkpt lat="45.763269513845444" lon="8.016509441658855">
        <ele>1183.04</ele>
        <time>2019-02-24T14:15:11Z</time>
      </trkpt>
      <trkpt lat="45.763317290693521" lon="8.016444062814117">
        <ele>1182.0799999999999</ele>
        <time>2019-02-24T14:15:21Z</time>
      </trkpt>
      <trkpt lat="45.763331791386008" lon="8.016405841335654">
        <ele>1178.71</ele>
        <time>2019-02-24T14:15:27Z</time>
      </trkpt>
      <trkpt lat="45.763345118612051" lon="8.016363093629479">
        <ele>1175.8299999999999</ele>
        <time>2019-02-24T14:15:37Z</time>
      </trkpt>
      <trkpt lat="45.763351153582335" lon="8.01634113304317">
        <ele>1174.3900000000001</ele>
        <time>2019-02-24T14:15:41Z</time>
      </trkpt>
      <trkpt lat="45.763310166075826" lon="8.016296206042171">
        <ele>1172.95</ele>
        <time>2019-02-24T14:15:51Z</time>
      </trkpt>
      <trkpt lat="45.763304885476828" lon="8.016276843845844">
        <ele>1173.4300000000001</ele>
        <time>2019-02-24T14:15:54Z</time>
      </trkpt>
      <trkpt lat="45.763282421976328" lon="8.016216745600104">
        <ele>1173.9100000000001</ele>
        <time>2019-02-24T14:16:02Z</time>
      </trkpt>
      <trkpt lat="45.763276806101203" lon="8.016214733943343">
        <ele>1174.3900000000001</ele>
        <time>2019-02-24T14:16:03Z</time>
      </trkpt>
      <trkpt lat="45.763204135000706" lon="8.016133848577738">
        <ele>1174.8699999999999</ele>
        <time>2019-02-24T14:16:12Z</time>
      </trkpt>
      <trkpt lat="45.763191981241107" lon="8.016075259074569">
        <ele>1172.95</ele>
        <time>2019-02-24T14:16:18Z</time>
      </trkpt>
      <trkpt lat="45.763250486925244" lon="8.01600786857307">
        <ele>1170.54</ele>
        <time>2019-02-24T14:16:28Z</time>
      </trkpt>
      <trkpt lat="45.763272950425744" lon="8.015993200242519">
        <ele>1169.0999999999999</ele>
        <time>2019-02-24T14:16:31Z</time>
      </trkpt>
      <trkpt lat="45.763260629028082" lon="8.015954056754708">
        <ele>1165.74</ele>
        <time>2019-02-24T14:16:40Z</time>
      </trkpt>
      <trkpt lat="45.763183096423745" lon="8.01592287607491">
        <ele>1163.8099999999999</ele>
        <time>2019-02-24T14:16:48Z</time>
      </trkpt>
      <trkpt lat="45.763126099482179" lon="8.015864873304963">
        <ele>1161.4100000000001</ele>
        <time>2019-02-24T14:16:58Z</time>
      </trkpt>
      <trkpt lat="45.763175552710891" lon="8.015826484188438">
        <ele>1159.01</ele>
        <time>2019-02-24T14:17:08Z</time>
      </trkpt>
      <trkpt lat="45.763193489983678" lon="8.015811983495951">
        <ele>1157.5599999999999</ele>
        <time>2019-02-24T14:17:11Z</time>
      </trkpt>
      <trkpt lat="45.763261802494526" lon="8.015745179727674">
        <ele>1156.1199999999999</ele>
        <time>2019-02-24T14:17:21Z</time>
      </trkpt>
      <trkpt lat="45.763229364529252" lon="8.015710981562734">
        <ele>1155.6400000000001</ele>
        <time>2019-02-24T14:17:30Z</time>
      </trkpt>
      <trkpt lat="45.763214780017734" lon="8.015701258555055">
        <ele>1155.6400000000001</ele>
        <time>2019-02-24T14:17:31Z</time>
      </trkpt>
      <trkpt lat="45.76320631429553" lon="8.015687679871917">
        <ele>1156.1199999999999</ele>
        <time>2019-02-24T14:17:32Z</time>
      </trkpt>
      <trkpt lat="45.763173121958971" lon="8.015654738992453">
        <ele>1155.6400000000001</ele>
        <time>2019-02-24T14:17:37Z</time>
      </trkpt>
      <trkpt lat="45.763184018433094" lon="8.015634873881936">
        <ele>1155.6400000000001</ele>
        <time>2019-02-24T14:17:38Z</time>
      </trkpt>
      <trkpt lat="45.763284852728248" lon="8.015538984909654">
        <ele>1152.76</ele>
        <time>2019-02-24T14:17:48Z</time>
      </trkpt>
      <trkpt lat="45.763309914618731" lon="8.015515934675932">
        <ele>1152.76</ele>
        <time>2019-02-24T14:17:51Z</time>
      </trkpt>
      <trkpt lat="45.763361547142267" lon="8.015472767874599">
        <ele>1151.8</ele>
        <time>2019-02-24T14:17:59Z</time>
      </trkpt>
      <trkpt lat="45.763347884640098" lon="8.015370676293969">
        <ele>1148.4300000000001</ele>
        <time>2019-02-24T14:18:10Z</time>
      </trkpt>
      <trkpt lat="45.763378730043769" lon="8.015317367389798">
        <ele>1146.51</ele>
        <time>2019-02-24T14:18:19Z</time>
      </trkpt>
      <trkpt lat="45.763435894623399" lon="8.015346955507994">
        <ele>1144.1099999999999</ele>
        <time>2019-02-24T14:18:30Z</time>
      </trkpt>
      <trkpt lat="45.763461710885167" lon="8.015350140631199">
        <ele>1145.55</ele>
        <time>2019-02-24T14:18:39Z</time>
      </trkpt>
      <trkpt lat="45.763506218791008" lon="8.015322731807828">
        <ele>1144.1099999999999</ele>
        <time>2019-02-24T14:18:50Z</time>
      </trkpt>
      <trkpt lat="45.763537231832743" lon="8.01532281562686">
        <ele>1143.1400000000001</ele>
        <time>2019-02-24T14:18:56Z</time>
      </trkpt>
      <trkpt lat="45.763533879071474" lon="8.015304962173104">
        <ele>1142.1800000000001</ele>
        <time>2019-02-24T14:19:03Z</time>
      </trkpt>
      <trkpt lat="45.763477049767971" lon="8.015341926366091">
        <ele>1145.55</ele>
        <time>2019-02-24T14:19:13Z</time>
      </trkpt>
      <trkpt lat="45.763466153293848" lon="8.015255928039551">
        <ele>1143.1400000000001</ele>
        <time>2019-02-24T14:19:24Z</time>
      </trkpt>
      <trkpt lat="45.763556091114879" lon="8.015224328264594">
        <ele>1143.1400000000001</ele>
        <time>2019-02-24T14:19:34Z</time>
      </trkpt>
      <trkpt lat="45.763575537130237" lon="8.015155345201492">
        <ele>1143.6300000000001</ele>
        <time>2019-02-24T14:19:44Z</time>
      </trkpt>
      <trkpt lat="45.763607723638415" lon="8.015131540596485">
        <ele>1141.7</ele>
        <time>2019-02-24T14:19:52Z</time>
      </trkpt>
      <trkpt lat="45.763674862682819" lon="8.015080327168107">
        <ele>1139.78</ele>
        <time>2019-02-24T14:19:59Z</time>
      </trkpt>
      <trkpt lat="45.763745689764619" lon="8.015037076547742">
        <ele>1137.8599999999999</ele>
        <time>2019-02-24T14:20:08Z</time>
      </trkpt>
      <trkpt lat="45.763799333944917" lon="8.015072699636221">
        <ele>1137.8599999999999</ele>
        <time>2019-02-24T14:20:17Z</time>
      </trkpt>
      <trkpt lat="45.763789359480143" lon="8.015053924173117">
        <ele>1137.8599999999999</ele>
        <time>2019-02-24T14:20:19Z</time>
      </trkpt>
      <trkpt lat="45.763736721128225" lon="8.014972619712353">
        <ele>1136.9000000000001</ele>
        <time>2019-02-24T14:20:29Z</time>
      </trkpt>
      <trkpt lat="45.763693889603019" lon="8.014904642477632">
        <ele>1134.97</ele>
        <time>2019-02-24T14:20:37Z</time>
      </trkpt>
      <trkpt lat="45.763684418052435" lon="8.014894500374794">
        <ele>1134.49</ele>
        <time>2019-02-24T14:20:38Z</time>
      </trkpt>
      <trkpt lat="45.763725657016039" lon="8.014829875901341">
        <ele>1133.53</ele>
        <time>2019-02-24T14:20:46Z</time>
      </trkpt>
      <trkpt lat="45.763730853796005" lon="8.014796515926719">
        <ele>1131.6099999999999</ele>
        <time>2019-02-24T14:20:55Z</time>
      </trkpt>
      <trkpt lat="45.763774188235402" lon="8.014779333025217">
        <ele>1128.73</ele>
        <time>2019-02-24T14:21:05Z</time>
      </trkpt>
      <trkpt lat="45.763721968978643" lon="8.014745889231563">
        <ele>1127.28</ele>
        <time>2019-02-24T14:21:17Z</time>
      </trkpt>
      <trkpt lat="45.76375113800168" lon="8.014714205637574">
        <ele>1127.28</ele>
        <time>2019-02-24T14:21:20Z</time>
      </trkpt>
      <trkpt lat="45.763765722513199" lon="8.014712361618877">
        <ele>1127.28</ele>
        <time>2019-02-24T14:21:21Z</time>
      </trkpt>
      <trkpt lat="45.763826910406351" lon="8.014756701886654">
        <ele>1126.8</ele>
        <time>2019-02-24T14:21:30Z</time>
      </trkpt>
      <trkpt lat="45.763837555423379" lon="8.014766592532396">
        <ele>1126.8</ele>
        <time>2019-02-24T14:21:31Z</time>
      </trkpt>
      <trkpt lat="45.763869071379304" lon="8.014779584482312">
        <ele>1127.28</ele>
        <time>2019-02-24T14:21:34Z</time>
      </trkpt>
      <trkpt lat="45.763900838792324" lon="8.01474429666996">
        <ele>1125.8399999999999</ele>
        <time>2019-02-24T14:21:43Z</time>
      </trkpt>
      <trkpt lat="45.763884242624044" lon="8.014742787927389">
        <ele>1125.3599999999999</ele>
        <time>2019-02-24T14:21:44Z</time>
      </trkpt>
      <trkpt lat="45.763848451897502" lon="8.014677492901683">
        <ele>1125.3599999999999</ele>
        <time>2019-02-24T14:21:53Z</time>
      </trkpt>
      <trkpt lat="45.763842836022377" lon="8.014668691903353">
        <ele>1125.3599999999999</ele>
        <time>2019-02-24T14:21:54Z</time>
      </trkpt>
      <trkpt lat="45.763831185176969" lon="8.014654610306025">
        <ele>1125.3599999999999</ele>
        <time>2019-02-24T14:21:55Z</time>
      </trkpt>
      <trkpt lat="45.763822048902512" lon="8.014640109613538">
        <ele>1124.8800000000001</ele>
        <time>2019-02-24T14:21:56Z</time>
      </trkpt>
      <trkpt lat="45.763815259560943" lon="8.014623848721385">
        <ele>1124.4000000000001</ele>
        <time>2019-02-24T14:21:57Z</time>
      </trkpt>
      <trkpt lat="45.763811571523547" lon="8.014607336372137">
        <ele>1124.4000000000001</ele>
        <time>2019-02-24T14:21:58Z</time>
      </trkpt>
      <trkpt lat="45.763755748048425" lon="8.014517482370138">
        <ele>1121.03</ele>
        <time>2019-02-24T14:22:08Z</time>
      </trkpt>
      <trkpt lat="45.763814924284816" lon="8.014490660279989">
        <ele>1118.1500000000001</ele>
        <time>2019-02-24T14:22:15Z</time>
      </trkpt>
      <trkpt lat="45.763889607042074" lon="8.014493342489004">
        <ele>1115.27</ele>
        <time>2019-02-24T14:22:24Z</time>
      </trkpt>
      <trkpt lat="45.763854151591659" lon="8.014451432973146">
        <ele>1113.8199999999999</ele>
        <time>2019-02-24T14:22:32Z</time>
      </trkpt>
      <trkpt lat="45.763883739709854" lon="8.014396280050278">
        <ele>1112.3800000000001</ele>
        <time>2019-02-24T14:22:42Z</time>
      </trkpt>
      <trkpt lat="45.763915339484811" lon="8.014371804893017">
        <ele>1110.9400000000001</ele>
        <time>2019-02-24T14:22:52Z</time>
      </trkpt>
      <trkpt lat="45.763948615640402" lon="8.014360070228577">
        <ele>1109.02</ele>
        <time>2019-02-24T14:23:02Z</time>
      </trkpt>
      <trkpt lat="45.763966636732221" lon="8.014350850135088">
        <ele>1105.6500000000001</ele>
        <time>2019-02-24T14:23:11Z</time>
      </trkpt>
      <trkpt lat="45.763950375840068" lon="8.014300307258964">
        <ele>1103.25</ele>
        <time>2019-02-24T14:23:21Z</time>
      </trkpt>
      <trkpt lat="45.764033608138561" lon="8.014262169599533">
        <ele>1100.8499999999999</ele>
        <time>2019-02-24T14:23:31Z</time>
      </trkpt>
      <trkpt lat="45.764041906222701" lon="8.014236856251955">
        <ele>1100.3699999999999</ele>
        <time>2019-02-24T14:23:34Z</time>
      </trkpt>
      <trkpt lat="45.76404819265008" lon="8.014222104102373">
        <ele>1099.8900000000001</ele>
        <time>2019-02-24T14:23:35Z</time>
      </trkpt>
      <trkpt lat="45.764097310602665" lon="8.014170806854963">
        <ele>1097.48</ele>
        <time>2019-02-24T14:23:42Z</time>
      </trkpt>
      <trkpt lat="45.764120444655418" lon="8.014141637831926">
        <ele>1097</ele>
        <time>2019-02-24T14:23:45Z</time>
      </trkpt>
      <trkpt lat="45.764212477952242" lon="8.014070643112063">
        <ele>1097.96</ele>
        <time>2019-02-24T14:23:55Z</time>
      </trkpt>
      <trkpt lat="45.76427785679698" lon="8.01403627730906">
        <ele>1094.5999999999999</ele>
        <time>2019-02-24T14:24:04Z</time>
      </trkpt>
      <trkpt lat="45.764315742999315" lon="8.014025716111064">
        <ele>1091.23</ele>
        <time>2019-02-24T14:24:10Z</time>
      </trkpt>
      <trkpt lat="45.764370141550899" lon="8.014012388885021">
        <ele>1087.8699999999999</ele>
        <time>2019-02-24T14:24:17Z</time>
      </trkpt>
      <trkpt lat="45.764386234804988" lon="8.014014987275004">
        <ele>1086.9100000000001</ele>
        <time>2019-02-24T14:24:19Z</time>
      </trkpt>
      <trkpt lat="45.764404088258743" lon="8.014037618413568">
        <ele>1085.47</ele>
        <time>2019-02-24T14:24:23Z</time>
      </trkpt>
      <trkpt lat="45.76448162086308" lon="8.014070643112063">
        <ele>1083.0599999999999</ele>
        <time>2019-02-24T14:24:36Z</time>
      </trkpt>
      <trkpt lat="45.764563679695129" lon="8.014091681689024">
        <ele>1082.0999999999999</ele>
        <time>2019-02-24T14:24:47Z</time>
      </trkpt>
      <trkpt lat="45.764621766284108" lon="8.014059327542782">
        <ele>1080.6600000000001</ele>
        <time>2019-02-24T14:24:56Z</time>
      </trkpt>
      <trkpt lat="45.764605421572924" lon="8.014088580384851">
        <ele>1081.1400000000001</ele>
        <time>2019-02-24T14:25:06Z</time>
      </trkpt>
      <trkpt lat="45.764543479308486" lon="8.01409930922091">
        <ele>1080.1800000000001</ele>
        <time>2019-02-24T14:25:17Z</time>
      </trkpt>
      <trkpt lat="45.764509029686451" lon="8.014032170176506">
        <ele>1078.26</ele>
        <time>2019-02-24T14:25:29Z</time>
      </trkpt>
      <trkpt lat="45.764473574236035" lon="8.013962935656309">
        <ele>1076.8099999999999</ele>
        <time>2019-02-24T14:25:35Z</time>
      </trkpt>
      <trkpt lat="45.764415320008993" lon="8.013869812712073">
        <ele>1075.3699999999999</ele>
        <time>2019-02-24T14:25:46Z</time>
      </trkpt>
      <trkpt lat="45.764508107677102" lon="8.013846511021256">
        <ele>1072.01</ele>
        <time>2019-02-24T14:25:54Z</time>
      </trkpt>
      <trkpt lat="45.764589915052056" lon="8.013808373361826">
        <ele>1071.05</ele>
        <time>2019-02-24T14:26:05Z</time>
      </trkpt>
      <trkpt lat="45.764657389372587" lon="8.013788843527436">
        <ele>1067.6800000000001</ele>
        <time>2019-02-24T14:26:16Z</time>
      </trkpt>
      <trkpt lat="45.764680774882436" lon="8.013781970366836">
        <ele>1066.72</ele>
        <time>2019-02-24T14:26:19Z</time>
      </trkpt>
      <trkpt lat="45.764696365222335" lon="8.013756824657321">
        <ele>1066.72</ele>
        <time>2019-02-24T14:26:21Z</time>
      </trkpt>
      <trkpt lat="45.764705501496792" lon="8.013742994517088">
        <ele>1066.72</ele>
        <time>2019-02-24T14:26:22Z</time>
      </trkpt>
      <trkpt lat="45.764716314151883" lon="8.013731762766838">
        <ele>1066.72</ele>
        <time>2019-02-24T14:26:23Z</time>
      </trkpt>
      <trkpt lat="45.764725618064404" lon="8.013721201568842">
        <ele>1066.72</ele>
        <time>2019-02-24T14:26:24Z</time>
      </trkpt>
      <trkpt lat="45.764733580872416" lon="8.013710640370846">
        <ele>1066.72</ele>
        <time>2019-02-24T14:26:25Z</time>
      </trkpt>
      <trkpt lat="45.764806168153882" lon="8.013682896271348">
        <ele>1064.3199999999999</ele>
        <time>2019-02-24T14:26:34Z</time>
      </trkpt>
      <trkpt lat="45.764810023829341" lon="8.013675017282367">
        <ele>1061.4300000000001</ele>
        <time>2019-02-24T14:26:41Z</time>
      </trkpt>
      <trkpt lat="45.764810191467404" lon="8.013704773038626">
        <ele>1057.5899999999999</ele>
        <time>2019-02-24T14:26:44Z</time>
      </trkpt>
      <trkpt lat="45.76483391225338" lon="8.013666551560164">
        <ele>1057.5899999999999</ele>
        <time>2019-02-24T14:26:54Z</time>
      </trkpt>
      <trkpt lat="45.764842545613647" lon="8.013647524639964">
        <ele>1058.55</ele>
        <time>2019-02-24T14:27:12Z</time>
      </trkpt>
      <trkpt lat="45.764876324683428" lon="8.013584911823273">
        <ele>1057.1099999999999</ele>
        <time>2019-02-24T14:27:22Z</time>
      </trkpt>
      <trkpt lat="45.764925610274076" lon="8.013594299554825">
        <ele>1056.1500000000001</ele>
        <time>2019-02-24T14:27:31Z</time>
      </trkpt>
      <trkpt lat="45.764986798167229" lon="8.013613829389215">
        <ele>1057.1099999999999</ele>
        <time>2019-02-24T14:27:40Z</time>
      </trkpt>
      <trkpt lat="45.765079166740179" lon="8.013625731691718">
        <ele>1056.1500000000001</ele>
        <time>2019-02-24T14:27:50Z</time>
      </trkpt>
      <trkpt lat="45.765170278027654" lon="8.013619696721435">
        <ele>1055.1800000000001</ele>
        <time>2019-02-24T14:28:00Z</time>
      </trkpt>
      <trkpt lat="45.765205398201942" lon="8.013620115816593">
        <ele>1054.22</ele>
        <time>2019-02-24T14:28:04Z</time>
      </trkpt>
      <trkpt lat="45.765251079574227" lon="8.013642076402903">
        <ele>1052.78</ele>
        <time>2019-02-24T14:28:10Z</time>
      </trkpt>
      <trkpt lat="45.765262059867382" lon="8.013649871572852">
        <ele>1052.3</ele>
        <time>2019-02-24T14:28:11Z</time>
      </trkpt>
      <trkpt lat="45.765334144234657" lon="8.013684740290046">
        <ele>1048.9400000000001</ele>
        <time>2019-02-24T14:28:18Z</time>
      </trkpt>
      <trkpt lat="45.765362307429314" lon="8.013697564601898">
        <ele>1046.53</ele>
        <time>2019-02-24T14:28:22Z</time>
      </trkpt>
      <trkpt lat="45.765420142561197" lon="8.013733271509409">
        <ele>1046.05</ele>
        <time>2019-02-24T14:28:28Z</time>
      </trkpt>
      <trkpt lat="45.765501111745834" lon="8.013803428038955">
        <ele>1045.5699999999999</ele>
        <time>2019-02-24T14:28:39Z</time>
      </trkpt>
      <trkpt lat="45.765562634915113" lon="8.013844331726432">
        <ele>1042.21</ele>
        <time>2019-02-24T14:28:48Z</time>
      </trkpt>
      <trkpt lat="45.765580488368869" lon="8.013856653124094">
        <ele>1041.25</ele>
        <time>2019-02-24T14:28:50Z</time>
      </trkpt>
      <trkpt lat="45.765659529715776" lon="8.013917086645961">
        <ele>1042.6900000000001</ele>
        <time>2019-02-24T14:29:00Z</time>
      </trkpt>
      <trkpt lat="45.765755586326122" lon="8.013969054445624">
        <ele>1043.1700000000001</ele>
        <time>2019-02-24T14:29:11Z</time>
      </trkpt>
      <trkpt lat="45.765848876908422" lon="8.014035187661648">
        <ele>1043.1700000000001</ele>
        <time>2019-02-24T14:29:21Z</time>
      </trkpt>
      <trkpt lat="45.765853654593229" lon="8.014051280915737">
        <ele>1043.1700000000001</ele>
        <time>2019-02-24T14:29:22Z</time>
      </trkpt>
      <trkpt lat="45.76586103066802" lon="8.014061758294702">
        <ele>1043.1700000000001</ele>
        <time>2019-02-24T14:29:23Z</time>
      </trkpt>
      <trkpt lat="45.765949375927448" lon="8.01411590538919">
        <ele>1041.73</ele>
        <time>2019-02-24T14:29:33Z</time>
      </trkpt>
      <trkpt lat="45.766005283221602" lon="8.014129903167486">
        <ele>1039.3199999999999</ele>
        <time>2019-02-24T14:29:41Z</time>
      </trkpt>
      <trkpt lat="45.76603202149272" lon="8.014103667810559">
        <ele>1038.3599999999999</ele>
        <time>2019-02-24T14:29:45Z</time>
      </trkpt>
      <trkpt lat="45.766120450571179" lon="8.014117246493697">
        <ele>1035.48</ele>
        <time>2019-02-24T14:29:55Z</time>
      </trkpt>
      <trkpt lat="45.766177950426936" lon="8.014155467972159">
        <ele>1033.0699999999999</ele>
        <time>2019-02-24T14:30:04Z</time>
      </trkpt>
      <trkpt lat="45.766229582950473" lon="8.014209615066648">
        <ele>1029.71</ele>
        <time>2019-02-24T14:30:12Z</time>
      </trkpt>
      <trkpt lat="45.76627048663795" lon="8.014201736077666">
        <ele>1027.3099999999999</ele>
        <time>2019-02-24T14:30:21Z</time>
      </trkpt>
      <trkpt lat="45.7663110550493" lon="8.014180026948452">
        <ele>1026.3399999999999</ele>
        <time>2019-02-24T14:30:31Z</time>
      </trkpt>
      <trkpt lat="45.766333267092705" lon="8.014207184314728">
        <ele>1026.8299999999999</ele>
        <time>2019-02-24T14:30:41Z</time>
      </trkpt>
      <trkpt lat="45.766343157738447" lon="8.014222355559468">
        <ele>1024.9000000000001</ele>
        <time>2019-02-24T14:30:46Z</time>
      </trkpt>
      <trkpt lat="45.766325555741787" lon="8.014209698885679">
        <ele>1023.46</ele>
        <time>2019-02-24T14:30:52Z</time>
      </trkpt>
      <trkpt lat="45.766363609582186" lon="8.014214476570487">
        <ele>1023.9400000000001</ele>
        <time>2019-02-24T14:31:10Z</time>
      </trkpt>
      <trkpt lat="45.766374757513404" lon="8.014195868745446">
        <ele>1026.8299999999999</ele>
        <time>2019-02-24T14:31:26Z</time>
      </trkpt>
      <trkpt lat="45.766353467479348" lon="8.014180110767484">
        <ele>1028.27</ele>
        <time>2019-02-24T14:31:33Z</time>
      </trkpt>
      <trkpt lat="45.766359167173505" lon="8.014208106324077">
        <ele>1025.8599999999999</ele>
        <time>2019-02-24T14:31:49Z</time>
      </trkpt>
      <trkpt lat="45.766350198537111" lon="8.014226295053959">
        <ele>1028.75</ele>
        <time>2019-02-24T14:31:59Z</time>
      </trkpt>
      <trkpt lat="45.766354221850634" lon="8.014234341681004">
        <ele>1030.1900000000001</ele>
        <time>2019-02-24T14:32:14Z</time>
      </trkpt>
      <trkpt lat="45.766360843554139" lon="8.014247585088015">
        <ele>1032.5899999999999</ele>
        <time>2019-02-24T14:32:19Z</time>
      </trkpt>
      <trkpt lat="45.76634231954813" lon="8.014326374977827">
        <ele>1035</ele>
        <time>2019-02-24T14:32:33Z</time>
      </trkpt>
      <trkpt lat="45.7663559820503" lon="8.014320088550448">
        <ele>1037.4000000000001</ele>
        <time>2019-02-24T14:32:46Z</time>
      </trkpt>
      <trkpt lat="45.766327986493707" lon="8.014305923134089">
        <ele>1035.96</ele>
        <time>2019-02-24T14:32:54Z</time>
      </trkpt>
      <trkpt lat="45.766280042007565" lon="8.014318998903036">
        <ele>1032.5899999999999</ele>
        <time>2019-02-24T14:33:06Z</time>
      </trkpt>
      <trkpt lat="45.76627928763628" lon="8.014318831264973">
        <ele>1032.1099999999999</ele>
        <time>2019-02-24T14:33:07Z</time>
      </trkpt>
      <trkpt lat="45.766335697844625" lon="8.014297960326076">
        <ele>1032.5899999999999</ele>
        <time>2019-02-24T14:33:20Z</time>
      </trkpt>
      <trkpt lat="45.766346594318748" lon="8.014284800738096">
        <ele>1031.1500000000001</ele>
        <time>2019-02-24T14:33:36Z</time>
      </trkpt>
      <trkpt lat="45.766368554905057" lon="8.014281950891018">
        <ele>1029.71</ele>
        <time>2019-02-24T14:33:41Z</time>
      </trkpt>
      <trkpt lat="45.766412643715739" lon="8.014348335564137">
        <ele>1026.3399999999999</ele>
        <time>2019-02-24T14:33:51Z</time>
      </trkpt>
      <trkpt lat="45.76646008528769" lon="8.014406003057957">
        <ele>1023.46</ele>
        <time>2019-02-24T14:34:00Z</time>
      </trkpt>
      <trkpt lat="45.766520351171494" lon="8.014469789341092">
        <ele>1022.02</ele>
        <time>2019-02-24T14:34:09Z</time>
      </trkpt>
      <trkpt lat="45.766573995351791" lon="8.014536257833242">
        <ele>1019.13</ele>
        <time>2019-02-24T14:34:18Z</time>
      </trkpt>
      <trkpt lat="45.766583969816566" lon="8.014567773789167">
        <ele>1017.6900000000001</ele>
        <time>2019-02-24T14:34:25Z</time>
      </trkpt>
      <trkpt lat="45.766635937616229" lon="8.014572467654944">
        <ele>1016.73</ele>
        <time>2019-02-24T14:34:37Z</time>
      </trkpt>
      <trkpt lat="45.766656557098031" lon="8.014604654163122">
        <ele>1014.8099999999999</ele>
        <time>2019-02-24T14:34:42Z</time>
      </trkpt>
      <trkpt lat="45.766702070832253" lon="8.014646479859948">
        <ele>1011.9299999999999</ele>
        <time>2019-02-24T14:34:52Z</time>
      </trkpt>
      <trkpt lat="45.766747752204537" lon="8.01462410017848">
        <ele>1010.96</ele>
        <time>2019-02-24T14:35:02Z</time>
      </trkpt>
      <trkpt lat="45.766811957582831" lon="8.014643881469965">
        <ele>1008.08</ele>
        <time>2019-02-24T14:35:12Z</time>
      </trkpt>
      <trkpt lat="45.76689200475812" lon="8.014609012752771">
        <ele>1007.6</ele>
        <time>2019-02-24T14:35:22Z</time>
      </trkpt>
      <trkpt lat="45.766948163509369" lon="8.014614041894674">
        <ele>1005.6799999999999</ele>
        <time>2019-02-24T14:35:32Z</time>
      </trkpt>
      <trkpt lat="45.767001137137413" lon="8.014631811529398">
        <ele>1002.79</ele>
        <time>2019-02-24T14:35:41Z</time>
      </trkpt>
      <trkpt lat="45.767064420506358" lon="8.014655783772469">
        <ele>999.42999999999995</ele>
        <time>2019-02-24T14:35:50Z</time>
      </trkpt>
      <trkpt lat="45.767077747732401" lon="8.014713283628225">
        <ele>996.05999999999995</ele>
        <time>2019-02-24T14:35:56Z</time>
      </trkpt>
      <trkpt lat="45.767167937010527" lon="8.014679756015539">
        <ele>993.65999999999997</ele>
        <time>2019-02-24T14:36:07Z</time>
      </trkpt>
      <trkpt lat="45.767225939780474" lon="8.014759887009859">
        <ele>991.74000000000001</ele>
        <time>2019-02-24T14:36:18Z</time>
      </trkpt>
      <trkpt lat="45.767262736335397" lon="8.014838844537735">
        <ele>988.37</ele>
        <time>2019-02-24T14:36:26Z</time>
      </trkpt>
      <trkpt lat="45.767287965863943" lon="8.014907827600837">
        <ele>985.00999999999999</ele>
        <time>2019-02-24T14:36:35Z</time>
      </trkpt>
      <trkpt lat="45.767292995005846" lon="8.014919981360436">
        <ele>984.04999999999995</ele>
        <time>2019-02-24T14:36:37Z</time>
      </trkpt>
      <trkpt lat="45.767335072159767" lon="8.015007823705673">
        <ele>981.63999999999999</ele>
        <time>2019-02-24T14:36:47Z</time>
      </trkpt>
      <trkpt lat="45.767409838736057" lon="8.015076722949743">
        <ele>980.20000000000005</ele>
        <time>2019-02-24T14:36:57Z</time>
      </trkpt>
      <trkpt lat="45.767489466816187" lon="8.015174707397819">
        <ele>977.79999999999995</ele>
        <time>2019-02-24T14:37:09Z</time>
      </trkpt>
      <trkpt lat="45.767550822347403" lon="8.015188034623861">
        <ele>978.75999999999999</ele>
        <time>2019-02-24T14:37:19Z</time>
      </trkpt>
      <trkpt lat="45.767556354403496" lon="8.01522214896977">
        <ele>977.32000000000005</ele>
        <time>2019-02-24T14:37:22Z</time>
      </trkpt>
      <trkpt lat="45.767632462084293" lon="8.015239667147398">
        <ele>975.38999999999999</ele>
        <time>2019-02-24T14:37:33Z</time>
      </trkpt>
      <trkpt lat="45.767705803737044" lon="8.015270931646228">
        <ele>975.38999999999999</ele>
        <time>2019-02-24T14:37:44Z</time>
      </trkpt>
      <trkpt lat="45.767745701596141" lon="8.015333460643888">
        <ele>973.95000000000005</ele>
        <time>2019-02-24T14:37:53Z</time>
      </trkpt>
      <trkpt lat="45.767798339948058" lon="8.015343938022852">
        <ele>974.42999999999995</ele>
        <time>2019-02-24T14:38:05Z</time>
      </trkpt>
      <trkpt lat="45.767785264179111" lon="8.015275374054909">
        <ele>974.42999999999995</ele>
        <time>2019-02-24T14:38:15Z</time>
      </trkpt>
      <trkpt lat="45.767792388796806" lon="8.015184849500656">
        <ele>971.54999999999995</ele>
        <time>2019-02-24T14:38:29Z</time>
      </trkpt>
      <trkpt lat="45.767810912802815" lon="8.015132797881961">
        <ele>970.59000000000003</ele>
        <time>2019-02-24T14:38:38Z</time>
      </trkpt>
      <trkpt lat="45.767876878380775" lon="8.015149980783463">
        <ele>969.14999999999998</ele>
        <time>2019-02-24T14:38:49Z</time>
      </trkpt>
      <trkpt lat="45.767902862280607" lon="8.01513715647161">
        <ele>969.63</ele>
        <time>2019-02-24T14:38:58Z</time>
      </trkpt>
      <trkpt lat="45.767878890037537" lon="8.015081249177456">
        <ele>967.70000000000005</ele>
        <time>2019-02-24T14:39:07Z</time>
      </trkpt>
      <trkpt lat="45.767836142331362" lon="8.015021653845906">
        <ele>965.29999999999995</ele>
        <time>2019-02-24T14:39:16Z</time>
      </trkpt>
      <trkpt lat="45.76780186034739" lon="8.014960130676627">
        <ele>963.38</ele>
        <time>2019-02-24T14:39:26Z</time>
      </trkpt>
      <trkpt lat="45.767808565869927" lon="8.014909755438566">
        <ele>960.00999999999999</ele>
        <time>2019-02-24T14:39:35Z</time>
      </trkpt>
      <trkpt lat="45.767812756821513" lon="8.014886034652591">
        <ele>956.64999999999998</ele>
        <time>2019-02-24T14:39:41Z</time>
      </trkpt>
      <trkpt lat="45.767814684659243" lon="8.014834737405181">
        <ele>956.16999999999996</ele>
        <time>2019-02-24T14:39:49Z</time>
      </trkpt>
      <trkpt lat="45.767822563648224" lon="8.014815375208855">
        <ele>959.04999999999995</ele>
        <time>2019-02-24T14:39:57Z</time>
      </trkpt>
      <trkpt lat="45.767821138724685" lon="8.014808502048254">
        <ele>959.52999999999997</ele>
        <time>2019-02-24T14:39:58Z</time>
      </trkpt>
      <trkpt lat="45.76780186034739" lon="8.014756198972464">
        <ele>958.57000000000005</ele>
        <time>2019-02-24T14:40:10Z</time>
      </trkpt>
      <trkpt lat="45.767865814268589" lon="8.014730382710695">
        <ele>956.64999999999998</ele>
        <time>2019-02-24T14:40:19Z</time>
      </trkpt>
      <trkpt lat="45.767877968028188" lon="8.014766005799174">
        <ele>953.76999999999998</ele>
        <time>2019-02-24T14:40:26Z</time>
      </trkpt>
      <trkpt lat="45.767915518954396" lon="8.014786290004849">
        <ele>952.79999999999995</ele>
        <time>2019-02-24T14:40:37Z</time>
      </trkpt>
      <trkpt lat="45.76789565384388" lon="8.014748152345419">
        <ele>951.36000000000001</ele>
        <time>2019-02-24T14:40:48Z</time>
      </trkpt>
      <trkpt lat="45.767880314961076" lon="8.014695765450597">
        <ele>950.88</ele>
        <time>2019-02-24T14:40:58Z</time>
      </trkpt>
      <trkpt lat="45.767932366579771" lon="8.014675648882985">
        <ele>949.44000000000005</ele>
        <time>2019-02-24T14:41:07Z</time>
      </trkpt>
      <trkpt lat="45.767957177013159" lon="8.014685455709696">
        <ele>947.51999999999998</ele>
        <time>2019-02-24T14:41:16Z</time>
      </trkpt>
      <trkpt lat="45.76795139349997" lon="8.014646815136075">
        <ele>948.48000000000002</ele>
        <time>2019-02-24T14:41:27Z</time>
      </trkpt>
      <trkpt lat="45.767970001325011" lon="8.014603396877646">
        <ele>948</ele>
        <time>2019-02-24T14:41:37Z</time>
      </trkpt>
      <trkpt lat="45.76798458583653" lon="8.014631392434239">
        <ele>945.11000000000001</ele>
        <time>2019-02-24T14:41:42Z</time>
      </trkpt>
      <trkpt lat="45.768046192824841" lon="8.014619322493672">
        <ele>945.11000000000001</ele>
        <time>2019-02-24T14:41:54Z</time>
      </trkpt>
      <trkpt lat="45.768019203096628" lon="8.014573557302356">
        <ele>945.59000000000003</ele>
        <time>2019-02-24T14:42:06Z</time>
      </trkpt>
      <trkpt lat="45.7680275849998" lon="8.014545980840921">
        <ele>947.03999999999996</ele>
        <time>2019-02-24T14:42:16Z</time>
      </trkpt>
      <trkpt lat="45.768020544201136" lon="8.014507004991174">
        <ele>946.07000000000005</ele>
        <time>2019-02-24T14:42:26Z</time>
      </trkpt>
      <trkpt lat="45.767980143427849" lon="8.014519158750773">
        <ele>946.55999999999995</ele>
        <time>2019-02-24T14:42:42Z</time>
      </trkpt>
      <trkpt lat="45.768008138984442" lon="8.014475824311376">
        <ele>946.07000000000005</ele>
        <time>2019-02-24T14:42:50Z</time>
      </trkpt>
      <trkpt lat="45.767995649948716" lon="8.01443743519485">
        <ele>943.19000000000005</ele>
        <time>2019-02-24T14:43:01Z</time>
      </trkpt>
      <trkpt lat="45.768006294965744" lon="8.014416983351111">
        <ele>942.23000000000002</ele>
        <time>2019-02-24T14:43:11Z</time>
      </trkpt>
      <trkpt lat="45.768026914447546" lon="8.01440617069602">
        <ele>941.75</ele>
        <time>2019-02-24T14:43:20Z</time>
      </trkpt>
      <trkpt lat="45.76802859082818" lon="8.014431819319725">
        <ele>941.75</ele>
        <time>2019-02-24T14:43:31Z</time>
      </trkpt>
      <trkpt lat="45.767993135377765" lon="8.014392424374819">
        <ele>942.71000000000004</ele>
        <time>2019-02-24T14:43:40Z</time>
      </trkpt>
      <trkpt lat="45.76797972433269" lon="8.014361914247274">
        <ele>940.30999999999995</ele>
        <time>2019-02-24T14:43:48Z</time>
      </trkpt>
      <trkpt lat="45.767990201711655" lon="8.014322519302368">
        <ele>940.78999999999996</ele>
        <time>2019-02-24T14:44:00Z</time>
      </trkpt>
      <trkpt lat="45.76799875125289" lon="8.014276083558798">
        <ele>940.78999999999996</ele>
        <time>2019-02-24T14:44:09Z</time>
      </trkpt>
      <trkpt lat="45.768011240288615" lon="8.014199221506715">
        <ele>938.86000000000001</ele>
        <time>2019-02-24T14:44:19Z</time>
      </trkpt>
      <trkpt lat="45.768053233623505" lon="8.014161419123411">
        <ele>936.46000000000004</ele>
        <time>2019-02-24T14:44:25Z</time>
      </trkpt>
      <trkpt lat="45.768076200038195" lon="8.014249512925744">
        <ele>935.98000000000002</ele>
        <time>2019-02-24T14:44:32Z</time>
      </trkpt>
      <trkpt lat="45.768101429566741" lon="8.014343725517392">
        <ele>936.46000000000004</ele>
        <time>2019-02-24T14:44:39Z</time>
      </trkpt>
      <trkpt lat="45.768136382102966" lon="8.014357220381498">
        <ele>936.94000000000005</ele>
        <time>2019-02-24T14:44:50Z</time>
      </trkpt>
      <trkpt lat="45.768162533640862" lon="8.014458641409874">
        <ele>935.5</ele>
        <time>2019-02-24T14:45:02Z</time>
      </trkpt>
      <trkpt lat="45.768245095387101" lon="8.014650335535407">
        <ele>935.98000000000002</ele>
        <time>2019-02-24T14:45:14Z</time>
      </trkpt>
      <trkpt lat="45.76832321472466" lon="8.014877401292324">
        <ele>936.46000000000004</ele>
        <time>2019-02-24T14:45:28Z</time>
      </trkpt>
      <trkpt lat="45.768365962430835" lon="8.01500866189599">
        <ele>936.94000000000005</ele>
        <time>2019-02-24T14:45:38Z</time>
      </trkpt>
      <trkpt lat="45.768445003777742" lon="8.015175461769104">
        <ele>937.41999999999996</ele>
        <time>2019-02-24T14:45:52Z</time>
      </trkpt>
      <trkpt lat="45.768464785069227" lon="8.015199936926365">
        <ele>937.41999999999996</ele>
        <time>2019-02-24T14:45:55Z</time>
      </trkpt>
      <trkpt lat="45.768472831696272" lon="8.015211336314678">
        <ele>937.41999999999996</ele>
        <time>2019-02-24T14:45:56Z</time>
      </trkpt>
      <trkpt lat="45.768479621037841" lon="8.015222987160087">
        <ele>937.41999999999996</ele>
        <time>2019-02-24T14:45:57Z</time>
      </trkpt>
      <trkpt lat="45.768487500026822" lon="8.015236984938383">
        <ele>937.41999999999996</ele>
        <time>2019-02-24T14:45:58Z</time>
      </trkpt>
      <trkpt lat="45.768496384844184" lon="8.015249473974109">
        <ele>937.41999999999996</ele>
        <time>2019-02-24T14:45:59Z</time>
      </trkpt>
      <trkpt lat="45.768513819202781" lon="8.015271183103323">
        <ele>937.89999999999998</ele>
        <time>2019-02-24T14:46:08Z</time>
      </trkpt>
      <trkpt lat="45.768476352095604" lon="8.015095833688974">
        <ele>931.64999999999998</ele>
        <time>2019-02-24T14:46:12Z</time>
      </trkpt>
      <trkpt lat="45.768521195277572" lon="8.015191471204162">
        <ele>911.95000000000005</ele>
        <time>2019-02-24T14:46:13Z</time>
      </trkpt>
      <trkpt lat="45.76848984695971" lon="8.015206390991807">
        <ele>906.17999999999995</ele>
        <time>2019-02-24T14:46:15Z</time>
      </trkpt>
      <trkpt lat="45.76842145062983" lon="8.015251066535711">
        <ele>902.33000000000004</ele>
        <time>2019-02-24T14:46:16Z</time>
      </trkpt>
      <trkpt lat="45.768388845026493" lon="8.015271686017513">
        <ele>906.17999999999995</ele>
        <time>2019-02-24T14:46:21Z</time>
      </trkpt>
      <trkpt lat="45.768416421487927" lon="8.015264980494976">
        <ele>909.53999999999996</ele>
        <time>2019-02-24T14:46:27Z</time>
      </trkpt>
      <trkpt lat="45.768422624096274" lon="8.015255844220519">
        <ele>913.87</ele>
        <time>2019-02-24T14:46:30Z</time>
      </trkpt>
      <trkpt lat="45.768430754542351" lon="8.015248384326696">
        <ele>918.67999999999995</ele>
        <time>2019-02-24T14:46:32Z</time>
      </trkpt>
      <trkpt lat="45.768431844189763" lon="8.015241846442223">
        <ele>922.03999999999996</ele>
        <time>2019-02-24T14:46:35Z</time>
      </trkpt>
      <trkpt lat="45.768421702086926" lon="8.015274619683623">
        <ele>925.40999999999997</ele>
        <time>2019-02-24T14:46:45Z</time>
      </trkpt>
      <trkpt lat="45.76841021887958" lon="8.015278056263924">
        <ele>927.80999999999995</ele>
        <time>2019-02-24T14:46:48Z</time>
      </trkpt>
      <trkpt lat="45.768413823097944" lon="8.015256933867931">
        <ele>926.85000000000002</ele>
        <time>2019-02-24T14:47:05Z</time>
      </trkpt>
      <trkpt lat="45.768403764814138" lon="8.015258442610502">
        <ele>927.80999999999995</ele>
        <time>2019-02-24T14:47:20Z</time>
      </trkpt>
      <trkpt lat="45.768413320183754" lon="8.015244277194142">
        <ele>928.76999999999998</ele>
        <time>2019-02-24T14:47:32Z</time>
      </trkpt>
      <trkpt lat="45.7684610132128" lon="8.015250060707331">
        <ele>929.25</ele>
        <time>2019-02-24T14:47:51Z</time>
      </trkpt>
      <trkpt lat="45.768510466441512" lon="8.015251150354743">
        <ele>929.25</ele>
        <time>2019-02-24T14:48:09Z</time>
      </trkpt>
      <trkpt lat="45.768544664606452" lon="8.015245702117682">
        <ele>932.62</ele>
        <time>2019-02-24T14:48:27Z</time>
      </trkpt>
      <trkpt lat="45.768485991284251" lon="8.015220556408167">
        <ele>934.05999999999995</ele>
        <time>2019-02-24T14:48:47Z</time>
      </trkpt>
      <trkpt lat="45.768485320731997" lon="8.015258694067597">
        <ele>934.53999999999996</ele>
        <time>2019-02-24T14:49:04Z</time>
      </trkpt>
      <trkpt lat="45.768499737605453" lon="8.015266405418515">
        <ele>935.98000000000002</ele>
        <time>2019-02-24T14:49:25Z</time>
      </trkpt>
    </trkseg>
  </trk>

</gpx>